# Wetter Temperatur Luftdruck Luftfeuchtigkeit Sichtweite Windgeschwindigkeit Windrichtung Zeit
1 Clouds 10 1012 76 10000 10.29 180 09:34 14.08.2022
2 Clouds 10 1011 76 10000 6.17 180 08:18 14.08.2022
3 Clouds 9 1012 93 10000 1.03 220 05:45 14.08.2022
4 Clouds 9 1011 87 10000 2.57 220 01:48 14.08.2022
5 Clouds 11 1011 76 10000 2.57 230 23:23 13.08.2022
6 Clouds 12 1011 71 10000 3.09 240 22:28 13.08.2022
7 Clouds 7 1011 71 10000 2.13 230 20:56 13.08.2022
8 Fog 12 1010 62 10000 2.57 200 19:49 13.08.2022
9 Fog 12 1010 62 10000 2.57 200 19:19 13.08.2022
10 Clouds 12 1010 66 10000 1.54 0 17:22 13.08.2022
11 Clouds 11 1010 66 10000 1.54 340 15:18 13.08.2022
12 Clouds 10 1010 71 10000 1.03 360 14:24 13.08.2022
13 Clouds 9 1010 81 10000 1.54 210 13:36 13.08.2022
14 Clouds 7 1010 87 10000 0.51 170 11:49 13.08.2022
15 Clouds 6 1010 93 10000 0 0 09:43 13.08.2022
16 Clouds 9 1010 66 10000 1.79 180 07:50 13.08.2022
17 Clouds 11 1011 66 10000 1.03 200 02:33 13.08.2022
18 Clouds 11 1011 71 10000 4.12 180 23:45 12.08.2022
19 Clouds 13 1011 62 10000 3.6 200 21:40 12.08.2022
20 Clear 8 1012 70 10000 1.32 249 19:51 12.08.2022
21 Clouds 13 1011 54 10000 2.57 200 19:26 12.08.2022
22 Clouds 13 1012 54 10000 2.57 200 18:34 12.08.2022
23 Clouds 11 1012 58 10000 4.63 60 16:28 12.08.2022
24 Clouds 9 1012 76 10000 6.71 60 15:31 12.08.2022
25 Clouds 9 1012 71 10000 7.2 50 14:27 12.08.2022
26 Clouds 8 1012 81 10000 6.71 40 12:51 12.08.2022
27 Clouds 5 1013 86 10000 5.81 40 09:51 12.08.2022
28 Clouds 6 1013 81 10000 4.12 40 07:47 12.08.2022
29 Clouds 6 1013 81 10000 4.12 30 06:31 12.08.2022
30 Clouds 8 1013 71 10000 4.12 30 02:22 12.08.2022
31 Clear 9 1012 66 10000 3.6 10 00:23 12.08.2022
32 Clear 10 1012 66 10000 3.09 20 23:35 11.08.2022
33 Clouds 9 1012 71 10000 3.09 350 22:24 11.08.2022
34 Clouds 10 1010 76 10000 2.68 320 21:39 11.08.2022
35 Clouds 10 1010 76 10000 3.09 320 20:45 11.08.2022
36 Clouds 10 1010 76 10000 3.09 320 20:18 11.08.2022
37 Clouds 11 1010 71 10000 2.57 330 19:32 11.08.2022
38 Clouds 12 1009 71 10000 1.03 0 17:48 11.08.2022
39 Clouds 10 1009 76 10000 0.51 340 16:34 11.08.2022
40 Clouds 9 1008 87 10000 2.06 20 15:21 11.08.2022
41 Fog 6 1007 100 10000 2.06 10 12:44 11.08.2022
42 Clouds 6 1006 100 10000 3.6 60 10:27 11.08.2022
43 Rain 5 1005 100 250 4.63 30 07:38 11.08.2022
44 Clouds 6 1007 89 10000 3.53 12 03:52 11.08.2022
45 Rain 7 1005 93 10000 1.03 300 00:37 11.08.2022
46 Clouds 8 1005 93 10000 2.57 60 22:32 10.08.2022
47 Clouds 7 1005 93 10000 2.06 40 21:25 10.08.2022
48 Clouds 5 1008 100 10000 1.79 190 20:55 10.08.2022
49 Fog 5 1006 100 10000 1.34 330 19:31 10.08.2022
50 Fog 5 1006 100 2400 1.54 330 18:22 10.08.2022
51 Drizzle 5 1007 93 700 2.68 200 16:41 10.08.2022
52 Fog 4 1008 100 200 3.6 220 13:36 10.08.2022
53 Fog 4 1008 100 250 3.6 220 12:44 10.08.2022
54 Clouds 5 1008 93 10000 3.6 200 09:25 10.08.2022
55 Clouds 5 1008 93 10000 1.54 220 08:34 10.08.2022
56 Clouds 4 1008 100 10000 1.54 190 07:20 10.08.2022
57 Clouds 4 1008 100 10000 2.57 200 03:32 10.08.2022
58 Clouds 5 1009 93 10000 2.24 220 23:51 09.08.2022
59 Clouds 5 1008 93 10000 2.57 220 23:24 09.08.2022
60 Clouds 5 1007 93 10000 4.12 220 21:36 09.08.2022
61 Clouds 5 1007 93 10000 3.6 220 20:40 09.08.2022
62 Clouds 6 1006 87 10000 3.6 210 18:45 09.08.2022
63 Clouds 6 1006 87 10000 3.6 200 17:31 09.08.2022
64 Clouds 5 1005 93 10000 3.6 200 16:42 09.08.2022
65 Clouds 5 1005 93 10000 2.68 200 15:59 09.08.2022
66 Fog 5 1004 93 6000 2.06 190 14:28 09.08.2022
67 Fog 4 1002 93 10000 1.03 260 10:39 09.08.2022
68 Clouds 4 1001 100 10000 1.79 270 08:51 09.08.2022
69 Clouds 4 1001 100 10000 0.89 260 07:54 09.08.2022
70 Clouds 4 1000 93 5000 3.6 300 04:31 09.08.2022
71 Clouds 5 997 93 10000 3.58 330 23:58 08.08.2022
72 Clouds 5 997 86 10000 2.68 340 22:57 08.08.2022
73 Clouds 5 997 87 10000 3.09 340 22:35 08.08.2022
74 Clouds 5 997 87 10000 2.57 360 21:30 08.08.2022
75 Clouds 5 996 86 10000 5.36 330 19:57 08.08.2022
76 Clouds 6 996 87 10000 5.66 330 19:22 08.08.2022
77 Clouds 6 996 87 10000 5.14 320 17:47 08.08.2022
78 Clouds 5 996 93 10000 4.12 330 15:46 08.08.2022
79 Clouds 5 996 93 10000 3.09 360 14:45 08.08.2022
80 Fog 4 996 100 7000 3.6 360 12:29 08.08.2022
81 Clouds 4 997 93 10000 3.09 10 10:25 08.08.2022
82 Clouds 4 998 93 10000 4.12 10 07:49 08.08.2022
83 Clouds 5 1000 93 10000 4.02 340 03:39 08.08.2022
84 Fog 6 1001 87 10000 5.14 330 23:28 07.08.2022
85 Clouds 6 1001 87 10000 2.06 350 21:41 07.08.2022
86 Clouds 7 1001 81 10000 2.24 20 20:55 07.08.2022
87 Clouds 7 1001 81 10000 2.57 20 20:18 07.08.2022
88 Clouds 5 1001 86 10000 2.24 340 19:51 07.08.2022
89 Clouds 6 1001 87 10000 2.06 330 18:41 07.08.2022
90 Clouds 5 1002 93 10000 1.03 340 17:22 07.08.2022
91 Clouds 4 1002 100 10000 0.89 240 16:51 07.08.2022
92 Drizzle 4 1002 100 4500 1.54 200 15:26 07.08.2022
93 Clouds 4 1003 93 10000 2.24 230 13:55 07.08.2022
94 Drizzle 4 1002 93 5000 3.6 250 12:38 07.08.2022
95 Clouds 4 1001 100 10000 3.09 270 10:42 07.08.2022
96 Clouds 4 1003 100 10000 2.24 270 09:56 07.08.2022
97 Mist 4 1000 100 2600 2.06 290 04:33 07.08.2022
98 Clouds 4 1000 100 7530 2.68 320 01:59 07.08.2022
99 Clouds 6 999 87 10000 1.54 350 22:33 06.08.2022
100 Clouds 5 999 93 10000 2.68 350 21:52 06.08.2022
101 Clouds 7 999 93 10000 4.63 330 19:46 06.08.2022
102 Clouds 7 999 93 10000 2.57 350 18:38 06.08.2022
103 Clouds 8 999 87 10000 3.09 350 17:45 06.08.2022
104 Clouds 9 1000 87 10000 2.68 40 16:24 06.08.2022
105 Clouds 5 1001 100 10000 5.81 20 13:51 06.08.2022
106 Fog 6 1002 100 10000 5.14 30 12:27 06.08.2022
107 Fog 6 1002 100 10000 5.14 30 12:27 06.08.2022
108 Fog 6 1002 100 10000 5.14 30 11:21 06.08.2022
109 Fog 6 1003 100 4000 3.6 40 09:41 06.08.2022
110 Clouds 6 1005 100 10000 6.17 200 04:43 06.08.2022
111 Clouds 7 1006 93 10000 8.23 200 01:47 06.08.2022
112 Clouds 9 1005 81 10000 11.83 170 22:36 05.08.2022
113 Clouds 9 1005 81 10000 12.35 160 21:18 05.08.2022
114 Clouds 8 1004 87 10000 15.95 170 19:18 05.08.2022
115 Rain 8 1003 87 8000 16.99 170 18:41 05.08.2022
116 Rain 7 1006 93 10000 14.85 171 16:53 05.08.2022
117 Rain 7 1006 92 10000 15.43 171 15:55 05.08.2022
118 Rain 8 1002 93 4000 19.03 170 14:54 05.08.2022
119 Clouds 8 1002 93 10000 17.49 170 13:39 05.08.2022
120 Clouds 8 1002 93 10000 17.49 170 13:19 05.08.2022
121 Rain 8 1006 88 10000 17.06 170 11:58 05.08.2022
122 Clouds 10 1003 76 10000 16.46 170 10:24 05.08.2022
123 Rain 9 1006 76 10000 15.88 165 07:58 05.08.2022
124 Snow 12 1005 66 5000 13.89 160 05:25 05.08.2022
125 Clouds 9 1008 76 10000 11.18 170 23:50 04.08.2022
126 Clouds 9 1008 76 10000 11.18 170 23:50 04.08.2022
127 Clouds 8 1007 87 10000 16.99 170 21:39 04.08.2022
128 Clouds 8 1007 87 10000 16.99 170 21:21 04.08.2022
129 Rain 7 1006 93 2000 17.49 170 20:40 04.08.2022
130 Rain 7 1006 87 2000 17.49 170 19:21 04.08.2022
131 Rain 7 1004 93 4000 17.49 170 18:34 04.08.2022
132 Rain 7 1003 87 4000 18.52 170 17:28 04.08.2022
133 Rain 8 999 81 4700 21.61 160 13:35 04.08.2022
134 Rain 8 999 81 6000 13.38 160 11:46 04.08.2022
135 Snow 9 999 71 10000 10.8 170 10:48 04.08.2022
136 Rain 7 1001 87 10000 14.65 165 07:51 04.08.2022
137 Clouds 9 999 93 10000 7.05 159 04:28 04.08.2022
138 Clouds 9 1000 93 10000 5.12 135 02:20 04.08.2022
139 Rain 9 998 93 10000 0.51 250 23:43 03.08.2022
140 Clouds 9 999 87 4937 1.79 30 21:50 03.08.2022
141 Rain 9 999 87 10000 4.12 40 20:37 03.08.2022
142 Rain 10 1000 81 10000 5.66 40 19:29 03.08.2022
143 Clouds 10 1003 76 10000 4.92 30 17:58 03.08.2022
144 Clouds 9 1004 87 10000 4.63 30 16:24 03.08.2022
145 Clouds 9 1004 87 10000 4.63 30 16:24 03.08.2022
146 Clouds 8 1006 93 10000 5.14 40 14:45 03.08.2022
147 Clouds 10 1008 76 10000 5.66 200 12:30 03.08.2022
148 Clouds 9 1010 87 10000 5.14 40 08:26 03.08.2022
149 Clouds 9 1013 87 10000 4.63 30 04:47 03.08.2022
150 Clouds 10 1014 81 10000 3.6 30 03:30 03.08.2022
151 Clouds 10 1015 81 10000 2.57 190 01:35 03.08.2022
152 Clouds 11 1016 76 10000 3.6 190 23:18 02.08.2022
153 Clouds 8 1017 88 10000 2.59 178 21:55 02.08.2022
154 Clouds 12 1016 66 10000 5.14 210 21:30 02.08.2022
155 Clouds 7 1017 91 10000 3.54 168 18:59 02.08.2022
156 Clouds 12 1016 66 10000 7.2 190 16:27 02.08.2022
157 Clouds 7 1016 89 10000 5.89 184 12:55 02.08.2022
158 Clouds 8 1013 87 10000 3.6 190 09:42 02.08.2022
159 Clouds 8 1014 82 10000 2.93 104 07:56 02.08.2022
160 Clouds 9 1012 81 10000 1.79 10 07:25 02.08.2022
161 Clouds 9 1012 81 10000 5.36 190 04:55 02.08.2022
162 Clouds 9 1011 81 10000 3.6 0 01:26 02.08.2022
163 Clouds 9 1012 76 10000 8.05 190 22:57 01.08.2022
164 Clouds 10 1011 76 10000 7.15 200 20:57 01.08.2022
165 Clouds 10 1008 76 10000 7.2 200 19:41 01.08.2022
166 Clouds 10 1009 76 10000 7.15 200 18:53 01.08.2022
167 Clouds 8 1008 88 10000 2.45 180 16:54 01.08.2022
168 Rain 10 1007 93 10000 5.36 200 16:29 01.08.2022
169 Rain 9 1006 100 10000 5.66 200 15:33 01.08.2022
170 Clouds 10 1006 81 10000 2.57 190 14:43 01.08.2022
171 Clouds 10 1006 81 10000 1.54 120 12:57 01.08.2022
172 Clouds 11 1004 71 10000 1.03 230 10:47 01.08.2022
173 Clouds 8 1005 77 10000 2.54 71 08:45 01.08.2022
174 Clouds 8 1005 79 10000 2.63 98 06:50 01.08.2022
175 Clouds 9 1005 76 10000 4.92 190 04:31 01.08.2022
176 Clouds 9 1005 76 10000 4.92 190 00:58 01.08.2022
177 Clouds 10 1005 71 10000 5.14 210 22:44 31.07.2022
178 Clouds 10 1005 71 10000 5.14 210 22:18 31.07.2022
179 Clouds 10 1005 71 10000 4.63 200 20:21 31.07.2022
180 Clouds 9 1006 76 10000 3.6 200 18:39 31.07.2022
181 Fog 9 1006 76 10000 4.12 210 16:26 31.07.2022
182 Clouds 8 1007 81 10000 4.63 200 14:33 31.07.2022
183 Clouds 7 1008 87 10000 4.02 200 12:55 31.07.2022
184 Clouds 6 1007 93 10000 5.66 200 11:37 31.07.2022
185 Clouds 6 1008 87 10000 4.63 190 08:46 31.07.2022
186 Clouds 8 1008 76 10000 6.17 200 05:20 31.07.2022
187 Clouds 9 1009 76 10000 4.92 200 01:20 31.07.2022
188 Clouds 10 1009 71 10000 7.72 210 22:46 30.07.2022
189 Clouds 7 1011 88 10000 5.08 172 21:50 30.07.2022
190 Clouds 12 1009 66 10000 7.2 200 21:32 30.07.2022
191 Clouds 12 1009 66 10000 7.72 200 20:33 30.07.2022
192 Clouds 8 1011 88 10000 5.75 171 19:50 30.07.2022
193 Clouds 10 1011 76 10000 3.58 210 17:53 30.07.2022
194 Clouds 11 1010 71 10000 7.15 210 16:38 30.07.2022
195 Clouds 10 1010 76 10000 7.2 210 15:30 30.07.2022
196 Clouds 8 1010 81 10000 5.14 200 13:23 30.07.2022
197 Clouds 8 1010 87 10000 3.09 190 12:22 30.07.2022
198 Clouds 7 1011 87 10000 3.19 161 11:51 30.07.2022
199 Clouds 8 1010 81 10000 3.47 164 10:19 30.07.2022
200 Clouds 7 1011 88 10000 3.81 165 08:55 30.07.2022
201 Rain 9 1010 76 2200 3.98 161 07:33 30.07.2022
202 Clouds 12 1009 66 5000 7.59 175 02:33 30.07.2022
203 Clouds 12 1008 62 10000 11.83 180 00:30 30.07.2022
204 Clouds 11 1007 71 10000 13.89 180 21:38 29.07.2022
205 Clouds 9 1009 81 10000 12.07 190 20:51 29.07.2022
206 Clouds 8 1007 87 10000 10.8 200 19:47 29.07.2022
207 Clouds 9 1007 81 10000 3.6 220 17:34 29.07.2022
208 Clouds 8 1008 87 10000 6.71 210 14:51 29.07.2022
209 Clouds 7 1008 87 10000 8.94 200 12:55 29.07.2022
210 Snow 7 1005 87 10000 1.54 360 09:34 29.07.2022
211 Snow 8 1005 76 10000 1.54 0 08:41 29.07.2022
212 Snow 7 1005 87 10000 1.54 210 07:30 29.07.2022
213 Clouds 7 1006 81 10000 1.54 240 01:46 29.07.2022
214 Clouds 7 1007 79 10000 3.78 295 21:54 28.07.2022
215 Clouds 7 1007 79 10000 5.06 292 20:54 28.07.2022
216 Clouds 9 1006 76 10000 3.09 230 20:22 28.07.2022
217 Clouds 13 1006 58 10000 1.03 0 19:41 28.07.2022
218 Clouds 11 1006 66 10000 2.06 330 18:26 28.07.2022
219 Clouds 10 1006 66 10000 3.09 30 17:42 28.07.2022
220 Fog 8 1006 93 10000 3.6 10 16:41 28.07.2022
221 Clouds 6 1007 82 10000 3.07 318 14:58 28.07.2022
222 Fog 3 1007 100 400 4.63 30 12:49 28.07.2022
223 Snow 3 1007 100 250 4.12 20 09:45 28.07.2022
224 Snow 3 1007 100 350 3.09 20 06:24 28.07.2022
225 Clouds 3 1007 100 400 6.17 20 05:26 28.07.2022
226 Clouds 6 1008 93 10000 4.12 360 00:45 28.07.2022
227 Clouds 8 1008 81 10000 4.12 350 22:31 27.07.2022
228 Clouds 7 1009 82 10000 8.43 323 20:56 27.07.2022
229 Clouds 10 1008 76 10000 3.09 10 19:34 27.07.2022
230 Clouds 8 1009 87 10000 4.12 50 17:23 27.07.2022
231 Clear 8 1010 76 10000 4.34 339 15:52 27.07.2022
232 Clear 5 1010 100 10000 4.02 20 14:55 27.07.2022
233 Fog 5 1010 100 500 4.12 20 14:33 27.07.2022
234 Fog 4 1010 100 200 4.63 10 12:49 27.07.2022
235 Clouds 5 1011 91 10000 4.26 342 07:53 27.07.2022
236 Clouds 5 1011 91 10000 4.58 343 07:53 27.07.2022
237 Clouds 5 1011 100 6000 5.14 30 06:19 27.07.2022
238 Clouds 6 1012 93 10000 2.06 350 00:48 27.07.2022
239 Clouds 8 1012 81 10000 3.09 340 22:26 26.07.2022
240 Clouds 8 1011 81 10000 2.06 30 21:20 26.07.2022
241 Clouds 7 1011 93 10000 0.51 0 20:25 26.07.2022
242 Clouds 7 1011 87 10000 2.06 190 18:42 26.07.2022
243 Clouds 7 1013 87 10000 1.79 200 17:58 26.07.2022
244 Clouds 5 1013 88 10000 2.79 289 15:59 26.07.2022
245 Clouds 5 1013 88 10000 2.55 278 15:18 26.07.2022
246 Clouds 5 1011 100 10000 4.12 190 13:20 26.07.2022
247 Clouds 5 1013 91 10000 1.62 256 10:59 26.07.2022
248 Clouds 5 1013 91 10000 1.92 282 08:55 26.07.2022
249 Snow 5 1011 93 750 6.69 210 05:49 26.07.2022
250 Clouds 9 1010 76 10000 2.06 320 00:37 26.07.2022
251 Clouds 6 1011 89 10000 4.66 302 22:53 25.07.2022
252 Clouds 11 1009 71 10000 3.09 280 22:25 25.07.2022
253 Clouds 11 1009 71 10000 3.09 240 21:41 25.07.2022
254 Clouds 11 1009 66 10000 3.09 210 20:41 25.07.2022
255 Clouds 11 1009 66 10000 3.09 230 19:33 25.07.2022
256 Clouds 11 1008 71 10000 3.6 200 18:18 25.07.2022
257 Clouds 10 1009 76 10000 1.54 0 17:27 25.07.2022
258 Clouds 5 1009 100 10000 0.89 350 14:59 25.07.2022
259 Fog 4 1009 93 1000 1.03 240 12:22 25.07.2022
260 Clouds 5 1010 95 10000 2.32 242 09:58 25.07.2022
261 Mist 6 1009 93 2300 4.12 220 04:38 25.07.2022
262 Clouds 7 1009 85 10000 4.35 321 23:54 24.07.2022
263 Clouds 12 1008 66 10000 4.12 30 23:18 24.07.2022
264 Clouds 13 1008 67 10000 3.6 20 22:34 24.07.2022
265 Clouds 13 1007 67 10000 2.57 340 21:25 24.07.2022
266 Clouds 9 1009 79 10000 6.31 320 20:51 24.07.2022
267 Clouds 14 1008 62 10000 3.09 350 20:26 24.07.2022
268 Clouds 9 1009 77 10000 6.82 320 18:56 24.07.2022
269 Clouds 12 1009 71 10000 3.6 20 16:48 24.07.2022
270 Clouds 12 1009 66 10000 4.02 30 15:51 24.07.2022
271 Clouds 10 1010 81 10000 3.6 30 14:38 24.07.2022
272 Clouds 7 1011 93 10000 4.92 10 12:55 24.07.2022
273 Clouds 7 1011 93 10000 5.14 10 12:18 24.07.2022
274 Fog 7 1011 93 10000 5.66 20 11:26 24.07.2022
275 Clouds 7 1013 93 10000 4.92 20 08:56 24.07.2022
276 Clouds 7 1013 93 10000 3.58 30 07:52 24.07.2022
277 Clouds 8 1013 87 10000 3.6 10 06:27 24.07.2022
278 Clouds 9 1016 81 10000 5.36 20 01:50 24.07.2022
279 Clouds 13 1017 67 10000 3.6 320 22:25 23.07.2022
280 Clouds 16 1017 51 10000 3.6 40 20:35 23.07.2022
281 Clouds 10 1018 74 10000 4.8 307 18:51 23.07.2022
282 Clouds 14 1018 62 10000 3.6 40 17:41 23.07.2022
283 Clouds 14 1018 62 10000 3.6 40 17:23 23.07.2022
284 Clouds 11 1019 76 10000 2.57 30 15:42 23.07.2022
285 Clouds 9 1019 81 10000 2.68 360 14:59 23.07.2022
286 Clouds 9 1019 81 10000 3.09 360 14:36 23.07.2022
287 Clouds 7 1020 87 10000 1.34 360 13:50 23.07.2022
288 Fog 8 1020 87 10000 1.54 30 11:46 23.07.2022
289 Clouds 8 1020 87 10000 1.54 360 10:28 23.07.2022
290 Clouds 6 1021 93 10000 2.57 20 09:26 23.07.2022
291 Clouds 5 1022 100 10000 1.34 190 05:58 23.07.2022
292 Clear 8 1022 81 10000 0.89 230 02:54 23.07.2022
293 Clouds 8 1022 81 10000 2.24 190 23:57 22.07.2022
294 Clouds 8 1022 81 10000 5.14 190 21:18 22.07.2022
295 Clouds 10 1021 76 10000 5.36 200 19:55 22.07.2022
296 Clouds 10 1021 76 10000 4.47 190 18:36 22.07.2022
297 Clouds 11 1021 76 10000 4.63 190 17:37 22.07.2022
298 Clouds 11 1021 71 10000 5.14 200 15:30 22.07.2022
299 Clouds 12 1020 71 10000 1.03 190 12:33 22.07.2022
300 Clouds 12 1019 71 10000 2.06 70 09:45 22.07.2022
301 Clouds 12 1019 71 10000 2.06 70 09:19 22.07.2022
302 Clouds 13 1018 67 10000 3.6 60 07:23 22.07.2022
303 Clouds 12 1018 71 6000 2.06 20 04:18 22.07.2022
304 Clouds 15 1017 58 10000 7.72 190 23:27 21.07.2022
305 Clouds 14 1017 67 10000 6.69 190 21:37 21.07.2022
306 Clouds 15 1016 67 10000 9.77 180 19:35 21.07.2022
307 Clouds 15 1015 67 10000 7.72 200 18:29 21.07.2022
308 Clouds 16 1015 59 10000 7.2 180 17:20 21.07.2022
309 Clouds 13 1015 71 10000 9.77 190 15:39 21.07.2022
310 Clouds 14 1014 67 10000 9.77 170 14:46 21.07.2022
311 Clouds 14 1014 67 10000 6.17 180 13:22 21.07.2022
312 Clouds 15 1013 63 10000 12.35 160 11:42 21.07.2022
313 Clouds 14 1012 67 10000 10.8 160 09:44 21.07.2022
314 Clouds 9 1013 80 10000 5.23 159 08:53 21.07.2022
315 Clouds 9 1013 85 10000 3.4 141 07:50 21.07.2022
316 Clouds 15 1012 67 7000 11.32 160 06:25 21.07.2022
317 Clouds 10 1011 87 10000 6.17 210 02:23 21.07.2022
318 Clouds 11 1010 82 10000 11.83 180 22:24 20.07.2022
319 Clouds 9 1010 93 10000 10.29 190 21:49 20.07.2022
320 Clouds 10 1009 87 10000 7.2 200 20:46 20.07.2022
321 Clouds 10 1009 87 10000 7.72 200 19:46 20.07.2022
322 Clouds 8 1011 95 10000 4.03 170 18:53 20.07.2022
323 Clouds 11 1009 87 10000 8.23 190 18:30 20.07.2022
324 Clouds 12 1008 76 10000 3.09 40 17:24 20.07.2022
325 Clouds 12 1008 76 10000 5.66 40 15:32 20.07.2022
326 Clouds 11 1008 82 10000 1.54 0 14:35 20.07.2022
327 Clouds 10 1009 81 10000 0.89 170 12:51 20.07.2022
328 Clouds 11 1008 76 10000 0.51 0 10:29 20.07.2022
329 Clouds 7 1009 85 10000 0.66 15 05:52 20.07.2022
330 Clouds 15 1007 63 10000 2.06 240 01:40 20.07.2022
331 Clouds 16 1007 59 10000 2.57 270 00:41 20.07.2022
332 Clouds 17 1007 55 10000 4.12 260 22:35 19.07.2022
333 Clouds 10 1007 75 10000 4.12 296 21:54 19.07.2022
334 Clouds 16 1007 55 10000 3.6 30 20:49 19.07.2022
335 Clouds 16 1007 59 10000 2.57 30 19:22 19.07.2022
336 Clouds 15 1007 67 10000 3.6 30 18:41 19.07.2022
337 Clouds 10 1008 78 10000 1.17 338 17:54 19.07.2022
338 Clouds 12 1008 76 10000 3.6 30 15:49 19.07.2022
339 Clouds 10 1008 81 10000 1.03 240 13:37 19.07.2022
340 Clouds 8 1009 87 10000 1.03 300 11:33 19.07.2022
341 Clouds 8 1009 87 10000 2.24 180 09:53 19.07.2022
342 Clouds 8 1008 87 10000 1.03 0 08:48 19.07.2022
343 Clouds 8 1008 87 10000 2.68 40 07:57 19.07.2022
344 Clouds 8 1008 87 10000 3.09 40 07:18 19.07.2022
345 Snow 10 1008 76 10000 1.54 50 05:19 19.07.2022
346 Clouds 9 1008 76 10000 0.51 130 04:40 19.07.2022
347 Clouds 10 1008 62 10000 2.06 200 00:18 19.07.2022
348 Clouds 10 1008 62 10000 1.54 200 23:20 18.07.2022
349 Clouds 11 1008 58 10000 3.09 190 22:42 18.07.2022
350 Clouds 11 1008 62 10000 3.6 200 21:26 18.07.2022
351 Clouds 12 1008 58 10000 2.57 220 20:45 18.07.2022
352 Clouds 12 1008 54 10000 2.57 200 19:21 18.07.2022
353 Clouds 10 1009 76 10000 1.54 320 16:45 18.07.2022
354 Clouds 10 1009 76 10000 1.03 300 15:40 18.07.2022
355 Clouds 9 1009 87 10000 0.51 320 13:40 18.07.2022
356 Clouds 8 1009 93 10000 0.51 300 12:29 18.07.2022
357 Clouds 8 1010 87 10000 1.03 330 10:24 18.07.2022
358 Clouds 7 1010 93 10000 1.03 0 08:20 18.07.2022
359 Clouds 7 1009 87 10000 3.6 220 06:48 18.07.2022
360 Rain 9 1007 81 10000 13.38 190 23:30 17.07.2022
361 Rain 8 1007 87 10000 11.62 170 22:32 17.07.2022
362 Rain 10 1007 76 10000 11.83 170 21:43 17.07.2022
363 Rain 8 1009 84 10000 10 171 20:53 17.07.2022
364 Clouds 10 1007 71 10000 12.86 150 20:35 17.07.2022
365 Rain 9 1006 76 10000 14.92 160 19:26 17.07.2022
366 Rain 9 1006 76 10000 11.83 170 18:26 17.07.2022
367 Rain 7 1007 87 10000 9.77 180 17:37 17.07.2022
368 Rain 7 1009 89 10000 8.39 164 16:50 17.07.2022
369 Rain 7 1007 87 10000 9.26 180 16:25 17.07.2022
370 Rain 7 1007 87 10000 6.17 180 14:32 17.07.2022
371 Rain 8 1007 87 10000 4.12 170 13:30 17.07.2022
372 Rain 9 1007 71 10000 9.77 160 11:32 17.07.2022
373 Clouds 7 1008 81 10000 4.02 180 08:50 17.07.2022
374 Clouds 7 1008 76 10000 6.17 190 03:43 17.07.2022
375 Clouds 7 1008 76 10000 7.2 200 02:21 17.07.2022
376 Clouds 7 1008 76 10000 10.29 200 23:20 16.07.2022
377 Clouds 6 1008 81 10000 9.77 180 21:25 16.07.2022
378 Clouds 5 1008 81 10000 10.29 190 19:26 16.07.2022
379 Clouds 5 1007 87 10000 9.77 200 18:27 16.07.2022
380 Clouds 4 1008 100 10000 7.2 200 16:31 16.07.2022
381 Drizzle 3 1007 100 500 7.2 200 13:49 16.07.2022
382 Clouds 4 1008 87 10000 3.93 177 10:53 16.07.2022
383 Fog 3 1006 100 900 5.14 200 09:33 16.07.2022
384 Clouds 3 1006 100 750 6.17 210 08:43 16.07.2022
385 Clouds 3 1006 100 750 6.17 210 08:19 16.07.2022
386 Clouds 4 1006 86 10000 4.08 183 03:58 16.07.2022
387 Mist 4 1004 100 1600 6.17 210 02:49 16.07.2022
388 Fog 4 1003 93 5000 5.66 200 23:30 15.07.2022
389 Fog 5 1003 93 1400 7.2 210 22:40 15.07.2022
390 Clouds 5 1002 93 10000 6.71 220 21:29 15.07.2022
391 Fog 6 1002 87 10000 7.2 210 20:26 15.07.2022
392 Clouds 6 1001 87 10000 7.2 210 18:42 15.07.2022
393 Clouds 6 1001 87 10000 7.2 210 17:38 15.07.2022
394 Clear 4 1001 100 10000 4.92 220 14:54 15.07.2022
395 Clear 4 1001 100 10000 7.15 200 12:58 15.07.2022
396 Fog 4 1000 100 300 9.26 200 11:27 15.07.2022
397 Fog 4 1000 100 200 7.72 210 10:23 15.07.2022
398 Mist 7 999 81 3100 9.26 200 06:30 15.07.2022
399 Clouds 8 999 72 10000 2.84 275 00:58 15.07.2022
400 Clouds 9 999 66 10000 3.35 300 00:21 15.07.2022
401 Clouds 10 998 63 10000 3.1 310 22:52 14.07.2022
402 Clouds 10 998 60 10000 3.08 322 21:51 14.07.2022
403 Clouds 16 997 36 10000 2.57 260 21:29 14.07.2022
404 Clouds 16 997 33 10000 2.57 200 20:45 14.07.2022
405 Clouds 16 997 33 10000 2.57 200 20:21 14.07.2022
406 Clouds 15 997 36 10000 2.06 210 19:19 14.07.2022
407 Clouds 12 999 58 10000 5.14 200 16:23 14.07.2022
408 Clouds 11 999 62 10000 3.09 190 15:34 14.07.2022
409 Clouds 11 999 54 10000 4.12 60 14:31 14.07.2022
410 Clouds 9 1000 70 10000 5.81 50 12:58 14.07.2022
411 Clouds 9 1001 70 10000 7.15 50 11:56 14.07.2022
412 Clouds 9 1001 71 10000 7.2 50 11:24 14.07.2022
413 Clouds 9 1001 76 10000 5.14 40 10:37 14.07.2022
414 Clouds 9 1003 76 10000 6.71 60 07:55 14.07.2022
415 Clear 12 1008 66 10000 3.6 20 01:27 14.07.2022
416 Clear 8 1007 73 10000 6.73 344 00:54 14.07.2022
417 Clouds 13 1009 62 10000 3.09 40 23:35 13.07.2022
418 Clouds 12 1010 71 10000 2.57 360 22:23 13.07.2022
419 Clouds 13 1010 62 10000 4.12 40 21:21 13.07.2022
420 Clouds 12 1011 71 10000 4.12 40 20:23 13.07.2022
421 Clouds 9 1013 87 10000 5.36 50 17:56 13.07.2022
422 Clouds 7 1013 100 10000 6.17 40 16:59 13.07.2022
423 Clouds 5 1014 100 10000 4.02 20 15:51 13.07.2022
424 Fog 5 1014 93 1200 1.03 350 13:24 13.07.2022
425 Fog 4 1015 100 500 0.51 200 10:47 13.07.2022
426 Drizzle 4 1015 100 500 0.51 200 10:28 13.07.2022
427 Snow 4 1015 100 350 1.54 170 09:28 13.07.2022
428 Rain 5 1016 96 10000 3.57 166 07:53 13.07.2022
429 Fog 4 1015 100 450 5.14 210 04:36 13.07.2022
430 Rain 6 1013 93 10000 7.2 190 00:25 13.07.2022
431 Rain 5 1013 100 1500 6.69 200 22:28 12.07.2022
432 Rain 5 1013 100 10000 6.69 200 21:45 12.07.2022
433 Rain 5 1012 93 10000 6.17 190 20:44 12.07.2022
434 Clouds 6 1011 87 10000 7.2 200 19:48 12.07.2022
435 Clouds 6 1011 81 10000 7.2 200 18:35 12.07.2022
436 Clouds 5 1011 87 10000 4.63 210 16:24 12.07.2022
437 Fog 3 1011 100 10000 3.6 190 14:32 12.07.2022
438 Fog 3 1010 100 10000 2.57 190 13:35 12.07.2022
439 Fog 2 1010 100 300 1.03 230 11:54 12.07.2022
440 Snow 2 1009 100 200 3.6 210 10:26 12.07.2022
441 Clouds 4 1010 90 10000 1.61 194 08:57 12.07.2022
442 Snow 2 1008 93 150 4.12 200 07:48 12.07.2022
443 Clouds 2 1008 100 200 1.54 240 05:45 12.07.2022
444 Clouds 3 1007 93 10000 1.03 320 04:57 12.07.2022
445 Clouds 5 1008 86 10000 2.24 300 00:54 12.07.2022
446 Clouds 6 1006 87 10000 3.6 270 22:43 11.07.2022
447 Clouds 6 1005 81 10000 4.63 280 21:34 11.07.2022
448 Clouds 7 1005 81 10000 4.12 270 20:32 11.07.2022
449 Clouds 8 1004 76 10000 3.09 280 19:18 11.07.2022
450 Clouds 7 1004 87 10000 2.06 320 18:29 11.07.2022
451 Fog 5 1004 93 10000 1.54 270 16:31 11.07.2022
452 Fog 4 1004 100 2000 1.03 310 15:28 11.07.2022
453 Fog 3 1004 100 400 1.03 310 13:19 11.07.2022
454 Fog 2 1004 100 1000 1.54 350 11:24 11.07.2022
455 Fog 2 1004 100 1000 1.54 350 11:24 11.07.2022
456 Clouds 4 1005 91 10000 3.53 334 09:58 11.07.2022
457 Clouds 3 1004 100 450 2.06 360 09:35 11.07.2022
458 Clouds 2 1004 100 1000 2.57 360 08:32 11.07.2022
459 Clear 4 1008 91 10000 5.97 325 01:54 11.07.2022
460 Clouds 7 1007 76 10000 3.6 330 23:55 10.07.2022
461 Clouds 7 1007 76 10000 4.12 320 22:48 10.07.2022
462 Clear 6 1009 81 10000 6.82 320 20:56 10.07.2022
463 Clouds 8 1008 71 10000 2.06 320 20:37 10.07.2022
464 Clouds 7 1008 81 10000 2.06 10 19:38 10.07.2022
465 Clouds 7 1009 81 10000 3.6 50 18:43 10.07.2022
466 Clouds 6 1009 81 10000 3.09 40 17:35 10.07.2022
467 Clouds 5 1010 87 10000 3.6 30 16:24 10.07.2022
468 Clouds 4 1010 93 10000 3.6 20 15:20 10.07.2022
469 Clouds 3 1010 93 10000 3.09 30 13:40 10.07.2022
470 Clouds 3 1010 93 10000 2.06 30 12:26 10.07.2022
471 Clouds 4 1012 85 10000 3.1 347 09:57 10.07.2022
472 Clouds 3 1011 93 10000 1.54 320 08:44 10.07.2022
473 Clouds 2 1011 100 550 1.54 310 07:29 10.07.2022
474 Clouds 3 1011 93 10000 2.06 240 01:23 10.07.2022
475 Clouds 5 1011 86 10000 4.12 230 22:43 09.07.2022
476 Clouds 5 1011 86 10000 4.12 230 22:19 09.07.2022
477 Clouds 5 1010 93 10000 4.12 230 20:45 09.07.2022
478 Clouds 5 1009 93 10000 3.6 220 18:35 09.07.2022
479 Fog 5 1009 100 10000 5.14 190 17:45 09.07.2022
480 Fog 5 1008 93 4000 4.12 200 16:44 09.07.2022
481 Fog 5 1008 93 700 3.09 200 15:40 09.07.2022
482 Fog 4 1008 100 1200 2.68 190 14:28 09.07.2022
483 Fog 3 1008 100 500 3.09 190 13:50 09.07.2022
484 Fog 3 1007 100 400 4.12 180 12:45 09.07.2022
485 Fog 3 1007 100 150 4.12 200 11:22 09.07.2022
486 Clouds 3 1007 100 200 5.14 200 10:22 09.07.2022
487 Fog 3 1006 100 300 4.12 210 07:45 09.07.2022
488 Clouds 5 1008 93 10000 1.34 280 04:59 09.07.2022
489 Clouds 6 1007 93 10000 2.57 10 02:34 09.07.2022
490 Clouds 6 1009 87 10000 7.54 326 22:54 08.07.2022
491 Clouds 6 1009 85 10000 8.47 323 21:59 08.07.2022
492 Clouds 12 1008 66 10000 3.6 10 20:42 08.07.2022
493 Clouds 12 1008 66 10000 3.6 10 20:23 08.07.2022
494 Clouds 12 1009 71 10000 2.57 10 18:26 08.07.2022
495 Clouds 11 1010 76 10000 2.57 30 17:21 08.07.2022
496 Clear 5 1011 100 10000 4.92 10 14:54 08.07.2022
497 Fog 6 1012 100 1000 6.71 20 13:45 08.07.2022
498 Clear 5 1012 93 10000 5.81 10 11:59 08.07.2022
499 Clouds 5 1013 100 4800 6.71 20 10:37 08.07.2022
500 Clouds 6 1014 93 10000 3.58 360 08:44 08.07.2022
501 Clouds 5 1015 93 10000 2.24 10 06:50 08.07.2022
502 Clouds 8 1016 87 10000 1.54 280 01:49 08.07.2022
503 Clouds 10 1016 76 10000 2.06 240 23:41 07.07.2022
504 Clouds 10 1016 76 10000 2.57 260 22:38 07.07.2022
505 Clouds 9 1016 81 10000 2.24 200 20:56 07.07.2022
506 Clouds 9 1014 81 10000 1.54 0 18:37 07.07.2022
507 Clouds 8 1014 87 10000 3.09 270 17:19 07.07.2022
508 Clouds 8 1013 87 10000 2.57 270 15:22 07.07.2022
509 Clouds 7 1012 93 10000 2.57 340 13:26 07.07.2022
510 Clouds 7 1012 87 10000 2.06 320 12:39 07.07.2022
511 Clouds 7 1012 87 10000 2.06 320 12:19 07.07.2022
512 Clouds 6 1011 100 10000 2.06 360 11:30 07.07.2022
513 Clouds 6 1011 100 10000 2.57 50 10:43 07.07.2022
514 Clouds 6 1011 100 10000 2.57 50 10:25 07.07.2022
515 Clouds 6 1010 100 10000 3.09 30 07:40 07.07.2022
516 Clouds 8 1010 93 10000 2.06 20 04:42 07.07.2022
517 Clouds 9 1009 87 10000 4.47 40 23:37 06.07.2022
518 Clouds 9 1009 87 10000 4.47 40 23:19 06.07.2022
519 Clouds 9 1009 87 10000 4.47 40 22:57 06.07.2022
520 Clouds 9 1009 87 10000 4.63 40 22:38 06.07.2022
521 Clouds 9 1009 87 10000 4.92 40 21:30 06.07.2022
522 Clouds 8 1009 93 10000 3.6 40 19:39 06.07.2022
523 Rain 7 1009 100 10000 3.6 30 18:29 06.07.2022
524 Rain 7 1009 93 10000 1.03 320 16:27 06.07.2022
525 Clouds 7 1010 93 10000 1.79 200 14:58 06.07.2022
526 Rain 7 1009 93 10000 5.66 190 12:43 06.07.2022
527 Rain 7 1008 93 10000 6.71 190 11:49 06.07.2022
528 Snow 7 1008 93 7000 7.72 180 10:20 06.07.2022
529 Snow 7 1007 93 8000 9.77 190 08:26 06.07.2022
530 Rain 6 1007 100 10000 10.29 190 07:36 06.07.2022
531 Clouds 6 1006 93 10000 11.32 200 05:31 06.07.2022
532 Clouds 14 1005 72 10000 2.06 330 22:49 05.07.2022
533 Clouds 8 1006 85 10000 4.35 314 21:59 05.07.2022
534 Clouds 13 1005 76 10000 3.09 270 20:41 05.07.2022
535 Clouds 14 1005 72 10000 2.06 20 19:43 05.07.2022
536 Clouds 14 1005 72 10000 2.06 20 19:25 05.07.2022
537 Clouds 11 1006 87 10000 1.54 0 17:48 05.07.2022
538 Clouds 9 1007 93 10000 1.34 360 16:56 05.07.2022
539 Fog 8 1007 93 3000 1.03 320 15:38 05.07.2022
540 Fog 7 1007 93 10000 2.06 200 14:31 05.07.2022
541 Clouds 7 1006 93 10000 3.6 200 12:48 05.07.2022
542 Clouds 6 1007 96 10000 2.83 143 11:52 05.07.2022
543 Rain 7 1006 93 10000 7.2 210 10:42 05.07.2022
544 Clouds 8 1006 87 10000 10.29 160 09:24 05.07.2022
545 Clouds 9 1005 81 10000 11.83 160 08:18 05.07.2022
546 Rain 8 1004 93 10000 5.66 190 05:45 05.07.2022
547 Clouds 8 1004 93 10000 7.2 190 04:25 05.07.2022
548 Drizzle 7 1002 100 5000 6.69 180 00:37 05.07.2022
549 Drizzle 7 1002 93 600 7.72 190 23:34 04.07.2022
550 Rain 6 1003 97 10000 1.86 157 22:50 04.07.2022
551 Drizzle 8 1001 93 4000 10.28 190 21:48 04.07.2022
552 Clouds 8 1002 93 6396 10.28 190 20:53 04.07.2022
553 Rain 8 1001 93 10000 10.29 190 20:34 04.07.2022
554 Rain 6 1002 94 6675 5.76 174 19:55 04.07.2022
555 Clouds 12 999 76 10000 5.14 50 19:36 04.07.2022
556 Rain 11 999 87 10000 6.17 40 18:18 04.07.2022
557 Rain 6 1001 91 10000 0.3 103 15:58 04.07.2022
558 Clouds 10 1000 81 10000 7.2 190 15:33 04.07.2022
559 Clouds 12 1001 66 10000 3.6 210 13:29 04.07.2022
560 Clouds 11 1000 71 10000 1.03 20 12:33 04.07.2022
561 Clouds 10 1001 71 10000 3.6 0 10:34 04.07.2022
562 Clouds 9 1001 76 10000 0.89 100 09:53 04.07.2022
563 Clouds 9 1002 76 10000 1.54 0 08:24 04.07.2022
564 Clouds 10 1004 66 10000 1.54 10 05:18 04.07.2022
565 Clouds 11 1007 62 10000 9.26 200 00:42 04.07.2022
566 Clouds 10 1007 66 10000 3.17 201 22:59 03.07.2022
567 Clouds 10 1008 63 10000 0.36 224 20:59 03.07.2022
568 Clouds 16 1008 41 10000 3.09 30 20:41 03.07.2022
569 Clouds 16 1008 48 10000 4.63 50 19:41 03.07.2022
570 Clouds 16 1008 48 10000 4.63 50 19:23 03.07.2022
571 Clouds 14 1009 58 10000 0.51 280 17:45 03.07.2022
572 Clouds 10 1009 66 10000 4.47 50 16:54 03.07.2022
573 Clouds 9 1010 76 10000 6.71 60 15:24 03.07.2022
574 Clouds 9 1010 76 10000 6.71 60 14:32 03.07.2022
575 Clouds 9 1010 76 10000 6.17 40 13:48 03.07.2022
576 Clouds 9 1011 76 10000 0.51 320 12:35 03.07.2022
577 Clouds 9 1012 76 10000 0.51 330 11:29 03.07.2022
578 Clouds 8 1012 76 10000 2.57 180 10:39 03.07.2022
579 Clouds 8 1012 81 10000 0.45 140 09:59 03.07.2022
580 Clouds 9 1013 76 10000 1.03 350 07:36 03.07.2022
581 Clouds 11 1014 66 10000 1.03 220 05:18 03.07.2022
582 Clouds 13 1015 58 10000 4.63 60 00:23 03.07.2022
583 Clouds 12 1016 62 10000 5.66 50 22:35 02.07.2022
584 Clouds 11 1017 62 10000 5.14 30 21:38 02.07.2022
585 Clouds 9 1018 76 10000 5.36 50 19:53 02.07.2022
586 Clouds 9 1017 76 10000 5.66 50 19:31 02.07.2022
587 Clouds 7 1018 78 10000 1.07 141 17:58 02.07.2022
588 Clouds 9 1018 76 10000 3.09 360 17:36 02.07.2022
589 Clouds 9 1017 76 10000 1.54 0 15:32 02.07.2022
590 Clouds 7 1017 81 10000 2.57 0 12:24 02.07.2022
591 Clouds 6 1016 87 10000 2.57 50 11:28 02.07.2022
592 Clouds 7 1016 81 10000 2.06 40 10:48 02.07.2022
593 Clouds 6 1016 87 10000 2.06 360 09:49 02.07.2022
594 Clouds 7 1016 81 10000 7.2 150 08:36 02.07.2022
595 Clouds 7 1016 81 10000 7.2 150 08:18 02.07.2022
596 Rain 4 1016 95 10000 6 159 02:53 02.07.2022
597 Rain 5 1013 87 10000 9.26 170 00:27 02.07.2022
598 Clouds 3 1015 95 10000 7.73 178 22:59 01.07.2022
599 Drizzle 5 1013 87 10000 7.72 180 22:19 01.07.2022
600 Drizzle 5 1012 87 10000 8.23 170 21:37 01.07.2022
601 Clouds 3 1014 94 2916 9.14 174 20:57 01.07.2022
602 Drizzle 5 1011 93 10000 9.26 180 19:47 01.07.2022
603 Drizzle 5 1011 93 10000 9.26 180 19:22 01.07.2022
604 Drizzle 5 1011 93 10000 9.26 170 16:38 01.07.2022
605 Drizzle 6 1010 87 5000 9.26 170 14:21 01.07.2022
606 Rain 6 1009 93 10000 6.69 190 13:22 01.07.2022
607 Clouds 6 1011 84 10000 10.12 177 10:53 01.07.2022
608 Snow 6 1010 93 10000 5.66 0 10:19 01.07.2022
609 Clouds 10 1009 66 10000 10.29 160 06:20 01.07.2022
610 Clouds 5 1012 93 10000 4.02 190 01:57 01.07.2022
611 Clouds 8 1011 81 10000 4.63 0 23:34 30.06.2022
612 Clouds 8 1011 76 10000 6.71 50 22:47 30.06.2022
613 Clouds 8 1011 76 10000 6.71 50 22:27 30.06.2022
614 Clouds 9 1012 70 10000 6.71 60 21:51 30.06.2022
615 Rain 7 1012 93 10000 4.12 40 20:41 30.06.2022
616 Rain 7 1012 93 10000 4.12 40 20:18 30.06.2022
617 Rain 8 1013 87 10000 1.54 220 19:47 30.06.2022
618 Rain 6 1013 93 10000 3.6 40 18:49 30.06.2022
619 Clouds 6 1014 87 10000 4.12 30 17:49 30.06.2022
620 Clouds 6 1014 87 10000 4.12 30 17:18 30.06.2022
621 Clouds 5 1016 82 10000 2.9 146 15:56 30.06.2022
622 Clouds 4 1017 89 10000 4.62 162 13:58 30.06.2022
623 Fog 4 1016 100 6000 1.03 0 13:19 30.06.2022
624 Mist 4 1015 93 3000 1.03 300 12:33 30.06.2022
625 Drizzle 5 1015 81 3000 7.2 170 10:21 30.06.2022
626 Mist 4 1015 87 4400 5.66 170 09:41 30.06.2022
627 Mist 4 1014 87 4500 7.6 160 08:31 30.06.2022
628 Clouds 4 1014 87 5000 7.72 160 07:41 30.06.2022
629 Clouds 4 1014 80 1111 10.28 160 03:53 30.06.2022
630 Snow 4 1007 81 2300 10.29 160 23:39 29.06.2022
631 Rain 5 1007 75 3000 8.23 160 22:42 29.06.2022
632 Rain 5 1007 75 3000 8.23 160 22:19 29.06.2022
633 Rain 5 1005 87 3500 9.26 180 20:35 29.06.2022
634 Clouds 5 1004 86 5291 10.28 180 19:57 29.06.2022
635 Rain 5 1004 87 10000 10.29 180 19:31 29.06.2022
636 Rain 6 1003 81 10000 10.8 180 17:39 29.06.2022
637 Rain 6 1002 81 10000 10.8 180 16:24 29.06.2022
638 Rain 5 1003 90 10000 13.73 155 13:58 29.06.2022
639 Rain 7 1001 81 7000 11.83 160 12:38 29.06.2022
640 Clouds 7 999 81 10000 11.83 170 10:19 29.06.2022
641 Mist 7 999 87 4400 11.32 170 09:31 29.06.2022
642 Rain 6 1000 86 10000 17.72 168 06:57 29.06.2022
643 Snow 9 998 81 3800 11.83 160 04:46 29.06.2022
644 Rain 4 999 98 484 2.62 163 00:54 29.06.2022
645 Rain 8 998 93 3000 3.6 160 00:35 29.06.2022
646 Clouds 8 998 87 7629 8.49 60 22:53 28.06.2022
647 Rain 8 996 87 7000 8.75 60 22:21 28.06.2022
648 Clouds 7 998 87 10000 8.49 70 21:50 28.06.2022
649 Rain 7 997 87 7000 8.75 70 21:30 28.06.2022
650 Rain 8 998 81 10000 6.17 50 20:18 28.06.2022
651 Rain 10 999 71 10000 4.63 50 19:32 28.06.2022
652 Rain 10 1000 71 10000 1.03 350 18:42 28.06.2022
653 Clouds 10 1001 66 10000 1.54 200 17:37 28.06.2022
654 Clouds 6 1003 70 10000 1.28 140 15:56 28.06.2022
655 Clouds 7 1004 68 10000 3.2 152 14:59 28.06.2022
656 Clouds 12 1003 50 10000 1.03 0 14:19 28.06.2022
657 Clouds 12 1003 47 10000 1.03 0 13:47 28.06.2022
658 Clouds 11 1004 50 10000 3.6 0 12:48 28.06.2022
659 Clouds 9 1004 66 10000 10.8 70 10:46 28.06.2022
660 Clouds 8 1006 71 10000 10.8 70 09:25 28.06.2022
661 Clouds 8 1007 71 10000 8.23 70 08:43 28.06.2022
662 Clouds 9 1007 66 10000 8.75 80 07:20 28.06.2022
663 Clouds 5 1009 81 10000 0.89 140 04:59 28.06.2022
664 Clouds 5 1012 86 10000 6.41 144 23:59 27.06.2022
665 Rain 7 1009 76 10000 12.86 170 23:36 27.06.2022
666 Rain 5 1012 88 10000 7.43 145 22:50 27.06.2022
667 Rain 7 1009 81 6000 13.89 160 21:33 27.06.2022
668 Rain 7 1009 81 6000 12.35 160 20:44 27.06.2022
669 Rain 5 1011 92 8644 9.16 147 18:58 27.06.2022
670 Rain 7 1010 81 3000 11.83 160 18:19 27.06.2022
671 Rain 7 1010 76 6000 4.63 0 16:19 27.06.2022
672 Rain 7 1011 81 6000 2.06 140 14:44 27.06.2022
673 Rain 7 1011 81 6000 8.75 170 13:35 27.06.2022
674 Rain 5 1012 89 10000 10.08 158 12:52 27.06.2022
675 Rain 6 1010 75 10000 13.38 160 10:23 27.06.2022
676 Snow 6 1010 81 10000 14.92 160 08:48 27.06.2022
677 Snow 6 1010 81 10000 14.92 160 08:19 27.06.2022
678 Snow 6 1009 81 3800 13.38 160 06:38 27.06.2022
679 Snow 6 1008 81 10000 9.26 170 02:28 27.06.2022
680 Rain 4 1009 93 10000 12.95 166 23:55 26.06.2022
681 Clouds 4 1008 91 10000 11.89 165 21:59 26.06.2022
682 Clouds 8 1005 76 10000 11.83 180 20:44 26.06.2022
683 Rain 8 1004 71 10000 11.32 170 19:32 26.06.2022
684 Rain 7 1004 81 10000 11.32 160 18:30 26.06.2022
685 Rain 7 1004 76 10000 12.35 160 16:45 26.06.2022
686 Rain 8 1003 71 10000 15.2 160 14:42 26.06.2022
687 Rain 7 1002 93 10000 15.43 160 13:38 26.06.2022
688 Rain 7 1002 93 10000 15.43 160 13:18 26.06.2022
689 Rain 7 1002 81 10000 11.83 160 11:26 26.06.2022
690 Snow 7 1002 81 6000 10.8 160 10:26 26.06.2022
691 Snow 7 1002 81 6000 11.83 160 09:22 26.06.2022
692 Snow 6 1002 93 10000 6.17 190 07:44 26.06.2022
693 Clouds 7 1005 93 8958 2.68 190 01:55 26.06.2022
694 Rain 7 1004 87 10000 3.09 190 00:21 26.06.2022
695 Clouds 9 1004 71 10000 3.6 250 23:49 25.06.2022
696 Clouds 9 1004 71 10000 3.6 250 23:20 25.06.2022
697 Clouds 12 1004 62 10000 4.12 30 22:27 25.06.2022
698 Clouds 13 1005 58 10000 4.12 30 21:41 25.06.2022
699 Clouds 13 1005 58 10000 4.12 30 21:18 25.06.2022
700 Clouds 11 1006 66 10000 2.06 350 20:27 25.06.2022
701 Clouds 9 1007 76 10000 2.06 350 19:21 25.06.2022
702 Clouds 7 1009 81 10000 3.58 200 17:57 25.06.2022
703 Clouds 7 1009 81 10000 3.6 200 17:22 25.06.2022
704 Clouds 8 1010 76 10000 5.14 200 15:36 25.06.2022
705 Clouds 8 1010 76 10000 1.54 170 13:41 25.06.2022
706 Clouds 8 1011 66 10000 2.57 40 12:38 25.06.2022
707 Clouds 8 1012 66 10000 2.06 360 10:35 25.06.2022
708 Clouds 7 1013 70 10000 1.54 20 09:20 25.06.2022
709 Clouds 7 1013 65 10000 1.54 320 08:37 25.06.2022
710 Clouds 7 1013 65 10000 1.54 320 08:18 25.06.2022
711 Clouds 7 1014 61 10000 4.63 200 04:18 25.06.2022
712 Clouds 12 1014 50 10000 1.54 220 00:38 25.06.2022
713 Clouds 6 1016 79 10000 3.43 170 22:55 24.06.2022
714 Clouds 10 1014 53 10000 4.12 50 21:42 24.06.2022
715 Clouds 9 1015 66 10000 3.62 185 20:57 24.06.2022
716 Clouds 9 1015 66 10000 1.03 0 20:19 24.06.2022
717 Clouds 9 1015 66 10000 3.6 190 19:22 24.06.2022
718 Clouds 7 1015 70 10000 5.66 60 18:49 24.06.2022
719 Clouds 7 1015 70 10000 5.66 60 18:30 24.06.2022
720 Clouds 6 1015 81 10000 1.54 340 17:21 24.06.2022
721 Clouds 5 1015 87 10000 3.09 360 15:47 24.06.2022
722 Clouds 4 1015 93 10000 2.06 30 14:28 24.06.2022
723 Clouds 5 1017 80 10000 0.89 210 13:55 24.06.2022
724 Clouds 5 1015 81 10000 1.03 0 11:45 24.06.2022
725 Clouds 5 1015 81 10000 1.03 0 11:22 24.06.2022
726 Clouds 3 1014 93 10000 4.47 180 10:19 24.06.2022
727 Clouds 2 1014 100 10000 4.63 180 09:40 24.06.2022
728 Clouds 5 1015 75 10000 2.89 181 08:52 24.06.2022
729 Clouds 2 1013 93 10000 4.12 190 06:49 24.06.2022
730 Clouds 2 1013 93 10000 4.12 190 06:31 24.06.2022
731 Clouds 3 1015 93 10000 1.79 190 05:57 24.06.2022
732 Clouds 8 1012 76 10000 1.03 230 01:36 24.06.2022
733 Clouds 5 1012 81 10000 2.68 190 22:55 23.06.2022
734 Clouds 6 1012 81 10000 3.09 190 22:33 23.06.2022
735 Clouds 5 1014 81 10000 2.96 282 20:57 23.06.2022
736 Clouds 8 1012 81 10000 3.09 180 20:32 23.06.2022
737 Fog 6 1012 100 10000 1.54 0 19:24 23.06.2022
738 Clouds 3 1013 100 10000 2.24 20 17:50 23.06.2022
739 Clouds 3 1013 100 10000 2.24 20 16:58 23.06.2022
740 Fog 2 1013 93 400 1.03 320 15:49 23.06.2022
741 Fog 2 1013 93 400 1.03 320 15:24 23.06.2022
742 Fog 2 1013 93 300 1.03 230 13:32 23.06.2022
743 Fog 1 1013 100 200 2.06 200 11:23 23.06.2022
744 Fog 2 1013 100 200 1.03 320 10:31 23.06.2022
745 Clouds 1 1013 100 200 2.57 20 08:49 23.06.2022
746 Clouds 3 1013 93 10000 2.57 350 02:46 23.06.2022
747 Clouds 4 1013 87 10000 3.6 320 00:26 23.06.2022
748 Clouds 6 1013 81 10000 2.06 0 23:27 22.06.2022
749 Clouds 6 1013 81 10000 1.54 300 22:39 22.06.2022
750 Clouds 6 1013 81 10000 2.57 40 21:22 22.06.2022
751 Clouds 5 1013 87 10000 2.06 10 20:34 22.06.2022
752 Clouds 5 1013 86 10000 2.24 40 19:52 22.06.2022
753 Clouds 5 1013 87 10000 3.09 60 18:40 22.06.2022
754 Clouds 3 1013 93 10000 2.57 20 17:27 22.06.2022
755 Clouds 2 1014 93 10000 2.06 20 16:24 22.06.2022
756 Snow 2 1014 93 10000 1.54 360 15:26 22.06.2022
757 Snow 2 1014 93 8000 1.54 30 14:19 22.06.2022
758 Snow 1 1014 93 6000 1.54 360 13:37 22.06.2022
759 Snow 1 1014 93 6000 2.24 20 13:18 22.06.2022
760 Clouds 1 1015 93 10000 2.06 10 11:49 22.06.2022
761 Clouds 2 1016 86 10000 3.28 1 10:55 22.06.2022
762 Clouds 1 1015 93 10000 3.09 20 10:19 22.06.2022
763 Clouds 1 1016 93 10000 3.09 360 08:27 22.06.2022
764 Clouds 2 1017 87 10000 2.24 10 03:50 22.06.2022
765 Clouds 3 1017 87 10000 3.6 340 01:23 22.06.2022
766 Clouds 4 1017 81 10000 3.09 350 00:24 22.06.2022
767 Clouds 5 1017 75 10000 2.06 340 22:18 21.06.2022
768 Clouds 2 1018 93 1524 2.24 320 19:55 21.06.2022
769 Clouds 2 1018 93 10000 3.6 200 18:35 21.06.2022
770 Clouds 2 1018 93 10000 3.6 210 17:39 21.06.2022
771 Clouds 0 1017 97 174 7.15 180 13:54 21.06.2022
772 Clouds 0 1017 100 10000 6.71 210 11:37 21.06.2022
773 Clouds 0 1018 99 57 7.6 210 09:54 21.06.2022
774 Clouds 0 1017 100 10000 7.72 220 08:47 21.06.2022
775 Snow 0 1016 100 3400 8.75 210 06:36 21.06.2022
776 Clouds 0 1016 100 8000 9.77 190 01:31 21.06.2022
777 Rain 1 1015 100 4000 11.32 200 23:24 20.06.2022
778 Rain 1 1013 100 2000 14.92 200 21:54 20.06.2022
779 Clouds 3 1012 93 1123 15.65 170 20:53 20.06.2022
780 Drizzle 3 1011 93 3000 15.95 170 19:40 20.06.2022
781 Drizzle 4 1011 87 4000 16.99 170 18:46 20.06.2022
782 Drizzle 4 1011 87 4000 16.99 170 18:20 20.06.2022
783 Drizzle 4 1011 93 4000 15.43 180 17:35 20.06.2022
784 Clouds 5 1011 86 10000 12.52 170 15:57 20.06.2022
785 Clouds 5 1010 86 10000 10.28 160 12:56 20.06.2022
786 Drizzle 6 1010 87 1500 9.26 170 11:25 20.06.2022
787 Clouds 6 1010 93 5000 5.14 180 09:47 20.06.2022
788 Fog 5 1010 100 400 6.17 190 08:44 20.06.2022
789 Snow 6 1009 93 1200 6.17 190 06:49 20.06.2022
790 Fog 7 1009 100 600 2.57 190 03:20 20.06.2022
791 Rain 7 1009 93 10000 2.06 50 00:37 20.06.2022
792 Rain 6 1008 100 10000 1.03 260 23:24 19.06.2022
793 Rain 7 1008 93 10000 4.63 60 22:18 19.06.2022
794 Rain 7 1008 93 10000 2.57 60 21:41 19.06.2022
795 Rain 7 1008 93 10000 1.03 260 20:46 19.06.2022
796 Clouds 7 1007 93 10000 1.03 240 19:48 19.06.2022
797 Clouds 7 1007 93 10000 1.03 240 19:24 19.06.2022
798 Clouds 8 1007 87 10000 2.06 200 18:31 19.06.2022
799 Clouds 8 1007 87 10000 0.51 0 17:39 19.06.2022
800 Clouds 7 1007 93 10000 1.03 310 16:38 19.06.2022
801 Clouds 6 1007 93 10000 2.06 10 15:44 19.06.2022
802 Clouds 6 1007 93 10000 2.06 10 15:26 19.06.2022
803 Clouds 6 1006 93 10000 0.51 0 14:35 19.06.2022
804 Clouds 5 1006 93 10000 2.06 360 13:43 19.06.2022
805 Rain 5 1007 90 10000 1.69 85 11:53 19.06.2022
806 Rain 5 1007 89 10000 1.85 93 10:52 19.06.2022
807 Rain 5 1006 87 10000 5.18 81 08:55 19.06.2022
808 Rain 7 1006 81 10000 2.06 0 08:30 19.06.2022
809 Rain 5 1007 90 10000 4.76 71 06:54 19.06.2022
810 Snow 6 1009 87 10000 10.29 80 03:38 19.06.2022
811 Rain 6 1010 87 10000 6.71 60 00:28 19.06.2022
812 Clouds 5 1012 93 6810 6.71 60 23:59 18.06.2022
813 Rain 5 1011 93 6000 6.71 60 23:34 18.06.2022
814 Rain 5 1011 93 4000 3.6 180 22:23 18.06.2022
815 Rain 4 1012 94 10000 6.14 174 20:51 18.06.2022
816 Rain 6 1009 93 4000 9.26 190 20:18 18.06.2022
817 Clouds 5 1008 93 4385 12.07 180 18:57 18.06.2022
818 Mist 6 1008 93 2500 12.35 180 18:38 18.06.2022
819 Rain 6 1008 93 2500 12.35 180 18:38 18.06.2022
820 Rain 5 1007 93 3000 12.86 180 17:29 18.06.2022
821 Rain 5 1006 93 2800 14.4 180 16:18 18.06.2022
822 Rain 4 1007 96 1691 13.12 181 14:58 18.06.2022
823 Rain 5 1002 93 2800 18.01 180 14:37 18.06.2022
824 Rain 5 1000 93 3000 15.95 180 12:31 18.06.2022
825 Rain 5 998 87 3500 16.99 170 11:25 18.06.2022
826 Rain 5 998 93 3000 16.99 180 10:23 18.06.2022
827 Snow 5 996 93 1800 15.95 180 09:19 18.06.2022
828 Snow 5 995 100 1900 15.95 180 07:34 18.06.2022
829 Snow 5 994 100 3400 16.99 180 06:24 18.06.2022
830 Rain 4 996 94 8704 19.81 178 02:53 18.06.2022
831 Clouds 4 994 100 4720 1.34 10 01:23 18.06.2022
832 Drizzle 4 994 100 3000 1.54 10 00:39 18.06.2022
833 Rain 4 994 93 5000 6.71 40 23:43 17.06.2022
834 Clouds 2 996 93 6537 8.49 20 22:49 17.06.2022
835 Rain 2 997 93 4100 5.66 30 20:33 17.06.2022
836 Rain 3 997 100 6000 1.03 0 19:25 17.06.2022
837 Mist 3 997 93 2400 5.66 210 18:24 17.06.2022
838 Mist 3 997 93 1800 7.2 210 17:34 17.06.2022
839 Rain 3 997 93 3000 9.77 190 16:38 17.06.2022
840 Rain 5 996 87 6000 11.32 180 15:42 17.06.2022
841 Rain 5 996 87 6000 12.86 170 14:46 17.06.2022
842 Rain 5 996 87 6000 12.86 170 14:19 17.06.2022
843 Rain 5 996 87 10000 19.22 160 13:42 17.06.2022
844 Clouds 5 995 81 10000 19.55 160 12:42 17.06.2022
845 Rain 3 999 92 6111 16.77 169 11:56 17.06.2022
846 Rain 5 995 81 10000 19.03 160 11:35 17.06.2022
847 Rain 3 999 90 10000 16.83 165 09:59 17.06.2022
848 Snow 4 996 87 5000 15.95 180 08:27 17.06.2022
849 Rain 3 1000 95 1408 10.87 160 06:57 17.06.2022
850 Clouds 3 998 64 214 10.28 170 04:52 17.06.2022
851 Clouds 4 1000 38 10000 9.77 190 02:41 17.06.2022
852 Clouds 4 1000 56 10000 8.75 200 00:33 17.06.2022
853 Clouds 4 999 65 10000 8.75 210 22:44 16.06.2022
854 Clouds 4 999 81 10000 7.15 210 21:36 16.06.2022
855 Clouds 4 999 79 10000 7.15 210 21:18 16.06.2022
856 Clouds 4 999 75 10000 7.2 210 20:36 16.06.2022
857 Clouds 4 999 79 10000 5.81 220 19:55 16.06.2022
858 Clouds 4 1000 75 10000 4.12 230 18:28 16.06.2022
859 Clouds 4 1000 81 10000 4.12 190 17:43 16.06.2022
860 Clouds 4 1000 81 10000 3.6 220 16:40 16.06.2022
861 Clouds 4 1000 81 10000 3.6 190 15:24 16.06.2022
862 Fog 3 1001 87 10000 2.57 220 14:46 16.06.2022
863 Fog 2 1001 93 800 2.06 200 13:34 16.06.2022
864 Fog 1 1000 100 800 2.06 210 12:37 16.06.2022
865 Clouds 0 1001 77 10000 1.34 220 11:52 16.06.2022
866 Fog 1 1001 93 3000 1.54 220 11:18 16.06.2022
867 Fog 1 1001 93 7000 1.03 350 10:32 16.06.2022
868 Fog 1 1001 93 10000 1.03 10 09:22 16.06.2022
869 Clouds 1 1000 93 10000 2.57 30 08:36 16.06.2022
870 Clouds 1 1001 93 10000 3.09 10 07:28 16.06.2022
871 Clouds 2 1001 87 10000 3.6 20 05:31 16.06.2022
872 Clouds 4 1002 69 10000 2.68 330 02:52 16.06.2022
873 Clouds 5 1002 60 10000 1.34 360 01:51 16.06.2022
874 Clouds 5 1002 60 10000 1.34 360 01:51 16.06.2022
875 Clear 6 1002 61 10000 1.54 360 01:21 16.06.2022
876 Clear 6 1002 61 10000 1.54 360 01:21 16.06.2022
877 Clear 7 1002 61 10000 3.09 340 23:49 15.06.2022
878 Clear 7 1002 61 10000 3.6 340 22:44 15.06.2022
879 Clear 7 1002 57 10000 5.66 330 21:23 15.06.2022
880 Clear 7 1002 56 10000 5.36 330 20:56 15.06.2022
881 Clouds 7 1002 57 10000 5.14 340 20:35 15.06.2022
882 Clouds 8 1002 39 10000 3.09 340 19:46 15.06.2022
883 Clouds 8 1002 39 10000 3.6 60 18:29 15.06.2022
884 Clouds 7 1002 42 10000 4.12 50 17:42 15.06.2022
885 Clouds 5 1003 48 10000 4.92 50 15:51 15.06.2022
886 Clouds 4 1003 56 10000 6.17 10 14:30 15.06.2022
887 Clouds 3 1002 60 10000 9.39 20 13:20 15.06.2022
888 Clouds 3 1002 56 10000 9.77 20 12:33 15.06.2022
889 Clouds 3 1003 60 10000 10.28 20 10:53 15.06.2022
890 Clouds 3 1003 60 10000 10.29 20 10:20 15.06.2022
891 Clouds 4 1003 60 10000 8.05 20 08:58 15.06.2022
892 Clouds 4 1003 60 10000 8.05 20 07:32 15.06.2022
893 Clear 4 1003 60 10000 8.05 20 05:24 15.06.2022
894 Clouds 5 1003 52 10000 10.29 20 02:40 15.06.2022
895 Clouds 6 1003 42 10000 11.32 30 01:36 15.06.2022
896 Clouds 6 1003 45 10000 10.29 40 00:18 15.06.2022
897 Clouds 6 1004 42 10000 11.32 20 23:38 14.06.2022
898 Clouds 6 1004 42 10000 10.8 20 22:45 14.06.2022
899 Clouds 6 1004 42 10000 9.77 30 21:43 14.06.2022
900 Clouds 5 1004 41 10000 10.28 30 20:58 14.06.2022
901 Clouds 6 1004 42 10000 10.29 30 20:38 14.06.2022
902 Clouds 6 1004 42 10000 9.77 20 19:47 14.06.2022
903 Clouds 6 1005 39 10000 10.29 30 18:39 14.06.2022
904 Clear 5 1005 48 10000 9.39 20 16:53 14.06.2022
905 Clouds 5 1005 48 10000 9.77 20 16:34 14.06.2022
906 Clouds 4 1006 52 10000 9.26 20 15:41 14.06.2022
907 Clear 4 1007 51 10000 8.05 20 14:53 14.06.2022
908 Clear 3 1006 64 10000 7.15 10 13:59 14.06.2022
909 Clear 3 1007 64 10000 4.92 10 12:59 14.06.2022
910 Clear 3 1007 64 10000 6.71 20 11:56 14.06.2022
911 Clear 2 1007 69 10000 7.15 20 10:52 14.06.2022
912 Clouds 2 1007 69 10000 7.2 20 10:28 14.06.2022
913 Clouds 2 1007 69 10000 5.66 10 09:22 14.06.2022
914 Clouds 2 1007 75 10000 5.66 20 08:37 14.06.2022
915 Clouds 2 1007 75 10000 5.66 20 06:32 14.06.2022
916 Clear 3 1008 86 10000 4.02 350 03:52 14.06.2022
917 Clouds 3 1008 75 10000 2.06 350 01:37 14.06.2022
918 Clouds 3 1008 75 10000 4.12 320 00:21 14.06.2022
919 Clouds 3 1009 69 10000 6.71 320 22:58 13.06.2022
920 Clouds 3 1009 70 10000 6.71 320 22:23 13.06.2022
921 Clouds 2 1009 75 10000 7.2 330 21:39 13.06.2022
922 Clouds 2 1009 74 10000 7.6 330 19:59 13.06.2022
923 Clouds 3 1009 74 10000 8.05 330 18:54 13.06.2022
924 Clouds 2 1009 77 10000 7.15 330 17:56 13.06.2022
925 Clouds 2 1009 87 10000 7.2 330 17:25 13.06.2022
926 Clouds 3 1009 75 10000 2.06 30 16:31 13.06.2022
927 Clouds 0 1009 86 10000 4.02 330 14:51 13.06.2022
928 Clouds 1 1009 86 10000 4.12 330 14:31 13.06.2022
929 Clouds 1 1009 86 10000 6.17 330 13:33 13.06.2022
930 Clouds 0 1009 86 10000 7.2 320 12:23 13.06.2022
931 Snow 1 1010 81 10000 9.35 314 10:56 13.06.2022
932 Clouds 0 1009 86 10000 7.2 320 10:26 13.06.2022
933 Snow 0 1009 89 971 9.59 309 08:52 13.06.2022
934 Snow 0 1009 95 750 7.97 297 06:37 13.06.2022
935 Snow 0 1009 92 1471 7.43 296 05:35 13.06.2022
936 Snow 0 1009 92 1471 7.43 296 05:35 13.06.2022
937 Clouds 1 1009 73 10000 6.93 307 02:27 13.06.2022
938 Clouds 1 1009 73 10000 6.93 307 01:36 13.06.2022
939 Clouds 0 1005 100 10000 6.17 300 23:49 12.06.2022
940 Snow 1 1005 93 1200 6.17 290 22:44 12.06.2022
941 Clouds 2 1004 80 10000 5.81 300 21:53 12.06.2022
942 Clouds 2 1003 79 10000 5.36 300 20:54 12.06.2022
943 Snow 2 1003 87 10000 5.66 300 20:18 12.06.2022
944 Clouds 2 1003 80 10000 4.63 320 19:30 12.06.2022
945 Clouds 2 1003 80 10000 4.63 320 19:30 12.06.2022
946 Clouds 2 1002 80 10000 6.71 320 17:41 12.06.2022
947 Clouds 2 1000 84 10000 5.81 330 15:57 12.06.2022
948 Clouds 2 1000 85 10000 4.92 320 14:51 12.06.2022
949 Clouds 2 999 87 9000 5.14 320 14:20 12.06.2022
950 Clouds 2 998 87 9000 5.14 320 13:49 12.06.2022
951 Clouds 2 997 93 9000 5.14 330 12:32 12.06.2022
952 Clouds 3 997 87 8000 3.09 320 11:36 12.06.2022
953 Clouds 3 996 93 7000 3.6 20 10:21 12.06.2022
954 Clouds 4 997 86 10000 4.02 20 08:54 12.06.2022
955 Clouds 4 995 87 10000 4.12 20 08:35 12.06.2022
956 Clouds 5 996 87 10000 1.54 350 07:31 12.06.2022
957 Clouds 6 997 75 10000 3.6 40 04:35 12.06.2022
958 Clouds 7 998 76 10000 4.12 40 02:38 12.06.2022
959 Clouds 8 999 71 10000 4.63 30 01:36 12.06.2022
960 Clouds 8 1000 70 10000 4.47 30 00:58 12.06.2022
961 Clouds 8 1000 71 10000 4.63 30 00:20 12.06.2022
962 Clouds 9 1000 66 10000 4.63 30 23:29 11.06.2022
963 Clouds 10 1001 62 10000 3.6 360 22:38 11.06.2022
964 Clouds 10 1001 62 10000 3.6 360 22:38 11.06.2022
965 Clouds 11 1002 62 10000 3.6 40 21:42 11.06.2022
966 Clouds 11 1003 62 10000 4.12 40 20:34 11.06.2022
967 Clouds 10 1004 71 10000 4.63 40 19:46 11.06.2022
968 Clouds 10 1004 71 10000 4.63 40 19:19 11.06.2022
969 Clouds 9 1004 76 10000 4.12 30 18:33 11.06.2022
970 Clouds 8 1004 81 10000 5.36 40 17:50 11.06.2022
971 Clouds 8 1005 81 10000 5.66 40 17:26 11.06.2022
972 Clouds 7 1005 87 10000 5.81 40 16:52 11.06.2022
973 Clouds 7 1006 87 10000 6.17 40 16:26 11.06.2022
974 Clouds 7 1006 87 10000 6.17 50 15:28 11.06.2022
975 Clouds 5 1008 81 10000 4.92 20 13:53 11.06.2022
976 Clouds 5 1008 86 10000 4.02 20 12:51 11.06.2022
977 Clouds 5 1009 81 10000 1.03 20 10:46 11.06.2022
978 Clouds 5 1010 80 10000 0.95 28 09:51 11.06.2022
979 Clouds 5 1010 81 10000 1.03 170 09:18 11.06.2022
980 Clouds 4 1011 87 10000 1.03 200 07:40 11.06.2022
981 Clouds 5 1011 81 10000 1.54 240 06:25 11.06.2022
982 Clouds 6 1012 81 7000 1.03 120 04:23 11.06.2022
983 Clouds 5 1013 81 10000 3.16 231 01:52 11.06.2022
984 Clouds 6 1013 81 10000 0.51 0 01:32 11.06.2022
985 Clouds 7 1013 70 10000 1.03 0 23:49 10.06.2022
986 Clouds 7 1014 70 10000 3.09 20 22:31 10.06.2022
987 Clouds 5 1014 75 10000 1.34 360 21:50 10.06.2022
988 Clouds 5 1014 70 10000 4.92 200 20:41 10.06.2022
989 Clouds 5 1014 70 10000 4.92 200 20:22 10.06.2022
990 Clouds 6 1014 70 10000 5.14 200 19:20 10.06.2022
991 Clouds 5 1015 73 10000 1.25 169 18:56 10.06.2022
992 Clouds 7 1014 65 10000 4.02 210 17:58 10.06.2022
993 Clouds 7 1014 65 10000 4.12 210 17:35 10.06.2022
994 Clouds 8 1014 61 10000 2.21 179 16:50 10.06.2022
995 Drizzle 6 1014 65 10000 8.75 200 15:44 10.06.2022
996 Clouds 6 1014 75 10000 7.15 200 14:57 10.06.2022
997 Clouds 6 1015 70 10000 2.57 0 13:36 10.06.2022
998 Clouds 5 1015 75 10000 5.66 210 12:21 10.06.2022
999 Clouds 5 1015 81 10000 5.14 200 11:30 10.06.2022
1000 Clouds 6 1014 61 10000 2.06 160 10:36 10.06.2022
1001 Clouds 6 1014 61 9000 3.6 190 09:37 10.06.2022
1002 Clouds 4 1016 80 10000 3.58 200 07:58 10.06.2022
1003 Clouds 5 1015 69 10000 1.34 180 06:50 10.06.2022
1004 Clouds 5 1015 70 10000 1.54 180 06:31 10.06.2022
1005 Clouds 5 1015 70 10000 4.12 200 05:34 10.06.2022
1006 Clouds 5 1015 60 10000 6.71 190 02:54 10.06.2022
1007 Clouds 6 1015 65 10000 6.17 200 01:37 10.06.2022
1008 Clouds 8 1015 71 10000 5.81 200 23:58 09.06.2022
1009 Clouds 8 1014 57 10000 7.2 210 22:47 09.06.2022
1010 Clouds 8 1014 53 10000 6.71 200 21:46 09.06.2022
1011 Clouds 8 1014 53 10000 6.71 200 21:28 09.06.2022
1012 Clouds 8 1014 57 10000 6.71 210 20:40 09.06.2022
1013 Clouds 8 1014 52 10000 6.71 210 19:51 09.06.2022
1014 Clouds 8 1014 61 10000 6.17 200 18:43 09.06.2022
1015 Clear 8 1013 52 10000 4.92 200 17:56 09.06.2022
1016 Clear 8 1013 61 10000 5.14 200 16:44 09.06.2022
1017 Clear 7 1013 53 10000 4.63 200 15:42 09.06.2022
1018 Clear 7 1013 61 10000 4.12 210 14:34 09.06.2022
1019 Clouds 6 1013 70 10000 4.12 200 13:46 09.06.2022
1020 Clouds 6 1013 70 10000 4.12 200 13:25 09.06.2022
1021 Clouds 4 1013 86 10000 2.24 200 11:53 09.06.2022
1022 Clouds 4 1013 87 7000 2.57 210 10:40 09.06.2022
1023 Mist 3 1013 93 2200 3.6 190 09:41 09.06.2022
1024 Mist 3 1013 93 2200 3.6 190 09:23 09.06.2022
1025 Clear 4 1012 81 10000 1.03 220 07:34 09.06.2022
1026 Clear 6 1012 56 10000 3.6 40 05:27 09.06.2022
1027 Clear 10 1013 43 10000 3.09 30 01:44 09.06.2022
1028 Clear 11 1014 40 10000 2.57 10 23:34 08.06.2022
1029 Clear 6 1015 63 10000 3.89 299 22:51 08.06.2022
1030 Clear 11 1014 40 10000 3.09 330 22:26 08.06.2022
1031 Clear 11 1014 40 10000 4.12 320 21:49 08.06.2022
1032 Clear 12 1014 43 10000 3.09 320 20:43 08.06.2022
1033 Clear 12 1014 47 10000 2.57 330 19:49 08.06.2022
1034 Clear 6 1015 61 10000 3.43 289 18:58 08.06.2022
1035 Clear 11 1014 50 10000 1.54 0 18:40 08.06.2022
1036 Clear 10 1014 57 10000 1.54 300 16:34 08.06.2022
1037 Clear 9 1014 61 10000 1.54 0 15:26 08.06.2022
1038 Clear 7 1014 70 10000 3.09 360 13:36 08.06.2022
1039 Clear 5 1014 80 10000 0.89 250 11:51 08.06.2022
1040 Clouds 5 1014 81 10000 1.03 250 11:24 08.06.2022
1041 Clear 5 1014 75 10000 1.03 110 09:47 08.06.2022
1042 Clear 5 1014 75 10000 1.03 110 09:20 08.06.2022
1043 Clear 5 1014 75 10000 0 0 08:18 08.06.2022
1044 Clear 4 1014 87 10000 2.06 200 05:36 08.06.2022
1045 Clouds 6 1013 75 10000 3.09 200 02:39 08.06.2022
1046 Clouds 6 1013 75 10000 4.12 190 00:21 08.06.2022
1047 Clear 7 1012 70 10000 4.47 200 23:25 07.06.2022
1048 Clouds 7 1012 70 10000 4.63 200 22:42 07.06.2022
1049 Clouds 7 1012 70 10000 4.63 200 22:20 07.06.2022
1050 Clouds 9 1012 53 10000 4.12 190 21:28 07.06.2022
1051 Clear 7 1013 58 10000 2.86 307 20:52 07.06.2022
1052 Clear 10 1011 53 10000 3.6 200 20:31 07.06.2022
1053 Clouds 10 1011 53 10000 3.6 210 19:24 07.06.2022
1054 Clouds 10 1011 53 10000 4.12 200 18:19 07.06.2022
1055 Clear 10 1010 46 10000 3.6 180 17:21 07.06.2022
1056 Clear 10 1010 46 10000 2.06 330 16:41 07.06.2022
1057 Clear 9 1010 46 10000 1.54 340 15:43 07.06.2022
1058 Clear 9 1010 46 10000 1.54 340 15:23 07.06.2022
1059 Clear 7 1009 57 10000 1.54 360 14:46 07.06.2022
1060 Clear 7 1009 52 10000 0.89 320 13:58 07.06.2022
1061 Clear 7 1009 53 10000 1.03 320 13:29 07.06.2022
1062 Clear 6 1009 61 10000 2.06 360 12:45 07.06.2022
1063 Clear 6 1009 56 10000 2.57 50 11:32 07.06.2022
1064 Clear 5 1008 60 10000 1.03 10 10:26 07.06.2022
1065 Clear 4 1008 70 10000 3.09 10 08:49 07.06.2022
1066 Clear 4 1008 70 10000 3.09 10 08:49 07.06.2022
1067 Clear 4 1008 70 10000 3.09 10 08:49 07.06.2022
1068 Clear 4 1008 70 10000 3.09 10 08:49 07.06.2022
1069 Clear 5 1008 60 10000 2.06 30 07:32 07.06.2022
1070 Clear 7 1007 42 10000 1.34 40 05:56 07.06.2022
1071 Clouds 7 1007 53 10000 4.12 40 03:22 07.06.2022
1072 Clouds 8 1005 49 10000 7.72 20 00:44 07.06.2022
1073 Clouds 10 1005 43 10000 7.2 30 23:35 06.06.2022
1074 Clouds 8 1004 53 10000 9.77 20 22:47 06.06.2022
1075 Clouds 9 1004 40 10000 10.8 20 21:49 06.06.2022
1076 Clouds 9 1004 43 10000 13.38 20 20:21 06.06.2022
1077 Clouds 9 1003 40 10000 13.89 20 19:23 06.06.2022
1078 Clouds 8 1004 46 10000 10.29 20 18:47 06.06.2022
1079 Clouds 8 1004 45 10000 8.94 20 17:55 06.06.2022
1080 Clouds 8 1004 45 10000 7.6 10 16:51 06.06.2022
1081 Clouds 8 1005 46 10000 6.17 10 15:44 06.06.2022
1082 Clear 8 1005 42 10000 8.94 30 14:57 06.06.2022
1083 Clouds 8 1005 42 10000 7.2 20 13:40 06.06.2022
1084 Clear 8 1006 45 10000 7.15 40 12:59 06.06.2022
1085 Clear 8 1006 46 10000 7.2 40 12:27 06.06.2022
1086 Clear 7 1006 49 10000 7.2 40 11:45 06.06.2022
1087 Clear 5 1007 60 10000 4.47 20 09:51 06.06.2022
1088 Clear 6 1006 56 10000 5.14 30 08:44 06.06.2022
1089 Clear 8 1006 49 10000 4.63 50 07:44 06.06.2022
1090 Clear 7 1006 57 10000 5.66 40 06:49 06.06.2022
1091 Clear 7 1007 65 10000 4.63 10 04:36 06.06.2022
1092 Clear 9 1008 51 10000 4.82 23 01:53 06.06.2022
1093 Clear 9 1008 52 10000 3.24 33 00:55 06.06.2022
1094 Clear 13 1007 35 10000 4.12 30 00:33 06.06.2022
1095 Clear 9 1008 53 10000 3.12 49 22:59 05.06.2022
1096 Clear 15 1008 29 10000 3.09 30 22:19 05.06.2022
1097 Clear 15 1008 26 10000 3.6 30 20:23 05.06.2022
1098 Clear 10 1008 48 10000 2.84 41 18:57 05.06.2022
1099 Clear 13 1008 38 10000 4.12 30 18:18 05.06.2022
1100 Clear 11 1008 40 10000 5.14 50 17:38 05.06.2022
1101 Clear 11 1008 40 10000 5.14 50 17:20 05.06.2022
1102 Clear 10 1009 46 10000 5.14 50 16:47 05.06.2022
1103 Clear 9 1009 53 10000 6.17 60 15:25 05.06.2022
1104 Clear 9 1009 57 10000 6.71 50 14:21 05.06.2022
1105 Clear 7 1010 65 10000 7.15 40 11:59 05.06.2022
1106 Clear 7 1011 65 10000 7.2 40 10:45 05.06.2022
1107 Clear 7 1011 65 10000 7.2 40 10:24 05.06.2022
1108 Clear 7 1011 65 10000 8.23 40 09:42 05.06.2022
1109 Clear 8 1011 53 10000 8.23 60 08:25 05.06.2022
1110 Clear 7 1013 57 10000 6.17 40 06:25 05.06.2022
1111 Clear 7 1013 61 10000 5.14 30 05:19 05.06.2022
1112 Clear 8 1015 59 10000 4.11 22 02:57 05.06.2022
1113 Clear 14 1016 28 10000 2.06 360 01:24 05.06.2022
1114 Clear 14 1016 28 10000 2.06 360 01:24 05.06.2022
1115 Clear 14 1017 26 10000 2.57 350 23:43 04.06.2022
1116 Clear 14 1017 26 10000 3.09 10 21:31 04.06.2022
1117 Clear 14 1018 26 10000 3.09 60 19:46 04.06.2022
1118 Clear 7 1018 49 10000 1.04 78 17:50 04.06.2022
1119 Clear 7 1019 53 10000 1.57 131 16:22 04.06.2022
1120 Clear 7 1019 53 10000 1.57 131 15:54 04.06.2022
1121 Clear 10 1019 43 10000 3.09 200 14:36 04.06.2022
1122 Clouds 11 1017 30 10000 7.2 60 11:48 04.06.2022
1123 Clear 5 1018 61 10000 4.62 59 10:57 04.06.2022
1124 Clear 11 1017 32 10000 7.2 70 10:20 04.06.2022
1125 Clear 12 1017 28 10000 11.83 70 09:41 04.06.2022
1126 Clear 12 1017 30 10000 12.35 60 08:40 04.06.2022
1127 Clear 12 1016 32 10000 11.83 60 07:27 04.06.2022
1128 Clouds 9 1018 49 10000 5.14 30 04:33 04.06.2022
1129 Clouds 9 1018 49 10000 5.14 30 04:33 04.06.2022
1130 Clouds 9 1018 49 10000 5.14 30 04:33 04.06.2022
1131 Clouds 9 1018 49 10000 5.14 30 04:33 04.06.2022
1132 Clouds 9 1018 49 10000 5.14 30 04:33 04.06.2022
1133 Clouds 13 1018 28 10000 4.12 50 00:48 04.06.2022
1134 Clouds 13 1018 24 10000 3.6 50 23:35 03.06.2022
1135 Clouds 12 1018 30 10000 5.14 50 22:30 03.06.2022
1136 Clouds 8 1018 48 10000 6.38 33 20:52 03.06.2022
1137 Clouds 12 1018 24 10000 10.29 80 20:27 03.06.2022
1138 Clouds 10 1018 29 10000 7.2 40 17:39 03.06.2022
1139 Clear 9 1018 37 10000 7.2 40 16:37 03.06.2022
1140 Clear 8 1018 39 10000 6.71 40 15:18 03.06.2022
1141 Clouds 5 1018 41 10000 8.05 60 12:56 03.06.2022
1142 Clouds 5 1018 45 10000 7.6 50 10:54 03.06.2022
1143 Clear 5 1018 60 10000 3.09 330 09:38 03.06.2022
1144 Clear 6 1018 45 10000 1.54 0 08:32 03.06.2022
1145 Clouds 6 1018 49 10000 6.17 50 07:26 03.06.2022
1146 Clouds 5 1018 60 10000 4.47 360 06:32 03.06.2022
1147 Clouds 5 1018 60 10000 4.63 360 05:19 03.06.2022
1148 Clouds 9 1018 43 10000 3.09 30 00:25 03.06.2022
1149 Clouds 9 1018 43 10000 4.63 20 22:41 02.06.2022
1150 Clouds 9 1018 43 10000 4.63 20 22:41 02.06.2022
1151 Clouds 10 1018 34 10000 3.6 30 21:38 02.06.2022
1152 Clouds 9 1018 34 10000 4.63 30 20:22 02.06.2022
1153 Clouds 9 1018 43 10000 3.6 50 19:46 02.06.2022
1154 Clouds 9 1018 43 10000 3.6 50 19:28 02.06.2022
1155 Clouds 7 1018 57 10000 4.12 30 17:32 02.06.2022
1156 Clouds 8 1018 49 10000 5.66 40 16:27 02.06.2022
1157 Clouds 7 1019 53 10000 5.14 50 14:20 02.06.2022
1158 Clouds 6 1018 56 10000 5.66 50 13:29 02.06.2022
1159 Clouds 4 1019 75 10000 5.66 30 11:36 02.06.2022
1160 Clouds 4 1019 70 10000 5.66 50 10:20 02.06.2022
1161 Clear 4 1019 70 10000 4.63 50 09:28 02.06.2022
1162 Clouds 4 1019 70 10000 5.14 40 08:27 02.06.2022
1163 Clouds 4 1020 65 10000 4.63 50 07:25 02.06.2022
1164 Clouds 5 1021 60 10000 3.58 60 04:52 02.06.2022
1165 Clouds 8 1022 46 10000 3.6 40 02:38 02.06.2022
1166 Clouds 9 1022 45 10000 3.58 60 23:50 01.06.2022
1167 Clouds 9 1022 43 10000 4.12 50 22:32 01.06.2022
1168 Clouds 9 1022 46 10000 5.14 40 21:37 01.06.2022
1169 Clear 9 1023 42 10000 5.81 30 20:59 01.06.2022
1170 Clouds 9 1023 43 10000 6.17 30 20:37 01.06.2022
1171 Clouds 8 1023 46 10000 4.63 40 19:28 01.06.2022
1172 Clear 5 1023 56 10000 4.92 20 17:46 01.06.2022
1173 Clear 6 1023 56 10000 5.14 20 16:38 01.06.2022
1174 Clear 5 1023 65 10000 5.81 20 14:59 01.06.2022
1175 Clear 4 1023 69 10000 5.36 20 13:54 01.06.2022
1176 Clear 4 1022 70 10000 6.71 30 12:28 01.06.2022
1177 Clear 4 1022 65 10000 4.92 20 10:25 01.06.2022
1178 Clear 4 1022 65 10000 5.14 20 09:24 01.06.2022
1179 Clear 4 1022 65 10000 6.17 20 07:25 01.06.2022
1180 Clear 4 1021 70 10000 5.66 30 06:40 01.06.2022
1181 Clear 7 1021 61 10000 6.17 20 01:29 01.06.2022
1182 Clear 8 1020 53 10000 8.23 10 23:41 31.05.2022
1183 Clouds 8 1020 52 10000 8.23 20 22:37 31.05.2022
1184 Clouds 9 1020 57 10000 6.17 20 21:46 31.05.2022
1185 Clouds 9 1019 49 10000 6.17 30 20:46 31.05.2022
1186 Clouds 9 1019 49 10000 6.17 30 20:23 31.05.2022
1187 Clouds 6 1020 53 10000 5.71 19 18:54 31.05.2022
1188 Clouds 9 1020 49 10000 4.47 50 17:51 31.05.2022
1189 Clouds 9 1020 49 10000 4.63 50 17:20 31.05.2022
1190 Clouds 8 1020 49 10000 3.6 30 15:42 31.05.2022
1191 Clouds 7 1020 57 10000 3.09 50 14:33 31.05.2022
1192 Clouds 5 1020 70 10000 3.6 40 12:22 31.05.2022
1193 Clouds 5 1020 70 10000 3.6 50 11:42 31.05.2022
1194 Clouds 4 1020 75 10000 3.09 50 09:49 31.05.2022
1195 Clouds 4 1021 81 10000 3.6 50 07:36 31.05.2022
1196 Clouds 5 1022 75 10000 3.6 50 05:24 31.05.2022
1197 Clouds 8 1023 66 10000 3.09 50 02:33 31.05.2022
1198 Clouds 9 1024 66 10000 3.09 50 23:29 30.05.2022
1199 Clouds 8 1025 70 10000 2.68 20 22:59 30.05.2022
1200 Clouds 8 1025 71 10000 3.09 20 22:24 30.05.2022
1201 Clouds 10 1025 57 10000 2.57 50 21:35 30.05.2022
1202 Clouds 8 1026 66 10000 3.09 50 20:31 30.05.2022
1203 Clouds 5 1027 75 10000 3.58 60 19:26 30.05.2022
1204 Clouds 4 1027 100 10000 4.12 60 17:43 30.05.2022
1205 Clouds 3 1028 100 10000 3.58 40 16:54 30.05.2022
1206 Fog 1 1028 100 600 5.14 40 15:43 30.05.2022
1207 Fog 0 1029 100 200 1.03 240 12:44 30.05.2022
1208 Fog 0 1029 93 200 4.12 190 11:26 30.05.2022
1209 Snow -1 1028 100 150 7.2 180 09:39 30.05.2022
1210 Clear 4 1027 81 10000 5.66 190 07:24 30.05.2022
1211 Clear 5 1026 70 10000 2.24 170 05:51 30.05.2022
1212 Clear 6 1024 70 10000 2.06 50 02:36 30.05.2022
1213 Clear 5 1022 75 10000 5.36 30 23:32 29.05.2022
1214 Clear 6 1022 75 10000 5.66 30 22:40 29.05.2022
1215 Clear 6 1022 75 10000 5.14 40 21:40 29.05.2022
1216 Clear 4 1021 71 10000 4.92 20 19:57 29.05.2022
1217 Clear 4 1021 75 10000 5.14 20 19:28 29.05.2022
1218 Clouds 2 1019 87 10000 5.14 20 17:48 29.05.2022
1219 Clear 0 1019 74 10000 4.47 360 15:50 29.05.2022
1220 Clouds 1 1019 93 10000 4.63 360 15:32 29.05.2022
1221 Clouds 1 1018 86 10000 5.14 10 14:44 29.05.2022
1222 Clouds 0 1018 86 10000 3.09 50 12:21 29.05.2022
1223 Clouds 0 1017 93 10000 2.57 20 10:45 29.05.2022
1224 Clouds 0 1017 83 10000 3.51 4 09:54 29.05.2022
1225 Clouds 0 1015 86 10000 2.57 340 07:42 29.05.2022
1226 Clouds 0 1013 88 10000 2.68 360 04:51 29.05.2022
1227 Clouds 0 1013 93 10000 3.09 360 04:32 29.05.2022
1228 Clouds 0 1012 85 10000 4.92 340 00:53 29.05.2022
1229 Clouds 1 1012 86 10000 6.71 340 23:47 28.05.2022
1230 Clouds 1 1012 86 10000 6.71 340 23:18 28.05.2022
1231 Clouds 1 1012 80 10000 6.17 340 21:46 28.05.2022
1232 Clouds 1 1012 80 10000 7.2 340 20:46 28.05.2022
1233 Clouds 1 1012 80 10000 8.23 340 19:19 28.05.2022
1234 Clouds 1 1011 80 10000 7.2 340 18:21 28.05.2022
1235 Clouds 1 1011 80 10000 6.17 340 17:32 28.05.2022
1236 Clouds 0 1012 86 10000 5.66 340 15:49 28.05.2022
1237 Clouds 0 1012 86 10000 5.66 340 15:19 28.05.2022
1238 Clouds 0 1012 80 10000 6.17 360 13:29 28.05.2022
1239 Clouds -1 1013 86 10000 6.17 10 12:42 28.05.2022
1240 Clouds -1 1013 93 10000 6.17 360 11:28 28.05.2022
1241 Clouds -1 1014 93 10000 6.17 350 10:38 28.05.2022
1242 Clouds -2 1015 92 10000 5.81 350 09:54 28.05.2022
1243 Clouds -1 1015 86 10000 5.66 340 08:21 28.05.2022
1244 Clouds -1 1016 93 10000 6.17 350 06:33 28.05.2022
1245 Clouds -1 1018 93 10000 6.17 340 04:46 28.05.2022
1246 Clouds 0 1019 86 10000 5.59 344 02:18 28.05.2022
1247 Clouds 0 1020 75 10000 4.47 320 23:55 27.05.2022
1248 Clouds 1 1020 80 10000 4.63 290 22:38 27.05.2022
1249 Clouds 1 1020 80 10000 3.09 220 21:28 27.05.2022
1250 Clouds 1 1019 86 10000 5.14 220 20:44 27.05.2022
1251 Clouds 1 1019 86 10000 5.14 220 20:19 27.05.2022
1252 Clouds 1 1019 75 10000 5.14 200 19:37 27.05.2022
1253 Clouds 1 1019 75 10000 5.14 200 19:19 27.05.2022
1254 Clouds 0 1019 80 10000 6.71 190 17:19 27.05.2022
1255 Clouds 0 1018 86 7477 7.15 160 15:56 27.05.2022
1256 Clouds 0 1019 84 10000 4.23 197 14:53 27.05.2022
1257 Clouds 0 1016 80 10000 7.72 190 13:40 27.05.2022
1258 Clouds -1 1016 86 10000 5.66 190 12:20 27.05.2022
1259 Clouds -1 1016 86 10000 5.66 190 11:30 27.05.2022
1260 Clouds -1 1015 86 10000 5.14 190 10:41 27.05.2022
1261 Clouds -1 1017 80 10000 2.79 181 09:59 27.05.2022
1262 Snow -1 1015 86 9000 4.63 190 09:30 27.05.2022
1263 Clouds -1 1014 86 10000 4.12 190 07:39 27.05.2022
1264 Clouds -1 1014 86 10000 4.12 190 07:39 27.05.2022
1265 Clouds -1 1014 86 10000 5.81 200 04:58 27.05.2022
1266 Clouds -1 1014 100 10000 5.14 200 01:38 27.05.2022
1267 Snow -1 1013 100 1200 4.63 220 23:23 26.05.2022
1268 Snow 0 1012 93 10000 5.66 200 22:22 26.05.2022
1269 Snow 0 1011 93 10000 6.17 200 21:27 26.05.2022
1270 Snow 0 1010 93 10000 5.14 200 19:39 26.05.2022
1271 Clouds 0 1012 84 9209 6.71 210 18:52 26.05.2022
1272 Snow -1 1009 100 2500 6.71 200 17:36 26.05.2022
1273 Snow -1 1008 100 1300 6.17 200 16:30 26.05.2022
1274 Snow 0 1008 93 1100 6.71 210 15:32 26.05.2022
1275 Snow 0 1007 93 1300 6.17 210 14:20 26.05.2022
1276 Snow 1 1005 93 2100 9.26 190 12:18 26.05.2022
1277 Clouds 3 1005 81 10000 9.77 180 11:21 26.05.2022
1278 Snow 3 1004 70 10000 6.71 190 09:39 26.05.2022
1279 Clouds 3 1003 65 10000 10.29 170 08:51 26.05.2022
1280 Clouds 2 1004 69 10000 5.81 190 06:51 26.05.2022
1281 Clear 2 1004 64 10000 1.34 70 02:54 26.05.2022
1282 Clouds 2 1005 75 10000 4.12 200 00:19 26.05.2022
1283 Clouds 2 1006 64 10000 1.34 300 22:58 25.05.2022
1284 Clouds 3 1007 56 10000 1.54 250 21:44 25.05.2022
1285 Clouds 0 1007 69 10000 1.79 50 20:53 25.05.2022
1286 Clouds 0 1008 64 10000 3.58 200 19:59 25.05.2022
1287 Clouds 0 1009 69 10000 5.14 200 18:48 25.05.2022
1288 Clouds 0 1009 64 10000 3.6 220 17:26 25.05.2022
1289 Clouds 0 1010 69 10000 1.54 360 16:35 25.05.2022
1290 Clouds 0 1010 62 10000 3.14 142 15:53 25.05.2022
1291 Clouds -1 1012 63 10000 0.89 90 14:51 25.05.2022
1292 Clouds -1 1011 64 10000 2.57 180 14:32 25.05.2022
1293 Clouds -1 1011 64 10000 1.03 90 13:28 25.05.2022
1294 Clouds -3 1013 66 10000 3.8 152 12:24 25.05.2022
1295 Clouds -4 1012 80 10000 0 0 10:42 25.05.2022
1296 Clouds -3 1013 64 10000 3.02 154 09:53 25.05.2022
1297 Clouds -4 1014 62 10000 1.95 158 08:22 25.05.2022
1298 Clouds -4 1014 64 10000 1.07 204 06:45 25.05.2022
1299 Clouds -4 1013 86 10000 3.09 290 03:19 25.05.2022
1300 Clouds -3 1011 86 7547 4.47 280 23:53 24.05.2022
1301 Snow -3 1011 86 10000 4.63 280 23:23 24.05.2022
1302 Snow -3 1011 86 2500 4.63 280 22:19 24.05.2022
1303 Clouds -3 1010 80 10000 6.17 280 21:38 24.05.2022
1304 Clouds -3 1010 80 10000 6.17 280 21:19 24.05.2022
1305 Clouds -2 1009 80 10000 6.17 280 19:37 24.05.2022
1306 Clouds -2 1008 79 7403 5.81 280 18:50 24.05.2022
1307 Snow -2 1007 93 2000 2.57 240 16:41 24.05.2022
1308 Snow -2 1007 93 2000 2.57 240 16:19 24.05.2022
1309 Snow -3 1008 90 1168 6.1 264 14:50 24.05.2022
1310 Snow -3 1005 80 10000 8.23 170 13:52 24.05.2022
1311 Snow -4 1005 86 4000 8.75 180 12:46 24.05.2022
1312 Clouds -4 1005 80 10000 6.71 190 10:46 24.05.2022
1313 Snow -4 1005 80 10000 6.69 210 09:43 24.05.2022
1314 Snow -4 1005 86 10000 6.71 220 08:49 24.05.2022
1315 Clouds -3 1006 86 10000 3.58 240 06:56 24.05.2022
1316 Clouds -2 1004 86 10000 7.6 210 03:48 24.05.2022
1317 Clouds -1 1004 86 176 7.15 210 01:51 24.05.2022
1318 Clouds -1 1004 86 10000 7.2 210 01:19 24.05.2022
1319 Clouds -1 1003 92 3776 7.6 210 22:55 23.05.2022
1320 Clouds -2 1003 100 10000 7.6 220 21:55 23.05.2022
1321 Snow -2 1003 100 1200 7.72 220 21:29 23.05.2022
1322 Snow -1 1002 93 2000 9.77 190 20:29 23.05.2022
1323 Snow -1 1002 93 5000 10.8 190 19:31 23.05.2022
1324 Clouds -1 1002 92 601 11.18 190 18:58 23.05.2022
1325 Snow -1 1002 93 1200 11.32 190 18:30 23.05.2022
1326 Snow -1 1002 93 2200 11.83 200 17:20 23.05.2022
1327 Snow -1 1001 93 1500 11.32 200 15:23 23.05.2022
1328 Snow -1 1000 100 1000 10.8 200 13:21 23.05.2022
1329 Clouds 0 999 86 10000 11.83 190 11:33 23.05.2022
1330 Snow 0 998 86 10000 12.35 190 10:31 23.05.2022
1331 Clouds 0 998 86 10000 12.86 200 09:39 23.05.2022
1332 Snow 0 997 86 6000 14.92 200 08:32 23.05.2022
1333 Snow 0 995 93 9000 14.4 190 06:46 23.05.2022
1334 Snow 0 994 100 6000 15.95 190 05:39 23.05.2022
1335 Clouds 1 993 93 5000 16.46 170 02:35 23.05.2022
1336 Clouds 0 993 100 2500 16.46 180 01:42 23.05.2022
1337 Clouds 1 993 93 10000 15.95 180 00:38 23.05.2022
1338 Clouds 2 992 80 10000 15.95 180 22:42 22.05.2022
1339 Clouds 0 992 94 1522 14.31 180 21:55 22.05.2022
1340 Snow 1 992 93 2500 14.4 180 21:36 22.05.2022
1341 Clouds 2 991 87 10000 14.32 171 20:37 22.05.2022
1342 Clouds 2 991 87 10000 15.48 171 20:18 22.05.2022
1343 Snow 1 994 94 1698 12.33 171 18:57 22.05.2022
1344 Snow 1 992 100 3100 11.83 360 18:28 22.05.2022
1345 Snow 1 994 98 48 6.5 184 17:51 22.05.2022
1346 Snow 1 994 98 37 8.86 192 16:51 22.05.2022
1347 Snow 1 994 97 46 16.11 176 14:56 22.05.2022
1348 Snow 1 993 96 57 18.78 174 13:57 22.05.2022
1349 Snow 2 993 96 68 20.66 174 12:54 22.05.2022
1350 Snow 2 993 96 85 21.66 174 11:53 22.05.2022
1351 Snow 3 992 93 1400 18.01 170 10:29 22.05.2022
1352 Snow 4 994 93 1800 13.89 170 09:27 22.05.2022
1353 Snow 4 996 93 1900 15.95 160 07:44 22.05.2022
1354 Snow 6 998 81 2500 14.92 160 06:41 22.05.2022
1355 Clouds 5 1002 71 10000 17.67 164 03:53 22.05.2022
1356 Clouds 3 1006 81 10000 8.05 200 00:49 22.05.2022
1357 Clouds 3 1006 81 10000 8.05 200 00:49 22.05.2022
1358 Clouds 3 1007 86 10000 8.05 200 23:56 21.05.2022
1359 Clouds 3 1007 87 10000 8.23 200 23:27 21.05.2022
1360 Clouds 4 1009 80 10000 5.36 200 21:59 21.05.2022
1361 Clouds 4 1009 81 10000 5.66 200 21:37 21.05.2022
1362 Fog 4 1009 81 10000 2.57 210 20:41 21.05.2022
1363 Clouds 3 1010 100 10000 1.34 320 19:53 21.05.2022
1364 Clouds 3 1011 93 10000 1.34 330 18:54 21.05.2022
1365 Clouds 2 1011 93 10000 2.06 240 17:23 21.05.2022
1366 Clouds 3 1013 70 10000 2.87 168 14:51 21.05.2022
1367 Clouds -1 1013 100 10000 1.54 190 14:19 21.05.2022
1368 Clouds -1 1013 100 10000 2.57 180 13:25 21.05.2022
1369 Mist -1 1012 100 4000 2.06 340 12:39 21.05.2022
1370 Fog -2 1013 100 500 2.57 190 11:45 21.05.2022
1371 Fog -2 1013 93 800 1.03 0 10:21 21.05.2022
1372 Clouds 2 1013 76 10000 1.6 169 08:59 21.05.2022
1373 Clouds -3 1013 100 600 1.03 200 08:39 21.05.2022
1374 Clouds 1 1013 79 10000 1.88 222 06:21 21.05.2022
1375 Clouds 2 1012 79 10000 2.02 226 01:59 21.05.2022
1376 Clouds -2 1010 100 1000 2.57 180 23:42 20.05.2022
1377 Fog -1 1010 100 700 3.6 220 22:41 20.05.2022
1378 Fog -1 1010 100 700 3.6 220 22:18 20.05.2022
1379 Mist 0 1009 93 3000 2.57 220 21:19 20.05.2022
1380 Clouds 3 1010 73 10000 2.71 274 20:51 20.05.2022
1381 Clouds 3 1010 73 10000 2.65 226 19:54 20.05.2022
1382 Clouds 0 1009 72 10000 1.34 240 18:58 20.05.2022
1383 Mist 0 1009 100 4000 1.54 240 18:24 20.05.2022
1384 Fog -1 1009 100 400 4.12 190 16:28 20.05.2022
1385 Clouds 3 1009 73 10000 1.88 169 15:54 20.05.2022
1386 Fog -1 1008 100 400 2.06 200 15:32 20.05.2022
1387 Fog -1 1008 93 300 1.03 360 14:28 20.05.2022
1388 Fog -2 1008 100 300 1.54 160 13:31 20.05.2022
1389 Snow -2 1007 100 150 4.12 190 10:48 20.05.2022
1390 Snow -2 1007 100 150 1.62 103 09:32 20.05.2022
1391 Snow -2 1006 100 150 2.34 67 08:37 20.05.2022
1392 Snow -1 1006 93 150 2.37 32 06:44 20.05.2022
1393 Clouds 0 1006 67 10000 2.24 180 05:53 20.05.2022
1394 Clouds 4 1006 80 10000 2.68 360 02:53 20.05.2022
1395 Clear 5 1006 70 10000 4.12 30 23:47 19.05.2022
1396 Clear 4 1007 75 10000 4.63 30 22:39 19.05.2022
1397 Clear 5 1007 65 10000 4.92 40 21:52 19.05.2022
1398 Clear 5 1007 65 10000 5.14 40 21:24 19.05.2022
1399 Clear 4 1007 57 10000 5.36 20 20:54 19.05.2022
1400 Clear 4 1007 75 10000 5.66 20 20:20 19.05.2022
1401 Clear 3 1007 81 10000 5.14 20 19:34 19.05.2022
1402 Clouds 5 1008 62 10000 1.95 335 17:52 19.05.2022
1403 Fog -1 1009 100 500 1.54 320 16:22 19.05.2022
1404 Clouds 3 1010 69 10000 1.52 337 14:52 19.05.2022
1405 Fog -1 1009 93 150 2.57 20 14:21 19.05.2022
1406 Fog -2 1009 100 150 1.03 260 12:23 19.05.2022
1407 Fog -2 1009 100 200 1.03 220 10:40 19.05.2022
1408 Clear 2 1010 82 10000 2.07 159 08:59 19.05.2022
1409 Snow -2 1009 100 100 3.09 190 07:48 19.05.2022
1410 Snow -1 1009 93 150 4.12 170 04:44 19.05.2022
1411 Clear 5 1008 68 10000 0.89 240 01:58 19.05.2022
1412 Clear 5 1007 63 10000 2.68 360 23:53 18.05.2022
1413 Clear 5 1007 65 10000 3.6 10 22:46 18.05.2022
1414 Clear 5 1007 65 10000 3.6 10 22:46 18.05.2022
1415 Clear 5 1008 56 10000 4.12 20 21:47 18.05.2022
1416 Clear 5 1008 56 10000 4.12 20 21:25 18.05.2022
1417 Clear 5 1007 60 10000 4.63 20 20:24 18.05.2022
1418 Clear 4 1008 65 10000 5.14 30 19:39 18.05.2022
1419 Clear 3 1008 81 10000 4.63 30 18:21 18.05.2022
1420 Clear 3 1008 81 10000 4.12 10 17:41 18.05.2022
1421 Clear 3 1008 81 10000 4.12 10 17:23 18.05.2022
1422 Clear 3 1008 81 10000 5.14 20 16:23 18.05.2022
1423 Clouds 2 1009 87 10000 6.17 20 15:39 18.05.2022
1424 Clear 2 1009 80 10000 6.17 20 14:35 18.05.2022
1425 Clouds 1 1009 93 10000 5.14 10 13:22 18.05.2022
1426 Clouds 1 1010 86 10000 5.14 20 12:40 18.05.2022
1427 Clouds 0 1010 93 10000 5.14 20 11:34 18.05.2022
1428 Clear 0 1010 75 10000 5.36 30 10:56 18.05.2022
1429 Clear 0 1010 93 10000 5.14 30 09:24 18.05.2022
1430 Clouds -1 1011 100 10000 4.63 20 07:32 18.05.2022
1431 Clouds 0 1011 86 10000 4.63 20 05:34 18.05.2022
1432 Clouds 2 1013 80 10000 4.63 30 01:20 18.05.2022
1433 Clear 2 1013 80 10000 4.63 10 00:21 18.05.2022
1434 Clouds 3 1014 69 10000 4.47 10 21:56 17.05.2022
1435 Clouds 3 1014 70 10000 4.63 10 21:20 17.05.2022
1436 Clouds 2 1014 80 10000 4.02 10 19:59 17.05.2022
1437 Clouds 2 1014 80 10000 4.12 10 19:27 17.05.2022
1438 Clouds 2 1015 80 10000 5.36 10 17:50 17.05.2022
1439 Clouds 0 1015 80 10000 5.36 20 16:58 17.05.2022
1440 Clouds 1 1015 80 10000 5.66 20 16:29 17.05.2022
1441 Clouds 0 1016 86 10000 5.14 30 15:25 17.05.2022
1442 Clouds 0 1016 93 10000 4.63 20 14:30 17.05.2022
1443 Clouds -1 1016 100 10000 4.12 10 13:32 17.05.2022
1444 Fog -2 1016 93 200 5.14 20 11:43 17.05.2022
1445 Mist -2 1016 93 1100 5.66 20 09:27 17.05.2022
1446 Clouds -2 1016 93 10000 5.14 20 08:25 17.05.2022
1447 Clouds -2 1016 100 10000 4.12 20 06:48 17.05.2022
1448 Clear -1 1016 93 10000 3.09 40 03:41 17.05.2022
1449 Clear 1 1015 80 10000 4.63 350 00:43 17.05.2022
1450 Clear 2 1015 75 10000 4.63 350 22:43 16.05.2022
1451 Clear 3 1015 60 10000 3.6 360 21:41 16.05.2022
1452 Clear 3 1014 60 10000 3.09 30 20:47 16.05.2022
1453 Clear 2 1014 60 10000 3.6 40 19:46 16.05.2022
1454 Clear 2 1014 64 10000 4.63 10 18:20 16.05.2022
1455 Clear 0 1013 69 10000 4.47 30 15:50 16.05.2022
1456 Clear 0 1013 74 10000 3.09 10 14:26 16.05.2022
1457 Clear 0 1012 74 10000 3.6 20 13:23 16.05.2022
1458 Clear -1 1012 74 10000 1.54 30 11:25 16.05.2022
1459 Clear -1 1010 64 10000 4.63 60 09:37 16.05.2022
1460 Clear -1 1011 67 10000 3.86 29 06:58 16.05.2022
1461 Clear -1 1009 58 10000 4.92 10 03:58 16.05.2022
1462 Clear -1 1009 59 10000 5.14 10 23:38 15.05.2022
1463 Clear -1 1009 59 10000 5.14 10 22:32 15.05.2022
1464 Clear -1 1009 55 10000 5.14 10 21:47 15.05.2022
1465 Clear -1 1009 58 10000 4.92 10 20:57 15.05.2022
1466 Clear -2 1009 63 10000 4.92 10 19:53 15.05.2022
1467 Clear -2 1010 58 10000 5.36 10 17:52 15.05.2022
1468 Clear -3 1010 68 10000 6.17 360 16:31 15.05.2022
1469 Clear -4 1010 73 10000 6.71 350 13:59 15.05.2022
1470 Clear -4 1010 74 10000 6.71 350 13:23 15.05.2022
1471 Clear -4 1010 80 10000 5.66 30 11:41 15.05.2022
1472 Clouds -4 1010 80 10000 5.66 10 10:35 15.05.2022
1473 Clouds -4 1010 80 10000 4.12 30 08:47 15.05.2022
1474 Clouds -5 1010 85 10000 1.79 60 06:59 15.05.2022
1475 Clouds -5 1010 85 10000 1.34 140 05:57 15.05.2022
1476 Snow -4 1011 86 2000 2.57 300 01:43 15.05.2022
1477 Clouds -3 1012 68 10000 1.79 330 23:52 14.05.2022
1478 Clouds -3 1012 68 10000 2.06 330 23:33 14.05.2022
1479 Clouds -3 1011 74 6000 2.06 340 21:43 14.05.2022
1480 Clouds -5 1011 85 10000 3.6 340 21:18 14.05.2022
1481 Clouds -3 1011 68 10000 2.57 20 19:40 14.05.2022
1482 Clouds -3 1011 68 10000 2.57 20 19:40 14.05.2022
1483 Clouds -3 1011 68 10000 2.57 20 19:40 14.05.2022
1484 Clouds -3 1011 68 10000 2.57 20 19:20 14.05.2022
1485 Clouds -3 1011 68 10000 2.06 10 18:47 14.05.2022
1486 Clouds -3 1011 74 10000 3.09 10 17:36 14.05.2022
1487 Snow -4 1011 74 10000 5.14 320 15:47 14.05.2022
1488 Snow -4 1011 80 10000 4.63 340 14:37 14.05.2022
1489 Clouds -5 1010 85 10000 4.92 340 12:51 14.05.2022
1490 Clouds -3 1010 73 10000 3.6 360 11:37 14.05.2022
1491 Clouds -4 1010 86 10000 5.14 350 10:24 14.05.2022
1492 Clouds -5 1010 79 10000 5.81 330 09:56 14.05.2022
1493 Clouds -5 1011 85 10000 7.15 340 08:59 14.05.2022
1494 Snow -4 1009 80 10000 2.57 340 07:23 14.05.2022
1495 Clouds -4 1010 80 10000 4.12 340 03:45 14.05.2022
1496 Snow -3 1010 68 10000 1.03 10 00:21 14.05.2022
1497 Snow -3 1010 68 10000 1.03 50 23:24 13.05.2022
1498 Clouds -1 1010 68 10000 0.45 330 22:54 13.05.2022
1499 Snow -1 1010 69 10000 0.51 330 22:20 13.05.2022
1500 Clouds -2 1010 74 10000 7 315 20:57 13.05.2022
1501 Snow -2 1010 74 8000 1.03 0 20:30 13.05.2022
1502 Clouds -3 1010 73 10000 3.58 320 19:51 13.05.2022
1503 Clouds -3 1010 74 10000 4.12 320 18:47 13.05.2022
1504 Snow -4 1010 80 10000 4.12 320 17:29 13.05.2022
1505 Snow -4 1010 86 10000 6.17 320 16:29 13.05.2022
1506 Snow -4 1010 80 7000 5.66 300 15:45 13.05.2022
1507 Snow -4 1010 80 10000 5.66 300 14:29 13.05.2022
1508 Snow -4 1009 80 10000 3.09 300 12:47 13.05.2022
1509 Snow -4 1009 80 10000 3.09 300 11:39 13.05.2022
1510 Clouds -3 1010 80 4408 3.84 320 09:54 13.05.2022
1511 Snow -3 1010 83 6642 3.55 319 08:51 13.05.2022
1512 Clouds -3 1009 84 4832 3.55 314 07:50 13.05.2022
1513 Clouds -4 1008 74 10000 3.6 300 06:49 13.05.2022
1514 Clouds -3 1009 77 10000 4.4 329 04:54 13.05.2022
1515 Clouds -3 1005 79 10000 2.68 310 00:57 13.05.2022
1516 Clouds -2 1004 80 10000 4.12 330 22:49 12.05.2022
1517 Clouds -2 1004 80 10000 4.12 330 22:30 12.05.2022
1518 Clouds -1 1002 80 10000 5.14 300 20:49 12.05.2022
1519 Clouds -1 1001 86 10000 4.12 310 19:26 12.05.2022
1520 Snow -1 1001 93 10000 5.14 300 18:25 12.05.2022
1521 Snow 0 999 100 2000 2.57 280 16:39 12.05.2022
1522 Clouds 0 998 100 10000 0.45 360 14:52 12.05.2022
1523 Snow 1 997 100 1000 1.54 20 13:48 12.05.2022
1524 Snow 0 995 100 2500 3.09 40 11:48 12.05.2022
1525 Snow 0 995 100 2400 2.57 30 10:32 12.05.2022
1526 Clouds 0 995 93 3169 3.64 28 08:52 12.05.2022
1527 Clouds 0 995 93 3169 3.64 28 08:52 12.05.2022
1528 Snow 0 994 95 2387 4.29 34 07:59 12.05.2022
1529 Snow 0 993 100 7000 2.57 10 07:22 12.05.2022
1530 Clouds 0 993 90 2140 6.71 60 03:50 12.05.2022
1531 Snow 2 993 87 8000 6.71 60 01:29 12.05.2022
1532 Snow 1 993 93 5000 6.17 60 23:18 11.05.2022
1533 Snow 1 994 93 10000 6.17 40 22:18 11.05.2022
1534 Snow 1 994 93 5000 7.2 40 21:25 11.05.2022
1535 Clouds 1 995 93 5000 7.2 40 20:20 11.05.2022
1536 Clouds 0 998 100 4000 2.06 60 17:33 11.05.2022
1537 Snow 1 999 86 3300 1.54 240 16:27 11.05.2022
1538 Snow 1 1000 86 10000 2.57 30 14:48 11.05.2022
1539 Snow 1 1000 86 10000 2.57 30 14:25 11.05.2022
1540 Clouds 1 1001 86 10000 1.03 0 13:25 11.05.2022
1541 Clouds 2 1002 75 10000 1.03 0 11:48 11.05.2022
1542 Clouds 0 1004 93 10000 5.66 70 09:30 11.05.2022
1543 Clouds -1 1006 100 10000 3.6 20 06:36 11.05.2022
1544 Snow 0 1007 93 6000 3.6 40 02:27 11.05.2022
1545 Clouds 0 1008 100 36 1.18 215 22:58 10.05.2022
1546 Snow 1 1008 93 1000 0 0 22:30 10.05.2022
1547 Mist 0 1008 100 2000 1.03 190 21:41 10.05.2022
1548 Clouds 0 1008 100 10000 2.57 210 20:47 10.05.2022
1549 Clouds 0 1009 99 46 7.15 190 18:58 10.05.2022
1550 Drizzle 0 1010 100 10000 7.2 190 17:38 10.05.2022
1551 Drizzle 0 1010 100 5000 7.72 190 16:38 10.05.2022
1552 Clouds 1 1011 80 10000 7.72 180 13:37 10.05.2022
1553 Snow 0 1014 99 105 3.75 179 11:54 10.05.2022
1554 Snow 0 1013 100 7000 5.66 190 11:34 10.05.2022
1555 Snow 0 1014 99 103 3.41 181 10:57 10.05.2022
1556 Snow 0 1015 99 87 3.05 185 09:52 10.05.2022
1557 Snow 0 1014 93 1800 8.23 180 08:29 10.05.2022
1558 Snow -1 1014 93 800 10.29 180 06:21 10.05.2022
1559 Snow 0 1012 80 6000 14.92 180 02:31 10.05.2022
1560 Snow 0 1012 80 6000 12.35 180 00:23 10.05.2022
1561 Clouds 1 1013 64 10000 8.75 200 22:42 09.05.2022
1562 Clouds 1 1012 60 10000 8.23 190 21:48 09.05.2022
1563 Clouds -1 1013 93 10000 8.75 200 20:22 09.05.2022
1564 Clouds -1 1012 86 10000 6.17 200 18:35 09.05.2022
1565 Clouds -1 1012 80 10000 3.09 220 17:33 09.05.2022
1566 Clouds -2 1012 86 10000 2.57 270 16:28 09.05.2022
1567 Clouds -2 1012 86 10000 2.06 310 15:48 09.05.2022
1568 Clouds -2 1012 86 10000 2.57 330 14:46 09.05.2022
1569 Clouds -2 1012 86 10000 2.24 320 13:59 09.05.2022
1570 Clouds -2 1012 86 10000 2.57 320 13:32 09.05.2022
1571 Clouds -2 1011 92 10000 2.24 360 11:54 09.05.2022
1572 Clouds -2 1011 92 10000 3.58 340 10:50 09.05.2022
1573 Clouds -2 1010 93 10000 3.6 340 10:29 09.05.2022
1574 Clouds -2 1008 93 10000 3.6 350 08:23 09.05.2022
1575 Clouds -2 1008 93 10000 3.09 350 07:43 09.05.2022
1576 Clouds -1 1006 93 9000 5.66 340 02:44 09.05.2022
1577 Clouds 1 1004 86 10000 6.17 340 23:29 08.05.2022
1578 Clouds 1 1004 86 10000 6.17 340 22:47 08.05.2022
1579 Clouds 1 1003 86 10000 6.71 340 21:47 08.05.2022
1580 Clouds 1 1003 86 10000 6.17 340 20:31 08.05.2022
1581 Clouds 2 1003 80 10000 6.71 350 19:37 08.05.2022
1582 Clouds 1 1003 80 10000 4.63 350 18:49 08.05.2022
1583 Clouds 0 1003 74 10000 4.02 40 17:52 08.05.2022
1584 Clouds 1 1003 80 10000 4.63 10 16:33 08.05.2022
1585 Clear 0 1003 74 10000 4.63 360 15:25 08.05.2022
1586 Clear 0 1003 80 10000 5.14 20 14:27 08.05.2022
1587 Clear -1 1003 80 10000 4.47 10 12:21 08.05.2022
1588 Clouds -2 1003 86 10000 5.14 10 10:27 08.05.2022
1589 Clouds -2 1003 92 10000 4.47 30 09:56 08.05.2022
1590 Clouds -2 1003 86 10000 4.47 30 08:52 08.05.2022
1591 Clear -1 1003 86 10000 4.92 30 06:51 08.05.2022
1592 Clear -1 1004 93 10000 5.14 20 03:26 08.05.2022
1593 Clear 0 1005 86 10000 4.63 30 02:23 08.05.2022
1594 Clear 1 1005 80 10000 4.63 360 00:21 08.05.2022
1595 Clear 1 1005 80 10000 4.63 360 23:47 07.05.2022
1596 Clear 2 1005 69 10000 4.12 360 22:46 07.05.2022
1597 Clear 2 1005 69 10000 4.47 30 21:57 07.05.2022
1598 Clear 2 1005 69 10000 4.63 30 21:33 07.05.2022
1599 Clear 1 1005 69 10000 5.66 20 20:28 07.05.2022
1600 Clear 1 1005 69 10000 5.66 10 19:22 07.05.2022
1601 Clear 1 1006 75 10000 6.17 10 17:34 07.05.2022
1602 Clear 0 1006 80 10000 7.2 10 15:41 07.05.2022
1603 Clouds -1 1007 86 10000 4.47 20 12:50 07.05.2022
1604 Clouds -2 1007 93 10000 3.09 10 10:33 07.05.2022
1605 Clouds -5 1009 85 10000 1.21 66 08:57 07.05.2022
1606 Clouds -3 1009 79 10000 1.34 120 07:50 07.05.2022
1607 Clouds -3 1007 74 10000 0 0 06:43 07.05.2022
1608 Clouds -2 1007 80 10000 2.06 30 04:35 07.05.2022
1609 Clouds 0 1005 70 10000 2.68 350 00:56 07.05.2022
1610 Clouds 0 1005 59 10000 3.09 10 23:36 06.05.2022
1611 Clouds 0 1005 64 10000 3.6 10 22:26 06.05.2022
1612 Clouds 0 1004 64 10000 4.12 360 21:41 06.05.2022
1613 Clouds 0 1004 64 10000 4.12 360 20:24 06.05.2022
1614 Clear 0 1004 64 10000 4.63 360 19:29 06.05.2022
1615 Clouds 0 1004 61 10000 4.47 360 18:56 06.05.2022
1616 Clouds 1 1004 55 10000 4.12 40 17:38 06.05.2022
1617 Clouds 0 1004 59 10000 5.14 40 16:23 06.05.2022
1618 Clouds 0 1004 59 10000 4.63 40 15:39 06.05.2022
1619 Clouds -1 1004 69 10000 6.17 40 14:33 06.05.2022
1620 Clouds -1 1004 58 10000 5.81 60 12:53 06.05.2022
1621 Clouds -1 1004 59 10000 6.17 60 12:31 06.05.2022
1622 Clouds -1 1004 55 10000 5.66 60 11:38 06.05.2022
1623 Clouds -2 1004 54 10000 5.66 40 09:49 06.05.2022
1624 Clouds -2 1004 54 10000 5.66 40 09:19 06.05.2022
1625 Clouds -2 1004 63 10000 5.81 50 07:59 06.05.2022
1626 Clouds -2 1005 69 10000 6.69 40 06:39 06.05.2022
1627 Clouds -2 1006 64 10000 4.63 60 04:37 06.05.2022
1628 Clouds -2 1006 54 10000 3.09 50 02:43 06.05.2022
1629 Clouds 0 1007 59 10000 3.09 10 23:36 05.05.2022
1630 Clouds 1 1007 55 10000 2.24 20 21:52 05.05.2022
1631 Clouds 0 1007 55 10000 2.24 30 20:54 05.05.2022
1632 Clouds 2 1007 51 10000 2.06 20 19:49 05.05.2022
1633 Clear -2 1008 56 10000 0.7 80 16:57 05.05.2022
1634 Clouds 2 1007 38 10000 1.54 0 16:18 05.05.2022
1635 Clear -2 1007 54 10000 5.14 60 14:43 05.05.2022
1636 Clear -2 1007 54 10000 5.14 60 13:20 05.05.2022
1637 Clouds -3 1007 59 10000 6.17 60 12:24 05.05.2022
1638 Clear -4 1008 80 10000 5.66 50 10:33 05.05.2022
1639 Clouds -4 1008 80 10000 6.17 60 09:39 05.05.2022
1640 Clouds -5 1009 80 10000 5.14 40 07:24 05.05.2022
1641 Clouds -10 1013 95 10000 3.35 29 03:00 05.05.2022
1642 Clouds -5 1013 86 10000 5.66 360 01:48 05.05.2022
1643 Clouds -5 1013 86 10000 5.66 360 01:22 05.05.2022
1644 Clouds -4 1013 74 10000 7.2 360 23:34 04.05.2022
1645 Clouds -4 1014 80 10000 7.2 360 22:27 04.05.2022
1646 Clouds -4 1014 80 10000 8.23 20 21:49 04.05.2022
1647 Clouds -4 1014 80 10000 8.23 20 21:26 04.05.2022
1648 Clouds -4 1014 80 10000 8.23 20 21:26 04.05.2022
1649 Clouds -4 1015 74 10000 6.71 10 20:22 04.05.2022
1650 Clouds -5 1016 73 10000 5.36 360 19:51 04.05.2022
1651 Clouds -5 1016 73 10000 5.36 10 18:51 04.05.2022
1652 Clouds -4 1016 74 10000 5.66 10 18:21 04.05.2022
1653 Clouds -5 1017 80 10000 5.14 360 17:30 04.05.2022
1654 Clouds -6 1018 79 10000 6.17 350 15:38 04.05.2022
1655 Clouds -6 1018 79 10000 6.17 350 15:20 04.05.2022
1656 Clouds -6 1018 73 10000 5.66 350 14:20 04.05.2022
1657 Clouds -6 1018 73 10000 5.14 340 13:20 04.05.2022
1658 Clouds -7 1018 79 10000 4.12 350 12:29 04.05.2022
1659 Snow -7 1019 86 8000 3.09 340 10:40 04.05.2022
1660 Snow -7 1018 86 6000 3.6 300 09:40 04.05.2022
1661 Snow -7 1018 86 3600 4.63 290 08:40 04.05.2022
1662 Snow -6 1018 86 8000 5.66 300 06:31 04.05.2022
1663 Snow -6 1019 96 415 2.88 292 02:53 04.05.2022
1664 Snow -5 1015 93 10000 5.14 310 00:33 04.05.2022
1665 Snow -4 1013 93 10000 8.23 300 22:34 03.05.2022
1666 Snow -3 1012 93 1000 2.06 270 21:43 03.05.2022
1667 Snow -3 1014 89 677 6.85 268 20:53 03.05.2022
1668 Clouds -2 1013 100 173 11.18 200 19:57 03.05.2022
1669 Clouds -2 1013 100 99 11.62 180 18:52 03.05.2022
1670 Snow -2 1011 100 1000 11.83 180 18:20 03.05.2022
1671 Snow -1 1013 93 500 14.4 170 16:44 03.05.2022
1672 Clouds -1 1015 92 161 11.62 180 15:38 03.05.2022
1673 Snow -1 1015 86 900 10.8 160 12:47 03.05.2022
1674 Snow -1 1015 86 900 10.8 160 12:27 03.05.2022
1675 Snow -2 1018 94 291 9.4 165 10:57 03.05.2022
1676 Clouds 0 1017 55 10000 9.77 170 09:34 03.05.2022
1677 Clouds -1 1018 93 10000 8.23 190 07:33 03.05.2022
1678 Clouds -3 1019 84 10000 4.69 176 06:44 03.05.2022
1679 Clouds 0 1022 82 10000 2.68 210 00:54 03.05.2022
1680 Clouds 0 1021 86 10000 1.03 260 22:38 02.05.2022
1681 Clouds 0 1022 80 10000 0.89 330 21:52 02.05.2022
1682 Clouds 2 1022 74 10000 1.34 290 20:51 02.05.2022
1683 Clouds 2 1022 69 10000 1.54 320 18:44 02.05.2022
1684 Clouds 2 1022 69 10000 1.54 320 18:25 02.05.2022
1685 Clouds 1 1022 80 10000 2.57 20 17:37 02.05.2022
1686 Clouds 1 1022 75 10000 2.57 30 16:23 02.05.2022
1687 Clouds 0 1022 80 10000 2.06 10 15:31 02.05.2022
1688 Clouds -1 1021 80 10000 3.58 50 13:52 02.05.2022
1689 Clouds -1 1021 80 10000 4.12 10 12:20 02.05.2022
1690 Clouds -5 1022 85 10000 1.07 31 10:51 02.05.2022
1691 Clouds -3 1021 86 10000 3.6 60 09:30 02.05.2022
1692 Clouds -8 1022 91 10000 1.54 21 07:52 02.05.2022
1693 Clouds -2 1021 86 10000 4.12 20 04:36 02.05.2022
1694 Clouds -1 1022 80 10000 5.14 360 00:25 02.05.2022
1695 Clouds -1 1022 74 10000 4.92 360 23:52 01.05.2022
1696 Clouds 0 1022 69 10000 5.66 350 22:39 01.05.2022
1697 Clouds 0 1022 64 10000 5.14 360 21:26 01.05.2022
1698 Clouds 0 1022 55 10000 5.14 20 20:19 01.05.2022
1699 Clouds -1 1022 58 10000 4.92 360 18:59 01.05.2022
1700 Clouds -1 1022 59 10000 5.14 360 18:39 01.05.2022
1701 Clouds -1 1023 59 10000 4.63 360 17:46 01.05.2022
1702 Clouds -1 1023 69 10000 6.71 360 16:24 01.05.2022
1703 Clear -2 1023 74 10000 6.17 360 15:38 01.05.2022
1704 Clear -2 1023 74 10000 7.15 10 13:52 01.05.2022
1705 Clear -3 1023 74 10000 8.23 10 11:28 01.05.2022
1706 Clear -4 1023 80 10000 6.69 10 09:32 01.05.2022
1707 Clouds -4 1023 80 10000 6.69 10 08:47 01.05.2022
1708 Clouds -4 1025 74 10000 7.2 10 04:31 01.05.2022
1709 Clouds -3 1027 63 10000 6.69 10 00:34 01.05.2022
1710 Clouds -3 1028 58 10000 5.81 360 21:52 30.04.2022
1711 Clouds -3 1028 59 10000 6.17 360 21:19 30.04.2022
1712 Clouds -4 1029 63 10000 7.2 10 19:45 30.04.2022
1713 Clouds -4 1029 63 10000 6.71 360 18:45 30.04.2022
1714 Clouds -5 1030 73 10000 8.05 360 16:54 30.04.2022
1715 Clouds -5 1031 73 10000 8.05 360 15:50 30.04.2022
1716 Clouds -5 1031 73 10000 10.28 10 14:54 30.04.2022
1717 Clouds -6 1032 79 10000 8.23 360 13:30 30.04.2022
1718 Clouds -7 1033 79 10000 8.23 360 11:34 30.04.2022
1719 Clouds -11 1035 84 10000 4.93 18 10:55 30.04.2022
1720 Clouds -12 1035 84 10000 4.82 14 09:51 30.04.2022
1721 Clouds -6 1034 73 10000 10.29 20 07:31 30.04.2022
1722 Clouds -6 1035 73 10000 7.2 360 03:45 30.04.2022
1723 Clouds -6 1035 92 10000 4.02 330 23:54 29.04.2022
1724 Clouds -5 1032 93 10000 4.12 320 22:35 29.04.2022
1725 Clouds -5 1034 92 10000 4.02 300 21:54 29.04.2022
1726 Snow -5 1031 93 10000 4.12 300 21:19 29.04.2022
1727 Snow -4 1031 84 1864 5.91 284 19:52 29.04.2022
1728 Clouds -4 1031 80 10000 5.77 275 18:58 29.04.2022
1729 Snow -2 1027 93 1700 2.24 180 17:33 29.04.2022
1730 Clouds -3 1024 92 281 4.47 250 15:58 29.04.2022
1731 Snow -2 1023 93 600 4.63 240 14:34 29.04.2022
1732 Snow -2 1022 100 600 4.12 230 13:27 29.04.2022
1733 Snow 0 1020 100 900 10.29 190 12:26 29.04.2022
1734 Snow 0 1020 98 45 8.82 192 09:52 29.04.2022
1735 Snow 1 1018 97 49 10.46 178 07:52 29.04.2022
1736 Snow 1 1017 100 2700 14.92 170 07:24 29.04.2022
1737 Snow 1 1018 97 54 11.23 173 05:57 29.04.2022
1738 Snow 1 1019 97 60 9.5 165 00:51 29.04.2022
1739 Clouds 2 1018 93 59 13.86 160 23:52 28.04.2022
1740 Snow 1 1018 100 1500 13.89 170 22:47 28.04.2022
1741 Clouds 0 1017 100 52 13.86 170 21:59 28.04.2022
1742 Snow 1 1017 100 2000 13.89 170 21:37 28.04.2022
1743 Snow 1 1017 100 2000 14.92 170 20:42 28.04.2022
1744 Snow 1 1017 100 2000 14.4 170 19:49 28.04.2022
1745 Snow 1 1017 100 2000 14.4 170 19:24 28.04.2022
1746 Snow 2 1017 93 2000 12.35 170 18:45 28.04.2022
1747 Snow 2 1017 93 3000 12.96 180 17:32 28.04.2022
1748 Clouds 2 1017 93 46 12.96 180 16:50 28.04.2022
1749 Snow 2 1017 93 2000 13.38 180 16:20 28.04.2022
1750 Snow 2 1017 93 2000 13.38 180 16:20 28.04.2022
1751 Snow 2 1017 93 2000 12.35 170 15:41 28.04.2022
1752 Clouds 0 1018 98 48 12.07 170 14:55 28.04.2022
1753 Snow 1 1016 93 2500 12.35 170 13:23 28.04.2022
1754 Snow 1 1016 100 3700 11.32 170 12:28 28.04.2022
1755 Snow 0 1018 98 71 3.79 190 10:59 28.04.2022
1756 Snow 1 1016 93 2700 11.83 170 10:26 28.04.2022
1757 Snow 1 1015 100 3100 12.35 170 09:43 28.04.2022
1758 Snow 1 1014 100 3900 13.38 170 07:40 28.04.2022
1759 Snow 1 1014 100 3300 14.4 170 06:42 28.04.2022
1760 Snow 1 1016 98 53 8.27 178 05:52 28.04.2022
1761 Snow 1 1013 100 2600 15.95 170 04:42 28.04.2022
1762 Clouds 0 1012 100 65 15.2 160 00:52 28.04.2022
1763 Clouds 2 1012 93 2000 15.95 160 23:18 27.04.2022
1764 Clouds 2 1011 93 111 15.2 160 21:58 27.04.2022
1765 Clouds 2 1011 93 2500 15.43 160 21:34 27.04.2022
1766 Clouds 2 1011 93 2500 17.49 160 20:45 27.04.2022
1767 Clouds 2 1011 93 99 15.65 160 19:54 27.04.2022
1768 Clouds 2 1011 93 2500 15.95 160 19:31 27.04.2022
1769 Clouds 2 1011 93 2500 15.95 160 18:39 27.04.2022
1770 Clouds 2 1012 93 140 13.86 170 17:54 27.04.2022
1771 Clouds 4 1010 95 842 13.86 160 15:57 27.04.2022
1772 Clouds 2 1011 95 864 11.18 170 12:59 27.04.2022
1773 Rain 3 1010 81 10000 11.32 170 11:24 27.04.2022
1774 Snow 3 1010 81 7000 14.92 160 10:45 27.04.2022
1775 Snow 2 1010 93 3800 15.95 160 08:22 27.04.2022
1776 Snow 2 1011 87 10000 13.89 160 06:41 27.04.2022
1777 Snow 2 1012 80 6000 17.49 160 02:31 27.04.2022
1778 Snow 3 1013 81 10000 18.01 160 01:21 27.04.2022
1779 Snow 3 1013 81 10000 18.01 160 00:27 27.04.2022
1780 Snow 1 1013 100 4100 18.52 160 23:24 26.04.2022
1781 Clouds 2 1014 93 4400 20.58 160 22:45 26.04.2022
1782 Clouds 1 1016 85 10000 15.17 168 21:59 26.04.2022
1783 Snow 1 1014 93 4400 16.98 160 21:19 26.04.2022
1784 Snow 1 1016 93 1300 14.4 160 20:37 26.04.2022
1785 Snow 0 1016 100 1400 14.4 170 19:45 26.04.2022
1786 Snow 0 1016 100 1400 14.4 170 19:26 26.04.2022
1787 Snow 1 1017 93 4000 10.8 170 18:39 26.04.2022
1788 Clouds 1 1017 93 10000 12.35 170 17:39 26.04.2022
1789 Snow 2 1018 87 10000 11.32 170 15:41 26.04.2022
1790 Clouds 1 1020 71 10000 11.17 173 13:51 26.04.2022
1791 Clouds 0 1020 69 10000 8.94 170 12:57 26.04.2022
1792 Clouds -1 1021 86 10000 7.72 190 11:24 26.04.2022
1793 Clouds 0 1021 69 10000 7.2 180 10:30 26.04.2022
1794 Clouds -1 1021 74 10000 10.29 170 08:34 26.04.2022
1795 Clouds -1 1024 86 10000 4.47 180 04:59 26.04.2022
1796 Clouds -1 1024 86 10000 4.63 180 04:22 26.04.2022
1797 Clouds -1 1027 80 10000 1.34 230 00:51 26.04.2022
1798 Clouds -1 1028 80 10000 1.79 190 23:50 25.04.2022
1799 Clouds 0 1029 79 10000 1.79 280 21:57 25.04.2022
1800 Clouds 0 1029 74 10000 2.06 280 21:26 25.04.2022
1801 Clouds 0 1030 77 10000 1.79 40 19:58 25.04.2022
1802 Clouds 0 1032 74 10000 1.03 330 18:48 25.04.2022
1803 Clouds 0 1032 80 10000 1.54 350 17:40 25.04.2022
1804 Clouds -1 1032 80 10000 1.54 20 16:44 25.04.2022
1805 Clouds -1 1032 86 10000 2.06 20 15:23 25.04.2022
1806 Clouds -1 1033 86 10000 1.54 10 14:34 25.04.2022
1807 Clouds -2 1033 93 10000 2.57 340 13:21 25.04.2022
1808 Clouds -2 1033 93 10000 1.03 340 10:44 25.04.2022
1809 Clouds -2 1033 100 10000 2.06 330 09:42 25.04.2022
1810 Clouds -2 1035 90 10000 2.79 320 07:56 25.04.2022
1811 Clouds -2 1033 100 10000 2.57 320 06:18 25.04.2022
1812 Snow -1 1035 93 2900 2.57 330 01:49 25.04.2022
1813 Clouds 0 1035 91 10000 2.68 320 23:57 24.04.2022
1814 Snow 0 1035 86 10000 3.09 320 23:28 24.04.2022
1815 Clouds 0 1035 93 10000 2.06 320 22:39 24.04.2022
1816 Clouds 0 1035 88 10000 2.24 290 21:58 24.04.2022
1817 Clouds 0 1035 93 10000 2.57 290 21:22 24.04.2022
1818 Clouds 0 1035 93 10000 3.6 270 20:47 24.04.2022
1819 Clouds 0 1035 93 10000 3.6 270 20:21 24.04.2022
1820 Clouds 0 1036 86 10000 3.63 320 18:54 24.04.2022
1821 Clouds 0 1035 85 10000 3.58 210 17:55 24.04.2022
1822 Clouds 0 1035 93 10000 4.47 210 17:22 24.04.2022
1823 Clouds 0 1035 84 10000 4.47 210 16:56 24.04.2022
1824 Clouds 0 1035 93 10000 4.63 210 16:29 24.04.2022
1825 Clouds 0 1035 93 10000 4.63 210 16:29 24.04.2022
1826 Clouds 0 1037 82 10000 4.47 200 15:53 24.04.2022
1827 Clouds 0 1037 82 10000 4.47 200 14:55 24.04.2022
1828 Clouds 0 1035 93 10000 5.14 200 13:45 24.04.2022
1829 Clouds 0 1035 93 10000 5.14 200 13:23 24.04.2022
1830 Clouds -1 1036 87 10000 2.61 179 11:53 24.04.2022
1831 Clouds 0 1036 88 10000 5.81 190 10:59 24.04.2022
1832 Clouds 0 1033 86 10000 5.66 190 09:47 24.04.2022
1833 Clouds 0 1032 86 10000 4.63 190 08:23 24.04.2022
1834 Clouds 0 1031 80 10000 10.29 180 05:46 24.04.2022
1835 Snow 1 1030 86 7000 11.32 180 02:49 24.04.2022
1836 Clouds 2 1028 90 10000 8.94 180 00:55 24.04.2022
1837 Clouds 2 1028 91 10000 9.39 180 23:55 23.04.2022
1838 Clouds 2 1028 87 10000 9.77 180 23:25 23.04.2022
1839 Clouds 3 1027 87 10000 8.75 180 22:40 23.04.2022
1840 Clouds 3 1026 87 10000 10.8 160 21:48 23.04.2022
1841 Clouds 3 1026 87 10000 10.8 160 21:30 23.04.2022
1842 Rain 2 1026 93 4000 3.09 180 20:27 23.04.2022
1843 Clouds 2 1025 93 10000 3.09 20 19:21 23.04.2022
1844 Snow 1 1026 99 116 3.59 110 18:55 23.04.2022
1845 Rain 2 1025 93 10000 1.54 0 18:32 23.04.2022
1846 Snow 2 1025 93 10000 0.51 0 17:47 23.04.2022
1847 Snow 2 1025 93 10000 2.68 160 16:46 23.04.2022
1848 Clouds 2 1026 93 110 2.68 160 15:53 23.04.2022
1849 Clouds 1 1024 93 10000 3.6 60 13:33 23.04.2022
1850 Clouds 2 1024 90 10000 0.89 120 11:57 23.04.2022
1851 Clouds 1 1023 86 10000 0 0 10:37 23.04.2022
1852 Snow 1 1023 86 10000 0.51 30 08:30 23.04.2022
1853 Clouds 1 1022 86 10000 0 0 05:27 23.04.2022
1854 Clouds 1 1022 86 10000 2.57 50 03:32 23.04.2022
1855 Clouds 1 1022 93 10000 2.57 10 23:38 22.04.2022
1856 Clouds 1 1022 93 10000 2.57 10 23:20 22.04.2022
1857 Clouds 0 1023 100 10000 0.89 10 21:59 22.04.2022
1858 Clouds 1 1022 100 10000 1.03 10 21:40 22.04.2022
1859 Clouds 1 1022 93 10000 1.54 10 20:37 22.04.2022
1860 Clouds 0 1022 93 10000 1.54 340 19:39 22.04.2022
1861 Clouds 1 1022 93 10000 1.54 340 19:18 22.04.2022
1862 Clouds 1 1021 100 10000 2.06 360 18:28 22.04.2022
1863 Clouds 1 1021 93 10000 1.54 10 17:34 22.04.2022
1864 Clouds 0 1021 100 10000 2.06 30 16:29 22.04.2022
1865 Clouds 0 1021 93 10000 2.57 30 15:31 22.04.2022
1866 Clouds -1 1021 93 10000 3.09 20 14:38 22.04.2022
1867 Snow -1 1021 100 10000 0 0 13:42 22.04.2022
1868 Clouds -2 1021 100 1110 1.79 160 12:55 22.04.2022
1869 Snow -2 1020 93 2200 1.54 220 11:24 22.04.2022
1870 Clouds -4 1021 98 2116 0.17 291 10:58 22.04.2022
1871 Snow -2 1020 100 2100 2.57 210 10:40 22.04.2022
1872 Snow -2 1020 100 2100 2.57 210 10:20 22.04.2022
1873 Snow -1 1019 93 1300 3.09 220 09:30 22.04.2022
1874 Snow -1 1019 100 450 4.63 200 08:49 22.04.2022
1875 Snow -1 1018 98 150 4.42 198 06:54 22.04.2022
1876 Clouds 2 1011 94 1539 13.86 170 01:41 22.04.2022
1877 Snow 2 1010 87 6000 19.03 160 23:39 21.04.2022
1878 Clouds 0 1009 92 10000 11.18 180 22:52 21.04.2022
1879 Snow 1 1009 93 1800 11.32 180 21:49 21.04.2022
1880 Snow 2 1008 87 2500 12.35 170 20:34 21.04.2022
1881 Snow 1 1010 91 10000 18.33 173 19:51 21.04.2022
1882 Snow 1 1008 93 3300 10.29 180 18:34 21.04.2022
1883 Rain 3 1007 81 6000 14.92 160 17:47 21.04.2022
1884 Clouds 3 1006 75 4000 14.4 160 16:28 21.04.2022
1885 Snow 1 1006 100 2500 18.52 160 15:20 21.04.2022
1886 Snow 1 1005 100 1800 19.03 160 14:38 21.04.2022
1887 Snow 1 1004 100 1700 18.01 160 13:23 21.04.2022
1888 Snow 1 1004 100 1700 18.01 160 13:23 21.04.2022
1889 Snow 1 1003 93 1500 17.49 160 12:36 21.04.2022
1890 Snow 0 1004 100 1000 14.4 170 10:45 21.04.2022
1891 Snow 0 1006 89 961 12.08 150 08:54 21.04.2022
1892 Snow -6 1008 91 1391 2.1 67 06:55 21.04.2022
1893 Snow -6 1008 91 1391 2.1 67 06:55 21.04.2022
1894 Snow -5 1011 76 2350 3.83 74 04:58 21.04.2022
1895 Clouds -3 1013 59 10000 1.03 340 03:26 21.04.2022
1896 Clouds -4 1013 54 10000 1.03 0 02:46 21.04.2022
1897 Clouds -4 1013 54 10000 1.03 0 02:46 21.04.2022
1898 Clouds -4 1015 46 10000 1.03 0 00:43 21.04.2022
1899 Clouds -4 1015 46 10000 1.03 0 00:43 21.04.2022
1900 Clouds -5 1017 45 10000 0.89 220 23:50 20.04.2022
1901 Clouds -4 1017 46 10000 1.03 220 23:22 20.04.2022
1902 Clouds -4 1018 46 10000 7.2 70 22:45 20.04.2022
1903 Clouds -4 1018 46 10000 7.2 70 22:26 20.04.2022
1904 Clouds -5 1020 54 10000 7.72 70 21:27 20.04.2022
1905 Clouds -5 1021 58 10000 6.71 70 20:23 20.04.2022
1906 Clouds -6 1022 62 10000 8.05 60 19:51 20.04.2022
1907 Clouds -6 1022 63 10000 8.23 60 19:18 20.04.2022
1908 Clouds -6 1025 62 10000 9.39 60 17:56 20.04.2022
1909 Clouds -6 1025 63 10000 9.26 40 16:48 20.04.2022
1910 Clouds -6 1025 63 10000 9.26 40 16:30 20.04.2022
1911 Clouds -12 1029 74 10000 5.02 41 13:51 20.04.2022
1912 Clouds -16 1031 90 8181 4.44 50 11:50 20.04.2022
1913 Clouds -9 1030 67 10000 6.17 20 11:21 20.04.2022
1914 Clouds -9 1030 67 10000 6.17 350 10:19 20.04.2022
1915 Clouds -9 1030 67 10000 5.14 340 09:25 20.04.2022
1916 Clouds -9 1030 67 10000 5.14 340 08:22 20.04.2022
1917 Snow -10 1029 67 10000 5.66 350 07:36 20.04.2022
1918 Clouds -10 1029 73 10000 6.69 320 03:38 20.04.2022
1919 Clouds -9 1027 73 10000 7.72 320 00:23 20.04.2022
1920 Clouds -9 1026 79 10000 8.23 320 23:41 19.04.2022
1921 Clouds -9 1025 79 10000 7.2 320 22:27 19.04.2022
1922 Clouds -8 1024 67 10000 7.15 320 21:57 19.04.2022
1923 Clouds -8 1024 67 10000 7.2 320 21:24 19.04.2022
1924 Clouds -8 1023 73 10000 7.2 320 20:46 19.04.2022
1925 Clouds -10 1022 72 10000 8.05 320 19:57 19.04.2022
1926 Clouds -9 1022 73 10000 8.23 320 19:19 19.04.2022
1927 Clouds -9 1022 73 10000 8.23 320 19:19 19.04.2022
1928 Clouds -8 1020 67 7668 7.6 320 17:50 19.04.2022
1929 Clouds -9 1020 73 10000 8.75 320 16:43 19.04.2022
1930 Clouds -9 1020 73 10000 8.75 320 16:23 19.04.2022
1931 Clouds -10 1018 66 5167 8.05 330 14:50 19.04.2022
1932 Clouds -9 1018 67 10000 8.23 330 14:27 19.04.2022
1933 Clouds -10 1016 78 6791 7.6 330 12:51 19.04.2022
1934 Snow -9 1016 79 10000 7.72 330 12:26 19.04.2022
1935 Clouds -9 1015 79 10000 7.72 350 10:47 19.04.2022
1936 Snow -9 1014 79 8000 7.2 340 09:23 19.04.2022
1937 Clouds -13 1014 86 10000 4.52 10 05:59 19.04.2022
1938 Clouds -10 1014 66 10000 8.94 350 03:59 19.04.2022
1939 Clouds -10 1014 78 10000 8.49 340 00:56 19.04.2022
1940 Snow -9 1015 79 10000 9.26 340 23:36 18.04.2022
1941 Clouds -8 1015 73 10000 7.2 340 21:38 18.04.2022
1942 Clouds -8 1015 73 10000 7.2 340 21:20 18.04.2022
1943 Snow -8 1016 79 10000 7.2 340 20:36 18.04.2022
1944 Clouds -7 1015 79 10000 6.71 330 19:57 18.04.2022
1945 Clouds -7 1015 79 10000 5.81 330 18:58 18.04.2022
1946 Snow -7 1015 79 5000 6.17 330 18:32 18.04.2022
1947 Snow -7 1015 79 10000 6.17 320 17:38 18.04.2022
1948 Snow -7 1015 79 10000 6.17 320 17:18 18.04.2022
1949 Snow -7 1015 86 7000 6.17 310 16:34 18.04.2022
1950 Snow -6 1015 86 6000 4.63 320 15:27 18.04.2022
1951 Clouds -5 1014 80 10000 3.09 290 13:42 18.04.2022
1952 Clouds -5 1014 80 10000 3.09 290 13:42 18.04.2022
1953 Clouds -5 1014 80 10000 3.09 280 12:40 18.04.2022
1954 Clouds -5 1013 80 10000 2.57 250 11:42 18.04.2022
1955 Snow -5 1013 80 10000 2.06 220 10:42 18.04.2022
1956 Clouds -5 1012 80 10000 2.57 240 09:31 18.04.2022
1957 Snow -5 1012 80 10000 1.54 250 08:29 18.04.2022
1958 Clouds -6 1012 93 1179 1.95 232 05:58 18.04.2022
1959 Clouds -5 1008 85 9003 1.79 280 01:37 18.04.2022
1960 Clouds -3 1007 86 10000 3.09 290 22:44 17.04.2022
1961 Clouds -2 1007 79 9543 4.02 230 21:51 17.04.2022
1962 Clouds -2 1007 80 10000 4.12 230 21:32 17.04.2022
1963 Clouds -2 1006 79 9552 5.36 200 20:50 17.04.2022
1964 Clouds -2 1005 79 10000 6.71 190 19:53 17.04.2022
1965 Clouds -2 1005 80 10000 6.17 170 18:32 17.04.2022
1966 Clouds -2 1004 80 10000 7.2 170 16:33 17.04.2022
1967 Clouds -2 1004 80 10000 7.2 190 15:32 17.04.2022
1968 Clouds -2 1003 74 10000 7.2 180 14:28 17.04.2022
1969 Clouds -3 1003 80 10000 6.69 190 13:20 17.04.2022
1970 Clouds -4 1002 86 10000 6.69 190 12:30 17.04.2022
1971 Clouds -5 1002 80 10000 1.54 120 10:48 17.04.2022
1972 Clouds -5 1002 80 10000 1.54 120 10:29 17.04.2022
1973 Clouds -13 1004 94 10000 1.75 131 09:50 17.04.2022
1974 Clouds -13 1003 93 7761 1.87 107 08:58 17.04.2022
1975 Clouds -5 1001 74 10000 1.03 100 08:27 17.04.2022
1976 Clouds -4 1001 68 10000 3.6 360 05:20 17.04.2022
1977 Clouds -3 1001 68 10000 5.66 10 01:47 17.04.2022
1978 Clouds -3 1002 68 10000 4.47 360 23:59 16.04.2022
1979 Clouds -3 1002 63 10000 4.47 360 22:56 16.04.2022
1980 Clouds -3 1001 63 10000 4.63 360 21:44 16.04.2022
1981 Clouds -2 1002 54 10000 3.58 10 20:54 16.04.2022
1982 Clouds -2 1002 54 10000 2.57 360 19:21 16.04.2022
1983 Clear -3 1002 68 10000 3.09 360 18:35 16.04.2022
1984 Clear -3 1002 68 10000 3.6 360 16:44 16.04.2022
1985 Clear -3 1002 68 10000 3.09 30 15:46 16.04.2022
1986 Clear -5 1001 73 10000 2.68 40 14:57 16.04.2022
1987 Clear -4 1001 74 10000 3.09 40 14:30 16.04.2022
1988 Clear -4 1001 68 10000 3.6 10 13:48 16.04.2022
1989 Clear -5 1001 74 10000 4.63 20 12:35 16.04.2022
1990 Clouds -5 1002 74 10000 4.12 10 11:26 16.04.2022
1991 Clouds -6 1001 79 10000 4.12 20 10:29 16.04.2022
1992 Clouds -6 1001 79 10000 4.63 360 09:36 16.04.2022
1993 Clouds -5 1001 63 10000 7.72 10 08:42 16.04.2022
1994 Clouds -5 1000 63 10000 7.72 30 07:21 16.04.2022
1995 Clear -14 1003 81 10000 3.69 41 04:54 16.04.2022
1996 Clouds -10 1003 70 10000 4.16 15 01:22 16.04.2022
1997 Clouds -6 999 62 10000 11.62 20 23:45 15.04.2022
1998 Clouds -6 999 62 10000 11.62 20 22:48 15.04.2022
1999 Clouds -6 999 62 10000 11.62 20 22:28 15.04.2022
2000 Clouds -6 999 62 10000 11.62 20 21:20 15.04.2022
2001 Clouds -6 999 63 10000 11.83 20 20:38 15.04.2022
2002 Clouds -6 999 63 10000 13.89 20 19:43 15.04.2022
2003 Clouds -6 1000 62 10000 15.65 20 18:58 15.04.2022
2004 Clouds -6 999 63 10000 15.95 20 18:26 15.04.2022
2005 Clouds -7 1000 62 10000 17.43 20 17:57 15.04.2022
2006 Clouds -7 999 62 10000 16.09 20 17:24 15.04.2022
2007 Clouds -7 999 63 10000 16.46 20 16:24 15.04.2022
2008 Clouds -7 999 58 10000 16.99 20 15:42 15.04.2022
2009 Clouds -7 999 58 10000 16.99 20 15:42 15.04.2022
2010 Clouds -7 999 57 10000 18.33 20 13:55 15.04.2022
2011 Clouds -11 1001 61 10000 7.36 17 12:52 15.04.2022
2012 Clouds -7 1000 63 10000 17.49 20 12:24 15.04.2022
2013 Clouds -12 1001 63 10000 7.48 10 11:50 15.04.2022
2014 Clouds -8 1000 57 10000 16.46 20 10:46 15.04.2022
2015 Clouds -14 1002 70 10000 6.21 13 09:59 15.04.2022
2016 Clouds -8 1000 57 10000 14.4 20 09:22 15.04.2022
2017 Clear -8 1000 57 10000 13.89 10 08:39 15.04.2022
2018 Clear -13 1002 67 10000 5.72 21 06:50 15.04.2022
2019 Clouds -7 1001 58 10000 13.86 10 04:49 15.04.2022
2020 Clouds -5 1003 68 10000 7.72 10 00:46 15.04.2022
2021 Clouds -5 1003 63 10000 7.72 10 23:26 14.04.2022
2022 Clouds -4 1003 58 10000 7.2 360 22:46 14.04.2022
2023 Clouds -4 1003 58 10000 7.2 360 22:27 14.04.2022
2024 Clouds -5 1003 62 10000 6.71 360 21:50 14.04.2022
2025 Clouds -4 1003 63 10000 6.17 360 19:41 14.04.2022
2026 Clouds -4 1003 63 10000 6.17 360 19:20 14.04.2022
2027 Clouds -4 1004 63 10000 4.12 360 17:46 14.04.2022
2028 Clouds -5 1004 67 10000 4.02 360 16:51 14.04.2022
2029 Clouds -5 1004 68 10000 4.12 360 16:21 14.04.2022
2030 Clouds -8 1005 83 10000 4 1 13:54 14.04.2022
2031 Clouds -4 1004 68 10000 3.09 350 13:25 14.04.2022
2032 Clouds -4 1004 80 10000 3.09 360 12:33 14.04.2022
2033 Clouds -4 1004 74 10000 2.57 0 11:47 14.04.2022
2034 Clouds -4 1004 74 10000 2.57 0 11:18 14.04.2022
2035 Clouds -4 1004 93 10000 5.14 350 10:31 14.04.2022
2036 Clouds -10 1005 96 1231 3.35 14 09:50 14.04.2022
2037 Clouds -4 1004 93 10000 5.14 340 08:35 14.04.2022
2038 Clouds -9 1004 96 7806 3.47 354 05:58 14.04.2022
2039 Clouds -3 1005 93 9000 6.71 340 01:23 14.04.2022
2040 Clouds -2 1005 93 10000 7.2 340 22:41 13.04.2022
2041 Clouds -2 1005 86 10000 6.71 340 21:44 13.04.2022
2042 Clouds -2 1005 93 10000 6.71 340 20:47 13.04.2022
2043 Clouds -1 1005 80 10000 5.81 360 19:54 13.04.2022
2044 Clouds -2 1005 74 10000 4.63 20 18:43 13.04.2022
2045 Clear -2 1005 74 10000 4.02 20 17:52 13.04.2022
2046 Clouds -2 1005 74 10000 4.12 20 17:23 13.04.2022
2047 Clear -3 1006 74 10000 4.12 360 16:24 13.04.2022
2048 Clear -3 1005 80 10000 5.14 20 15:31 13.04.2022
2049 Clouds -3 1005 80 10000 4.63 20 14:46 13.04.2022
2050 Clouds -5 1006 79 10000 4.47 360 13:57 13.04.2022
2051 Clouds -9 1007 83 10000 3.5 13 12:59 13.04.2022
2052 Clouds -4 1006 86 10000 4.12 20 12:19 13.04.2022
2053 Clouds -5 1006 93 10000 3.6 10 10:44 13.04.2022
2054 Clouds -11 1007 95 10000 2.8 22 08:50 13.04.2022
2055 Clouds -4 1006 86 10000 3.09 20 08:31 13.04.2022
2056 Clouds -9 1007 96 10000 2.57 26 06:51 13.04.2022
2057 Clouds -4 1006 100 10000 2.06 20 06:25 13.04.2022
2058 Clouds -3 1007 93 10000 4.12 10 03:31 13.04.2022
2059 Clouds -2 1007 93 10000 6.17 350 00:20 13.04.2022
2060 Clouds 0 1007 69 10000 6.71 350 22:46 12.04.2022
2061 Clouds 0 1007 69 10000 3.58 40 21:57 12.04.2022
2062 Clouds -1 1007 68 10000 4.47 360 20:51 12.04.2022
2063 Clouds -1 1007 69 10000 4.63 360 20:33 12.04.2022
2064 Clouds -1 1007 80 10000 4.63 10 19:47 12.04.2022
2065 Clouds -1 1007 80 10000 4.63 10 19:28 12.04.2022
2066 Clouds -1 1008 80 10000 5.81 30 17:59 12.04.2022
2067 Clouds -1 1009 80 10000 5.81 10 16:53 12.04.2022
2068 Clouds -1 1009 80 10000 6.17 10 16:19 12.04.2022
2069 Clouds -1 1009 80 10000 5.14 360 15:26 12.04.2022
2070 Clouds -2 1010 80 10000 6.69 30 14:21 12.04.2022
2071 Clouds -2 1010 74 10000 5.66 20 13:28 12.04.2022
2072 Clouds -2 1011 74 10000 5.66 30 12:44 12.04.2022
2073 Clouds -9 1012 77 10000 3.13 32 11:42 12.04.2022
2074 Clouds -2 1011 74 10000 5.14 30 10:32 12.04.2022
2075 Clouds -8 1012 79 10000 3.07 32 08:57 12.04.2022
2076 Clouds -8 1012 79 10000 3.08 35 07:51 12.04.2022
2077 Clouds -2 1012 64 10000 5.66 50 05:49 12.04.2022
2078 Clouds -2 1013 69 10000 5.14 50 04:46 12.04.2022
2079 Clouds -1 1015 63 10000 3.58 50 23:53 11.04.2022
2080 Clouds 0 1015 64 10000 4.63 40 22:44 11.04.2022
2081 Clouds 0 1015 64 10000 3.6 50 21:37 11.04.2022
2082 Clouds 0 1016 65 10000 4.02 40 20:55 11.04.2022
2083 Clouds 0 1016 69 10000 4.12 40 20:28 11.04.2022
2084 Clouds 1 1016 55 10000 4.12 40 19:42 11.04.2022
2085 Clouds 1 1016 55 10000 4.12 40 19:18 11.04.2022
2086 Clouds 1 1016 55 10000 3.09 40 18:41 11.04.2022
2087 Clouds 0 1016 50 10000 1.88 360 17:56 11.04.2022
2088 Clouds 0 1017 63 10000 2.68 40 16:54 11.04.2022
2089 Clouds 0 1017 63 10000 2.68 60 15:54 11.04.2022
2090 Clouds -1 1016 63 10000 2.68 100 13:59 11.04.2022
2091 Clouds -1 1017 55 10000 4.12 80 12:47 11.04.2022
2092 Clouds -1 1017 55 10000 4.12 80 12:29 11.04.2022
2093 Clouds -1 1017 59 10000 3.6 70 11:30 11.04.2022
2094 Clouds -1 1017 64 10000 2.57 160 10:21 11.04.2022
2095 Clouds -5 1018 78 10000 3.13 83 08:56 11.04.2022
2096 Clouds 0 1016 59 10000 0 0 06:21 11.04.2022
2097 Clouds -1 1016 69 10000 1.03 190 01:23 11.04.2022
2098 Clouds 1 1015 69 10000 5.14 160 22:34 10.04.2022
2099 Clouds 0 1015 69 10000 4.47 200 21:55 10.04.2022
2100 Clouds 1 1015 69 10000 4.63 200 21:28 10.04.2022
2101 Clouds 2 1015 55 10000 4.63 190 20:30 10.04.2022
2102 Clouds 1 1015 60 10000 4.63 170 19:43 10.04.2022
2103 Clouds 1 1015 60 10000 4.63 170 19:18 10.04.2022
2104 Clouds 2 1015 55 10000 6.17 160 18:41 10.04.2022
2105 Clouds 0 1016 59 10000 7.6 160 17:52 10.04.2022
2106 Clouds 1 1015 60 10000 7.72 160 17:32 10.04.2022
2107 Clouds -1 1015 69 10000 2.57 40 16:21 10.04.2022
2108 Clouds 0 1015 68 10000 4.47 180 14:59 10.04.2022
2109 Clouds -1 1015 63 10000 4.47 180 13:54 10.04.2022
2110 Clouds -1 1015 64 10000 6.69 170 12:33 10.04.2022
2111 Clouds -1 1015 59 10000 7.2 160 11:46 10.04.2022
2112 Clouds -1 1015 59 10000 7.2 160 11:28 10.04.2022
2113 Clouds -1 1015 59 10000 7.72 170 10:43 10.04.2022
2114 Clouds -7 1017 82 10000 3.1 95 09:50 10.04.2022
2115 Clouds -2 1015 59 10000 2.06 0 09:21 10.04.2022
2116 Clouds -2 1015 59 10000 4.12 200 08:21 10.04.2022
2117 Clouds -3 1015 63 10000 4.12 190 07:18 10.04.2022
2118 Clouds -4 1015 74 10000 2.06 20 05:19 10.04.2022
2119 Clouds -4 1015 68 10000 1.54 140 02:20 10.04.2022
2120 Clouds -5 1015 79 10000 8.49 20 23:54 09.04.2022
2121 Clouds -4 1015 80 10000 8.75 20 23:35 09.04.2022
2122 Clouds -3 1017 74 10000 6.17 360 22:43 09.04.2022
2123 Clouds -3 1016 74 10000 6.17 20 21:34 09.04.2022
2124 Clouds -3 1017 74 10000 6.17 10 20:48 09.04.2022
2125 Clouds -3 1017 74 10000 6.17 10 20:23 09.04.2022
2126 Clouds -3 1017 74 10000 4.63 40 19:41 09.04.2022
2127 Clouds -3 1017 73 10000 5.36 20 18:54 09.04.2022
2128 Clouds -3 1017 74 10000 5.66 20 18:18 09.04.2022
2129 Clouds -3 1017 74 10000 5.66 20 17:34 09.04.2022
2130 Clouds -4 1017 80 10000 5.14 360 16:47 09.04.2022
2131 Clear -5 1018 79 10000 4.47 350 15:55 09.04.2022
2132 Clouds -5 1018 80 10000 4.63 350 15:28 09.04.2022
2133 Clouds -5 1019 80 10000 3.6 350 14:27 09.04.2022
2134 Clouds -6 1018 79 10000 4.02 360 13:54 09.04.2022
2135 Clouds -10 1020 91 10000 2.08 40 12:59 09.04.2022
2136 Clouds -6 1018 73 10000 4.12 340 12:34 09.04.2022
2137 Clouds -6 1018 73 10000 5.14 350 11:22 09.04.2022
2138 Clouds -7 1018 79 10000 5.14 330 10:21 09.04.2022
2139 Clouds -7 1017 86 10000 5.14 330 09:37 09.04.2022
2140 Clouds -11 1018 94 10000 1.77 65 08:51 09.04.2022
2141 Clouds -11 1019 93 10000 1.21 29 06:56 09.04.2022
2142 Clouds -4 1014 80 10000 4.12 340 01:32 09.04.2022
2143 Snow -4 1013 93 10000 4.63 330 23:30 08.04.2022
2144 Clouds -5 1013 92 10000 4.02 330 21:58 08.04.2022
2145 Snow -4 1013 93 10000 4.12 330 21:29 08.04.2022
2146 Snow -4 1012 93 3500 3.6 340 20:38 08.04.2022
2147 Snow -4 1012 93 2500 3.09 340 19:20 08.04.2022
2148 Clouds -4 1012 86 10000 2.57 350 18:29 08.04.2022
2149 Clouds -4 1012 86 10000 2.57 350 17:46 08.04.2022
2150 Clouds -4 1012 86 10000 2.57 350 17:22 08.04.2022
2151 Clouds -4 1012 80 10000 2.06 340 16:47 08.04.2022
2152 Clouds -5 1013 85 10000 2.24 340 15:57 08.04.2022
2153 Clouds -4 1013 86 10000 2.57 340 15:26 08.04.2022
2154 Clouds -4 1013 86 10000 2.06 340 14:27 08.04.2022
2155 Clouds -5 1013 93 10000 2.57 20 13:46 08.04.2022
2156 Clouds -5 1013 93 10000 2.57 20 13:27 08.04.2022
2157 Clouds -8 1015 90 8587 0.37 215 11:56 08.04.2022
2158 Clouds -5 1013 93 10000 3.6 330 10:33 08.04.2022
2159 Clouds -5 1013 93 10000 4.63 320 09:38 08.04.2022
2160 Clouds -5 1013 86 10000 5.14 320 08:44 08.04.2022
2161 Clouds -11 1015 96 10000 1.39 287 06:55 08.04.2022
2162 Clouds -5 1013 93 10000 4.12 300 05:18 08.04.2022
2163 Snow -5 1013 86 10000 6.69 320 01:27 08.04.2022
2164 Snow -5 1013 86 10000 6.71 320 00:25 08.04.2022
2165 Clouds -5 1013 85 10000 7.15 330 22:59 07.04.2022
2166 Snow -4 1013 86 10000 7.2 330 22:39 07.04.2022
2167 Snow -4 1013 86 10000 7.2 330 22:21 07.04.2022
2168 Clouds -5 1013 92 10000 5.36 330 21:53 07.04.2022
2169 Snow -4 1013 93 10000 5.66 330 21:19 07.04.2022
2170 Snow -3 1012 93 10000 3.09 360 20:37 07.04.2022
2171 Snow -3 1012 93 10000 2.06 0 18:48 07.04.2022
2172 Clouds -3 1012 93 8000 2.06 170 17:27 07.04.2022
2173 Clouds -4 1012 93 2000 2.57 130 16:45 07.04.2022
2174 Clouds -4 1012 93 2000 2.57 130 16:23 07.04.2022
2175 Clouds -6 1015 88 2381 5.08 300 14:50 07.04.2022
2176 Clouds -6 1013 93 10000 2.57 320 13:43 07.04.2022
2177 Clouds -7 1016 92 10000 3.58 330 12:58 07.04.2022
2178 Clouds -6 1014 93 10000 4.12 320 11:40 07.04.2022
2179 Snow -6 1014 93 9000 4.12 340 09:42 07.04.2022
2180 Snow -6 1014 100 7000 4.63 330 08:38 07.04.2022
2181 Clouds -5 1017 90 8304 4.82 324 06:57 07.04.2022
2182 Clouds -5 1016 100 1459 4.47 320 02:58 07.04.2022
2183 Snow -4 1016 100 9000 4.63 320 02:28 07.04.2022
2184 Snow -3 1015 93 10000 3.6 330 00:42 07.04.2022
2185 Clouds -2 1015 92 555 2.24 340 22:54 06.04.2022
2186 Clouds -2 1015 92 555 2.24 340 22:54 06.04.2022
2187 Snow -2 1015 93 5000 2.68 340 22:30 06.04.2022
2188 Fog -2 1015 100 5000 3.09 340 21:45 06.04.2022
2189 Clouds -2 1015 100 10000 3.6 320 20:41 06.04.2022
2190 Clouds -1 1014 100 4782 0.89 20 19:59 06.04.2022
2191 Clouds -1 1015 92 2978 0.89 360 18:53 06.04.2022
2192 Clouds -1 1015 93 10000 1.03 360 18:34 06.04.2022
2193 Clouds -1 1014 93 10000 2.06 10 17:35 06.04.2022
2194 Fog -2 1014 100 300 3.09 330 16:39 06.04.2022
2195 Fog -1 1014 93 300 3.09 360 15:49 06.04.2022
2196 Fog -1 1014 93 300 3.09 360 15:30 06.04.2022
2197 Fog -2 1014 100 400 3.6 20 13:31 06.04.2022
2198 Fog -2 1015 100 300 3.6 360 12:28 06.04.2022
2199 Clouds -6 1017 96 10000 2.75 20 10:57 06.04.2022
2200 Mist -2 1015 100 2000 4.63 10 10:32 06.04.2022
2201 Mist -2 1015 100 2700 3.6 10 09:46 06.04.2022
2202 Clouds -2 1015 93 10000 3.6 360 08:39 06.04.2022
2203 Clouds -2 1016 100 8244 2.68 360 07:57 06.04.2022
2204 Clouds -2 1016 100 10000 2.06 320 05:23 06.04.2022
2205 Clouds -1 1016 93 10000 3.6 10 00:20 06.04.2022
2206 Clouds -1 1016 93 10000 2.57 360 23:47 05.04.2022
2207 Clouds 0 1016 93 10000 2.06 290 21:48 05.04.2022
2208 Clouds 0 1016 93 10000 2.06 290 21:48 05.04.2022
2209 Clouds 0 1016 86 10000 2.24 290 20:58 05.04.2022
2210 Clouds 1 1016 86 10000 2.57 290 20:23 05.04.2022
2211 Clouds 0 1015 93 10000 1.54 30 18:28 05.04.2022
2212 Clouds 0 1014 93 10000 1.03 300 17:21 05.04.2022
2213 Clouds 0 1014 93 10000 1.54 270 16:42 05.04.2022
2214 Clouds -1 1013 92 10000 1.79 260 15:51 05.04.2022
2215 Fog -1 1013 93 10000 2.06 260 15:30 05.04.2022
2216 Clouds -1 1012 93 10000 4.12 20 13:46 05.04.2022
2217 Clouds -5 1014 87 10000 0.89 14 12:33 05.04.2022
2218 Clouds -1 1011 93 10000 3.6 30 11:43 05.04.2022
2219 Clouds -1 1011 93 10000 3.6 30 11:24 05.04.2022
2220 Clouds -1 1010 93 10000 4.63 30 09:31 05.04.2022
2221 Clouds -1 1009 93 10000 5.14 30 08:33 05.04.2022
2222 Clouds -5 1010 91 10000 1.06 337 03:50 05.04.2022
2223 Clouds 2 1007 80 10000 0.51 140 23:45 04.04.2022
2224 Clouds 1 1007 86 10000 1.03 220 22:38 04.04.2022
2225 Clouds 2 1006 80 10000 2.24 210 21:51 04.04.2022
2226 Clouds 2 1006 80 10000 2.57 210 21:20 04.04.2022
2227 Clouds 2 1006 80 10000 2.57 190 20:47 04.04.2022
2228 Clouds 2 1005 80 10000 1.03 330 19:30 04.04.2022
2229 Clouds 2 1005 80 10000 0.51 20 18:44 04.04.2022
2230 Clouds 3 1005 65 10000 2.06 20 17:33 04.04.2022
2231 Clouds 1 1005 86 10000 4.63 360 16:36 04.04.2022
2232 Clouds 2 1005 75 10000 1.03 20 15:34 04.04.2022
2233 Clouds 0 1005 93 10000 1.54 70 14:49 04.04.2022
2234 Clouds 0 1005 93 10000 1.54 70 14:31 04.04.2022
2235 Clouds 1 1005 80 10000 0.51 0 13:18 04.04.2022
2236 Clouds 0 1005 80 10000 1.54 10 11:29 04.04.2022
2237 Clouds 1 1005 75 10000 0 0 10:49 04.04.2022
2238 Clouds 0 1005 86 10000 0 0 07:36 04.04.2022
2239 Clear 1 1006 86 10000 4.12 40 03:18 04.04.2022
2240 Clear 2 1007 87 10000 4.63 60 23:48 03.04.2022
2241 Clear 3 1007 81 10000 5.66 40 22:31 03.04.2022
2242 Clouds 2 1008 87 10000 5.14 40 21:37 03.04.2022
2243 Clouds 2 1008 87 10000 4.12 40 20:40 03.04.2022
2244 Clouds 2 1008 87 10000 4.12 50 19:45 03.04.2022
2245 Clouds 2 1009 87 10000 6.17 50 18:31 03.04.2022
2246 Clouds 2 1009 87 10000 6.17 40 17:44 03.04.2022
2247 Clouds 0 1009 87 10000 4.92 40 16:50 03.04.2022
2248 Clouds 1 1009 93 10000 5.14 40 16:31 03.04.2022
2249 Clouds 1 1009 93 10000 3.6 50 14:38 03.04.2022
2250 Clouds 2 1010 87 10000 1.03 120 13:45 03.04.2022
2251 Clouds 0 1010 100 10000 1.03 70 12:38 03.04.2022
2252 Clouds 0 1011 94 10000 4.02 50 10:58 03.04.2022
2253 Clouds 1 1009 93 10000 0.51 0 09:36 03.04.2022
2254 Clouds 0 1008 100 10000 1.54 360 07:37 03.04.2022
2255 Snow 0 1007 93 10000 2.57 200 04:37 03.04.2022
2256 Snow 1 1005 86 10000 1.03 170 00:41 03.04.2022
2257 Clouds 0 1004 86 10000 1.34 190 22:57 02.04.2022
2258 Clouds 0 1003 87 10000 2.24 180 21:58 02.04.2022
2259 Clouds 1 1003 93 10000 2.57 180 21:36 02.04.2022
2260 Clouds 1 1003 93 10000 2.57 180 21:18 02.04.2022
2261 Clouds 2 1002 80 10000 2.24 210 19:53 02.04.2022
2262 Clouds 3 1002 70 10000 3.09 10 18:23 02.04.2022
2263 Clouds 1 1003 84 10000 1.85 239 17:53 02.04.2022
2264 Clouds 4 1003 65 10000 3.09 40 16:25 02.04.2022
2265 Clouds 3 1003 70 10000 3.6 30 15:21 02.04.2022
2266 Clouds 2 1003 75 10000 4.12 10 14:49 02.04.2022
2267 Clouds 2 1003 75 10000 1.54 40 13:36 02.04.2022
2268 Clouds 1 1004 80 10000 1.54 360 12:47 02.04.2022
2269 Clouds 2 1004 75 10000 0.51 0 11:31 02.04.2022
2270 Clouds 2 1004 69 10000 0.51 100 09:30 02.04.2022
2271 Clouds -2 1005 75 10000 3.21 97 06:51 02.04.2022
2272 Clouds -2 1005 75 10000 3.21 97 06:51 02.04.2022
2273 Clouds 2 1005 69 10000 1.34 10 03:53 02.04.2022
2274 Clouds 0 1007 79 10000 2.73 40 23:58 01.04.2022
2275 Clouds 2 1005 64 10000 3.6 30 23:30 01.04.2022
2276 Clouds 2 1005 69 10000 2.67 15 21:52 01.04.2022
2277 Clouds 0 1005 74 10000 4.47 40 20:52 01.04.2022
2278 Clouds 1 1005 75 10000 4.63 40 20:30 01.04.2022
2279 Clouds 1 1006 80 10000 4.12 30 19:37 01.04.2022
2280 Clouds 0 1007 80 10000 5.81 40 18:51 01.04.2022
2281 Clouds 0 1008 74 10000 5.81 30 17:59 01.04.2022
2282 Clouds 1 1008 75 10000 6.17 30 17:34 01.04.2022
2283 Clouds 0 1010 86 10000 6.71 50 15:42 01.04.2022
2284 Clouds -1 1010 86 10000 8.23 40 14:39 01.04.2022
2285 Clouds -1 1011 86 10000 3.09 50 13:35 01.04.2022
2286 Clouds -2 1012 93 10000 6.69 20 12:33 01.04.2022
2287 Fog -2 1012 93 10000 6.69 20 11:44 01.04.2022
2288 Clouds -2 1013 93 10000 2.06 0 10:19 01.04.2022
2289 Clouds -2 1013 100 10000 5.14 40 09:30 01.04.2022
2290 Clouds -5 1015 87 10000 2.94 42 06:55 01.04.2022
2291 Clouds -6 1016 88 10000 2.79 54 04:54 01.04.2022
2292 Clouds -2 1015 100 10000 1.54 0 04:36 01.04.2022
2293 Clouds -5 1017 88 10000 0.7 134 01:59 01.04.2022
2294 Clouds -1 1015 86 10000 2.06 20 00:46 01.04.2022
2295 Clouds 1 1014 80 10000 3.09 10 22:20 31.03.2022
2296 Clouds 1 1014 80 10000 3.09 30 21:37 31.03.2022
2297 Clouds 4 1014 60 10000 0.51 330 20:43 31.03.2022
2298 Clouds 4 1014 60 10000 0.51 330 20:25 31.03.2022
2299 Clouds 3 1013 74 10000 0.45 350 18:57 31.03.2022
2300 Clouds 0 1013 77 10000 2.24 360 17:55 31.03.2022
2301 Clouds 0 1012 93 10000 3.6 10 16:45 31.03.2022
2302 Clouds 0 1014 76 10000 4.47 350 15:54 31.03.2022
2303 Clouds 0 1012 93 10000 4.63 350 15:22 31.03.2022
2304 Clouds -1 1012 93 10000 1.54 20 14:44 31.03.2022
2305 Clouds -3 1012 100 10000 5.14 20 13:27 31.03.2022
2306 Clouds -3 1011 93 10000 6.17 20 11:30 31.03.2022
2307 Clouds -3 1011 93 10000 4.63 10 10:19 31.03.2022
2308 Clouds -3 1010 93 10000 4.63 30 09:19 31.03.2022
2309 Clouds -4 1009 93 10000 5.66 0 07:31 31.03.2022
2310 Fog -4 1010 93 10000 7.2 20 01:27 31.03.2022
2311 Fog -3 1009 93 10000 5.66 360 23:23 30.03.2022
2312 Clouds -3 1010 92 10000 6.71 20 21:54 30.03.2022
2313 Fog -3 1010 93 6000 6.71 20 21:27 30.03.2022
2314 Fog -2 1010 93 6000 5.66 10 20:32 30.03.2022
2315 Fog -3 1010 93 1500 7.72 20 19:43 30.03.2022
2316 Fog -3 1010 93 2000 6.69 10 18:41 30.03.2022
2317 Clouds -5 1011 100 10000 6.71 20 17:50 30.03.2022
2318 Clouds -5 1011 100 10000 6.71 20 16:58 30.03.2022
2319 Fog -4 1011 100 2000 7.15 20 16:39 30.03.2022
2320 Fog -4 1012 93 400 7.2 20 15:47 30.03.2022
2321 Snow -5 1011 100 400 7.2 10 14:22 30.03.2022
2322 Snow -5 1012 93 500 6.17 40 13:20 30.03.2022
2323 Clouds -5 1012 93 2600 6.69 20 12:19 30.03.2022
2324 Snow -5 1012 93 750 5.66 20 10:48 30.03.2022
2325 Clouds -6 1013 100 450 5.14 360 09:30 30.03.2022
2326 Clouds -11 1013 93 10000 3.12 16 07:59 30.03.2022
2327 Clouds -5 1013 93 300 4.12 360 06:32 30.03.2022
2328 Snow -5 1013 93 350 6.69 10 05:38 30.03.2022
2329 Fog -5 1013 100 1200 6.17 20 01:45 30.03.2022
2330 Clear -5 1014 92 10000 4.92 10 22:38 29.03.2022
2331 Clouds -4 1014 93 10000 5.14 10 21:47 29.03.2022
2332 Clear -5 1015 92 10000 4.47 360 20:55 29.03.2022
2333 Snow -4 1014 93 600 4.63 360 20:25 29.03.2022
2334 Snow -4 1014 100 300 4.12 350 19:27 29.03.2022
2335 Clear -5 1014 92 10000 4.02 350 18:53 29.03.2022
2336 Snow -4 1015 93 400 5.14 360 17:40 29.03.2022
2337 Clouds -4 1015 92 10000 4.02 360 16:59 29.03.2022
2338 Snow -4 1015 93 1500 4.12 360 16:25 29.03.2022
2339 Snow -4 1016 93 800 4.63 360 15:20 29.03.2022
2340 Snow -4 1016 93 1200 4.12 360 14:43 29.03.2022
2341 Snow -5 1016 100 400 4.12 350 13:33 29.03.2022
2342 Clouds -10 1017 86 10000 3.09 39 11:58 29.03.2022
2343 Clouds -11 1017 86 10000 3.32 44 10:59 29.03.2022
2344 Clouds -11 1018 86 10000 3.25 46 09:51 29.03.2022
2345 Clouds -4 1018 100 5000 3.6 20 08:43 29.03.2022
2346 Clouds -3 1018 93 10000 4.63 10 06:21 29.03.2022
2347 Clear -2 1019 93 10000 1.54 90 02:27 29.03.2022
2348 Clouds 0 1019 80 10000 3.6 190 23:26 28.03.2022
2349 Clouds 0 1019 80 10000 3.6 190 23:26 28.03.2022
2350 Clear -4 1019 82 10000 1.78 42 22:57 28.03.2022
2351 Clouds -1 1019 93 10000 5.66 190 22:31 28.03.2022
2352 Clouds -1 1019 93 10000 6.71 200 21:38 28.03.2022
2353 Clouds 0 1018 86 10000 6.71 200 20:32 28.03.2022
2354 Clouds 1 1018 75 10000 5.14 200 19:48 28.03.2022
2355 Clouds 1 1018 75 10000 5.14 200 19:30 28.03.2022
2356 Clouds 2 1018 64 10000 2.57 170 18:44 28.03.2022
2357 Clouds 3 1017 56 10000 1.54 360 17:41 28.03.2022
2358 Clouds 4 1017 52 10000 0 0 16:48 28.03.2022
2359 Clear -4 1019 79 10000 1.53 61 14:56 28.03.2022
2360 Clouds 1 1016 60 10000 1.54 120 14:23 28.03.2022
2361 Clouds -1 1016 69 10000 0.51 20 13:18 28.03.2022
2362 Clouds -1 1015 69 10000 1.54 160 11:43 28.03.2022
2363 Clouds -7 1016 74 10000 2.93 111 09:55 28.03.2022
2364 Clouds -1 1014 69 10000 0 0 09:21 28.03.2022
2365 Clouds 0 1014 64 10000 1.03 0 08:39 28.03.2022
2366 Clouds 0 1014 64 10000 1.03 0 08:18 28.03.2022
2367 Clouds 1 1013 55 10000 1.54 170 06:31 28.03.2022
2368 Clouds 0 1009 59 10000 1.54 170 00:30 28.03.2022
2369 Clouds 1 1008 64 10000 0.51 0 22:35 27.03.2022
2370 Clouds 2 1007 60 10000 1.03 190 21:43 27.03.2022
2371 Clouds 2 1007 60 10000 1.03 190 21:18 27.03.2022
2372 Clouds 3 1007 44 10000 1.03 0 20:24 27.03.2022
2373 Clouds 2 1007 48 10000 1.03 240 19:37 27.03.2022
2374 Clouds 2 1007 48 10000 1.54 0 18:44 27.03.2022
2375 Clouds 2 1007 48 10000 1.54 0 18:23 27.03.2022
2376 Clear 3 1007 38 10000 1.54 170 17:35 27.03.2022
2377 Clear -5 1010 72 10000 2.32 50 15:51 27.03.2022
2378 Clouds -8 1010 76 10000 2.42 80 13:58 27.03.2022
2379 Clouds -3 1009 63 10000 1.54 80 13:20 27.03.2022
2380 Clouds -4 1009 58 10000 1.54 130 11:35 27.03.2022
2381 Clouds -3 1008 63 10000 11.32 40 09:37 27.03.2022
2382 Clouds -3 1010 50 10000 8.75 60 07:31 27.03.2022
2383 Clouds -4 1014 68 10000 9.26 50 03:45 27.03.2022
2384 Clouds -4 1016 63 10000 8.75 40 00:26 27.03.2022
2385 Clouds -3 1017 54 10000 8.23 40 22:49 26.03.2022
2386 Clouds -5 1017 62 10000 6.71 40 21:57 26.03.2022
2387 Clouds -4 1017 63 10000 6.71 50 21:30 26.03.2022
2388 Clouds -4 1018 68 10000 7.72 50 19:32 26.03.2022
2389 Clouds -4 1018 68 10000 7.72 50 19:32 26.03.2022
2390 Clouds -3 1019 63 10000 4.12 40 18:40 26.03.2022
2391 Clouds -4 1019 74 10000 4.12 50 17:36 26.03.2022
2392 Clouds -4 1019 68 10000 4.12 50 16:34 26.03.2022
2393 Clouds -4 1019 68 10000 3.6 30 15:39 26.03.2022
2394 Clouds -5 1019 73 10000 1.34 50 13:56 26.03.2022
2395 Clouds -5 1019 74 10000 1.54 50 13:20 26.03.2022
2396 Clouds -12 1021 85 10000 2.94 60 11:50 26.03.2022
2397 Clouds -7 1019 86 10000 2.06 90 10:48 26.03.2022
2398 Clouds -6 1019 79 10000 1.03 60 08:50 26.03.2022
2399 Clouds -7 1018 86 10000 2.06 50 06:39 26.03.2022
2400 Clouds -8 1018 86 10000 1.54 100 05:30 26.03.2022
2401 Clouds -6 1017 73 10000 1.54 60 01:47 26.03.2022
2402 Clouds -5 1016 68 10000 2.57 60 22:21 25.03.2022
2403 Clouds -8 1018 81 10000 1.24 5 20:58 25.03.2022
2404 Clouds -4 1016 63 10000 2.57 50 20:26 25.03.2022
2405 Clouds -4 1016 68 10000 1.54 10 19:19 25.03.2022
2406 Clouds -3 1016 63 10000 2.57 30 18:34 25.03.2022
2407 Clouds -3 1016 54 10000 3.09 40 17:29 25.03.2022
2408 Clouds -1 1016 47 10000 1.54 130 16:27 25.03.2022
2409 Clouds -2 1016 43 10000 0.51 230 15:33 25.03.2022
2410 Clouds -5 1016 50 10000 0 0 13:29 25.03.2022
2411 Clouds -7 1016 68 10000 1.54 100 11:21 25.03.2022
2412 Clouds -8 1015 86 10000 1.54 90 09:31 25.03.2022
2413 Clouds -15 1018 73 10000 2.41 117 08:50 25.03.2022
2414 Clouds -8 1015 67 10000 0.51 110 07:42 25.03.2022
2415 Clouds -15 1017 70 10000 3.17 106 06:59 25.03.2022
2416 Clouds -7 1014 58 10000 2.06 180 02:37 25.03.2022
2417 Clouds -12 1016 78 10000 1.96 25 22:59 24.03.2022
2418 Clouds -8 1014 73 10000 5.14 360 22:19 24.03.2022
2419 Clouds -11 1015 77 10000 2.78 348 20:58 24.03.2022
2420 Clouds -7 1014 63 10000 7.2 60 19:49 24.03.2022
2421 Clouds -7 1014 63 10000 7.2 40 18:45 24.03.2022
2422 Clouds -7 1015 63 10000 6.71 50 17:36 24.03.2022
2423 Clouds -7 1015 63 10000 6.71 50 17:36 24.03.2022
2424 Clouds -7 1016 63 10000 6.71 40 16:33 24.03.2022
2425 Clouds -12 1019 70 10000 3.34 17 14:52 24.03.2022
2426 Clouds -8 1017 62 10000 9.26 60 14:22 24.03.2022
2427 Clouds -9 1018 67 10000 7.72 50 13:34 24.03.2022
2428 Clouds -19 1020 85 10000 3.7 42 12:24 24.03.2022
2429 Clouds -21 1021 88 10000 3.44 23 11:27 24.03.2022
2430 Clouds -21 1021 91 10000 3.85 36 09:28 24.03.2022
2431 Clouds -21 1021 91 10000 3.85 36 08:34 24.03.2022
2432 Clouds -22 1022 96 10000 3.65 23 05:36 24.03.2022
2433 Clouds -20 1022 98 10000 3.47 11 00:38 24.03.2022
2434 Clear -10 1021 73 10000 5.66 350 22:21 23.03.2022
2435 Clouds -9 1021 67 10000 5.66 10 21:24 23.03.2022
2436 Clouds -9 1021 67 10000 6.69 360 20:36 23.03.2022
2437 Clouds -9 1021 73 10000 6.17 10 19:28 23.03.2022
2438 Clear -10 1022 78 10000 7.15 10 17:52 23.03.2022
2439 Clear -10 1022 78 10000 7.15 10 17:25 23.03.2022
2440 Clear -11 1023 73 10000 6.17 360 15:43 23.03.2022
2441 Clouds -11 1023 85 10000 6.17 360 14:47 23.03.2022
2442 Clouds -11 1023 85 10000 7.2 10 13:31 23.03.2022
2443 Clouds -20 1025 99 10000 4.2 358 11:33 23.03.2022
2444 Snow -11 1024 85 10000 7.72 350 08:41 23.03.2022
2445 Clouds -18 1026 98 10000 4.35 353 05:50 23.03.2022
2446 Clouds -17 1027 98 9320 4.83 340 02:50 23.03.2022
2447 Clouds -12 1025 92 10000 8.23 340 00:27 23.03.2022
2448 Clouds -11 1024 85 5619 7.15 350 21:52 22.03.2022
2449 Clouds -11 1024 85 10000 7.2 350 21:23 22.03.2022
2450 Clouds -10 1024 85 10000 5.66 340 20:29 22.03.2022
2451 Clouds -10 1023 85 10000 5.14 340 19:27 22.03.2022
2452 Clouds -10 1023 85 10000 5.14 340 18:49 22.03.2022
2453 Clouds -10 1023 85 10000 5.14 350 17:44 22.03.2022
2454 Clouds -10 1024 85 10000 4.92 350 16:58 22.03.2022
2455 Clouds -10 1022 79 10000 5.66 350 15:48 22.03.2022
2456 Clouds -10 1022 79 10000 5.66 350 15:21 22.03.2022
2457 Clouds -10 1022 67 10000 5.14 350 14:45 22.03.2022
2458 Clouds -10 1021 61 10000 4.02 360 13:52 22.03.2022
2459 Clouds -11 1021 67 10000 4.12 360 12:34 22.03.2022
2460 Clouds -10 1020 79 10000 4.63 360 11:24 22.03.2022
2461 Clouds -11 1019 67 10000 5.66 360 09:42 22.03.2022
2462 Clouds -10 1019 67 10000 4.12 40 07:44 22.03.2022
2463 Clouds -19 1021 80 10000 3 34 04:29 22.03.2022
2464 Clouds -20 1021 82 10000 2.97 34 02:52 22.03.2022
2465 Clouds -11 1019 79 10000 5.66 10 23:19 21.03.2022
2466 Clouds -11 1019 73 10000 5.66 30 21:39 21.03.2022
2467 Clouds -11 1019 67 10000 5.14 50 20:45 21.03.2022
2468 Clouds -11 1019 67 10000 5.14 50 20:24 21.03.2022
2469 Clouds -11 1019 67 10000 5.14 40 19:48 21.03.2022
2470 Clouds -11 1019 67 10000 5.14 40 19:22 21.03.2022
2471 Clouds -11 1020 67 10000 5.14 60 17:36 21.03.2022
2472 Clear -15 1022 69 10000 4 356 16:59 21.03.2022
2473 Clouds -11 1020 67 10000 7.72 50 16:36 21.03.2022
2474 Clouds -12 1020 72 10000 6.69 20 15:45 21.03.2022
2475 Clouds -12 1021 67 10000 6.17 30 14:47 21.03.2022
2476 Clouds -13 1021 72 10000 5.66 20 13:27 21.03.2022
2477 Clear -22 1023 84 10000 3.3 28 12:31 21.03.2022
2478 Clear -24 1024 86 10000 3.36 39 11:39 21.03.2022
2479 Clear -25 1024 89 10000 3.48 44 09:54 21.03.2022
2480 Clear -25 1025 91 10000 3.4 45 07:54 21.03.2022
2481 Clouds -26 1025 93 10000 3.32 46 06:31 21.03.2022
2482 Clouds -25 1025 97 10000 3.08 48 02:33 21.03.2022
2483 Clouds -14 1024 78 4800 1.03 320 23:32 20.03.2022
2484 Clouds -14 1023 72 10000 0 0 22:42 20.03.2022
2485 Clouds -14 1023 72 10000 0 0 21:49 20.03.2022
2486 Clouds -14 1023 72 10000 0 0 21:20 20.03.2022
2487 Clouds -14 1023 66 10000 0 0 20:42 20.03.2022
2488 Clear -19 1025 87 10000 2.02 336 19:57 20.03.2022
2489 Clouds -14 1022 66 10000 0 0 19:26 20.03.2022
2490 Clouds -18 1024 84 10000 2.02 337 17:51 20.03.2022
2491 Clouds -14 1022 66 10000 1.03 250 17:29 20.03.2022
2492 Clouds -18 1024 85 10000 2.25 343 16:52 20.03.2022
2493 Clouds -20 1024 90 10000 2.1 353 15:27 20.03.2022
2494 Snow -15 1021 72 10000 1.03 270 13:49 20.03.2022
2495 Snow -15 1021 78 10000 0 0 12:22 20.03.2022
2496 Clouds -25 1023 96 10000 2.17 43 10:55 20.03.2022
2497 Snow -16 1019 78 10000 1.03 340 08:42 20.03.2022
2498 Clouds -16 1018 78 10000 4.63 320 06:55 20.03.2022
2499 Clouds -15 1018 66 10000 3.6 340 04:23 20.03.2022
2500 Clouds -15 1017 72 10000 3.09 350 01:29 20.03.2022
2501 Clouds -15 1017 72 10000 2.06 310 00:37 20.03.2022
2502 Clouds -15 1016 72 10000 3.09 340 23:19 19.03.2022
2503 Clouds -15 1015 72 10000 1.54 300 21:27 19.03.2022
2504 Clouds -15 1015 72 10000 2.57 300 20:39 19.03.2022
2505 Clouds -15 1017 71 10000 1.79 330 18:58 19.03.2022
2506 Clouds -14 1014 72 10000 2.06 330 18:23 19.03.2022
2507 Clouds -15 1014 85 10000 2.57 340 17:35 19.03.2022
2508 Snow -15 1013 85 10000 2.57 340 15:43 19.03.2022
2509 Snow -15 1012 85 10000 4.12 320 14:34 19.03.2022
2510 Clouds -20 1015 97 6543 1.36 337 12:59 19.03.2022
2511 Snow -15 1010 85 10000 5.14 300 12:39 19.03.2022
2512 Clouds -21 1015 99 3228 1.42 331 11:51 19.03.2022
2513 Snow -14 1009 85 6000 4.12 330 10:45 19.03.2022
2514 Clouds -18 1011 94 4123 1.43 205 06:51 19.03.2022
2515 Snow -11 1004 62 1300 9.77 150 03:24 19.03.2022
2516 Clouds -12 1004 67 2100 9.77 150 02:29 19.03.2022
2517 Clouds -13 1004 66 10000 6.17 160 23:44 18.03.2022
2518 Clouds -13 1004 66 10000 4.12 190 22:28 18.03.2022
2519 Clouds -13 1003 61 10000 4.12 220 21:45 18.03.2022
2520 Clouds -13 1002 71 945 5.81 230 19:51 18.03.2022
2521 Clouds -13 1002 72 10000 6.17 230 19:21 18.03.2022
2522 Clouds -13 1000 78 208 7.6 220 17:52 18.03.2022
2523 Snow -12 1000 85 10000 8.23 220 16:49 18.03.2022
2524 Snow -12 999 85 700 6.17 200 15:32 18.03.2022
2525 Snow -12 999 79 2000 5.14 200 14:23 18.03.2022
2526 Clouds -13 999 85 10000 5.66 230 12:36 18.03.2022
2527 Snow -12 1000 95 120 3.45 156 10:53 18.03.2022
2528 Snow -10 996 85 550 7.2 210 09:30 18.03.2022
2529 Snow -10 996 92 500 6.69 200 08:32 18.03.2022
2530 Snow -10 996 85 800 8.23 200 06:35 18.03.2022
2531 Clouds -11 997 85 135 7.6 180 02:57 18.03.2022
2532 Snow -12 996 85 300 12.35 160 00:39 18.03.2022
2533 Snow -12 997 79 1000 10.29 160 23:38 17.03.2022
2534 Snow -12 997 72 2000 10.8 160 22:25 17.03.2022
2535 Snow -12 997 67 1800 7.72 130 21:48 17.03.2022
2536 Snow -12 997 67 1800 7.72 130 21:26 17.03.2022
2537 Snow -13 997 72 5000 8.23 140 20:45 17.03.2022
2538 Clouds -13 999 78 126 6.71 150 19:50 17.03.2022
2539 Clouds -13 997 78 5000 6.71 150 19:32 17.03.2022
2540 Snow -14 997 85 1000 8.23 170 18:49 17.03.2022
2541 Snow -14 997 85 500 10.29 160 17:18 17.03.2022
2542 Snow -15 997 85 1200 3.09 160 15:44 17.03.2022
2543 Snow -15 997 85 1200 3.09 160 15:26 17.03.2022
2544 Snow -16 997 85 1000 1.03 60 14:38 17.03.2022
2545 Clouds -19 1000 83 9093 3.6 106 12:55 17.03.2022
2546 Snow -17 996 85 5000 0 0 12:37 17.03.2022
2547 Snow -17 996 85 1500 3.6 280 11:30 17.03.2022
2548 Snow -16 994 85 750 4.63 270 10:32 17.03.2022
2549 Snow -17 993 85 1600 1.54 270 08:40 17.03.2022
2550 Snow -17 993 85 2000 0 0 07:36 17.03.2022
2551 Snow -17 992 85 900 3.09 250 05:48 17.03.2022
2552 Snow -17 990 78 6000 5.14 110 01:37 17.03.2022
2553 Clouds -24 993 90 10000 2.7 81 23:57 16.03.2022
2554 Clouds -23 993 86 10000 2.34 65 22:51 16.03.2022
2555 Clouds -18 989 85 10000 3.09 70 22:33 16.03.2022
2556 Snow -17 989 78 4000 2.06 60 21:46 16.03.2022
2557 Snow -17 989 85 3000 1.03 40 20:28 16.03.2022
2558 Clouds -16 988 77 10000 0.89 280 19:22 16.03.2022
2559 Clouds -16 988 78 3000 1.03 280 18:40 16.03.2022
2560 Clouds -16 988 78 4000 0.51 290 17:43 16.03.2022
2561 Clouds -16 988 78 4000 0.51 290 17:25 16.03.2022
2562 Clouds -17 987 77 837 0.89 290 15:56 16.03.2022
2563 Snow -18 987 85 3000 2.57 240 14:31 16.03.2022
2564 Snow -18 987 85 4000 3.09 240 13:32 16.03.2022
2565 Clouds -21 989 92 9244 2.37 100 11:58 16.03.2022
2566 Clouds -18 987 85 3700 4.63 270 11:21 16.03.2022
2567 Snow -17 986 85 2500 4.12 270 10:28 16.03.2022
2568 Clouds -17 986 77 1313 5.81 230 09:55 16.03.2022
2569 Snow -16 985 78 2400 4.63 230 06:33 16.03.2022
2570 Snow -17 985 85 2500 4.47 250 02:29 16.03.2022
2571 Clouds -17 988 84 253 4.47 250 22:51 15.03.2022
2572 Snow -17 985 85 5000 4.63 250 22:32 15.03.2022
2573 Snow -17 984 78 1500 5.66 210 20:42 15.03.2022
2574 Snow -17 984 78 2000 5.66 240 19:27 15.03.2022
2575 Snow -17 983 85 6000 5.66 230 17:35 15.03.2022
2576 Clouds -17 983 77 6000 5.14 220 16:34 15.03.2022
2577 Snow -17 982 78 2000 5.14 270 15:21 15.03.2022
2578 Snow -17 982 78 3000 4.12 250 14:46 15.03.2022
2579 Snow -18 982 85 3100 4.12 260 13:55 15.03.2022
2580 Snow -18 982 85 4000 2.06 260 12:46 15.03.2022
2581 Snow -18 981 85 4000 3.6 290 11:32 15.03.2022
2582 Clouds -22 985 98 622 1.04 263 09:54 15.03.2022
2583 Snow -22 985 98 487 0.09 118 08:50 15.03.2022
2584 Snow -22 984 98 380 1.61 66 07:53 15.03.2022
2585 Clouds -17 980 78 10000 5.14 250 07:35 15.03.2022
2586 Clouds -17 980 85 10000 4.12 240 05:42 15.03.2022
2587 Clouds -22 982 96 528 4.48 231 23:58 14.03.2022
2588 Clouds -17 977 85 10000 6.17 220 23:25 14.03.2022
2589 Snow -17 976 85 1700 6.69 240 22:37 14.03.2022
2590 Snow -17 974 85 3500 7.72 250 21:49 14.03.2022
2591 Clouds -17 977 84 518 5.81 250 20:54 14.03.2022
2592 Snow -17 972 85 1800 6.17 250 20:23 14.03.2022
2593 Snow -17 970 85 2000 7.72 280 19:21 14.03.2022
2594 Snow -20 971 88 587 6.46 284 17:55 14.03.2022
2595 Snow -16 966 85 2000 12.35 300 17:25 14.03.2022
2596 Snow -16 964 92 600 12.35 300 16:26 14.03.2022
2597 Snow -15 959 92 400 10.8 310 14:41 14.03.2022
2598 Snow -20 959 97 135 10.03 308 12:54 14.03.2022
2599 Snow -18 955 96 131 11.18 314 10:57 14.03.2022
2600 Snow -17 953 95 134 11.57 319 09:56 14.03.2022
2601 Snow -11 951 85 550 11.83 320 09:23 14.03.2022
2602 Snow -16 951 94 137 11.23 319 08:57 14.03.2022
2603 Snow -11 950 92 1000 8.23 320 08:20 14.03.2022
2604 Snow -12 950 85 4300 4.63 20 05:46 14.03.2022
2605 Clouds -16 955 84 10000 7.21 346 02:51 14.03.2022
2606 Snow -14 960 66 3900 10.29 350 01:29 14.03.2022
2607 Clouds -17 970 83 10000 7.19 6 22:56 13.03.2022
2608 Clouds -13 974 78 10000 9.77 10 21:40 13.03.2022
2609 Clouds -13 974 78 10000 9.77 10 21:19 13.03.2022
2610 Clouds -13 976 78 10000 9.77 10 20:43 13.03.2022
2611 Clouds -13 976 78 10000 9.77 10 20:20 13.03.2022
2612 Snow -13 979 78 3000 7.72 10 19:40 13.03.2022
2613 Snow -13 979 78 3000 7.72 10 19:19 13.03.2022
2614 Clouds -13 982 78 10000 8.23 10 18:40 13.03.2022
2615 Snow -14 984 85 10000 9.77 350 17:47 13.03.2022
2616 Snow -14 984 85 10000 9.77 350 17:22 13.03.2022
2617 Snow -14 987 85 10000 7.2 350 16:43 13.03.2022
2618 Snow -14 987 85 10000 7.2 350 16:20 13.03.2022
2619 Clouds -14 989 78 10000 4.63 340 15:33 13.03.2022
2620 Clouds -18 995 93 10000 2.61 30 13:53 13.03.2022
2621 Clouds -14 993 85 10000 0.51 0 13:26 13.03.2022
2622 Clouds -15 994 78 10000 1.03 150 12:20 13.03.2022
2623 Clouds -16 995 85 5000 2.06 320 11:36 13.03.2022
2624 Snow -15 997 85 3200 0.51 0 10:48 13.03.2022
2625 Snow -15 997 85 3200 0.51 0 10:25 13.03.2022
2626 Snow -15 998 78 2800 2.06 300 09:41 13.03.2022
2627 Clouds -17 1001 95 2687 1.51 57 08:48 13.03.2022
2628 Clouds -17 1001 97 1418 1.38 29 07:57 13.03.2022
2629 Clouds -17 1002 97 550 0.38 212 05:55 13.03.2022
2630 Snow -15 998 85 10000 2.57 260 03:33 13.03.2022
2631 Snow -15 997 85 2900 4.63 290 00:48 13.03.2022
2632 Snow -14 995 85 8000 6.71 300 22:47 12.03.2022
2633 Clouds -13 992 84 200 8.49 290 20:59 12.03.2022
2634 Clouds -13 991 84 458 9.39 300 19:57 12.03.2022
2635 Snow -13 991 85 1200 9.77 300 19:39 12.03.2022
2636 Snow -12 990 72 3200 3.09 270 18:31 12.03.2022
2637 Clouds -12 989 72 10000 2.57 350 17:43 12.03.2022
2638 Clouds -13 988 78 10000 3.09 50 16:25 12.03.2022
2639 Clouds -13 988 66 10000 4.12 30 15:24 12.03.2022
2640 Clouds -13 988 60 1360 5.81 20 14:52 12.03.2022
2641 Clouds -13 988 65 1028 6.71 360 13:53 12.03.2022
2642 Clouds -14 988 56 10000 7.2 340 12:25 12.03.2022
2643 Clouds -15 988 71 790 6.71 10 11:51 12.03.2022
2644 Clouds -14 988 72 10000 6.69 10 11:20 12.03.2022
2645 Clouds -20 991 96 1166 2.58 3 09:59 12.03.2022
2646 Clouds -14 989 72 10000 8.75 10 09:39 12.03.2022
2647 Clouds -21 991 95 4368 2.28 16 07:51 12.03.2022
2648 Clouds -13 989 78 10000 7.2 30 05:44 12.03.2022
2649 Clouds -23 994 94 10000 2.64 55 00:24 12.03.2022
2650 Clouds -13 991 72 10000 4.63 10 23:37 11.03.2022
2651 Clouds -21 994 92 10000 2.77 61 21:55 11.03.2022
2652 Clouds -19 994 91 8936 2.7 66 20:59 11.03.2022
2653 Clouds -13 991 72 10000 5.66 330 20:40 11.03.2022
2654 Clouds -13 991 72 10000 5.66 330 20:19 11.03.2022
2655 Clouds -12 991 72 10000 5.66 340 19:28 11.03.2022
2656 Clouds -18 994 83 10000 3.07 34 17:50 11.03.2022
2657 Clouds -13 992 78 10000 6.17 40 17:21 11.03.2022
2658 Clouds -19 995 83 10000 3.18 21 15:57 11.03.2022
2659 Clouds -13 992 85 10000 4.63 340 15:29 11.03.2022
2660 Clouds -23 995 88 10000 3.03 45 13:28 11.03.2022
2661 Clouds -24 996 86 10000 3.12 40 12:30 11.03.2022
2662 Clouds -25 996 86 10000 3.21 43 11:57 11.03.2022
2663 Clouds -25 996 87 10000 3.19 45 10:30 11.03.2022
2664 Clouds -25 996 87 10000 3.13 46 09:33 11.03.2022
2665 Clouds -25 997 86 10000 3.13 52 08:27 11.03.2022
2666 Clouds -25 997 86 10000 3.13 52 07:46 11.03.2022
2667 Clouds -25 997 86 10000 3.14 37 06:25 11.03.2022
2668 Clouds -25 997 86 10000 3.33 42 04:24 11.03.2022
2669 Clouds -24 998 89 10000 2.99 50 00:39 11.03.2022
2670 Clouds -22 998 90 10000 3.04 32 22:32 10.03.2022
2671 Clouds -21 998 89 10000 2.84 16 21:53 10.03.2022
2672 Clouds -11 995 62 10000 4.63 50 21:24 10.03.2022
2673 Clouds -17 997 82 10000 2.51 359 20:18 10.03.2022
2674 Clouds -17 997 83 10000 2.28 352 18:56 10.03.2022
2675 Clouds -17 997 83 10000 2.16 349 17:50 10.03.2022
2676 Clouds -18 997 84 10000 1.94 1 16:52 10.03.2022
2677 Snow -11 994 67 10000 4.12 340 15:27 10.03.2022
2678 Clouds -21 997 89 10000 2.5 36 13:41 10.03.2022
2679 Clouds -23 996 91 10000 2.64 47 12:38 10.03.2022
2680 Clouds -23 996 94 10000 2.93 62 11:28 10.03.2022
2681 Clouds -22 995 96 10000 2.85 66 09:28 10.03.2022
2682 Clouds -22 994 97 8008 2.73 69 07:47 10.03.2022
2683 Clouds -22 994 98 5306 2.66 77 05:30 10.03.2022
2684 Clouds -20 992 94 2906 1.95 73 01:59 10.03.2022
2685 Clear -12 989 61 10000 6.69 10 23:32 09.03.2022
2686 Clouds -12 988 61 10000 7.2 20 22:20 09.03.2022
2687 Clouds -12 988 61 10000 7.2 10 21:36 09.03.2022
2688 Clouds -12 987 67 10000 7.2 10 20:36 09.03.2022
2689 Clouds -11 987 62 10000 6.69 10 18:41 09.03.2022
2690 Clouds -11 987 67 10000 7.2 10 17:28 09.03.2022
2691 Clouds -11 987 67 10000 7.72 30 16:36 09.03.2022
2692 Clouds -11 987 73 10000 8.23 20 15:32 09.03.2022
2693 Clouds -19 990 85 10000 2.9 13 13:58 09.03.2022
2694 Clouds -21 991 89 10000 2.81 22 12:59 09.03.2022
2695 Clouds -22 991 90 10000 3.01 29 12:20 09.03.2022
2696 Clouds -22 991 90 10000 3.01 29 11:36 09.03.2022
2697 Clouds -22 991 91 10000 3.18 29 10:49 09.03.2022
2698 Clouds -21 991 90 10000 3.32 39 09:22 09.03.2022
2699 Clouds -21 991 90 10000 3.32 39 08:42 09.03.2022
2700 Clouds -9 991 67 10000 8.23 10 04:47 09.03.2022
2701 Clouds -16 995 85 10000 3.24 20 00:52 09.03.2022
2702 Clouds -9 994 67 10000 4.63 80 23:21 08.03.2022
2703 Clouds -8 994 67 10000 5.14 50 22:45 08.03.2022
2704 Clouds -8 994 67 10000 5.66 80 21:26 08.03.2022
2705 Clouds -12 997 77 10000 3.73 6 20:54 08.03.2022
2706 Clouds -8 995 72 10000 5.36 80 19:55 08.03.2022
2707 Clouds -7 996 68 10000 5.14 80 18:45 08.03.2022
2708 Clouds -7 996 68 10000 4.12 70 17:50 08.03.2022
2709 Clouds -7 997 68 10000 2.06 80 16:33 08.03.2022
2710 Clouds -8 997 79 7000 4.12 120 14:23 08.03.2022
2711 Clouds -10 998 92 8000 2.57 60 12:44 08.03.2022
2712 Clouds -10 999 92 1212 1.34 100 11:53 08.03.2022
2713 Snow -10 999 92 5000 1.54 100 11:34 08.03.2022
2714 Clouds -9 999 92 10000 1.54 110 10:22 08.03.2022
2715 Snow -10 1000 92 2600 1.54 90 08:28 08.03.2022
2716 Snow -8 1001 93 300 3.09 250 05:47 08.03.2022
2717 Snow -8 1002 93 1000 2.06 30 00:43 08.03.2022
2718 Snow -8 1003 86 2000 2.57 20 22:24 07.03.2022
2719 Snow -8 1003 86 1500 2.06 10 21:35 07.03.2022
2720 Clouds -8 1003 85 1173 1.34 300 20:54 07.03.2022
2721 Snow -8 1003 86 600 1.54 300 20:22 07.03.2022
2722 Clouds -7 1003 73 10000 3.09 220 19:41 07.03.2022
2723 Clouds -7 1003 79 10000 2.57 220 18:47 07.03.2022
2724 Clouds -7 1003 85 1947 4.47 240 17:58 07.03.2022
2725 Clouds -7 1003 73 1195 4.47 210 16:56 07.03.2022
2726 Snow -7 1003 73 10000 4.63 210 16:34 07.03.2022
2727 Snow -7 1002 86 10000 6.17 190 14:40 07.03.2022
2728 Snow -7 1002 93 7000 3.6 210 12:33 07.03.2022
2729 Snow -7 1002 93 2900 3.09 230 10:45 07.03.2022
2730 Snow -7 1002 93 2900 3.09 230 10:24 07.03.2022
2731 Snow -6 1000 73 1200 8.75 160 07:24 07.03.2022
2732 Snow -7 998 93 750 2.57 190 00:24 07.03.2022
2733 Snow -9 1001 95 98 2.92 197 23:58 06.03.2022
2734 Snow -7 998 86 3200 2.57 190 23:18 06.03.2022
2735 Snow -8 997 93 2400 3.09 220 22:24 06.03.2022
2736 Snow -10 999 94 142 6.67 237 20:56 06.03.2022
2737 Snow -7 994 86 3000 3.09 210 20:28 06.03.2022
2738 Snow -7 993 86 3500 3.6 210 19:31 06.03.2022
2739 Snow -7 992 86 1300 4.63 220 18:25 06.03.2022
2740 Snow -8 992 93 800 4.63 210 17:22 06.03.2022
2741 Snow -11 994 93 176 8.94 213 16:52 06.03.2022
2742 Snow -7 990 93 400 5.66 210 16:24 06.03.2022
2743 Snow -7 989 93 700 5.36 210 15:19 06.03.2022
2744 Snow -7 989 93 200 5.66 210 14:41 06.03.2022
2745 Snow -7 988 93 3500 6.17 200 13:47 06.03.2022
2746 Snow -7 987 93 800 7.2 210 12:36 06.03.2022
2747 Snow -8 985 93 150 8.75 210 11:30 06.03.2022
2748 Snow -7 983 93 100 8.75 200 10:30 06.03.2022
2749 Snow -12 988 91 293 11.27 206 08:51 06.03.2022
2750 Snow -7 981 93 150 8.75 200 08:27 06.03.2022
2751 Snow -7 979 93 1100 9.77 190 07:18 06.03.2022
2752 Snow -5 970 93 50 12.86 170 01:36 06.03.2022
2753 Snow -5 967 86 100 19.03 160 00:34 06.03.2022
2754 Snow -5 965 93 300 23.66 160 23:46 05.03.2022
2755 Snow -5 965 93 300 23.66 160 23:18 05.03.2022
2756 Snow -3 963 86 300 22.64 160 22:31 05.03.2022
2757 Snow -1 962 74 1900 20.58 160 21:24 05.03.2022
2758 Clouds -6 964 80 10000 18.14 161 19:59 05.03.2022
2759 Clouds -3 962 74 10000 11.16 170 18:57 05.03.2022
2760 Clouds -4 963 72 10000 15.38 159 18:36 05.03.2022
2761 Clouds 3 958 44 10000 8.94 70 16:58 05.03.2022
2762 Clouds 3 958 44 10000 9.26 70 16:18 05.03.2022
2763 Clouds -1 962 63 10000 5.36 20 14:53 05.03.2022
2764 Clouds -1 962 64 10000 5.66 20 14:35 05.03.2022
2765 Clouds -1 965 55 10000 5.14 40 13:37 05.03.2022
2766 Clouds -3 967 63 10000 6.69 50 12:33 05.03.2022
2767 Clouds -3 970 63 10000 6.69 40 11:20 05.03.2022
2768 Clouds 0 972 37 10000 9.26 80 10:48 05.03.2022
2769 Clouds -3 974 54 10000 8.75 40 09:28 05.03.2022
2770 Clouds -3 976 54 10000 9.26 40 08:24 05.03.2022
2771 Clouds -4 980 58 10000 5.66 30 06:29 05.03.2022
2772 Clouds -14 985 75 10000 4.04 51 04:54 05.03.2022
2773 Clouds -12 994 79 10000 4.84 79 23:59 04.03.2022
2774 Clouds -2 991 37 10000 6.17 110 22:45 04.03.2022
2775 Clouds -2 991 37 10000 6.17 110 22:24 04.03.2022
2776 Clouds -1 991 37 10000 3.6 0 21:42 04.03.2022
2777 Clouds 0 990 37 10000 5.66 110 20:36 04.03.2022
2778 Clouds -1 990 43 10000 5.14 0 19:36 04.03.2022
2779 Clouds -3 992 63 10000 12.83 154 18:54 04.03.2022
2780 Clouds 0 989 43 10000 8.75 160 18:33 04.03.2022
2781 Clouds 0 990 40 10000 5.14 140 17:29 04.03.2022
2782 Clouds -2 989 59 10000 3.09 90 15:48 04.03.2022
2783 Snow -3 990 80 10000 5.66 170 14:45 04.03.2022
2784 Clouds -5 988 58 10000 1.54 0 13:35 04.03.2022
2785 Snow -9 993 84 6178 3.74 149 11:59 04.03.2022
2786 Clouds -5 988 50 10000 9.26 70 11:37 04.03.2022
2787 Snow -14 992 71 8154 5.6 45 10:24 04.03.2022
2788 Clouds -8 990 53 10000 8.75 40 09:27 04.03.2022
2789 Clouds -18 993 74 10000 5.98 43 07:48 04.03.2022
2790 Clouds -19 996 79 10000 5.09 46 05:49 04.03.2022
2791 Clouds -18 1003 89 10000 3.82 68 01:23 04.03.2022
2792 Clouds -7 1002 53 10000 3.6 120 23:31 03.03.2022
2793 Clouds -7 1002 58 10000 3.09 160 22:18 03.03.2022
2794 Clouds -6 1003 53 10000 3.6 100 21:36 03.03.2022
2795 Clouds -6 1003 53 10000 3.6 110 20:45 03.03.2022
2796 Clouds -6 1002 53 10000 4.12 180 19:22 03.03.2022
2797 Clouds -5 1002 50 10000 3.09 130 18:26 03.03.2022
2798 Clouds -4 1002 46 10000 3.6 0 17:31 03.03.2022
2799 Clouds -6 1002 53 10000 5.14 140 16:41 03.03.2022
2800 Clouds -7 1002 58 10000 4.12 120 15:44 03.03.2022
2801 Clouds -8 1002 73 10000 5.14 140 14:44 03.03.2022
2802 Clouds -8 1002 73 10000 5.14 140 14:26 03.03.2022
2803 Clouds -8 1001 67 10000 6.17 190 12:35 03.03.2022
2804 Clouds -9 1000 73 10000 8.75 180 11:26 03.03.2022
2805 Snow -9 999 79 3900 9.77 180 10:38 03.03.2022
2806 Clouds -9 996 73 5000 9.77 200 08:43 03.03.2022
2807 Snow -12 998 90 640 8.67 193 06:58 03.03.2022
2808 Snow -9 993 79 2300 8.75 180 06:23 03.03.2022
2809 Snow -6 983 86 800 13.89 170 00:40 03.03.2022
2810 Snow -6 982 79 750 13.38 160 23:28 02.03.2022
2811 Snow -6 981 86 1700 9.77 180 22:44 02.03.2022
2812 Clouds -6 980 86 10000 9.26 180 21:23 02.03.2022
2813 Clouds -6 980 86 10000 9.26 180 21:23 02.03.2022
2814 Clouds -6 977 93 10000 12.86 190 20:30 02.03.2022
2815 Snow -5 976 93 4500 11.32 190 19:49 02.03.2022
2816 Snow -5 976 93 4500 11.32 190 19:30 02.03.2022
2817 Clouds -4 976 93 10000 9.26 180 18:39 02.03.2022
2818 Clouds -4 976 93 10000 9.26 180 18:39 02.03.2022
2819 Clouds -11 980 89 6224 4.28 190 17:50 02.03.2022
2820 Clouds -11 980 90 7669 4.65 189 16:59 02.03.2022
2821 Clouds -4 975 86 10000 5.66 190 16:41 02.03.2022
2822 Clouds -12 979 90 10000 2.33 246 14:42 02.03.2022
2823 Clouds -14 979 93 10000 1.78 216 13:24 02.03.2022
2824 Clouds -15 980 93 9695 0.25 239 12:42 02.03.2022
2825 Clouds -17 980 97 10000 1.6 327 11:40 02.03.2022
2826 Clouds -18 981 97 10000 0.99 337 11:21 02.03.2022
2827 Clouds -19 982 96 10000 0.5 41 09:41 02.03.2022
2828 Clouds -19 983 97 10000 0.57 95 08:54 02.03.2022
2829 Clouds -19 984 97 10000 1.48 311 07:28 02.03.2022
2830 Clouds -20 982 95 10000 2.31 337 06:40 02.03.2022
2831 Clouds -11 987 92 10000 10.29 40 01:32 02.03.2022
2832 Clouds -12 989 85 10000 8.23 360 23:49 01.03.2022
2833 Clouds -12 990 92 10000 8.23 360 22:45 01.03.2022
2834 Clouds -21 994 98 10000 3.97 359 21:58 01.03.2022
2835 Clouds -12 991 85 10000 6.17 360 21:24 01.03.2022
2836 Clouds -11 992 79 10000 6.69 10 20:30 01.03.2022
2837 Clouds -11 992 79 10000 6.69 10 20:30 01.03.2022
2838 Clouds -10 993 67 10000 6.17 10 19:28 01.03.2022
2839 Clouds -11 993 79 10000 7.2 10 18:49 01.03.2022
2840 Clouds -11 993 79 10000 7.2 10 18:19 01.03.2022
2841 Clouds -11 994 85 10000 7.2 10 17:22 01.03.2022
2842 Snow -11 995 85 10000 7.2 360 16:33 01.03.2022
2843 Clouds -11 995 85 10000 6.69 10 15:38 01.03.2022
2844 Clouds -11 995 85 10000 6.69 10 15:38 01.03.2022
2845 Clouds -11 996 85 10000 6.17 10 14:34 01.03.2022
2846 Clouds -20 998 93 10000 2.69 50 13:52 01.03.2022
2847 Clouds -21 998 94 10000 3.02 75 13:24 01.03.2022
2848 Clouds -22 998 94 10000 3.07 64 12:32 01.03.2022
2849 Snow -11 995 85 10000 4.63 340 10:36 01.03.2022
2850 Snow -11 995 79 10000 2.57 340 08:42 01.03.2022
2851 Clouds -18 998 96 5367 0.7 107 07:52 01.03.2022
2852 Clouds -11 995 79 10000 0.51 250 06:20 01.03.2022
2853 Snow -12 996 85 10000 1.03 240 02:44 01.03.2022
2854 Snow -12 995 85 10000 2.57 300 00:34 01.03.2022
2855 Clouds -12 995 79 10000 2.06 50 23:30 28.02.2022
2856 Clouds -12 995 79 10000 3.09 360 22:18 28.02.2022
2857 Clouds -12 995 72 10000 2.57 310 21:37 28.02.2022
2858 Clouds -17 997 92 8449 0.9 119 19:59 28.02.2022
2859 Clouds -12 994 79 10000 1.54 280 19:40 28.02.2022
2860 Clouds -12 994 79 10000 0.51 340 18:44 28.02.2022
2861 Clouds -13 994 85 10000 2.57 10 17:33 28.02.2022
2862 Snow -13 993 85 10000 2.57 330 16:43 28.02.2022
2863 Snow -13 994 85 10000 4.12 340 15:27 28.02.2022
2864 Snow -13 994 85 10000 3.6 340 14:32 28.02.2022
2865 Clouds -21 997 98 6690 1.27 42 13:48 28.02.2022
2866 Clouds -23 997 99 10000 1.78 56 12:48 28.02.2022
2867 Clouds -23 997 99 8628 2.49 48 11:58 28.02.2022
2868 Clouds -14 994 78 10000 1.54 140 11:18 28.02.2022
2869 Clouds -14 994 85 10000 2.06 260 10:21 28.02.2022
2870 Clouds -14 993 78 10000 1.54 260 09:36 28.02.2022
2871 Clouds -14 993 78 10000 1.54 270 08:48 28.02.2022
2872 Clouds -14 992 78 10000 2.06 300 07:43 28.02.2022
2873 Clouds -22 996 98 10000 1.37 71 05:52 28.02.2022
2874 Clouds -14 991 78 10000 2.57 340 04:30 28.02.2022
2875 Clouds -14 991 78 10000 2.57 340 04:30 28.02.2022
2876 Clouds -23 994 98 7053 0.33 115 00:34 28.02.2022
2877 Clouds -15 989 61 10000 2.06 360 22:38 27.02.2022
2878 Clouds -23 992 96 10000 1.52 352 21:55 27.02.2022
2879 Clouds -15 987 56 10000 3.6 360 21:35 27.02.2022
2880 Clouds -15 987 72 10000 5.14 360 20:41 27.02.2022
2881 Clouds -15 987 72 10000 5.14 360 20:18 27.02.2022
2882 Clouds -15 986 72 10000 4.63 350 19:36 27.02.2022
2883 Clouds -15 986 72 10000 4.63 350 19:18 27.02.2022
2884 Clouds -18 990 78 10000 3.04 356 17:57 27.02.2022
2885 Clouds -15 986 78 10000 7.2 350 17:34 27.02.2022
2886 Clouds -15 986 72 10000 6.69 360 16:22 27.02.2022
2887 Clouds -15 986 78 10000 4.63 360 14:29 27.02.2022
2888 Snow -16 986 85 10000 3.09 360 12:36 27.02.2022
2889 Clouds -16 985 78 10000 4.12 360 11:46 27.02.2022
2890 Clouds -16 985 72 10000 3.09 360 10:36 27.02.2022
2891 Clouds -24 989 91 10000 2.49 72 09:58 27.02.2022
2892 Clouds -16 984 66 10000 2.57 360 09:23 27.02.2022
2893 Clouds -17 983 71 10000 3.09 10 08:45 27.02.2022
2894 Clouds -17 983 78 10000 3.09 340 05:45 27.02.2022
2895 Clouds -17 983 78 10000 3.6 340 03:35 27.02.2022
2896 Clouds -24 989 90 10000 2.38 75 23:52 26.02.2022
2897 Clouds -17 984 60 10000 2.06 330 22:42 26.02.2022
2898 Clouds -16 984 66 10000 1.03 330 21:29 26.02.2022
2899 Clouds -16 984 60 10000 2.06 340 20:43 26.02.2022
2900 Clouds -21 988 85 10000 2.06 36 19:57 26.02.2022
2901 Clouds -15 984 66 10000 2.06 330 19:33 26.02.2022
2902 Clouds -15 984 61 10000 1.54 340 18:33 26.02.2022
2903 Clouds -15 983 61 10000 1.03 80 17:36 26.02.2022
2904 Clouds -15 983 56 10000 2.06 130 16:39 26.02.2022
2905 Clouds -16 983 66 10000 1.03 120 15:38 26.02.2022
2906 Clouds -16 983 66 10000 1.03 120 15:19 26.02.2022
2907 Clouds -17 984 71 10000 0 0 14:42 26.02.2022
2908 Clouds -17 984 71 10000 0 0 14:19 26.02.2022
2909 Clouds -25 988 87 10000 2.82 89 12:53 26.02.2022
2910 Clouds -25 988 86 10000 3.09 92 11:53 26.02.2022
2911 Clouds -18 983 78 10000 1.03 140 11:26 26.02.2022
2912 Clouds -18 983 78 10000 0.51 260 10:22 26.02.2022
2913 Clouds -18 983 78 10000 1.03 250 08:35 26.02.2022
2914 Clouds -18 982 78 10000 3.09 280 06:46 26.02.2022
2915 Clouds -19 983 78 10000 7.2 310 00:26 26.02.2022
2916 Clouds -19 983 84 10000 8.75 310 22:44 25.02.2022
2917 Snow -19 983 84 1800 8.75 320 21:37 25.02.2022
2918 Snow -19 983 84 1800 8.75 320 21:18 25.02.2022
2919 Snow -19 982 84 1600 9.77 320 20:31 25.02.2022
2920 Snow -22 986 90 492 6.52 337 18:35 25.02.2022
2921 Snow -18 982 85 800 6.17 350 17:21 25.02.2022
2922 Snow -17 982 78 1000 3.6 340 16:21 25.02.2022
2923 Snow -17 983 78 2000 4.63 350 15:42 25.02.2022
2924 Clouds -23 987 88 978 6.71 339 15:20 25.02.2022
2925 Snow -17 984 78 3000 5.14 360 14:41 25.02.2022
2926 Clouds -17 985 71 10000 3.09 360 13:36 25.02.2022
2927 Clouds -23 989 90 1625 6.3 339 12:55 25.02.2022
2928 Clouds -22 989 92 1223 5.7 342 11:28 25.02.2022
2929 Clouds -18 986 85 5000 6.69 330 10:29 25.02.2022
2930 Clouds -23 989 94 1099 5.13 342 09:57 25.02.2022
2931 Mist -18 987 78 3800 6.17 340 09:18 25.02.2022
2932 Mist -18 988 78 4100 6.69 340 07:41 25.02.2022
2933 Clouds -28 991 98 2959 3.14 27 05:49 25.02.2022
2934 Clouds -29 992 97 8731 3.54 31 04:32 25.02.2022
2935 Clouds -18 994 60 10000 6.69 10 23:47 24.02.2022
2936 Clear -27 998 95 10000 3.92 15 21:58 24.02.2022
2937 Clear -27 998 95 10000 3.92 15 21:58 24.02.2022
2938 Clouds -17 996 60 10000 7.2 360 21:39 24.02.2022
2939 Clouds -17 996 60 10000 7.2 360 21:19 24.02.2022
2940 Clouds -17 997 78 10000 7.2 10 19:42 24.02.2022
2941 Clouds -17 998 85 10000 8.23 10 18:44 24.02.2022
2942 Clouds -17 998 85 10000 8.23 10 18:19 24.02.2022
2943 Clouds -17 999 85 10000 6.69 350 17:34 24.02.2022
2944 Clouds -22 1002 88 10000 3.41 28 16:50 24.02.2022
2945 Clouds -17 1001 85 10000 8.23 10 16:24 24.02.2022
2946 Clouds -24 1005 91 10000 2.99 47 14:56 24.02.2022
2947 Clouds -16 1003 85 10000 6.17 10 14:36 24.02.2022
2948 Clouds -25 1006 92 10000 3.18 57 13:40 24.02.2022
2949 Clouds -26 1007 93 10000 3.41 67 13:21 24.02.2022
2950 Clouds -17 1007 78 3500 4.12 340 10:41 24.02.2022
2951 Clouds -17 1008 78 6000 3.6 340 09:40 24.02.2022
2952 Snow -16 1008 72 10000 3.09 320 08:42 24.02.2022
2953 Clouds -23 1012 94 10000 3.12 86 05:59 24.02.2022
2954 Clouds -21 1013 90 10000 2 77 02:59 24.02.2022
2955 Clouds -16 1012 60 10000 2.06 90 23:45 23.02.2022
2956 Clouds -20 1015 86 10000 1.9 65 21:53 23.02.2022
2957 Clouds -15 1012 61 10000 1.54 10 20:32 23.02.2022
2958 Clouds -20 1014 80 10000 1.52 4 19:55 23.02.2022
2959 Clouds -19 1015 76 10000 2.05 23 18:57 23.02.2022
2960 Clouds -20 1014 75 10000 1.89 14 17:46 23.02.2022
2961 Clouds -16 1012 60 10000 3.09 10 15:28 23.02.2022
2962 Clouds -16 1012 51 10000 3.09 360 13:34 23.02.2022
2963 Clouds -16 1012 60 10000 4.12 360 12:28 23.02.2022
2964 Clouds -22 1014 83 10000 1.27 56 10:55 23.02.2022
2965 Clouds -17 1010 71 10000 3.09 360 09:31 23.02.2022
2966 Clouds -17 1009 71 10000 3.6 360 08:28 23.02.2022
2967 Clouds -17 1008 78 4400 3.6 340 07:25 23.02.2022
2968 Clouds -17 1006 71 10000 2.57 340 02:22 23.02.2022
2969 Clouds -21 1007 91 4937 3.45 42 23:50 22.02.2022
2970 Snow -17 1004 71 7000 4.12 350 23:31 22.02.2022
2971 Clouds -16 1003 51 10000 6.17 360 22:28 22.02.2022
2972 Clouds -17 1002 60 10000 8.23 30 21:40 22.02.2022
2973 Clouds -17 1002 60 10000 8.23 30 21:19 22.02.2022
2974 Clouds -16 1001 51 10000 6.69 10 20:31 22.02.2022
2975 Clouds -21 1003 91 10000 4.06 347 19:56 22.02.2022
2976 Clouds -16 1000 51 10000 9.26 20 19:33 22.02.2022
2977 Clouds -17 999 60 10000 9.26 30 18:35 22.02.2022
2978 Clouds -17 998 60 10000 9.26 40 17:27 22.02.2022
2979 Clouds -23 1000 81 10000 3.74 8 16:55 22.02.2022
2980 Clouds -17 998 60 10000 8.23 10 16:20 22.02.2022
2981 Clouds -17 997 66 10000 8.75 20 15:30 22.02.2022
2982 Clouds -28 998 81 10000 3.55 31 14:28 22.02.2022
2983 Clouds -29 997 83 10000 4.01 16 11:38 22.02.2022
2984 Clouds -19 995 78 9000 7.72 10 09:44 22.02.2022
2985 Clouds -28 996 83 10000 3.94 38 07:30 22.02.2022
2986 Clouds -28 996 83 10000 4.34 40 06:54 22.02.2022
2987 Clouds -27 997 85 10000 3.8 39 02:50 22.02.2022
2988 Clear -26 999 87 10000 3.89 54 23:18 21.02.2022
2989 Clouds -16 997 72 10000 6.69 30 22:36 21.02.2022
2990 Clouds -16 996 85 10000 5.66 20 21:21 21.02.2022
2991 Clouds -21 1000 84 10000 3.62 35 18:56 21.02.2022
2992 Clouds -15 997 66 10000 4.63 10 18:37 21.02.2022
2993 Clouds -16 997 78 10000 5.66 10 16:23 21.02.2022
2994 Clouds -16 998 78 10000 6.17 10 14:23 21.02.2022
2995 Clouds -25 1002 90 10000 3.59 49 13:31 21.02.2022
2996 Clouds -25 1002 90 10000 3.59 49 13:31 21.02.2022
2997 Clouds -26 1004 91 10000 3.65 53 12:46 21.02.2022
2998 Clouds -27 1004 92 10000 3.69 51 12:21 21.02.2022
2999 Clouds -26 1005 93 10000 3.53 51 10:29 21.02.2022
3000 Clouds -25 1006 95 10000 3.41 55 07:48 21.02.2022
3001 Clouds -14 1007 85 5000 2.06 50 00:35 21.02.2022
3002 Snow -14 1008 85 4000 1.54 130 22:32 20.02.2022
3003 Snow -14 1008 92 1200 2.06 40 21:44 20.02.2022
3004 Snow -14 1008 92 1200 2.06 40 21:25 20.02.2022
3005 Snow -14 1008 92 2500 2.57 340 20:43 20.02.2022
3006 Clouds -15 1012 84 4249 2.24 330 19:51 20.02.2022
3007 Clouds -15 1011 84 1473 2.24 330 18:56 20.02.2022
3008 Snow -14 1009 85 300 2.57 330 18:37 20.02.2022
3009 Clouds -13 1009 84 1189 1.34 180 17:55 20.02.2022
3010 Snow -13 1009 85 1500 1.54 180 17:24 20.02.2022
3011 Snow -13 1009 85 1500 1.54 180 17:24 20.02.2022
3012 Clouds -13 1008 85 10000 2.57 160 15:27 20.02.2022
3013 Clouds -15 1008 71 10000 0.45 100 13:59 20.02.2022
3014 Snow -15 1007 66 2000 3.09 90 12:47 20.02.2022
3015 Clouds -15 1007 71 10000 1.34 80 11:55 20.02.2022
3016 Snow -15 1006 78 650 1.54 140 10:21 20.02.2022
3017 Snow -15 1005 78 2500 0.51 160 09:35 20.02.2022
3018 Snow -16 1002 78 3100 2.06 80 06:29 20.02.2022
3019 Clouds -15 995 78 10000 7.72 320 00:32 20.02.2022
3020 Clouds -15 995 78 10000 7.72 320 00:32 20.02.2022
3021 Snow -15 994 85 2900 6.71 320 23:33 19.02.2022
3022 Snow -15 993 85 1200 6.17 340 22:24 19.02.2022
3023 Snow -14 991 78 5000 5.14 360 21:45 19.02.2022
3024 Clouds -14 990 72 9000 6.17 340 20:28 19.02.2022
3025 Clouds -13 989 66 10000 5.66 360 19:34 19.02.2022
3026 Clouds -13 989 61 10000 6.69 10 18:40 19.02.2022
3027 Clouds -13 989 61 10000 6.69 10 18:40 19.02.2022
3028 Clouds -18 990 84 10000 2.24 9 17:57 19.02.2022
3029 Clouds -13 988 61 10000 7.72 30 17:21 19.02.2022
3030 Clouds -19 990 86 10000 2.71 34 15:59 19.02.2022
3031 Clouds -21 990 87 10000 2.88 14 14:54 19.02.2022
3032 Clouds -22 990 89 10000 3.16 25 13:57 19.02.2022
3033 Clouds -23 991 90 10000 3.34 54 11:53 19.02.2022
3034 Clouds -23 991 90 10000 3.31 55 10:54 19.02.2022
3035 Clouds -23 991 90 10000 3.58 65 08:57 19.02.2022
3036 Snow -13 988 66 10000 3.6 90 06:48 19.02.2022
3037 Clouds -13 991 61 10000 3.09 70 00:42 19.02.2022
3038 Snow -14 991 66 10000 2.06 0 22:28 18.02.2022
3039 Clouds -14 991 72 10000 3.09 40 21:22 18.02.2022
3040 Clouds -14 990 72 10000 3.09 20 20:18 18.02.2022
3041 Clouds -14 990 66 10000 4.63 50 19:25 18.02.2022
3042 Clouds -15 991 61 10000 4.63 20 18:29 18.02.2022
3043 Clouds -20 993 81 10000 2.22 38 17:56 18.02.2022
3044 Clouds -16 991 55 10000 5.14 360 16:19 18.02.2022
3045 Clouds -16 991 60 10000 5.14 360 14:19 18.02.2022
3046 Clouds -16 990 51 10000 6.17 360 13:45 18.02.2022
3047 Clouds -16 990 66 10000 6.69 10 12:48 18.02.2022
3048 Clouds -25 993 88 10000 3.44 27 11:56 18.02.2022
3049 Clouds -16 991 72 10000 6.69 10 10:42 18.02.2022
3050 Clouds -16 992 78 10000 4.63 360 07:21 18.02.2022
3051 Clouds -24 996 92 10000 3.4 37 05:52 18.02.2022
3052 Clouds -16 994 60 10000 4.12 340 05:34 18.02.2022
3053 Clouds -15 997 72 10000 6.69 80 22:20 17.02.2022
3054 Clouds -15 998 72 10000 7.2 80 21:38 17.02.2022
3055 Clouds -14 998 61 10000 6.69 80 20:43 17.02.2022
3056 Clouds -15 998 65 10000 5.81 70 19:55 17.02.2022
3057 Clouds -14 998 66 10000 6.17 70 19:22 17.02.2022
3058 Clouds -14 999 61 10000 5.14 80 18:29 17.02.2022
3059 Clouds -14 999 56 10000 4.63 90 17:42 17.02.2022
3060 Clouds -18 1002 77 10000 2.53 75 15:57 17.02.2022
3061 Clouds -15 999 61 10000 4.63 90 14:30 17.02.2022
3062 Clouds -15 999 56 10000 3.6 70 13:31 17.02.2022
3063 Clouds -21 1002 83 10000 2.79 75 11:52 17.02.2022
3064 Clouds -15 998 56 10000 5.14 40 10:20 17.02.2022
3065 Clouds -16 997 66 10000 5.14 30 07:45 17.02.2022
3066 Clouds -16 993 51 10000 6.69 30 23:23 16.02.2022
3067 Clouds -16 993 51 10000 8.75 40 22:36 16.02.2022
3068 Clouds -15 991 51 10000 8.23 30 20:22 16.02.2022
3069 Clouds -19 992 89 10000 3.26 6 18:56 16.02.2022
3070 Clouds -16 990 55 10000 7.72 20 18:34 16.02.2022
3071 Clouds -17 991 81 10000 3.26 26 17:24 16.02.2022
3072 Clouds -15 988 61 10000 6.17 30 15:23 16.02.2022
3073 Clouds -15 987 66 10000 4.12 40 13:46 16.02.2022
3074 Clouds -15 987 66 10000 5.14 60 12:26 16.02.2022
3075 Clouds -15 986 78 4800 5.14 60 11:46 16.02.2022
3076 Clouds -15 986 72 10000 5.14 70 10:35 16.02.2022
3077 Snow -15 985 72 6000 4.12 80 09:39 16.02.2022
3078 Clouds -16 985 78 2900 3.09 40 06:44 16.02.2022
3079 Snow -15 985 78 3500 3.6 20 02:47 16.02.2022
3080 Clouds -16 987 72 10000 2.57 10 22:34 15.02.2022
3081 Clouds -16 987 71 1544 1.34 330 21:50 15.02.2022
3082 Clouds -16 987 72 10000 1.54 330 21:30 15.02.2022
3083 Clouds -16 990 77 1134 1.79 350 20:58 15.02.2022
3084 Snow -16 987 78 10000 2.06 350 20:26 15.02.2022
3085 Snow -16 987 78 10000 3.6 330 19:45 15.02.2022
3086 Clouds -16 987 78 10000 3.6 330 18:26 15.02.2022
3087 Clouds -16 988 77 703 3.58 330 17:53 15.02.2022
3088 Clouds -16 988 78 10000 3.6 330 17:32 15.02.2022
3089 Clouds -16 989 78 10000 4.63 310 15:43 15.02.2022
3090 Clouds -16 989 78 10000 5.14 320 14:31 15.02.2022
3091 Clouds -16 990 78 10000 3.6 320 13:25 15.02.2022
3092 Clouds -16 993 77 3077 2.68 340 11:41 15.02.2022
3093 Clouds -16 991 78 10000 3.09 340 10:30 15.02.2022
3094 Clouds -16 991 72 10000 3.6 310 08:48 15.02.2022
3095 Snow -15 991 72 10000 3.6 350 06:46 15.02.2022
3096 Clouds -15 994 61 10000 4.12 20 00:25 15.02.2022
3097 Clouds -19 997 94 9075 2.98 30 21:58 14.02.2022
3098 Snow -18 997 96 1208 2.97 20 20:54 14.02.2022
3099 Clouds -17 996 96 1341 2.62 14 19:52 14.02.2022
3100 Clouds -15 994 78 10000 5.14 350 19:30 14.02.2022
3101 Clouds -15 994 72 10000 5.14 340 18:24 14.02.2022
3102 Clouds -15 994 72 10000 5.14 340 18:24 14.02.2022
3103 Clouds -14 994 66 10000 6.69 330 17:31 14.02.2022
3104 Clouds -15 995 66 10000 3.6 350 16:49 14.02.2022
3105 Clouds -15 995 56 10000 3.09 330 15:42 14.02.2022
3106 Clouds -15 995 61 10000 1.54 80 13:36 14.02.2022
3107 Clouds -20 998 81 10000 2.82 107 12:59 14.02.2022
3108 Clouds -16 995 72 10000 2.57 60 12:32 14.02.2022
3109 Clouds -15 995 66 10000 3.09 360 11:39 14.02.2022
3110 Clouds -15 995 72 10000 1.54 10 10:22 14.02.2022
3111 Clouds -15 994 78 10000 2.06 340 08:32 14.02.2022
3112 Clouds -15 994 78 10000 2.06 310 07:26 14.02.2022
3113 Snow -14 994 85 3500 2.06 310 23:19 13.02.2022
3114 Snow -14 994 78 5000 2.06 260 22:41 13.02.2022
3115 Snow -14 994 78 5000 3.58 250 22:22 13.02.2022
3116 Clouds -14 993 78 10000 3.6 250 21:24 13.02.2022
3117 Clouds -13 993 78 10000 4.63 250 20:30 13.02.2022
3118 Clouds -13 991 92 10000 5.14 250 19:23 13.02.2022
3119 Snow -12 990 92 1500 5.14 240 18:42 13.02.2022
3120 Clouds -11 989 92 225 4.47 240 17:52 13.02.2022
3121 Clouds -8 985 92 144 10.73 250 15:54 13.02.2022
3122 Clouds -8 985 92 144 10.73 250 15:54 13.02.2022
3123 Snow -8 986 93 163 11.14 238 14:57 13.02.2022
3124 Clouds -5 985 79 2623 11.62 140 13:59 13.02.2022
3125 Clouds -4 987 74 3000 7.2 130 12:49 13.02.2022
3126 Clouds -5 989 74 10000 5.66 140 11:24 13.02.2022
3127 Clouds -6 991 73 10000 7.2 120 10:28 13.02.2022
3128 Clouds -5 992 54 10000 4.63 120 09:36 13.02.2022
3129 Clouds -8 996 86 10000 4.12 150 07:19 13.02.2022
3130 Clouds -10 1004 92 10000 0.51 0 00:35 13.02.2022
3131 Snow -9 1004 86 2500 1.54 260 23:39 12.02.2022
3132 Snow -9 1004 86 3000 3.09 220 22:33 12.02.2022
3133 Clouds -11 1007 84 5273 3.43 235 21:20 12.02.2022
3134 Snow -9 1004 86 3000 5.14 220 20:32 12.02.2022
3135 Snow -8 1004 86 2000 5.66 220 19:21 12.02.2022
3136 Clouds -8 1006 85 623 4.02 220 18:52 12.02.2022
3137 Snow -8 1003 86 3000 4.12 220 18:34 12.02.2022
3138 Clouds -7 1005 92 304 4.92 220 16:58 12.02.2022
3139 Snow -7 1001 93 5000 5.14 220 16:25 12.02.2022
3140 Snow -7 1001 93 5000 5.14 220 16:25 12.02.2022
3141 Clouds -7 1004 92 201 4.92 210 15:50 12.02.2022
3142 Snow -6 998 93 800 6.17 210 14:31 12.02.2022
3143 Snow -5 996 93 1000 8.75 200 13:19 12.02.2022
3144 Clouds 0 990 93 10000 19.03 160 10:41 12.02.2022
3145 Clouds 0 990 93 10000 20.58 160 09:39 12.02.2022
3146 Clouds 0 990 93 10000 20.58 160 09:20 12.02.2022
3147 Snow 0 990 93 1100 21.61 160 08:18 12.02.2022
3148 Snow 0 990 93 1100 21.61 160 08:18 12.02.2022
3149 Snow 2 993 64 1200 11.83 160 05:33 12.02.2022
3150 Snow 1 994 75 5000 4.63 140 04:27 12.02.2022
3151 Snow 1 995 69 10000 3.09 150 02:18 12.02.2022
3152 Snow 1 996 69 8000 11.83 160 22:37 11.02.2022
3153 Snow 1 996 69 8000 11.83 160 22:18 11.02.2022
3154 Snow -1 995 93 200 13.89 160 20:41 11.02.2022
3155 Snow -1 995 93 100 19.55 160 19:47 11.02.2022
3156 Snow -1 995 93 100 19.55 160 19:27 11.02.2022
3157 Snow -1 995 93 200 17.49 160 18:26 11.02.2022
3158 Snow -1 995 93 600 19.03 160 17:26 11.02.2022
3159 Snow 0 996 80 4000 15.43 160 16:26 11.02.2022
3160 Snow -1 997 69 10000 5.14 170 14:44 11.02.2022
3161 Snow -1 997 69 10000 5.14 170 14:23 11.02.2022
3162 Clouds -3 999 74 10000 8.91 152 13:59 11.02.2022
3163 Clouds -1 997 64 10000 7.72 170 13:39 11.02.2022
3164 Clouds 0 997 59 10000 8.23 160 12:19 11.02.2022
3165 Clouds 0 998 64 10000 10.29 150 10:24 11.02.2022
3166 Clouds -1 999 69 10000 4.12 160 08:49 11.02.2022
3167 Clouds -1 999 69 10000 4.12 160 08:28 11.02.2022
3168 Clouds -2 999 69 7000 5.14 160 07:34 11.02.2022
3169 Snow -2 1002 69 6000 9.26 160 02:40 11.02.2022
3170 Snow -2 1002 69 6000 9.26 160 02:40 11.02.2022
3171 Snow -2 1002 69 6000 9.26 160 02:19 11.02.2022
3172 Snow -3 1003 74 5000 6.71 160 23:36 10.02.2022
3173 Clouds -3 1003 79 10000 4.92 160 21:53 10.02.2022
3174 Snow -3 1003 80 2600 5.14 160 21:24 10.02.2022
3175 Snow -3 1004 80 3400 5.14 160 20:48 10.02.2022
3176 Snow -3 1004 80 1800 5.14 160 19:37 10.02.2022
3177 Snow -3 1004 80 1800 5.14 160 19:18 10.02.2022
3178 Snow -4 1004 93 100 6.17 160 17:39 10.02.2022
3179 Snow -4 1004 93 100 6.17 160 17:19 10.02.2022
3180 Snow -4 1005 93 100 5.66 160 16:20 10.02.2022
3181 Snow -4 1005 93 100 5.66 170 15:33 10.02.2022
3182 Snow -5 1006 100 400 4.63 190 14:49 10.02.2022
3183 Snow -5 1006 100 400 4.63 190 14:30 10.02.2022
3184 Snow -5 1007 93 800 3.09 200 13:33 10.02.2022
3185 Clouds -8 1008 100 204 3.58 350 12:51 10.02.2022
3186 Snow -8 1008 93 400 4.12 340 11:44 10.02.2022
3187 Snow -8 1008 93 400 4.12 340 11:25 10.02.2022
3188 Clouds -8 1008 93 10000 4.63 350 10:19 10.02.2022
3189 Clouds -8 1008 93 10000 3.6 350 09:25 10.02.2022
3190 Clouds -8 1007 93 10000 2.57 360 07:40 10.02.2022
3191 Clouds -7 1007 92 99 2.68 300 05:53 10.02.2022
3192 Clouds -5 1005 100 92 4.02 210 01:58 10.02.2022
3193 Clouds -5 1002 92 96 10.73 170 00:51 10.02.2022
3194 Snow -5 1002 93 100 10.8 170 00:29 10.02.2022
3195 Snow -5 1002 93 100 12.35 160 23:28 09.02.2022
3196 Snow -5 1002 93 150 13.38 160 22:45 09.02.2022
3197 Snow -5 1002 93 150 13.38 160 22:25 09.02.2022
3198 Snow -5 1001 93 100 14.92 160 21:38 09.02.2022
3199 Snow -5 1001 93 100 14.92 160 21:18 09.02.2022
3200 Snow -5 1001 86 300 17.49 160 20:41 09.02.2022
3201 Snow -5 1001 86 300 17.49 160 20:20 09.02.2022
3202 Snow -6 1002 93 300 19.03 160 19:38 09.02.2022
3203 Clouds -6 1002 93 300 24.18 160 17:43 09.02.2022
3204 Clouds -7 1004 85 1597 22.35 150 16:54 09.02.2022
3205 Clouds -7 1004 85 7307 22.35 150 15:55 09.02.2022
3206 Clouds -7 1004 86 300 22.64 150 15:19 09.02.2022
3207 Clouds -8 1008 73 10000 16.46 150 12:42 09.02.2022
3208 Clouds -8 1008 73 10000 16.46 150 12:42 09.02.2022
3209 Clouds -8 1008 62 10000 13.89 150 11:20 09.02.2022
3210 Snow -9 1009 62 800 13.89 150 10:32 09.02.2022
3211 Snow -10 1009 73 900 12.35 150 09:42 09.02.2022
3212 Snow -10 1009 73 900 12.35 150 09:20 09.02.2022
3213 Snow -10 1010 73 1900 9.77 150 08:26 09.02.2022
3214 Snow -11 1012 67 1900 10.29 150 05:30 09.02.2022
3215 Clouds -12 1013 55 10000 8.49 140 03:51 09.02.2022
3216 Clouds -13 1013 66 10000 8.75 160 01:33 09.02.2022
3217 Clouds -14 1013 66 10000 8.23 140 23:39 08.02.2022
3218 Clouds -18 1016 71 10000 5.31 107 22:53 08.02.2022
3219 Clouds -14 1013 56 10000 8.23 120 22:22 08.02.2022
3220 Clouds -19 1017 73 10000 5.18 104 21:52 08.02.2022
3221 Clouds -15 1013 66 10000 7.72 120 21:21 08.02.2022
3222 Clouds -19 1017 76 10000 4.64 103 20:56 08.02.2022
3223 Clouds -15 1013 66 10000 8.23 120 20:23 08.02.2022
3224 Clouds -18 1016 75 10000 4.88 102 18:53 08.02.2022
3225 Clouds -15 1013 60 10000 7.15 120 17:50 08.02.2022
3226 Snow -15 1013 72 2800 7.2 140 16:42 08.02.2022
3227 Snow -16 1013 78 1500 5.66 130 15:39 08.02.2022
3228 Clouds -20 1016 79 10000 4.28 111 14:57 08.02.2022
3229 Snow -16 1013 78 3500 4.12 170 13:30 08.02.2022
3230 Snow -16 1013 78 5000 0.51 90 12:20 08.02.2022
3231 Snow -17 1013 78 3500 1.03 100 10:47 08.02.2022
3232 Clouds -17 1013 71 10000 1.54 130 09:46 08.02.2022
3233 Clouds -17 1012 78 10000 0 0 08:34 08.02.2022
3234 Clouds -18 1011 60 10000 2.06 290 05:46 08.02.2022
3235 Clouds -17 1010 55 10000 3.09 280 04:40 08.02.2022
3236 Clouds -17 1010 55 10000 3.09 280 04:22 08.02.2022
3237 Clouds -18 1009 78 10000 3.6 290 03:36 08.02.2022
3238 Clouds -18 1009 78 10000 3.6 290 03:18 08.02.2022
3239 Clouds -17 1009 77 382 4.47 280 02:59 08.02.2022
3240 Clouds -17 1009 78 10000 4.63 280 02:36 08.02.2022
3241 Clouds -17 1009 78 10000 4.63 280 02:18 08.02.2022
3242 Clouds -17 1008 85 10000 4.63 300 01:44 08.02.2022
3243 Clouds -17 1008 85 10000 4.63 300 01:24 08.02.2022
3244 Clouds -17 1007 84 401 4.92 300 00:55 08.02.2022
3245 Clouds -17 1007 85 10000 5.14 300 00:19 08.02.2022
3246 Clouds -17 1006 85 10000 6.17 300 23:42 07.02.2022
3247 Clouds -17 1006 85 10000 6.17 300 23:18 07.02.2022
3248 Clouds -17 1009 84 2745 4.92 310 22:59 07.02.2022
3249 Clouds -17 1005 85 10000 5.14 310 22:18 07.02.2022
3250 Snow -17 1004 85 2000 5.66 300 21:49 07.02.2022
3251 Snow -17 1004 85 2000 5.66 300 21:27 07.02.2022
3252 Snow -17 1003 85 2000 6.17 290 20:43 07.02.2022
3253 Snow -17 1003 85 2000 6.17 290 20:24 07.02.2022
3254 Snow -17 1002 85 2000 5.66 300 19:47 07.02.2022
3255 Snow -17 1001 85 1500 6.17 300 18:34 07.02.2022
3256 Snow -16 999 85 500 7.2 300 17:18 07.02.2022
3257 Snow -16 999 92 400 6.71 300 16:46 07.02.2022
3258 Snow -15 998 85 1500 7.2 300 15:48 07.02.2022
3259 Clouds -15 995 92 1394 6.71 330 13:51 07.02.2022
3260 Snow -15 995 92 600 6.71 330 13:26 07.02.2022
3261 Clouds -15 993 84 1034 4.92 350 11:58 07.02.2022
3262 Clouds -14 993 85 1034 5.14 350 11:38 07.02.2022
3263 Clouds -15 992 84 1206 4.47 340 10:59 07.02.2022
3264 Snow -14 992 85 1500 4.63 340 10:41 07.02.2022
3265 Snow -14 992 85 1500 4.63 340 10:22 07.02.2022
3266 Clouds -13 991 85 10000 4.12 330 09:47 07.02.2022
3267 Clouds -13 991 85 10000 4.12 330 09:18 07.02.2022
3268 Clouds -13 990 85 4000 4.12 350 07:44 07.02.2022
3269 Snow -13 990 85 1100 3.09 340 06:34 07.02.2022
3270 Snow -14 989 85 1800 4.12 350 04:31 07.02.2022
3271 Clouds -13 987 56 10000 6.17 10 01:37 07.02.2022
3272 Clouds -15 988 54 10000 7.6 40 23:51 06.02.2022
3273 Clouds -15 988 56 10000 7.72 40 23:20 06.02.2022
3274 Clouds -15 988 51 10000 7.72 20 22:41 06.02.2022
3275 Clouds -15 989 66 6000 9.26 350 21:38 06.02.2022
3276 Clouds -15 989 66 6000 9.26 350 21:20 06.02.2022
3277 Clouds -15 988 78 10000 9.77 350 20:48 06.02.2022
3278 Clouds -15 988 78 10000 9.77 350 20:23 06.02.2022
3279 Clouds -14 989 56 10000 7.72 40 19:18 06.02.2022
3280 Clouds -14 991 72 10000 9.77 50 18:28 06.02.2022
3281 Clouds -14 992 72 10000 10.8 50 17:37 06.02.2022
3282 Clouds -19 996 74 10000 5.19 21 16:52 06.02.2022
3283 Clouds -15 994 78 10000 9.77 60 16:20 06.02.2022
3284 Clouds -14 995 78 10000 9.26 50 15:47 06.02.2022
3285 Clouds -14 995 78 10000 9.26 50 15:24 06.02.2022
3286 Clouds -14 996 66 10000 8.75 40 14:19 06.02.2022
3287 Clouds -15 998 66 10000 8.75 40 13:21 06.02.2022
3288 Clouds -15 999 72 10000 8.75 30 12:33 06.02.2022
3289 Clouds -14 1001 72 10000 6.69 360 10:37 06.02.2022
3290 Clouds -14 1001 61 10000 4.63 50 09:48 06.02.2022
3291 Clouds -14 1002 61 10000 4.63 60 08:41 06.02.2022
3292 Clouds -14 1003 72 10000 5.66 50 07:31 06.02.2022
3293 Snow -15 1005 85 10000 0 0 05:28 06.02.2022
3294 Snow -15 1005 85 10000 0 0 05:28 06.02.2022
3295 Snow -14 1006 85 1100 2.06 70 02:25 06.02.2022
3296 Snow -14 1007 85 1500 1.03 30 00:49 06.02.2022
3297 Snow -14 1007 85 1500 1.03 30 00:22 06.02.2022
3298 Clouds -13 1008 65 1461 2.68 240 21:59 05.02.2022
3299 Clouds -13 1007 72 10000 4.63 230 20:48 05.02.2022
3300 Clouds -13 1007 72 10000 4.63 230 20:23 05.02.2022
3301 Snow -13 1007 85 10000 5.14 180 19:44 05.02.2022
3302 Snow -13 1007 78 6000 4.63 230 18:45 05.02.2022
3303 Snow -14 1007 78 600 7.2 150 17:36 05.02.2022
3304 Snow -14 1007 78 8000 5.66 150 16:24 05.02.2022
3305 Snow -14 1007 85 6000 2.57 0 15:31 05.02.2022
3306 Clouds -15 1007 84 182 0.89 130 13:55 05.02.2022
3307 Snow -14 1006 85 1500 1.54 70 12:46 05.02.2022
3308 Snow -14 1006 85 900 1.54 60 11:47 05.02.2022
3309 Snow -14 1006 78 1800 2.06 330 10:44 05.02.2022
3310 Clouds -15 1006 77 1274 4.02 300 09:51 05.02.2022
3311 Clouds -15 1006 84 1867 4.02 240 08:51 05.02.2022
3312 Snow -14 1005 85 10000 4.63 250 07:27 05.02.2022
3313 Clouds -15 1005 77 4454 4.92 200 06:55 05.02.2022
3314 Snow -14 1003 85 1100 3.09 220 02:43 05.02.2022
3315 Snow -14 1003 78 550 3.09 220 01:18 05.02.2022
3316 Clouds -14 1002 56 10000 5.14 220 00:36 05.02.2022
3317 Clouds -14 1002 51 10000 5.66 220 23:33 04.02.2022
3318 Clouds -15 1001 77 2579 4.92 210 22:50 04.02.2022
3319 Snow -14 1000 85 10000 5.66 220 21:36 04.02.2022
3320 Snow -14 1000 85 10000 5.66 220 21:18 04.02.2022
3321 Snow -14 999 85 10000 5.66 220 20:38 04.02.2022
3322 Snow -14 998 85 1300 5.14 250 19:29 04.02.2022
3323 Snow -17 999 91 826 3.66 150 16:50 04.02.2022
3324 Snow -14 994 85 3500 6.69 240 15:33 04.02.2022
3325 Snow -14 992 85 1200 8.23 280 14:47 04.02.2022
3326 Snow -14 988 85 400 9.77 310 12:43 04.02.2022
3327 Snow -12 986 85 100 11.32 320 11:46 04.02.2022
3328 Snow -14 990 90 402 12.98 290 10:59 04.02.2022
3329 Snow -11 985 85 750 10.8 340 10:22 04.02.2022
3330 Snow -11 987 85 900 9.77 350 08:31 04.02.2022
3331 Snow -11 995 92 1100 2.06 250 04:45 04.02.2022
3332 Snow -10 996 79 4400 2.57 220 02:38 04.02.2022
3333 Snow -9 997 73 6000 3.6 210 00:18 04.02.2022
3334 Snow -10 1000 82 3792 9.63 211 22:52 03.02.2022
3335 Snow -10 1000 88 1401 9.46 213 21:59 03.02.2022
3336 Snow -8 996 93 400 4.12 200 21:37 03.02.2022
3337 Snow -7 995 93 1200 4.12 220 20:22 03.02.2022
3338 Snow -5 994 93 1400 4.12 210 19:49 03.02.2022
3339 Snow -5 994 93 1400 4.12 210 19:20 03.02.2022
3340 Snow -5 993 93 1800 3.6 220 18:24 03.02.2022
3341 Snow -4 993 93 1000 4.12 190 17:26 03.02.2022
3342 Snow -4 992 86 1000 12.86 160 15:38 03.02.2022
3343 Snow -4 992 86 1200 18.01 150 14:18 03.02.2022
3344 Snow -4 992 74 4000 14.4 150 12:32 03.02.2022
3345 Clouds -6 995 79 10000 4.92 100 08:59 03.02.2022
3346 Snow -6 995 79 3000 5.14 100 08:18 03.02.2022
3347 Clouds -15 1007 67 10000 6.29 75 00:59 03.02.2022
3348 Clouds -12 1006 56 10000 4.12 80 00:22 03.02.2022
3349 Clouds -12 1009 48 10000 3.09 80 22:41 02.02.2022
3350 Clouds -17 1013 71 10000 4.75 76 21:52 02.02.2022
3351 Clouds -13 1010 52 10000 4.63 100 21:29 02.02.2022
3352 Clouds -13 1012 47 10000 6.17 100 20:27 02.02.2022
3353 Clouds -13 1013 52 10000 5.66 110 19:48 02.02.2022
3354 Clouds -18 1016 78 10000 4.11 81 19:00 02.02.2022
3355 Clouds -13 1014 52 10000 5.14 100 18:25 02.02.2022
3356 Clouds -13 1016 61 10000 3.6 140 17:22 02.02.2022
3357 Clouds -18 1019 79 10000 4.03 89 16:59 02.02.2022
3358 Clouds -14 1018 66 10000 6.17 120 15:49 02.02.2022
3359 Snow -14 1019 78 3000 2.57 120 12:47 02.02.2022
3360 Clouds -19 1022 86 10000 3.43 115 11:51 02.02.2022
3361 Clouds -15 1020 72 10000 0.51 140 11:30 02.02.2022
3362 Snow -14 1019 78 5000 0 0 09:18 02.02.2022
3363 Snow -15 1022 95 208 1.75 150 04:57 02.02.2022
3364 Clouds -13 1017 72 10000 3.6 280 22:36 01.02.2022
3365 Snow -12 1018 85 4146 6.54 295 20:58 01.02.2022
3366 Clouds -12 1016 56 10000 3.6 280 19:39 01.02.2022
3367 Clouds -12 1015 85 10000 2.57 330 17:38 01.02.2022
3368 Snow -12 1015 85 10000 2.57 320 16:31 01.02.2022
3369 Clouds -12 1015 79 10000 2.57 270 13:27 01.02.2022
3370 Clouds -12 1015 79 10000 4.12 230 12:28 01.02.2022
3371 Snow -12 1014 92 1700 6.17 240 10:42 01.02.2022
3372 Snow -8 1008 93 4600 4.12 300 02:24 01.02.2022
3373 Snow -8 1004 93 1500 3.09 290 23:40 31.01.2022
3374 Snow -7 1001 63 3000 2.06 340 22:43 31.01.2022
3375 Clouds -8 1000 73 10000 4.12 350 21:38 31.01.2022
3376 Clouds -7 998 68 10000 6.17 330 20:44 31.01.2022
3377 Clouds -7 998 68 10000 6.17 330 20:24 31.01.2022
3378 Clouds -8 993 72 10000 2.68 340 18:54 31.01.2022
3379 Clouds -8 993 73 10000 3.09 340 18:20 31.01.2022
3380 Clouds -8 992 67 10000 3.6 20 17:25 31.01.2022
3381 Clouds -8 989 67 10000 4.12 340 16:25 31.01.2022
3382 Snow -12 988 92 479 2.39 24 14:54 31.01.2022
3383 Clouds -9 984 62 10000 3.09 60 13:43 31.01.2022
3384 Clouds -9 983 67 10000 3.6 30 12:38 31.01.2022
3385 Clouds -9 982 67 10000 4.63 30 11:34 31.01.2022
3386 Clouds -10 981 67 10000 5.66 20 10:49 31.01.2022
3387 Clouds -15 984 78 6031 4.18 15 09:45 31.01.2022
3388 Clouds -15 984 75 10000 4.15 28 08:58 31.01.2022
3389 Clouds -15 984 75 10000 4.15 28 08:38 31.01.2022
3390 Clouds -16 984 74 10000 5.07 17 08:19 31.01.2022
3391 Clouds -16 988 79 8396 5.92 15 06:18 31.01.2022
3392 Clouds -11 1004 73 10000 9.77 50 00:44 31.01.2022
3393 Clouds -11 1010 73 10000 7.2 60 22:38 30.01.2022
3394 Clouds -11 1010 73 10000 7.2 60 22:20 30.01.2022
3395 Clouds -11 1012 73 10000 5.66 90 21:38 30.01.2022
3396 Clouds -11 1012 73 10000 5.66 90 21:18 30.01.2022
3397 Clouds -11 1015 79 10000 4.63 110 20:45 30.01.2022
3398 Clouds -11 1015 79 10000 4.63 110 20:26 30.01.2022
3399 Snow -10 1017 85 3600 2.57 160 19:24 30.01.2022
3400 Snow -10 1018 79 3000 4.12 170 18:35 30.01.2022
3401 Clouds -10 1019 85 6016 7.15 180 17:53 30.01.2022
3402 Snow -10 1019 85 1000 7.2 180 17:20 30.01.2022
3403 Snow -9 1020 62 1000 7.2 210 16:37 30.01.2022
3404 Snow -9 1020 62 1000 7.2 210 16:37 30.01.2022
3405 Snow -9 1020 62 1000 7.2 210 16:19 30.01.2022
3406 Clouds -9 1021 62 10000 7.72 220 15:49 30.01.2022
3407 Clouds -9 1021 62 10000 7.72 220 15:31 30.01.2022
3408 Clouds -10 1020 62 10000 9.77 220 14:46 30.01.2022
3409 Snow -10 1020 79 8000 9.77 220 12:47 30.01.2022
3410 Clouds -10 1020 78 2414 10.73 220 11:53 30.01.2022
3411 Mist -11 1020 85 3500 10.8 220 10:29 30.01.2022
3412 Clouds -11 1019 78 3154 10.28 230 09:50 30.01.2022
3413 Clouds -11 1018 85 2112 9.39 220 08:52 30.01.2022
3414 Snow -11 1018 79 9000 10.29 200 07:28 30.01.2022
3415 Clouds -13 1014 84 5447 10.28 230 01:56 30.01.2022
3416 Clouds -13 1014 84 5447 10.28 230 01:56 30.01.2022
3417 Snow -12 1013 79 2300 7.2 220 00:22 30.01.2022
3418 Clouds -12 1010 66 10000 9.39 220 22:58 29.01.2022
3419 Clouds -12 1009 84 10000 5.81 230 21:49 29.01.2022
3420 Clouds -12 1009 84 10000 5.81 230 21:24 29.01.2022
3421 Snow -12 1009 85 1500 6.17 230 20:28 29.01.2022
3422 Snow -11 1007 85 1000 5.14 230 19:34 29.01.2022
3423 Clouds -10 1009 85 1525 7.6 190 18:52 29.01.2022
3424 Snow -11 1006 85 1500 8.23 220 18:18 29.01.2022
3425 Clouds -10 1007 85 211 7.6 190 17:28 29.01.2022
3426 Snow -11 1007 90 243 8.66 225 15:57 29.01.2022
3427 Clouds -10 1005 85 6000 7.2 200 14:23 29.01.2022
3428 Clouds -10 1004 79 10000 8.23 200 13:42 29.01.2022
3429 Clouds -10 1004 79 10000 8.23 200 13:23 29.01.2022
3430 Snow -10 1003 92 150 7.72 200 11:47 29.01.2022
3431 Snow -10 1003 92 150 7.72 200 11:24 29.01.2022
3432 Snow -9 1001 92 650 6.17 210 08:43 29.01.2022
3433 Clouds -10 1001 92 2187 4.92 220 06:55 29.01.2022
3434 Snow -5 996 93 150 5.14 200 00:35 29.01.2022
3435 Clouds -5 996 92 186 4.92 190 23:52 28.01.2022
3436 Clouds -5 996 92 223 5.36 190 22:50 28.01.2022
3437 Snow -5 996 93 350 5.66 190 22:21 28.01.2022
3438 Snow -5 995 93 50 8.75 180 21:36 28.01.2022
3439 Snow -5 995 86 300 10.8 170 20:29 28.01.2022
3440 Snow -5 995 86 300 13.89 170 19:29 28.01.2022
3441 Snow -4 995 68 1900 11.83 170 18:42 28.01.2022
3442 Clouds -4 997 63 10000 9.77 160 16:46 28.01.2022
3443 Clouds -4 997 63 10000 9.77 160 15:20 28.01.2022
3444 Clouds -5 998 53 10000 7.6 160 13:50 28.01.2022
3445 Clouds -5 998 58 10000 7.72 150 12:29 28.01.2022
3446 Clouds -5 999 58 10000 8.75 160 11:24 28.01.2022
3447 Clouds -7 1000 57 10000 7.15 130 09:52 28.01.2022
3448 Snow -9 1003 57 10000 5.66 170 07:44 28.01.2022
3449 Snow -9 1003 62 7000 8.23 170 06:44 28.01.2022
3450 Clouds -14 1008 75 10000 5.59 98 03:57 28.01.2022
3451 Clouds -11 1006 62 10000 1.03 0 02:31 28.01.2022
3452 Clouds -16 1009 79 10000 3.89 106 01:59 28.01.2022
3453 Snow -11 1006 62 3700 4.63 180 01:31 28.01.2022
3454 Clouds -12 1007 72 10000 1.54 100 22:48 27.01.2022
3455 Clouds -13 1007 78 10000 2.06 80 21:46 27.01.2022
3456 Clouds -13 1007 78 10000 2.06 80 21:28 27.01.2022
3457 Clouds -13 1007 85 10000 1.03 70 20:25 27.01.2022
3458 Clouds -13 1005 85 10000 4.12 290 18:26 27.01.2022
3459 Clouds -13 1005 85 10000 4.63 300 17:34 27.01.2022
3460 Snow -12 1001 85 5000 6.17 310 14:35 27.01.2022
3461 Snow -11 1000 85 2000 7.2 320 13:24 27.01.2022
3462 Snow -11 999 92 2000 9.77 330 12:39 27.01.2022
3463 Clouds -14 999 93 1342 4.65 343 09:56 27.01.2022
3464 Clouds -8 997 67 10000 7.2 340 08:49 27.01.2022
3465 Clouds -8 997 67 10000 7.2 340 08:28 27.01.2022
3466 Clouds -8 1000 45 10000 3.6 110 05:49 27.01.2022
3467 Snow -7 1005 63 6000 4.12 140 01:46 27.01.2022
3468 Snow -8 1006 73 2500 5.14 150 22:39 26.01.2022
3469 Snow -8 1010 93 149 3.31 186 21:55 26.01.2022
3470 Snow -8 1007 73 1500 8.23 160 21:31 26.01.2022
3471 Snow -9 1007 92 10000 9.77 190 20:35 26.01.2022
3472 Clouds -8 1010 71 10000 8.94 208 19:54 26.01.2022
3473 Clouds -8 1007 73 10000 9.77 190 19:19 26.01.2022
3474 Clouds -8 1007 86 1800 10.8 200 18:26 26.01.2022
3475 Clouds -9 1007 92 300 11.32 190 17:49 26.01.2022
3476 Clouds -9 1007 92 300 11.32 190 17:19 26.01.2022
3477 Clouds -9 1007 86 5000 11.32 190 16:27 26.01.2022
3478 Clouds -8 1006 86 2500 9.77 210 15:45 26.01.2022
3479 Snow -8 1004 79 10000 9.26 190 13:24 26.01.2022
3480 Snow -8 1002 93 1600 6.17 230 11:40 26.01.2022
3481 Snow -8 1001 93 1600 5.66 230 10:20 26.01.2022
3482 Snow -7 1000 86 2300 6.17 230 09:43 26.01.2022
3483 Snow -6 999 93 2700 5.14 220 07:32 26.01.2022
3484 Clouds -5 1003 79 177 2.24 170 01:53 26.01.2022
3485 Clouds -6 1005 85 8264 4.02 150 23:54 25.01.2022
3486 Clouds -5 1006 73 6256 8.05 160 22:50 25.01.2022
3487 Snow -5 1004 74 1200 8.23 160 22:21 25.01.2022
3488 Snow -5 1005 68 3000 6.17 160 21:41 25.01.2022
3489 Clouds -6 1005 79 5000 7.2 160 20:46 25.01.2022
3490 Clouds -6 1005 79 5000 7.2 160 20:22 25.01.2022
3491 Snow -6 1005 79 600 7.2 160 19:44 25.01.2022
3492 Snow -6 1006 86 900 5.66 150 18:24 25.01.2022
3493 Snow -6 1007 79 900 4.63 100 17:42 25.01.2022
3494 Snow -7 1008 86 2500 4.63 80 16:35 25.01.2022
3495 Snow -8 1009 86 10000 5.14 70 15:47 25.01.2022
3496 Snow -8 1009 86 10000 5.14 70 15:28 25.01.2022
3497 Clouds -8 1011 78 10000 4.92 60 14:57 25.01.2022
3498 Clouds -10 1010 92 10000 2.57 80 13:28 25.01.2022
3499 Snow -8 1009 86 5000 1.54 190 10:39 25.01.2022
3500 Snow -9 1011 89 684 2.09 184 08:34 25.01.2022
3501 Clouds -9 1010 86 1445 2.54 211 07:28 25.01.2022
3502 Clouds -8 1009 80 10000 3.26 229 06:29 25.01.2022
3503 Clouds -5 1007 92 4711 6.71 220 04:22 25.01.2022
3504 Snow -5 994 93 5000 6.69 220 23:37 24.01.2022
3505 Snow -5 994 93 5000 6.69 220 23:18 24.01.2022
3506 Clouds -5 995 92 4630 9.39 210 22:59 24.01.2022
3507 Snow -4 995 93 1400 9.77 210 22:41 24.01.2022
3508 Snow -4 998 91 449 7.23 219 21:52 24.01.2022
3509 Clouds -3 996 92 144 1.34 210 21:28 24.01.2022
3510 Snow -3 992 93 5000 1.54 210 20:29 24.01.2022
3511 Snow -3 995 96 154 6.1 205 19:39 24.01.2022
3512 Snow 0 994 96 158 1.34 210 19:20 24.01.2022
3513 Snow 0 991 59 10000 4.63 100 17:45 24.01.2022
3514 Snow 0 991 59 10000 4.63 100 17:23 24.01.2022
3515 Snow 0 991 55 10000 5.14 110 16:41 24.01.2022
3516 Snow 0 991 55 10000 5.14 110 16:18 24.01.2022
3517 Snow -1 993 69 10000 3.6 100 14:35 24.01.2022
3518 Snow -1 994 64 10000 5.66 100 12:40 24.01.2022
3519 Snow -1 994 64 10000 5.66 100 12:22 24.01.2022
3520 Snow -1 996 59 6000 6.17 110 10:27 24.01.2022
3521 Clouds -5 998 75 10000 5.65 102 09:48 24.01.2022
3522 Clouds -5 998 75 10000 5.34 102 08:30 24.01.2022
3523 Clouds -5 1001 76 10000 5.31 102 06:19 24.01.2022
3524 Clouds -5 1004 53 10000 4.92 100 01:30 24.01.2022
3525 Clouds -6 1004 75 10000 4.89 111 00:35 24.01.2022
3526 Clouds -6 1005 73 10000 5.18 102 23:52 23.01.2022
3527 Snow -4 1004 54 10000 5.14 100 22:32 23.01.2022
3528 Snow -5 1004 58 10000 4.63 100 21:49 23.01.2022
3529 Snow -5 1004 58 10000 4.63 100 21:25 23.01.2022
3530 Clouds -5 1005 68 10000 5.14 110 20:44 23.01.2022
3531 Snow -5 1005 68 10000 6.17 160 19:44 23.01.2022
3532 Clouds -7 1006 84 10000 4.65 99 18:51 23.01.2022
3533 Clouds -7 1007 83 10000 4.4 100 17:44 23.01.2022
3534 Clouds -6 1007 84 10000 4.29 116 16:47 23.01.2022
3535 Clouds -8 1007 84 10000 3.27 136 14:59 23.01.2022
3536 Clouds -9 1006 85 10000 3.38 171 14:25 23.01.2022
3537 Clouds -7 1004 75 10000 4.14 195 12:59 23.01.2022
3538 Clouds -7 1004 75 10000 4.14 195 12:36 23.01.2022
3539 Snow -6 1003 75 10000 5.12 209 12:18 23.01.2022
3540 Clouds -6 1002 72 6438 6.46 220 11:23 23.01.2022
3541 Snow -6 1001 73 10000 8.97 237 10:28 23.01.2022
3542 Snow -6 1001 73 10000 8.97 237 09:51 23.01.2022
3543 Snow -6 999 77 10000 12.86 235 08:59 23.01.2022
3544 Snow -10 999 84 6573 6.03 94 05:58 23.01.2022
3545 Clouds -10 998 72 10000 5.36 160 01:53 23.01.2022
3546 Clouds -10 998 72 10000 5.36 160 01:53 23.01.2022
3547 Clouds -10 998 72 10000 5.36 160 01:33 23.01.2022
3548 Clouds -10 998 72 10000 5.36 160 00:23 23.01.2022
3549 Clouds -10 998 72 10000 5.36 160 23:57 22.01.2022
3550 Clouds -10 999 79 3500 6.17 160 22:46 22.01.2022
3551 Clouds -10 999 85 1900 6.17 160 21:36 22.01.2022
3552 Snow -10 999 85 600 5.66 180 20:23 22.01.2022
3553 Snow -10 999 92 2000 5.66 210 19:21 22.01.2022
3554 Snow -10 999 92 5000 5.66 210 18:25 22.01.2022
3555 Clouds -10 1000 79 10000 4.12 180 17:41 22.01.2022
3556 Clouds -10 1003 78 187 3.58 180 16:56 22.01.2022
3557 Clouds -10 1003 85 166 2.61 131 15:53 22.01.2022
3558 Clouds -10 1000 85 10000 0 0 15:32 22.01.2022
3559 Snow -15 1002 91 1182 2.75 124 13:59 22.01.2022
3560 Snow -16 1003 91 1749 2.81 122 12:55 22.01.2022
3561 Snow -10 1000 73 8000 0 0 12:30 22.01.2022
3562 Clouds -17 1002 87 3092 3.14 110 11:49 22.01.2022
3563 Clouds -18 1002 86 10000 3.54 105 10:38 22.01.2022
3564 Clouds -18 1002 87 10000 3.51 102 10:19 22.01.2022
3565 Clouds -18 1002 88 10000 3.3 95 08:54 22.01.2022
3566 Clouds -18 1002 88 10000 3.2 92 08:27 22.01.2022
3567 Clouds -18 1002 89 10000 3.1 72 05:20 22.01.2022
3568 Clouds -17 1002 91 10000 2.77 78 01:58 22.01.2022
3569 Snow -11 1000 85 3000 1.03 140 23:48 21.01.2022
3570 Snow -10 1000 79 1500 1.54 180 22:44 21.01.2022
3571 Snow -10 1000 85 5000 1.54 120 20:45 21.01.2022
3572 Snow -10 1000 85 500 0 0 18:41 21.01.2022
3573 Clouds -11 999 85 10000 0 0 17:45 21.01.2022
3574 Clouds -11 1000 92 1000 0.51 210 15:48 21.01.2022
3575 Clouds -10 999 85 215 0.45 170 14:37 21.01.2022
3576 Clouds -10 1000 79 10000 1.54 210 12:42 21.01.2022
3577 Clouds -9 999 73 10000 4.12 240 11:29 21.01.2022
3578 Clouds -9 999 67 10000 4.63 240 10:27 21.01.2022
3579 Clouds -10 1001 84 2160 2.43 219 08:50 21.01.2022
3580 Clouds -10 1000 82 3487 2.92 229 07:37 21.01.2022
3581 Clouds -8 994 78 1153 5.36 290 01:48 21.01.2022
3582 Clouds -8 994 79 10000 5.66 290 22:47 20.01.2022
3583 Clouds -8 993 79 10000 5.66 290 21:48 20.01.2022
3584 Clouds -8 993 79 10000 5.66 290 21:24 20.01.2022
3585 Clouds -8 992 93 10000 4.63 300 19:46 20.01.2022
3586 Clouds -8 992 93 10000 4.63 300 19:18 20.01.2022
3587 Snow -8 993 93 3000 4.12 320 17:36 20.01.2022
3588 Clouds -7 994 85 177 4.92 300 15:59 20.01.2022
3589 Clouds -7 994 86 8000 5.14 300 15:29 20.01.2022
3590 Clouds -7 994 86 10000 5.14 300 14:18 20.01.2022
3591 Snow -7 994 93 3500 4.12 290 12:48 20.01.2022
3592 Snow -7 994 93 3500 4.12 290 12:27 20.01.2022
3593 Clouds -6 993 100 126 4.47 280 10:59 20.01.2022
3594 Snow -6 995 96 120 5.25 282 09:44 20.01.2022
3595 Snow -6 994 96 127 5.2 282 08:45 20.01.2022
3596 Snow -5 992 96 120 4.38 290 06:49 20.01.2022
3597 Snow 1 989 96 77 16 174 00:30 20.01.2022
3598 Rain 2 990 95 675 18.46 172 22:38 19.01.2022
3599 Rain 2 990 94 2817 19.15 172 21:34 19.01.2022
3600 Rain 2 990 94 1761 20.12 172 20:56 19.01.2022
3601 Rain 2 990 94 1761 20.12 172 20:30 19.01.2022
3602 Rain 2 990 94 1189 19.78 169 18:52 19.01.2022
3603 Rain 2 990 92 4580 20.73 171 17:51 19.01.2022
3604 Rain 2 991 89 6407 21.93 168 17:18 19.01.2022
3605 Rain 2 991 89 6407 21.93 168 17:18 19.01.2022
3606 Rain 2 991 89 6407 21.93 168 17:18 19.01.2022
3607 Rain 2 991 89 6407 21.93 168 17:18 19.01.2022
3608 Rain 2 991 89 6407 21.93 168 17:18 19.01.2022
3609 Rain 2 991 90 5668 22.25 167 15:32 19.01.2022
3610 Rain 2 991 83 10000 25.54 168 13:25 19.01.2022
3611 Rain 2 990 82 10000 25.98 170 11:59 19.01.2022
3612 Rain 2 990 82 10000 25.98 170 11:38 19.01.2022
3613 Snow 2 991 85 10000 23.78 168 09:36 19.01.2022
3614 Snow 2 992 81 10000 24.81 167 08:38 19.01.2022
3615 Snow 0 996 86 1223 19.24 161 05:20 19.01.2022
3616 Clouds -3 1005 73 1552 6.71 150 00:22 19.01.2022
3617 Clouds -3 1005 73 10000 6.71 150 23:18 18.01.2022
3618 Clouds -3 1005 73 10000 6.71 150 21:45 18.01.2022
3619 Clouds -3 1006 73 3000 6.71 150 20:38 18.01.2022
3620 Clouds -3 1006 68 10000 5.93 126 19:51 18.01.2022
3621 Clouds -3 1006 68 10000 4.63 0 19:33 18.01.2022
3622 Clouds -3 1007 63 10000 5.66 150 18:23 18.01.2022
3623 Clouds -4 1007 63 10000 6.69 150 17:32 18.01.2022
3624 Clouds -4 1008 42 10000 3.09 150 16:22 18.01.2022
3625 Clouds -6 1008 63 10000 4.63 80 15:25 18.01.2022
3626 Clouds -6 1008 63 10000 3.6 60 14:23 18.01.2022
3627 Clouds -6 1009 58 10000 4.63 120 11:45 18.01.2022
3628 Clouds -12 1011 74 10000 4.3 95 10:30 18.01.2022
3629 Clouds -14 1010 81 10000 3.59 115 08:29 18.01.2022
3630 Clouds -14 1010 81 10000 3.59 115 07:45 18.01.2022
3631 Clouds -12 1009 89 10000 2.81 130 00:42 18.01.2022
3632 Clouds -8 1005 79 10000 0.51 210 22:46 17.01.2022
3633 Clouds -8 1004 79 10000 1.03 200 21:49 17.01.2022
3634 Clouds -8 1004 79 10000 1.03 200 21:29 17.01.2022
3635 Clouds -8 1002 79 10000 3.09 290 19:37 17.01.2022
3636 Clouds -7 1000 67 10000 4.39 288 18:26 17.01.2022
3637 Clouds -7 1000 68 10000 5.14 0 17:22 17.01.2022
3638 Snow -7 999 68 10000 4.12 290 16:22 17.01.2022
3639 Clouds -8 996 67 3204 5.36 330 14:58 17.01.2022
3640 Clouds -8 996 67 10000 5.66 330 14:32 17.01.2022
3641 Clouds -8 994 67 10000 6.17 320 13:19 17.01.2022
3642 Clouds -8 992 79 10000 7.2 310 12:27 17.01.2022
3643 Clouds -10 979 92 456 4.02 360 11:33 17.01.2022
3644 Clouds -10 979 92 1047 4.02 360 10:21 17.01.2022
3645 Clouds -10 979 92 422 4.02 360 08:44 17.01.2022
3646 Snow -10 979 92 245 4.02 360 07:21 17.01.2022
3647 Snow -10 979 92 800 4.12 360 02:20 17.01.2022
3648 Snow -9 979 86 800 4.63 360 00:43 17.01.2022
3649 Snow -8 978 93 650 6.17 10 21:22 16.01.2022
3650 Snow -8 976 93 500 8.23 10 20:30 16.01.2022
3651 Snow -9 977 92 1700 9.77 10 18:48 16.01.2022
3652 Clouds -10 977 92 197 12.07 10 17:51 16.01.2022
3653 Snow -12 979 93 299 5.99 13 16:56 16.01.2022
3654 Snow -12 981 86 1487 5.2 14 15:50 16.01.2022
3655 Mist -8 981 79 4900 11.32 20 14:30 16.01.2022
3656 Clouds -8 982 73 10000 9.26 10 13:33 16.01.2022
3657 Clouds -9 983 73 10000 6.69 360 12:26 16.01.2022
3658 Clouds -8 984 67 10000 7.2 10 11:38 16.01.2022
3659 Clouds -9 985 73 10000 7.2 10 10:43 16.01.2022
3660 Clouds -13 987 83 10000 4.74 12 09:59 16.01.2022
3661 Clouds -9 986 73 10000 7.2 20 09:38 16.01.2022
3662 Clouds -9 986 73 10000 7.2 20 09:20 16.01.2022
3663 Clouds -8 989 73 10000 8.23 20 07:21 16.01.2022
3664 Snow -7 998 93 10000 8.75 360 00:36 16.01.2022
3665 Clouds -6 1000 93 10000 8.23 10 22:55 15.01.2022
3666 Snow -6 1001 93 3000 7.2 20 21:23 15.01.2022
3667 Snow -6 1002 93 5000 4.12 50 20:48 15.01.2022
3668 Snow -6 1002 93 5000 4.12 50 20:29 15.01.2022
3669 Snow -6 1002 93 2100 4.12 40 19:27 15.01.2022
3670 Snow -6 1004 93 1500 2.06 20 18:23 15.01.2022
3671 Snow -6 1005 93 2000 3.09 40 16:49 15.01.2022
3672 Snow -6 1005 93 2000 3.09 40 16:49 15.01.2022
3673 Snow -7 1006 93 1200 2.06 70 14:48 15.01.2022
3674 Snow -7 1006 93 1400 2.57 40 13:29 15.01.2022
3675 Snow -7 1007 93 1400 3.6 60 11:32 15.01.2022
3676 Snow -8 1008 93 900 5.14 60 09:46 15.01.2022
3677 Clouds -7 1012 73 9000 2.06 150 05:18 15.01.2022
3678 Clouds -7 1016 67 203 8.94 210 23:32 14.01.2022
3679 Clouds -7 1015 68 10000 9.26 210 21:18 14.01.2022
3680 Clouds -8 1015 93 10000 10.29 220 20:37 14.01.2022
3681 Clouds -8 1017 73 10000 6.16 220 19:55 14.01.2022
3682 Clouds -7 1014 79 2000 12.86 210 18:42 14.01.2022
3683 Snow -8 1014 93 4200 11.83 220 17:39 14.01.2022
3684 Clouds -7 1013 79 10000 13.38 210 16:43 14.01.2022
3685 Clouds -7 1013 73 10000 12.35 200 15:33 14.01.2022
3686 Clouds -7 1013 79 10000 12.86 210 14:28 14.01.2022
3687 Clouds -8 1014 92 10000 11.18 210 12:58 14.01.2022
3688 Clouds -8 1014 85 1025 12.07 180 11:53 14.01.2022
3689 Snow -8 1011 86 1400 9.26 180 10:40 14.01.2022
3690 Snow -8 1013 72 5743 9.97 189 08:53 14.01.2022
3691 Snow -8 1010 86 1100 9.26 190 07:32 14.01.2022
3692 Snow -8 1008 86 250 6.69 180 02:27 14.01.2022
3693 Snow -8 1006 86 200 7.2 170 00:22 14.01.2022
3694 Clouds -7 1005 85 10000 7.6 190 21:52 13.01.2022
3695 Snow -7 1005 86 500 7.72 190 21:29 13.01.2022
3696 Clouds -7 1003 92 230 4.02 200 19:58 13.01.2022
3697 Snow -7 1003 93 200 4.12 200 19:29 13.01.2022
3698 Snow -5 1002 63 3000 4.63 120 18:40 13.01.2022
3699 Snow -8 1005 90 402 7.5 137 16:57 13.01.2022
3700 Clouds -6 1003 53 10000 7.2 90 15:39 13.01.2022
3701 Clouds -6 1004 49 10000 7.2 100 15:21 13.01.2022
3702 Clouds -8 1005 57 10000 6.17 90 13:29 13.01.2022
3703 Clouds -9 1006 57 10000 5.14 90 11:18 13.01.2022
3704 Clouds -9 1008 57 10000 5.04 77 09:24 13.01.2022
3705 Clouds -10 1008 57 10000 4.59 84 08:29 13.01.2022
3706 Clouds -16 1010 81 10000 4.59 84 07:59 13.01.2022
3707 Clouds -9 1008 53 10000 4.32 87 07:20 13.01.2022
3708 Clouds -9 1008 57 10000 5.14 110 05:21 13.01.2022
3709 Clouds -17 1011 86 10000 4.04 90 04:55 13.01.2022
3710 Clouds -10 1007 79 10000 1.03 70 01:41 13.01.2022
3711 Clouds -14 1009 91 4567 2.8 120 23:54 12.01.2022
3712 Clouds -14 1009 91 4567 2.8 120 23:34 12.01.2022
3713 Snow -10 1004 79 10000 1.54 100 22:49 12.01.2022
3714 Clouds -10 1002 78 835 1.79 260 21:54 12.01.2022
3715 Snow -10 1003 79 10000 2.06 280 21:21 12.01.2022
3716 Clouds -10 1002 78 430 1.79 260 20:53 12.01.2022
3717 Clouds -10 1001 85 10000 4.12 280 19:24 12.01.2022
3718 Clouds -9 1000 86 10000 3.6 260 18:27 12.01.2022
3719 Clouds -10 998 85 10000 4.02 280 16:58 12.01.2022
3720 Clouds -10 1001 81 10000 2.86 280 15:53 12.01.2022
3721 Snow -9 996 92 2000 1.03 320 14:46 12.01.2022
3722 Snow -8 995 79 6000 2.57 340 12:58 12.01.2022
3723 Snow -9 994 95 135 2.57 290 09:59 12.01.2022
3724 Snow -8 990 93 2600 3.6 300 08:34 12.01.2022
3725 Snow -8 989 93 2800 3.09 330 07:34 12.01.2022
3726 Snow -7 987 86 1700 3.09 330 06:21 12.01.2022
3727 Clouds -7 980 86 10000 3.6 10 23:30 11.01.2022
3728 Clouds -7 979 86 10000 3.09 70 22:41 11.01.2022
3729 Clouds -7 979 86 10000 3.09 70 22:21 11.01.2022
3730 Clouds -13 980 86 10000 1.63 54 20:51 11.01.2022
3731 Snow -7 975 86 5000 4.12 60 19:45 11.01.2022
3732 Snow -8 974 93 2600 4.12 60 18:31 11.01.2022
3733 Snow -8 973 86 5000 3.6 50 17:24 11.01.2022
3734 Snow -7 973 73 10000 4.12 70 16:37 11.01.2022
3735 Clouds -7 972 63 10000 3.6 60 15:35 11.01.2022
3736 Clouds -8 971 62 10000 1.03 70 14:41 11.01.2022
3737 Clouds -17 974 81 10000 2.12 99 13:55 11.01.2022
3738 Clouds -9 970 73 10000 1.54 150 13:34 11.01.2022
3739 Clouds -11 970 85 10000 2.06 110 12:42 11.01.2022
3740 Clouds -11 969 79 10000 3.6 90 11:43 11.01.2022
3741 Clouds -10 967 85 10000 4.63 10 09:29 11.01.2022
3742 Clouds -10 967 73 10000 6.17 60 06:37 11.01.2022
3743 Clouds -10 972 67 10000 4.12 90 00:32 11.01.2022
3744 Clouds -10 973 62 10000 2.57 80 23:43 10.01.2022
3745 Clouds -10 973 62 10000 2.57 80 23:22 10.01.2022
3746 Clouds -11 974 67 10000 2.57 80 22:19 10.01.2022
3747 Clouds -15 977 81 10000 3.28 84 21:54 10.01.2022
3748 Clouds -11 975 73 10000 2.57 110 21:20 10.01.2022
3749 Clouds -16 977 81 10000 3.29 94 20:57 10.01.2022
3750 Clouds -11 975 73 10000 0 0 20:28 10.01.2022
3751 Clouds -10 976 62 10000 1.54 150 19:44 10.01.2022
3752 Clouds -10 976 62 10000 1.54 150 19:21 10.01.2022
3753 Clouds -11 976 79 10000 3.6 80 18:49 10.01.2022
3754 Clouds -17 979 87 10000 2.69 100 17:56 10.01.2022
3755 Clouds -10 978 73 10000 4.12 40 16:42 10.01.2022
3756 Clouds -10 978 73 10000 4.63 50 15:49 10.01.2022
3757 Clouds -10 979 85 10000 5.66 10 14:34 10.01.2022
3758 Clouds -19 983 93 10000 3.06 57 12:18 10.01.2022
3759 Clouds -10 981 79 10000 3.6 50 11:25 10.01.2022
3760 Clouds -18 984 95 10000 3.55 71 09:53 10.01.2022
3761 Clouds -10 982 79 10000 4.12 80 08:22 10.01.2022
3762 Clouds -10 983 73 10000 2.57 110 05:50 10.01.2022
3763 Snow -10 984 79 10000 0.51 130 01:33 10.01.2022
3764 Clouds -10 985 73 10000 0 0 00:29 10.01.2022
3765 Clouds -10 985 73 10000 1.54 60 23:43 09.01.2022
3766 Clouds -10 985 79 10000 2.06 350 22:40 09.01.2022
3767 Clouds -10 985 73 10000 1.54 20 21:47 09.01.2022
3768 Clouds -10 985 73 10000 1.54 20 21:24 09.01.2022
3769 Clouds -14 988 90 2964 1.05 107 20:54 09.01.2022
3770 Snow -10 985 79 10000 3.09 340 20:36 09.01.2022
3771 Snow -10 985 79 10000 3.09 340 20:18 09.01.2022
3772 Snow -10 985 73 10000 3.09 360 19:36 09.01.2022
3773 Snow -10 985 73 10000 3.09 360 19:18 09.01.2022
3774 Clouds -10 986 73 10000 4.12 360 18:37 09.01.2022
3775 Clouds -10 986 73 10000 3.6 360 17:48 09.01.2022
3776 Clouds -10 986 73 10000 3.6 360 17:25 09.01.2022
3777 Clouds -10 986 73 10000 4.63 10 16:38 09.01.2022
3778 Clouds -11 987 79 10000 3.6 350 15:38 09.01.2022
3779 Clouds -10 988 67 10000 4.12 350 14:41 09.01.2022
3780 Clouds -10 988 67 10000 4.12 350 14:21 09.01.2022
3781 Clouds -11 989 79 10000 4.12 360 13:41 09.01.2022
3782 Clouds -17 992 85 10000 2.9 42 11:56 09.01.2022
3783 Clouds -11 990 73 10000 3.09 350 11:25 09.01.2022
3784 Clouds -17 993 89 10000 2.97 37 09:55 09.01.2022
3785 Clouds -11 992 85 10000 2.06 350 08:56 09.01.2022
3786 Clouds -11 993 85 8000 2.06 320 06:21 09.01.2022
3787 Snow -11 996 92 2400 0 0 01:28 09.01.2022
3788 Snow -12 997 85 10000 1.03 170 00:37 09.01.2022
3789 Clouds -11 998 85 10000 1.54 350 23:31 08.01.2022
3790 Snow -10 999 85 1900 2.06 100 22:48 08.01.2022
3791 Clouds -11 999 92 5000 3.09 120 21:28 08.01.2022
3792 Snow -10 1000 85 1000 3.09 150 20:43 08.01.2022
3793 Snow -10 1000 85 1000 3.09 150 20:22 08.01.2022
3794 Snow -10 1001 85 600 2.06 160 19:22 08.01.2022
3795 Clouds -10 1002 92 4500 4.63 160 17:31 08.01.2022
3796 Snow -10 1002 92 10000 0 0 16:45 08.01.2022
3797 Snow -10 1002 92 4300 3.09 180 15:33 08.01.2022
3798 Clouds -10 1004 92 757 2.68 240 13:58 08.01.2022
3799 Snow -10 1001 92 2200 5.14 240 11:43 08.01.2022
3800 Clouds -9 1001 86 6000 5.66 240 10:40 08.01.2022
3801 Clouds -9 1001 86 6000 5.66 240 10:22 08.01.2022
3802 Snow -9 1000 92 650 5.14 250 09:34 08.01.2022
3803 Snow -9 997 92 4100 1.03 140 06:22 08.01.2022
3804 Snow -8 991 79 10000 4.12 280 01:46 08.01.2022
3805 Snow -8 989 73 10000 4.63 270 23:36 07.01.2022
3806 Snow -7 986 73 6000 6.69 300 21:49 07.01.2022
3807 Snow -7 985 86 5000 8.23 300 20:35 07.01.2022
3808 Snow -7 985 86 5000 8.23 300 20:35 07.01.2022
3809 Clouds -7 984 93 10000 8.23 300 19:27 07.01.2022
3810 Clouds -6 982 86 6000 8.23 310 18:49 07.01.2022
3811 Clouds -6 982 86 6000 8.23 310 18:24 07.01.2022
3812 Snow -7 982 93 10000 4.12 10 17:24 07.01.2022
3813 Clouds -11 982 93 618 2.96 17 15:55 07.01.2022
3814 Clouds -6 980 73 10000 7.2 10 13:52 07.01.2022
3815 Clouds -14 981 96 10000 3.28 13 12:57 07.01.2022
3816 Clouds -14 981 92 10000 3.33 5 11:58 07.01.2022
3817 Clouds -5 982 86 10000 3.6 10 06:47 07.01.2022
3818 Clouds -12 985 82 10000 3.37 97 02:54 07.01.2022
3819 Clouds -11 985 81 10000 3.35 104 01:50 07.01.2022
3820 Clouds -7 984 58 10000 1.03 130 01:26 07.01.2022
3821 Clouds -6 984 53 10000 2.68 140 00:34 07.01.2022
3822 Clouds -5 984 63 10000 2.57 140 22:42 06.01.2022
3823 Clouds -6 984 73 10000 3.6 160 21:22 06.01.2022
3824 Clouds -6 984 73 10000 5.14 150 20:19 06.01.2022
3825 Clouds -5 984 74 10000 6.17 150 19:40 06.01.2022
3826 Clouds -6 983 92 10000 4.47 160 17:52 06.01.2022
3827 Clouds -6 983 93 10000 4.63 160 17:31 06.01.2022
3828 Clouds -6 983 86 10000 3.6 170 16:39 06.01.2022
3829 Clouds -6 983 79 10000 4.63 170 15:45 06.01.2022
3830 Clouds -6 983 79 10000 4.63 170 15:23 06.01.2022
3831 Clouds -5 983 80 10000 5.14 170 14:20 06.01.2022
3832 Snow -5 982 74 5000 6.69 170 13:44 06.01.2022
3833 Clouds -5 982 80 10000 5.66 170 12:40 06.01.2022
3834 Clouds -5 982 68 10000 5.14 150 11:41 06.01.2022
3835 Clouds -5 982 68 10000 5.14 150 11:20 06.01.2022
3836 Clouds -5 981 74 10000 5.66 170 08:31 06.01.2022
3837 Snow -5 980 86 5000 6.17 200 00:42 06.01.2022
3838 Snow -4 980 63 10000 7.72 170 23:36 05.01.2022
3839 Snow -9 982 83 3736 3.47 166 22:51 05.01.2022
3840 Clouds -4 980 58 10000 7.2 160 22:29 05.01.2022
3841 Clouds -4 979 63 10000 8.75 160 21:46 05.01.2022
3842 Snow -4 979 68 10000 8.75 160 20:49 05.01.2022
3843 Clouds -9 980 74 10000 4.59 134 19:58 05.01.2022
3844 Snow -4 979 63 10000 9.26 160 18:33 05.01.2022
3845 Snow -3 978 74 10000 10.29 190 17:23 05.01.2022
3846 Snow -3 978 80 10000 7.72 180 16:38 05.01.2022
3847 Snow -3 980 79 414 8.94 170 15:20 05.01.2022
3848 Snow -3 977 86 2400 10.8 180 13:39 05.01.2022
3849 Snow -3 976 92 510 11.62 180 12:51 05.01.2022
3850 Snow 0 972 93 1400 11.83 180 09:30 05.01.2022
3851 Snow 0 971 93 2100 7.72 170 07:42 05.01.2022
3852 Clouds -2 972 95 7277 8.04 171 04:58 05.01.2022
3853 Clouds 6 970 36 10000 7.72 100 00:44 05.01.2022
3854 Clouds 3 970 52 10000 3.09 70 23:27 04.01.2022
3855 Clouds 4 971 41 10000 4.12 160 22:40 04.01.2022
3856 Clouds 4 972 41 10000 2.57 170 21:18 04.01.2022
3857 Clouds 3 972 48 10000 6.69 70 19:20 04.01.2022
3858 Clouds 2 975 55 10000 6.17 20 17:44 04.01.2022
3859 Clouds 2 977 51 10000 6.69 60 16:42 04.01.2022
3860 Clouds 2 977 51 10000 6.71 60 16:23 04.01.2022
3861 Clouds -2 977 69 10000 4.29 73 14:54 04.01.2022
3862 Clouds 3 979 44 10000 4.63 90 14:34 04.01.2022
3863 Clouds 3 979 44 10000 6.17 100 13:27 04.01.2022
3864 Snow 2 982 48 10000 9.26 80 10:41 04.01.2022
3865 Clouds 1 984 93 10000 8.23 80 09:20 04.01.2022
3866 Clouds -1 984 93 10000 5.66 50 08:30 04.01.2022
3867 Clouds -3 989 93 10000 5.14 360 02:31 04.01.2022
3868 Snow -3 991 100 4500 4.63 360 00:41 04.01.2022
3869 Snow -3 991 93 3500 4.12 360 23:19 03.01.2022
3870 Snow -5 992 100 155 4.02 360 21:52 03.01.2022
3871 Snow -4 992 100 1500 4.12 360 21:32 03.01.2022
3872 Snow -3 993 92 141 1.34 300 19:56 03.01.2022
3873 Snow -3 993 92 120 2.24 200 18:54 03.01.2022
3874 Snow -3 993 93 1500 2.57 200 18:28 03.01.2022
3875 Snow -3 993 100 1329 4.47 210 16:58 03.01.2022
3876 Snow -2 993 93 800 5.14 200 15:39 03.01.2022
3877 Snow 0 992 80 3200 2.06 220 14:30 03.01.2022
3878 Snow -1 992 86 7000 4.63 180 12:46 03.01.2022
3879 Snow 1 993 60 10000 2.57 120 11:38 03.01.2022
3880 Rain 1 993 51 10000 5.14 110 10:36 03.01.2022
3881 Snow 0 994 51 10000 7.72 80 08:48 03.01.2022
3882 Snow 0 995 47 10000 10.29 80 07:36 03.01.2022
3883 Clouds -7 1006 73 10000 4.63 80 23:56 02.01.2022
3884 Clouds -3 1006 54 10000 7.72 70 23:22 02.01.2022
3885 Clouds -8 1007 70 10000 4.85 82 22:53 02.01.2022
3886 Clouds -4 1008 54 10000 1.03 0 21:46 02.01.2022
3887 Clouds -4 1008 58 10000 1.54 0 20:38 02.01.2022
3888 Clouds -4 1008 58 10000 1.54 0 20:18 02.01.2022
3889 Clouds -4 1009 54 10000 0.51 0 19:30 02.01.2022
3890 Clouds -4 1009 54 10000 3.09 70 18:46 02.01.2022
3891 Clouds -4 1009 54 10000 3.09 70 18:46 02.01.2022
3892 Clouds -9 1010 71 10000 4.81 80 17:54 02.01.2022
3893 Clouds -4 1010 58 10000 1.54 120 17:36 02.01.2022
3894 Clouds -4 1010 58 10000 1.54 120 17:18 02.01.2022
3895 Clouds -4 1011 54 10000 1.54 90 16:26 02.01.2022
3896 Clouds -5 1011 58 10000 0.51 0 14:32 02.01.2022
3897 Clouds -11 1013 79 10000 3.93 79 12:50 02.01.2022
3898 Clouds -5 1012 54 10000 1.54 120 12:22 02.01.2022
3899 Clouds -5 1012 54 10000 0.51 180 11:32 02.01.2022
3900 Clouds -5 1012 58 10000 1.03 50 10:46 02.01.2022
3901 Clouds -5 1012 58 10000 1.54 320 09:45 02.01.2022
3902 Clouds -11 1014 81 10000 3.88 80 05:50 02.01.2022
3903 Clouds -6 1013 68 10000 0.51 120 01:48 02.01.2022
3904 Clouds -6 1012 68 10000 4.12 80 23:40 01.01.2022
3905 Clouds -12 1015 82 10000 3.25 85 22:57 01.01.2022
3906 Clouds -6 1012 73 10000 6.17 80 22:23 01.01.2022
3907 Clouds -6 1012 73 10000 5.66 70 21:44 01.01.2022
3908 Clouds -13 1014 83 10000 3.91 85 20:55 01.01.2022
3909 Clouds -13 1014 84 10000 3.68 83 19:58 01.01.2022
3910 Clouds -6 1011 73 10000 4.12 80 19:19 01.01.2022
3911 Clouds -12 1013 85 10000 3.65 83 17:59 01.01.2022
3912 Snow -5 1012 74 10000 5.14 110 16:41 01.01.2022
3913 Snow -5 1012 74 10000 5.14 110 16:19 01.01.2022
3914 Clouds -5 1012 68 10000 4.63 90 15:26 01.01.2022
3915 Clouds -13 1013 88 10000 3.62 91 13:59 01.01.2022
3916 Clouds -13 1013 87 10000 3.95 85 12:50 01.01.2022
3917 Clouds -13 1013 88 10000 3.78 88 11:56 01.01.2022
3918 Clouds -6 1011 73 10000 5.14 60 11:23 01.01.2022
3919 Clouds -6 1011 73 10000 5.66 60 10:40 01.01.2022
3920 Clouds -6 1011 68 10000 2.57 80 09:46 01.01.2022
3921 Clouds -6 1011 73 10000 4.63 60 08:26 01.01.2022
3922 Clouds -13 1012 90 10000 3.66 95 07:54 01.01.2022
3923 Clouds -6 1010 73 10000 6.69 70 07:34 01.01.2022
3924 Snow -6 1010 73 10000 5.66 60 06:41 01.01.2022
3925 Clouds -6 1011 73 10000 4.63 80 04:38 01.01.2022
3926 Snow -6 1011 79 10000 5.66 80 02:44 01.01.2022
3927 Clouds -6 1010 79 10000 5.66 80 23:44 31.12.2021
3928 Clouds -11 1011 92 3483 3.3 93 21:53 31.12.2021
3929 Snow -6 1009 79 2000 2.57 80 20:39 31.12.2021
3930 Clouds -6 1009 79 10000 2.57 70 19:31 31.12.2021
3931 Clouds -6 1009 79 10000 2.57 70 19:31 31.12.2021
3932 Clouds -6 1009 79 10000 2.57 70 19:31 31.12.2021
3933 Snow -6 1009 73 10000 0 0 18:41 31.12.2021
3934 Clouds -6 1009 79 10000 1.03 110 17:45 31.12.2021
3935 Clouds -6 1009 79 10000 1.03 110 17:19 31.12.2021
3936 Clouds -6 1009 73 10000 1.54 120 16:40 31.12.2021
3937 Clouds -11 1010 94 2409 3.07 77 15:57 31.12.2021
3938 Clouds -6 1009 73 10000 6.17 80 15:29 31.12.2021
3939 Clouds -11 1010 94 2534 2.96 82 14:57 31.12.2021
3940 Clouds -11 1010 94 2410 2.97 81 14:57 31.12.2021
3941 Clouds -6 1009 73 10000 5.66 70 14:31 31.12.2021
3942 Snow -6 1009 79 5000 5.66 80 13:42 31.12.2021
3943 Snow -6 1008 73 2800 5.66 70 12:49 31.12.2021
3944 Snow -6 1008 73 2800 5.66 70 12:19 31.12.2021
3945 Snow -6 1008 79 3000 5.14 60 11:33 31.12.2021
3946 Snow -6 1008 79 3000 5.66 60 10:41 31.12.2021
3947 Snow -6 1008 79 10000 5.66 60 10:23 31.12.2021
3948 Clouds -6 1008 79 10000 5.14 60 09:33 31.12.2021
3949 Clouds -6 1008 79 10000 3.6 40 08:49 31.12.2021
3950 Clouds -6 1007 79 10000 4.63 60 07:49 31.12.2021
3951 Clouds -6 1007 73 10000 3.6 50 01:38 31.12.2021
3952 Clouds -13 1010 86 10000 2.63 86 22:54 30.12.2021
3953 Clouds -6 1007 79 10000 4.12 40 22:27 30.12.2021
3954 Clouds -6 1007 79 10000 3.6 40 21:38 30.12.2021
3955 Clouds -12 1010 84 10000 2.76 90 20:58 30.12.2021
3956 Clouds -6 1007 79 10000 1.54 0 20:35 30.12.2021
3957 Clouds -13 1010 80 10000 2.99 94 19:53 30.12.2021
3958 Clouds -6 1007 79 10000 2.06 130 19:28 30.12.2021
3959 Clouds -6 1007 79 10000 3.09 120 18:26 30.12.2021
3960 Clouds -14 1010 76 10000 2.84 98 16:50 30.12.2021
3961 Clouds -14 1010 76 10000 2.83 104 15:53 30.12.2021
3962 Clouds -15 1010 76 10000 2.89 106 14:54 30.12.2021
3963 Clouds -7 1008 68 10000 2.57 130 14:35 30.12.2021
3964 Clouds -7 1008 79 10000 3.6 170 13:25 30.12.2021
3965 Clouds -16 1011 75 10000 2.69 112 11:53 30.12.2021
3966 Clouds -17 1010 75 10000 2.12 98 10:28 30.12.2021
3967 Clouds -8 1007 79 10000 1.54 170 09:44 30.12.2021
3968 Clouds -18 1009 76 10000 2.37 68 06:58 30.12.2021
3969 Clouds -17 1010 74 10000 2.66 58 05:20 30.12.2021
3970 Clouds -17 1010 74 10000 2.66 58 05:20 30.12.2021
3971 Clouds -17 1010 73 10000 2.69 49 03:40 30.12.2021
3972 Clouds -17 1010 73 10000 2.69 49 03:40 30.12.2021
3973 Clouds -7 1007 79 10000 5.14 40 02:28 30.12.2021
3974 Clouds -7 1008 79 10000 4.63 20 23:37 29.12.2021
3975 Clouds -17 1011 73 10000 3.03 39 22:42 29.12.2021
3976 Clouds -7 1008 73 10000 3.6 40 21:56 29.12.2021
3977 Clouds -17 1011 72 10000 3.15 40 20:58 29.12.2021
3978 Clouds -7 1008 73 10000 3.09 40 20:29 29.12.2021
3979 Clouds -16 1011 72 10000 3.13 44 19:31 29.12.2021
3980 Clouds -17 1011 73 10000 3.03 38 18:42 29.12.2021
3981 Clouds -16 1011 73 10000 3.03 34 17:51 29.12.2021
3982 Clouds -16 1011 73 10000 2.99 39 17:27 29.12.2021
3983 Clear -6 1010 79 10000 5.14 20 16:22 29.12.2021
3984 Clouds -7 1010 86 10000 3.09 40 15:21 29.12.2021
3985 Clouds -7 1010 86 10000 2.57 40 13:42 29.12.2021
3986 Clouds -7 1010 86 10000 3.09 50 12:35 29.12.2021
3987 Clear -7 1011 86 10000 3.09 30 11:25 29.12.2021
3988 Clouds -7 1011 86 10000 3.09 40 09:46 29.12.2021
3989 Clouds -16 1013 76 10000 2.75 62 07:47 29.12.2021
3990 Clouds -16 1014 79 10000 2.91 56 06:37 29.12.2021
3991 Clouds -16 1014 79 10000 2.93 56 05:57 29.12.2021
3992 Clouds -16 1014 79 10000 2.93 56 05:36 29.12.2021
3993 Clouds -15 1014 80 10000 2.66 74 01:45 29.12.2021
3994 Clouds -15 1014 80 10000 2.57 69 00:19 29.12.2021
3995 Clouds -15 1014 80 10000 2.58 69 23:31 28.12.2021
3996 Clouds -5 1011 68 10000 4.12 60 22:42 28.12.2021
3997 Clouds -5 1011 68 10000 4.12 60 22:23 28.12.2021
3998 Clouds -6 1011 68 10000 1.54 100 21:36 28.12.2021
3999 Clouds -6 1011 79 10000 1.54 110 20:35 28.12.2021
4000 Clouds -5 1010 63 10000 1.03 130 19:22 28.12.2021
4001 Clouds -5 1010 68 10000 1.54 100 18:35 28.12.2021
4002 Clouds -13 1012 77 10000 3.12 63 17:57 28.12.2021
4003 Clouds -5 1010 63 10000 0.51 150 16:34 28.12.2021
4004 Clouds -4 1010 63 10000 1.54 100 15:49 28.12.2021
4005 Clouds -4 1010 63 10000 1.54 100 15:20 28.12.2021
4006 Clouds -5 1010 68 10000 1.03 130 14:46 28.12.2021
4007 Clouds -5 1010 68 10000 1.03 130 14:20 28.12.2021
4008 Clear -5 1010 68 10000 1.54 90 13:42 28.12.2021
4009 Clear -5 1010 68 10000 1.54 90 13:24 28.12.2021
4010 Clear -5 1009 68 10000 1.54 110 12:49 28.12.2021
4011 Clear -6 1009 79 10000 1.54 50 11:33 28.12.2021
4012 Clouds -5 1008 80 10000 2.06 140 07:41 28.12.2021
4013 Clouds -5 1007 68 10000 0 0 06:41 28.12.2021
4014 Clear -4 1006 68 10000 2.06 70 23:43 27.12.2021
4015 Clouds -13 1007 77 10000 2.79 68 22:59 27.12.2021
4016 Clear -4 1005 68 10000 1.54 120 21:42 27.12.2021
4017 Clear -4 1005 68 10000 1.54 120 21:20 27.12.2021
4018 Clouds -12 1006 77 10000 2.82 77 19:58 27.12.2021
4019 Clouds -4 1005 74 10000 3.09 40 19:39 27.12.2021
4020 Clear -3 1004 63 10000 1.54 0 18:34 27.12.2021
4021 Clear -3 1004 59 10000 0.51 0 17:48 27.12.2021
4022 Clear -4 1004 63 10000 1.03 160 16:40 27.12.2021
4023 Clear -12 1006 78 10000 2.5 79 15:52 27.12.2021
4024 Clear -3 1005 63 10000 1.03 150 14:33 27.12.2021
4025 Clouds -3 1004 74 10000 2.06 80 13:39 27.12.2021
4026 Clouds -3 1005 74 10000 3.09 60 12:36 27.12.2021
4027 Clouds -3 1005 74 10000 2.06 50 10:31 27.12.2021
4028 Clouds -3 1005 74 10000 1.03 60 09:47 27.12.2021
4029 Clear -12 1006 79 10000 2.8 77 07:50 27.12.2021
4030 Clear -3 1005 68 10000 1.54 160 07:29 27.12.2021
4031 Clear -1 1005 69 10000 2.57 80 02:21 27.12.2021
4032 Clear -10 1007 79 10000 2.91 65 23:58 26.12.2021
4033 Clear -2 1005 64 10000 0.51 130 23:39 26.12.2021
4034 Clouds -2 1005 64 10000 1.54 120 22:34 26.12.2021
4035 Clear -9 1007 77 10000 2.32 81 20:59 26.12.2021
4036 Clear 0 1005 59 10000 2.06 150 19:49 26.12.2021
4037 Clear 0 1005 69 10000 2.06 360 18:24 26.12.2021
4038 Clouds 0 1004 59 10000 0.51 110 17:24 26.12.2021
4039 Clouds 0 1004 69 10000 1.03 0 14:32 26.12.2021
4040 Clouds 1 1003 55 10000 1.03 0 13:43 26.12.2021
4041 Clouds 1 1003 55 10000 1.03 0 13:20 26.12.2021
4042 Clouds 1 1003 60 10000 1.54 350 12:33 26.12.2021
4043 Clouds 1 1002 69 10000 1.03 0 10:43 26.12.2021
4044 Clouds 0 1002 69 10000 1.03 0 09:28 26.12.2021
4045 Clouds 1 1002 55 10000 2.06 160 08:44 26.12.2021
4046 Clouds -6 1004 75 10000 3.61 81 07:59 26.12.2021
4047 Clouds -7 1002 75 10000 3.5 74 01:30 26.12.2021
4048 Clouds -7 1002 77 10000 3.38 74 23:58 25.12.2021
4049 Clouds -7 1002 76 10000 3.52 74 23:27 25.12.2021
4050 Clouds 3 1000 44 10000 3.6 0 22:28 25.12.2021
4051 Clouds -7 1001 75 10000 4.05 71 21:18 25.12.2021
4052 Clouds -7 1000 76 10000 3.95 66 19:28 25.12.2021
4053 Clouds -7 1000 76 10000 3.94 66 18:57 25.12.2021
4054 Clear 2 999 44 10000 1.03 170 18:21 25.12.2021
4055 Clear 0 999 69 10000 5.66 70 16:46 25.12.2021
4056 Clouds -1 999 74 10000 3.6 0 15:26 25.12.2021
4057 Clear -1 998 69 10000 4.12 10 13:43 25.12.2021
4058 Clear 0 998 51 10000 1.54 0 12:18 25.12.2021
4059 Clouds 0 998 43 10000 2.06 10 10:36 25.12.2021
4060 Clear 0 998 55 10000 1.03 0 09:48 25.12.2021
4061 Clouds -1 997 55 10000 3.6 90 07:21 25.12.2021
4062 Clear -10 999 72 10000 3.76 93 01:34 25.12.2021
4063 Clouds -9 999 70 10000 3.81 75 00:19 25.12.2021
4064 Clouds -9 1000 70 10000 4.26 70 21:51 24.12.2021
4065 Clouds 0 999 55 10000 1.54 150 19:27 24.12.2021
4066 Clouds 0 999 55 10000 2.06 190 18:41 24.12.2021
4067 Clouds 0 1000 59 10000 2.06 190 16:44 24.12.2021
4068 Clouds -7 1001 70 10000 4.13 80 15:50 24.12.2021
4069 Clouds -7 1001 70 10000 4.13 80 15:50 24.12.2021
4070 Clouds -8 1001 72 10000 4.24 81 15:20 24.12.2021
4071 Clouds -8 1001 72 10000 4.24 81 14:34 24.12.2021
4072 Clouds -8 1002 73 10000 4.26 74 13:54 24.12.2021
4073 Clouds -8 1002 73 10000 4.26 74 13:32 24.12.2021
4074 Clouds -9 1003 74 10000 4.13 74 12:40 24.12.2021
4075 Clouds -9 1004 75 10000 4.1 72 11:45 24.12.2021
4076 Clouds -9 1004 76 10000 3.9 66 11:24 24.12.2021
4077 Clouds -9 1004 76 10000 3.9 66 10:35 24.12.2021
4078 Clear -9 1005 78 10000 4.27 51 08:58 24.12.2021
4079 Clear -9 1006 80 10000 4.3 48 07:58 24.12.2021
4080 Clear -9 1006 80 10000 4.3 48 07:58 24.12.2021
4081 Clouds 0 1006 80 10000 5.66 50 07:31 24.12.2021
4082 Clouds 2 1012 87 10000 7.2 30 00:47 24.12.2021
4083 Clouds -3 1013 95 10000 4.99 36 23:50 23.12.2021
4084 Clouds 0 1013 94 10000 5.36 40 22:53 23.12.2021
4085 Clouds 1 1013 93 10000 5.66 40 22:24 23.12.2021
4086 Clouds 1 1014 100 10000 5.66 30 21:47 23.12.2021
4087 Clouds 0 1014 94 10000 6.71 30 20:53 23.12.2021
4088 Fog 1 1014 93 10000 6.17 30 19:31 23.12.2021
4089 Fog 1 1014 100 300 3.09 30 18:28 23.12.2021
4090 Rain 1 1014 100 10000 2.06 40 17:46 23.12.2021
4091 Rain 1 1015 100 10000 0.51 0 16:40 23.12.2021
4092 Rain 1 1015 100 10000 0.51 0 16:20 23.12.2021
4093 Rain 1 1014 100 7000 2.57 190 15:31 23.12.2021
4094 Rain 2 1014 93 7000 0 0 14:42 23.12.2021
4095 Rain 2 1014 93 7000 0 0 14:19 23.12.2021
4096 Fog 0 1013 100 3000 0 0 12:39 23.12.2021
4097 Rain 2 1013 93 10000 0 0 10:41 23.12.2021
4098 Clouds 2 1012 93 9000 0 0 09:34 23.12.2021
4099 Clouds -2 1014 94 10000 0.61 354 08:58 23.12.2021
4100 Clouds 1 1011 93 8000 4.12 170 06:23 23.12.2021
4101 Clouds 0 1010 93 10000 3.6 10 03:41 23.12.2021
4102 Clouds -2 1011 86 10000 2.62 26 22:55 22.12.2021
4103 Clouds 3 1009 81 10000 1.54 10 22:32 22.12.2021
4104 Clouds 4 1009 75 10000 3.09 50 21:53 22.12.2021
4105 Clouds -2 1011 87 10000 2.63 38 21:28 22.12.2021
4106 Clouds 3 1008 81 10000 0.51 0 20:41 22.12.2021
4107 Clouds 3 1008 81 10000 0.51 0 20:20 22.12.2021
4108 Clouds 5 1008 70 10000 1.54 150 19:19 22.12.2021
4109 Clouds 3 1007 81 10000 1.54 180 17:39 22.12.2021
4110 Clouds 4 1006 81 10000 1.54 130 16:36 22.12.2021
4111 Clouds 4 1006 81 10000 2.06 170 15:39 22.12.2021
4112 Clouds 2 1004 87 10000 4.63 180 13:32 22.12.2021
4113 Clouds 2 1003 80 10000 3.6 160 12:31 22.12.2021
4114 Clouds -4 1004 92 10000 2.65 79 09:53 22.12.2021
4115 Clouds 1 1001 93 10000 3.09 0 09:33 22.12.2021
4116 Clouds 2 1001 87 10000 3.6 30 07:25 22.12.2021
4117 Clouds 2 1001 87 10000 3.6 40 05:42 22.12.2021
4118 Clouds 2 1001 87 10000 3.6 40 05:24 22.12.2021
4119 Clouds 2 1002 87 10000 3.6 40 04:47 22.12.2021
4120 Clouds 2 1002 87 10000 3.6 40 04:22 22.12.2021
4121 Clouds 2 1002 87 10000 3.09 40 03:32 22.12.2021
4122 Clouds 4 1003 81 10000 6.17 180 00:33 22.12.2021
4123 Clouds -1 1004 96 10000 3.63 138 22:52 21.12.2021
4124 Clouds 3 1001 87 10000 8.75 180 22:27 21.12.2021
4125 Clouds 4 1001 75 10000 7.2 190 21:43 21.12.2021
4126 Clouds 0 1002 94 10000 5.41 182 20:54 21.12.2021
4127 Clouds 4 1000 70 10000 10.29 180 20:20 21.12.2021
4128 Clouds 10 998 27 10000 8.75 100 19:41 21.12.2021
4129 Clouds 10 998 29 10000 11.32 80 18:45 21.12.2021
4130 Clouds 10 998 29 10000 11.32 80 18:21 21.12.2021
4131 Clouds 11 998 28 10000 10.29 110 17:41 21.12.2021
4132 Clouds 4 999 64 10000 5.56 84 15:59 21.12.2021
4133 Clouds 11 998 25 10000 10.29 110 15:20 21.12.2021
4134 Clouds 3 999 61 10000 6.02 101 13:50 21.12.2021
4135 Clouds 10 998 32 10000 10.29 100 13:30 21.12.2021
4136 Clouds 10 999 34 10000 10.29 80 11:36 21.12.2021
4137 Clouds 10 999 34 10000 9.26 90 10:24 21.12.2021
4138 Clouds 11 999 28 10000 10.29 90 09:23 21.12.2021
4139 Clouds 2 1000 64 10000 5.42 86 07:58 21.12.2021
4140 Clouds 11 999 30 10000 9.77 100 07:27 21.12.2021
4141 Clouds 1 1001 68 10000 4.59 85 05:31 21.12.2021
4142 Clouds 10 1000 34 10000 10.29 70 02:40 21.12.2021
4143 Clouds 2 1002 62 10000 5.33 95 23:59 20.12.2021
4144 Clouds 10 1000 37 10000 9.77 80 23:29 20.12.2021
4145 Clouds 10 1000 37 10000 10.29 80 22:28 20.12.2021
4146 Clouds 11 1000 35 10000 8.75 80 21:47 20.12.2021
4147 Clouds 11 1000 35 10000 8.75 80 21:23 20.12.2021
4148 Clouds 1 1002 67 10000 5.25 94 20:44 20.12.2021
4149 Clouds 1 1002 74 10000 4.63 79 19:53 20.12.2021
4150 Clouds 9 1000 46 10000 5.66 90 19:31 20.12.2021
4151 Clouds 1 1002 76 10000 4.32 75 18:54 20.12.2021
4152 Clouds 2 1002 75 10000 4.62 83 17:53 20.12.2021
4153 Clouds 9 999 53 10000 9.26 70 17:25 20.12.2021
4154 Clouds 6 1000 70 10000 8.75 60 16:40 20.12.2021
4155 Clouds 2 1002 85 10000 4.2 50 15:51 20.12.2021
4156 Clouds 2 1002 87 10000 3.66 47 14:53 20.12.2021
4157 Rain 6 1001 70 10000 0.51 0 13:18 20.12.2021
4158 Rain 6 1001 65 10000 1.54 180 11:19 20.12.2021
4159 Clouds 10 1001 50 10000 6.69 120 09:48 20.12.2021
4160 Clouds 10 1001 50 10000 6.69 120 09:29 20.12.2021
4161 Clouds 10 1001 37 10000 5.14 110 08:42 20.12.2021
4162 Clouds 3 1002 68 10000 5.85 81 07:50 20.12.2021
4163 Clouds 3 1002 68 10000 5.85 81 07:50 20.12.2021
4164 Clouds 10 1002 37 10000 8.23 100 07:30 20.12.2021
4165 Clouds 9 1005 46 10000 5.66 90 04:24 20.12.2021
4166 Clouds 3 1009 62 10000 5.88 90 23:59 19.12.2021
4167 Clouds 2 1010 65 10000 5.49 86 22:51 19.12.2021
4168 Clouds 2 1010 68 10000 5.16 86 21:50 19.12.2021
4169 Clouds 7 1009 49 10000 7.72 70 21:30 19.12.2021
4170 Clouds 6 1009 56 10000 8.23 80 20:32 19.12.2021
4171 Clouds 1 1011 73 10000 5.8 80 19:51 19.12.2021
4172 Clouds 6 1010 56 10000 10.29 80 19:22 19.12.2021
4173 Clouds 5 1010 60 10000 11.32 80 18:29 19.12.2021
4174 Clouds 0 1011 78 10000 5.69 73 17:53 19.12.2021
4175 Clouds 5 1010 56 10000 11.32 80 17:19 19.12.2021
4176 Clouds 4 1011 65 10000 9.77 60 16:26 19.12.2021
4177 Clouds 4 1011 65 10000 9.77 60 16:26 19.12.2021
4178 Clouds 0 1013 86 10000 6.71 50 15:43 19.12.2021
4179 Snow 0 1013 86 10000 6.71 50 15:20 19.12.2021
4180 Rain 1 1013 86 10000 6.69 50 14:42 19.12.2021
4181 Clouds 0 1014 86 10000 0 0 13:22 19.12.2021
4182 Clouds 0 1013 86 10000 0.51 150 12:42 19.12.2021
4183 Clouds 0 1013 86 10000 0.51 150 12:18 19.12.2021
4184 Clouds 1 1013 86 10000 2.57 160 11:21 19.12.2021
4185 Clouds 2 1012 80 10000 1.54 0 10:26 19.12.2021
4186 Snow 3 1011 81 9000 5.66 160 09:42 19.12.2021
4187 Snow 3 1010 75 10000 9.26 160 08:35 19.12.2021
4188 Clouds -1 1005 93 10000 4.12 210 04:45 19.12.2021
4189 Clouds -1 1000 59 10000 0.51 140 01:33 19.12.2021
4190 Clouds -7 1001 82 10000 1.84 61 00:52 19.12.2021
4191 Clouds -2 998 74 10000 3.6 20 22:37 18.12.2021
4192 Clouds -8 1000 80 10000 2.5 23 21:58 18.12.2021
4193 Clouds -1 998 74 10000 5.14 50 21:36 18.12.2021
4194 Clouds -1 998 59 10000 7.2 60 20:44 18.12.2021
4195 Clouds -1 998 59 10000 7.2 60 20:19 18.12.2021
4196 Clouds -1 998 55 10000 8.23 70 19:25 18.12.2021
4197 Clouds -10 1000 76 10000 2.6 41 18:22 18.12.2021
4198 Clouds -3 1000 74 10000 9.77 50 17:48 18.12.2021
4199 Clouds -3 1001 63 10000 8.23 60 16:26 18.12.2021
4200 Clouds -4 1002 68 10000 7.2 40 15:27 18.12.2021
4201 Clouds -11 1002 73 10000 3.56 49 14:51 18.12.2021
4202 Clouds -4 1004 58 10000 6.69 60 13:28 18.12.2021
4203 Clouds -6 1006 68 10000 1.54 100 11:23 18.12.2021
4204 Clear -8 1008 62 10000 1.54 160 09:40 18.12.2021
4205 Clouds -7 1008 58 10000 3.09 170 08:47 18.12.2021
4206 Clouds -7 1008 58 10000 3.09 170 08:27 18.12.2021
4207 Clear -15 1011 73 10000 3.79 84 05:56 18.12.2021
4208 Clouds -7 1011 68 10000 5.14 70 00:30 18.12.2021
4209 Clouds -7 1012 63 10000 3.6 60 23:46 17.12.2021
4210 Clouds -15 1014 82 10000 3.9 78 21:58 17.12.2021
4211 Clouds -7 1012 68 10000 2.57 90 21:20 17.12.2021
4212 Clouds -7 1012 68 10000 2.06 70 20:41 17.12.2021
4213 Clouds -6 1013 63 10000 3.09 160 19:28 17.12.2021
4214 Clouds -7 1012 63 10000 1.54 140 18:39 17.12.2021
4215 Clouds -7 1012 63 10000 2.06 130 17:40 17.12.2021
4216 Clouds -14 1014 83 10000 2.94 85 16:50 17.12.2021
4217 Clouds -7 1012 63 10000 2.57 130 16:22 17.12.2021
4218 Clouds -8 1012 67 10000 3.09 110 15:25 17.12.2021
4219 Clouds -8 1011 67 10000 2.06 90 14:41 17.12.2021
4220 Clouds -7 1011 68 10000 2.06 100 13:22 17.12.2021
4221 Clouds -8 1011 73 10000 2.06 110 12:21 17.12.2021
4222 Clouds -8 1009 73 10000 1.54 110 10:38 17.12.2021
4223 Clouds -8 1009 79 10000 3.09 70 09:34 17.12.2021
4224 Clouds -8 1008 79 10000 2.57 20 08:31 17.12.2021
4225 Clouds -8 1008 73 10000 2.06 60 07:18 17.12.2021
4226 Clouds -18 1009 86 10000 3.04 60 04:39 17.12.2021
4227 Clouds -17 1004 87 10000 2.73 39 23:58 16.12.2021
4228 Clouds -7 1001 73 10000 4.12 360 22:24 16.12.2021
4229 Clouds -7 1001 73 10000 4.12 360 22:24 16.12.2021
4230 Clouds -7 1001 73 10000 4.12 360 22:23 16.12.2021
4231 Clouds -7 1001 73 10000 4.12 360 22:23 16.12.2021
4232 Clouds -7 1000 79 10000 4.12 20 21:45 16.12.2021
4233 Clouds -17 1002 87 10000 2.78 39 20:57 16.12.2021
4234 Clouds -8 999 73 10000 3.09 60 20:27 16.12.2021
4235 Clouds -8 998 79 10000 2.57 60 19:35 16.12.2021
4236 Clouds -17 1000 86 10000 3.07 36 18:37 16.12.2021
4237 Snow -7 996 79 10000 3.09 20 17:49 16.12.2021
4238 Clouds -16 998 87 10000 3.41 28 16:55 16.12.2021
4239 Clouds -7 995 79 10000 3.09 10 16:20 16.12.2021
4240 Clouds -16 997 89 10000 2.87 28 14:50 16.12.2021
4241 Clouds -15 997 89 10000 2.89 37 12:48 16.12.2021
4242 Clouds -5 994 80 10000 4.12 10 11:19 16.12.2021
4243 Clouds -5 994 86 10000 5.14 350 10:46 16.12.2021
4244 Clouds -14 996 94 10000 3.65 28 09:52 16.12.2021
4245 Clouds -5 994 86 10000 3.6 360 07:21 16.12.2021
4246 Clouds -5 994 86 10000 4.12 10 06:19 16.12.2021
4247 Clouds -12 995 98 5227 3.2 24 00:53 16.12.2021
4248 Clouds -6 995 86 10000 2.06 20 23:21 15.12.2021
4249 Clouds -5 995 86 10000 1.54 100 22:26 15.12.2021
4250 Clouds -5 995 86 10000 1.03 120 21:49 15.12.2021
4251 Clouds -5 995 86 10000 1.03 120 21:26 15.12.2021
4252 Clouds -8 996 95 9250 1.42 117 19:55 15.12.2021
4253 Clouds -3 994 86 10000 2.57 240 19:23 15.12.2021
4254 Clouds -3 994 86 10000 3.09 260 18:36 15.12.2021
4255 Clouds -3 994 86 10000 3.6 270 17:49 15.12.2021
4256 Clouds -3 994 86 10000 3.6 270 17:27 15.12.2021
4257 Clouds -3 994 86 10000 3.09 270 16:26 15.12.2021
4258 Clouds -3 994 86 8000 2.57 200 15:45 15.12.2021
4259 Clouds -3 994 86 8000 2.57 200 15:27 15.12.2021
4260 Clouds -5 994 85 1465 1.79 190 13:59 15.12.2021
4261 Snow -3 993 86 8000 2.57 190 12:24 15.12.2021
4262 Clouds -3 991 86 10000 2.06 200 10:25 15.12.2021
4263 Clouds -7 991 83 10000 2.07 152 08:54 15.12.2021
4264 Clouds -4 988 80 10000 2.57 160 06:45 15.12.2021
4265 Clouds -4 985 86 10000 1.54 20 01:20 15.12.2021
4266 Clouds -4 984 74 10000 1.54 0 23:42 14.12.2021
4267 Clouds -5 983 93 10000 3.09 40 22:48 14.12.2021
4268 Clouds -5 983 93 10000 3.09 40 22:18 14.12.2021
4269 Clouds -4 982 86 10000 3.09 30 20:28 14.12.2021
4270 Clouds -4 981 86 10000 1.03 0 19:40 14.12.2021
4271 Clouds -12 982 79 10000 2.59 43 18:53 14.12.2021
4272 Clouds -4 981 86 10000 1.03 90 18:22 14.12.2021
4273 Clouds -4 980 86 10000 3.09 30 17:30 14.12.2021
4274 Clouds -4 980 80 10000 1.54 50 16:39 14.12.2021
4275 Clouds -4 980 80 10000 3.09 40 15:35 14.12.2021
4276 Clouds -4 979 80 10000 3.09 30 13:31 14.12.2021
4277 Clear -12 980 79 10000 2.64 66 11:59 14.12.2021
4278 Clouds -4 978 80 10000 2.57 30 11:24 14.12.2021
4279 Clear -12 979 78 10000 2.16 73 09:57 14.12.2021
4280 Clouds -4 977 63 10000 1.54 40 09:35 14.12.2021
4281 Clear -4 976 80 10000 4.12 30 08:27 14.12.2021
4282 Clear -3 975 80 10000 4.12 40 07:43 14.12.2021
4283 Clouds -3 974 80 10000 4.12 70 02:37 14.12.2021
4284 Clear -11 976 78 10000 4.15 48 22:56 13.12.2021
4285 Clear -12 976 79 10000 3.92 39 21:53 13.12.2021
4286 Clouds -3 973 80 10000 9.26 30 21:32 13.12.2021
4287 Clouds -4 974 80 10000 7.2 30 20:42 13.12.2021
4288 Clear -11 975 76 10000 3.78 45 19:52 13.12.2021
4289 Clouds -3 974 63 10000 7.72 30 18:24 13.12.2021
4290 Clouds -3 974 68 10000 8.75 50 17:26 13.12.2021
4291 Clouds -11 977 77 10000 3.6 49 15:54 13.12.2021
4292 Clouds -4 976 74 10000 9.26 40 15:32 13.12.2021
4293 Clouds -5 977 80 10000 8.75 50 13:45 13.12.2021
4294 Clouds -5 978 74 10000 6.17 50 12:49 13.12.2021
4295 Clouds -13 980 79 10000 3.6 47 11:59 13.12.2021
4296 Clouds -5 978 74 10000 3.6 80 11:35 13.12.2021
4297 Clouds -6 978 73 10000 6.69 40 10:47 13.12.2021
4298 Clouds -7 979 73 10000 4.12 40 09:32 13.12.2021
4299 Clouds -14 981 77 10000 3.83 56 07:53 13.12.2021
4300 Clouds -7 982 73 10000 5.66 60 05:36 13.12.2021
4301 Clouds -7 984 79 10000 9.26 60 03:28 13.12.2021
4302 Clouds -7 988 79 10000 7.72 60 23:26 12.12.2021
4303 Snow -7 990 86 6000 9.77 40 21:41 12.12.2021
4304 Snow -7 990 86 10000 9.26 40 20:18 12.12.2021
4305 Clouds -7 992 79 10000 8.23 10 18:43 12.12.2021
4306 Clouds -7 993 86 10000 7.2 10 17:45 12.12.2021
4307 Clouds -7 993 86 10000 7.72 10 16:28 12.12.2021
4308 Clouds -14 995 94 10000 3.37 50 15:50 12.12.2021
4309 Clouds -7 994 86 10000 4.63 10 15:26 12.12.2021
4310 Clouds -6 994 86 10000 5.66 20 14:36 12.12.2021
4311 Clouds -6 995 86 10000 6.17 20 13:33 12.12.2021
4312 Clouds -6 995 86 10000 4.63 10 12:32 12.12.2021
4313 Clouds -5 995 86 10000 3.09 50 11:44 12.12.2021
4314 Clouds -5 995 86 10000 3.09 50 11:24 12.12.2021
4315 Clouds -6 995 93 10000 2.57 50 10:28 12.12.2021
4316 Clouds -7 995 93 10000 3.09 40 09:39 12.12.2021
4317 Clouds -6 995 86 10000 3.6 360 08:34 12.12.2021
4318 Snow -5 995 93 10000 3.6 10 06:20 12.12.2021
4319 Snow -4 995 93 2200 3.09 10 05:22 12.12.2021
4320 Snow -5 995 85 154 5.36 320 03:57 12.12.2021
4321 Snow -4 994 86 3000 2.57 360 23:48 11.12.2021
4322 Snow -4 994 86 1300 3.09 20 22:24 11.12.2021
4323 Snow -5 993 85 194 2.68 360 21:52 11.12.2021
4324 Snow -4 993 86 10000 3.09 360 21:21 11.12.2021
4325 Snow -4 992 93 10000 3.09 60 19:37 11.12.2021
4326 Snow -5 992 92 3481 1.79 350 18:53 11.12.2021
4327 Clouds -4 992 93 10000 2.06 350 18:26 11.12.2021
4328 Clouds -3 991 74 10000 3.6 30 17:37 11.12.2021
4329 Clouds -7 992 85 10000 1.02 58 15:55 11.12.2021
4330 Clouds -3 990 74 10000 2.06 40 15:35 11.12.2021
4331 Clouds -3 990 80 10000 2.57 30 13:21 11.12.2021
4332 Clouds -8 991 80 10000 1.21 55 11:55 11.12.2021
4333 Clouds -10 991 78 10000 1.73 85 09:57 11.12.2021
4334 Clouds -4 988 74 10000 1.54 50 09:34 11.12.2021
4335 Clouds -5 988 80 10000 3.09 50 02:41 11.12.2021
4336 Clouds -5 989 80 10000 3.6 60 00:42 11.12.2021
4337 Clouds -11 990 82 10000 2.84 45 23:39 10.12.2021
4338 Clouds -5 989 80 10000 3.09 40 22:26 10.12.2021
4339 Clouds -5 989 80 10000 3.6 50 21:37 10.12.2021
4340 Clouds -12 990 85 10000 2.71 54 19:55 10.12.2021
4341 Clouds -5 988 80 10000 4.63 60 19:18 10.12.2021
4342 Clouds -5 989 80 10000 5.14 70 17:23 10.12.2021
4343 Clouds -5 990 86 10000 5.66 70 16:32 10.12.2021
4344 Clouds -5 990 80 10000 6.17 70 15:42 10.12.2021
4345 Clouds -5 990 80 10000 6.17 70 15:23 10.12.2021
4346 Clouds -12 993 93 10000 3.22 60 13:53 10.12.2021
4347 Clouds -4 992 93 10000 4.63 70 13:31 10.12.2021
4348 Clouds -11 993 93 10000 3.32 70 12:51 10.12.2021
4349 Snow -3 993 93 5000 2.06 40 11:36 10.12.2021
4350 Clouds -8 994 94 3475 2.98 56 10:55 10.12.2021
4351 Snow -4 995 93 10000 0.51 30 09:33 10.12.2021
4352 Snow -3 996 100 10000 2.06 320 07:24 10.12.2021
4353 Snow -3 998 93 1900 4.12 280 04:32 10.12.2021
4354 Snow -3 999 93 2500 4.63 280 02:29 10.12.2021
4355 Snow -3 999 100 8000 3.6 290 23:40 09.12.2021
4356 Snow -2 999 93 6000 4.12 280 22:41 09.12.2021
4357 Snow -2 999 93 6000 4.12 280 22:21 09.12.2021
4358 Snow -2 998 93 8000 5.14 280 21:39 09.12.2021
4359 Snow -2 998 93 5000 4.12 290 20:34 09.12.2021
4360 Snow -2 996 93 1600 2.57 230 19:38 09.12.2021
4361 Snow -2 996 93 1600 2.57 230 19:19 09.12.2021
4362 Snow -2 995 93 3000 1.54 180 18:18 09.12.2021
4363 Snow -2 994 93 3000 1.54 190 17:47 09.12.2021
4364 Snow -2 994 93 3000 1.54 190 17:24 09.12.2021
4365 Snow -2 993 86 10000 1.54 230 16:25 09.12.2021
4366 Clouds -2 992 80 10000 1.54 20 15:18 09.12.2021
4367 Clouds -2 991 80 10000 2.57 310 14:30 09.12.2021
4368 Clouds -2 988 86 10000 3.09 0 12:48 09.12.2021
4369 Clouds -2 987 86 10000 2.06 0 11:33 09.12.2021
4370 Clouds -2 986 86 10000 1.54 0 10:20 09.12.2021
4371 Clouds -3 982 68 10000 3.09 60 07:34 09.12.2021
4372 Clouds -10 982 79 10000 2.22 58 03:56 09.12.2021
4373 Clouds -1 978 59 10000 4.63 40 00:25 09.12.2021
4374 Clouds 0 978 51 10000 7.72 70 23:37 08.12.2021
4375 Clouds -9 979 79 10000 2.82 33 22:57 08.12.2021
4376 Clouds 0 977 43 10000 8.23 80 22:36 08.12.2021
4377 Clouds -1 977 69 10000 6.69 50 21:38 08.12.2021
4378 Clouds -9 979 76 10000 3.48 45 20:50 08.12.2021
4379 Clouds -8 978 77 10000 3.76 49 19:57 08.12.2021
4380 Clouds 1 976 44 10000 8.75 60 19:20 08.12.2021
4381 Clouds -1 976 74 10000 7.72 60 18:22 08.12.2021
4382 Clouds -7 978 83 10000 3.45 52 16:55 08.12.2021
4383 Clouds -2 975 74 10000 7.72 60 15:45 08.12.2021
4384 Clouds -2 975 74 10000 7.72 60 15:23 08.12.2021
4385 Clouds -4 974 86 10000 8.23 40 13:27 08.12.2021
4386 Snow -6 974 79 1800 8.23 50 10:45 08.12.2021
4387 Snow -6 974 79 1800 8.23 50 10:23 08.12.2021
4388 Snow -7 975 62 10000 5.36 50 08:54 08.12.2021
4389 Snow -8 975 62 10000 5.14 40 06:36 08.12.2021
4390 Snow -9 983 62 10000 10.29 60 01:20 08.12.2021
4391 Clouds -8 989 67 10000 8.75 50 23:29 07.12.2021
4392 Clouds -8 995 53 10000 7.72 80 21:26 07.12.2021
4393 Clouds -8 997 57 10000 6.17 80 20:26 07.12.2021
4394 Clouds -8 997 57 10000 6.17 80 20:26 07.12.2021
4395 Clouds -8 999 53 10000 6.69 70 19:23 07.12.2021
4396 Clouds -8 1002 53 10000 5.66 80 18:32 07.12.2021
4397 Clouds -7 1003 49 10000 4.12 100 17:27 07.12.2021
4398 Clouds -14 1005 79 10000 4.13 80 16:56 07.12.2021
4399 Clouds -7 1004 53 10000 3.6 110 16:26 07.12.2021
4400 Clouds -7 1005 53 10000 7.2 120 14:47 07.12.2021
4401 Clouds -7 1005 63 10000 6.17 110 13:45 07.12.2021
4402 Clouds -7 1006 63 10000 3.6 140 12:27 07.12.2021
4403 Clouds -7 1006 63 10000 3.6 110 11:23 07.12.2021
4404 Snow -7 1005 79 2400 5.66 150 09:40 07.12.2021
4405 Clouds -9 1007 74 10000 4.28 134 07:52 07.12.2021
4406 Snow -9 1006 76 10000 3.17 147 05:54 07.12.2021
4407 Snow -6 1003 73 6000 3.6 130 05:26 07.12.2021
4408 Snow -6 999 79 10000 3.09 240 23:38 06.12.2021
4409 Snow -6 999 86 10000 6.69 250 22:41 06.12.2021
4410 Snow -6 999 86 10000 6.69 250 22:18 06.12.2021
4411 Snow -6 998 79 10000 3.6 210 21:36 06.12.2021
4412 Snow -5 997 68 10000 4.12 230 20:33 06.12.2021
4413 Snow -5 997 68 10000 4.12 230 20:33 06.12.2021
4414 Clouds -5 996 68 10000 4.63 230 19:25 06.12.2021
4415 Clouds -5 995 73 10000 4.47 240 18:55 06.12.2021
4416 Clouds -6 997 69 10000 4.84 245 17:55 06.12.2021
4417 Clouds -5 994 80 10000 4.12 230 17:34 06.12.2021
4418 Clouds -5 994 80 10000 4.12 230 17:34 06.12.2021
4419 Clouds -6 996 70 10000 5.04 238 15:52 06.12.2021
4420 Clouds -6 995 70 10000 5.02 233 14:51 06.12.2021
4421 Clouds -4 991 74 10000 6.17 180 13:36 06.12.2021
4422 Clouds -5 990 80 10000 7.6 210 12:39 06.12.2021
4423 Clouds -4 989 74 10000 6.17 200 10:30 06.12.2021
4424 Clouds -5 989 69 10000 8.74 194 07:59 06.12.2021
4425 Snow -5 986 80 2599 10.11 198 03:52 06.12.2021
4426 Clouds -3 977 74 10000 9.26 180 22:28 05.12.2021
4427 Snow -4 976 86 1700 11.83 190 21:26 05.12.2021
4428 Clouds -3 975 68 10000 11.18 200 20:59 05.12.2021
4429 Clouds -3 975 68 10000 11.32 200 20:18 05.12.2021
4430 Clouds -3 974 74 10000 11.32 200 19:33 05.12.2021
4431 Clouds -3 973 74 10000 11.83 200 18:39 05.12.2021
4432 Clouds -3 973 74 10000 11.83 200 18:19 05.12.2021
4433 Clouds -3 972 86 10000 10.8 200 17:45 05.12.2021
4434 Snow -2 971 80 500 10.29 180 16:45 05.12.2021
4435 Snow -2 971 80 500 10.29 180 16:24 05.12.2021
4436 Clouds -1 970 69 10000 10.8 180 14:49 05.12.2021
4437 Clouds -1 970 69 10000 10.8 180 14:30 05.12.2021
4438 Clouds -1 969 86 10000 9.77 200 13:43 05.12.2021
4439 Clouds 0 968 81 10000 10.73 180 12:55 05.12.2021
4440 Clouds 0 968 80 10000 10.8 180 12:29 05.12.2021
4441 Clouds -1 968 92 10000 8.94 170 11:56 05.12.2021
4442 Clouds 0 970 79 10000 9.39 180 10:52 05.12.2021
4443 Snow -1 966 100 10000 10.73 170 09:58 05.12.2021
4444 Snow 0 963 100 3500 11.83 170 07:33 05.12.2021
4445 Clouds 6 959 39 10000 5.66 100 02:25 05.12.2021
4446 Clouds 6 962 42 10000 9.26 110 23:31 04.12.2021
4447 Clouds 4 963 56 10000 10.45 137 21:54 04.12.2021
4448 Rain 4 964 73 10000 11.41 163 20:55 04.12.2021
4449 Clouds 5 965 61 10000 18.27 145 19:55 04.12.2021
4450 Clouds 9 962 40 10000 9.26 130 19:31 04.12.2021
4451 Clouds 5 962 60 10000 20.51 154 17:59 04.12.2021
4452 Clouds 5 962 70 10000 1.54 0 17:38 04.12.2021
4453 Snow 4 963 81 10000 7.2 60 16:48 04.12.2021
4454 Snow 4 963 81 10000 7.2 60 16:30 04.12.2021
4455 Rain 3 964 81 10000 9.26 70 15:18 04.12.2021
4456 Snow 0 970 97 692 4.65 91 11:50 04.12.2021
4457 Snow 1 970 80 7000 9.26 70 11:32 04.12.2021
4458 Snow 1 970 80 7000 9.26 70 11:32 04.12.2021
4459 Snow 1 971 80 4600 10.29 70 10:43 04.12.2021
4460 Snow -3 976 86 700 13.38 60 08:47 04.12.2021
4461 Snow -3 981 46 1500 12.86 80 06:26 04.12.2021
4462 Snow -3 986 43 6000 9.77 80 04:42 04.12.2021
4463 Clouds -4 994 50 3500 9.77 80 00:24 04.12.2021
4464 Snow -4 996 50 10000 10.29 80 23:26 03.12.2021
4465 Snow -4 996 50 10000 10.29 80 23:26 03.12.2021
4466 Clouds -3 997 46 10000 9.26 80 22:46 03.12.2021
4467 Clouds -3 999 50 10000 7.2 100 21:26 03.12.2021
4468 Clouds -8 1000 65 10000 5.93 79 20:52 03.12.2021
4469 Clouds -8 1001 64 10000 5.85 85 19:53 03.12.2021
4470 Clouds -3 1001 50 10000 5.14 100 18:34 03.12.2021
4471 Clouds -9 1003 68 10000 5.77 88 17:59 03.12.2021
4472 Clouds -4 1003 58 10000 6.17 90 15:47 03.12.2021
4473 Clouds -9 1006 78 10000 4.42 99 12:59 03.12.2021
4474 Clouds -4 1004 58 10000 1.03 0 12:19 03.12.2021
4475 Clouds -5 1004 68 10000 4.02 140 10:55 03.12.2021
4476 Clouds -6 1006 90 10000 3.37 125 08:29 03.12.2021
4477 Clouds -6 1006 90 10000 3.37 125 07:43 03.12.2021
4478 Clouds -5 1006 91 6391 4.87 153 04:44 03.12.2021
4479 Snow -3 1000 73 408 4.92 230 00:48 03.12.2021
4480 Snow -3 1000 73 712 4.92 230 23:47 02.12.2021
4481 Snow -3 1000 73 1551 4.92 230 22:36 02.12.2021
4482 Clouds -3 1000 73 6160 4.92 230 21:41 02.12.2021
4483 Clouds -3 1000 73 10000 4.92 230 20:44 02.12.2021
4484 Clouds -3 1000 73 10000 4.92 230 20:22 02.12.2021
4485 Clouds -3 1000 74 10000 5.14 230 18:36 02.12.2021
4486 Clouds -3 999 80 10000 5.66 220 16:35 02.12.2021
4487 Snow -3 999 80 10000 6.69 220 15:41 02.12.2021
4488 Snow -3 999 80 10000 6.69 220 15:41 02.12.2021
4489 Snow -3 998 86 10000 6.71 220 14:52 02.12.2021
4490 Clouds -3 997 86 10000 8.23 220 13:36 02.12.2021
4491 Snow -3 996 93 2000 8.23 220 12:24 02.12.2021
4492 Snow -2 993 93 3000 9.26 210 10:42 02.12.2021
4493 Snow -3 994 96 149 9.11 232 09:26 02.12.2021
4494 Snow -3 990 96 131 10.59 233 06:59 02.12.2021
4495 Snow 0 974 91 547 2.87 127 01:26 02.12.2021
4496 Clouds 2 975 70 10000 2.24 180 00:26 02.12.2021
4497 Snow 2 975 87 10000 2.57 180 22:31 01.12.2021
4498 Rain 2 975 87 10000 5.66 180 21:44 01.12.2021
4499 Rain 2 975 87 10000 8.75 170 20:23 01.12.2021
4500 Rain 2 975 93 10000 13.07 166 19:40 01.12.2021
4501 Rain 2 973 93 10000 12.35 109 18:47 01.12.2021
4502 Rain 3 973 87 8000 16.98 160 17:24 01.12.2021
4503 Rain 4 972 87 6000 13.89 170 16:21 01.12.2021
4504 Snow 1 973 100 3500 4.12 160 14:35 01.12.2021
4505 Snow -1 972 100 10000 7.2 40 13:37 01.12.2021
4506 Snow 0 997 96 2705 7.15 60 10:44 01.12.2021
4507 Snow 0 997 96 2455 7.15 60 10:22 01.12.2021
4508 Snow 0 997 97 2104 7.15 60 08:52 01.12.2021
4509 Snow 0 997 95 1997 7.15 60 07:59 01.12.2021
4510 Snow 0 997 95 1997 7.15 60 07:31 01.12.2021
4511 Snow -4 994 89 1897 4.88 41 03:57 01.12.2021
4512 Clouds 0 997 80 10000 7.2 60 03:27 01.12.2021
4513 Clouds 0 1006 80 10000 5.66 60 00:44 01.12.2021
4514 Clouds -5 1007 87 10000 3.74 61 23:33 30.11.2021
4515 Clouds -4 1009 88 10000 4.09 51 22:34 30.11.2021
4516 Clouds 0 1011 91 10000 11.18 160 20:47 30.11.2021
4517 Clouds 0 1011 94 4837 11.18 160 20:26 30.11.2021
4518 Snow 0 1011 86 10000 11.32 160 19:39 30.11.2021
4519 Clouds 0 1011 94 1790 11.18 170 18:54 30.11.2021
4520 Snow 0 1011 100 10000 10.29 170 17:47 30.11.2021
4521 Snow 0 1011 100 3500 10.8 170 16:25 30.11.2021
4522 Snow 0 994 100 70 19.67 160 14:35 30.11.2021
4523 Snow 0 994 100 50 19.67 160 13:41 30.11.2021
4524 Snow 0 994 100 50 19.67 160 13:22 30.11.2021
4525 Snow 0 994 100 50 19.67 160 12:40 30.11.2021
4526 Snow 0 994 100 62 19.67 160 11:26 30.11.2021
4527 Snow 0 994 100 62 19.67 160 10:37 30.11.2021
4528 Snow 0 994 100 51 19.67 160 08:59 30.11.2021
4529 Snow 0 994 100 51 19.67 160 08:40 30.11.2021
4530 Snow 1 1002 97 44 14.69 183 08:19 30.11.2021
4531 Snow 0 994 100 44 19.67 160 07:34 30.11.2021
4532 Snow 0 995 96 324 12.66 156 01:52 30.11.2021
4533 Snow 2 994 87 3700 17.49 160 01:31 30.11.2021
4534 Snow 1 996 97 86 10.37 156 23:54 29.11.2021
4535 Snow 2 994 87 6000 3.09 0 23:20 29.11.2021
4536 Snow 3 994 75 10000 4.63 170 22:44 29.11.2021
4537 Snow 3 994 75 10000 4.63 170 22:25 29.11.2021
4538 Rain 3 994 70 10000 3.09 0 21:21 29.11.2021
4539 Clouds 3 995 74 10000 11.62 150 20:56 29.11.2021
4540 Rain 3 993 75 6000 11.83 150 20:22 29.11.2021
4541 Drizzle 3 994 75 8000 8.75 150 19:44 29.11.2021
4542 Drizzle 3 994 75 8000 8.75 150 19:25 29.11.2021
4543 Clouds 1 995 86 10000 11.23 154 18:45 29.11.2021
4544 Clouds 1 996 88 10000 11.46 155 17:22 29.11.2021
4545 Clouds 1 996 88 10000 11.46 155 16:56 29.11.2021
4546 Clouds 1 995 88 10000 11.05 155 16:25 29.11.2021
4547 Clouds 1 995 87 10000 9.85 156 15:24 29.11.2021
4548 Clouds 1 995 87 10000 9.85 156 14:41 29.11.2021
4549 Rain 1 995 98 65 5.91 154 13:28 29.11.2021
4550 Rain 1 995 97 169 6.25 147 12:22 29.11.2021
4551 Rain 1 995 97 169 6.25 147 11:31 29.11.2021
4552 Rain 1 995 99 91 3.42 141 10:27 29.11.2021
4553 Rain 4 994 81 5000 10.29 170 08:30 29.11.2021
4554 Rain 2 996 97 273 7.34 162 05:58 29.11.2021
4555 Clouds 4 992 93 10000 15.95 170 01:35 29.11.2021
4556 Snow 4 992 93 2300 18.01 160 00:36 29.11.2021
4557 Snow 5 991 100 1800 19.55 160 23:42 28.11.2021
4558 Snow 6 991 93 3200 19.03 160 22:30 28.11.2021
4559 Snow 5 993 100 2200 2.57 0 21:41 28.11.2021
4560 Rain 4 994 95 6051 9.94 177 20:58 28.11.2021
4561 Rain 2 993 97 6372 4.1 91 19:55 28.11.2021
4562 Fog 3 995 93 3000 2.06 0 18:45 28.11.2021
4563 Fog 3 995 93 3000 2.06 0 18:26 28.11.2021
4564 Fog 2 996 100 7000 5.66 30 17:49 28.11.2021
4565 Fog 2 996 100 7000 5.66 30 17:27 28.11.2021
4566 Mist 3 997 93 1100 3.6 20 16:28 28.11.2021
4567 Clouds 2 999 98 10000 2.79 150 15:52 28.11.2021
4568 Clouds 2 999 96 10000 3.25 147 14:56 28.11.2021
4569 Mist 4 998 100 1300 7.2 190 14:30 28.11.2021
4570 Rain 4 999 92 10000 9.88 169 12:58 28.11.2021
4571 Rain 4 999 91 10000 11.68 171 11:57 28.11.2021
4572 Snow 6 996 87 2400 15.43 160 10:37 28.11.2021
4573 Snow 6 996 87 2400 15.43 160 10:19 28.11.2021
4574 Rain 6 995 87 2000 16.98 160 09:36 28.11.2021
4575 Rain 4 997 95 7369 11.34 177 05:50 28.11.2021
4576 Rain 7 998 87 3500 8.23 180 23:33 27.11.2021
4577 Rain 7 998 93 4000 15.95 170 20:33 27.11.2021
4578 Rain 6 1001 93 3400 8.23 190 18:49 27.11.2021
4579 Rain 7 1001 87 1300 12.86 170 16:31 27.11.2021
4580 Rain 3 1003 98 2689 4.24 154 15:55 27.11.2021
4581 Rain 6 1002 87 2000 16.98 170 13:47 27.11.2021
4582 Rain 6 1002 93 2000 17.49 170 12:29 27.11.2021
4583 Snow 6 1003 93 1500 18.52 170 10:32 27.11.2021
4584 Rain 2 1006 99 2440 4.47 142 09:51 27.11.2021
4585 Snow 7 1004 87 2100 15.95 170 08:40 27.11.2021
4586 Rain 2 1009 99 566 2.81 111 04:58 27.11.2021
4587 Rain 1 1011 99 1963 3.41 60 01:53 27.11.2021
4588 Rain 1 1012 93 2200 2.57 20 23:35 26.11.2021
4589 Rain 0 1012 100 3000 2.57 0 22:25 26.11.2021
4590 Rain 1 1013 100 1500 1.03 0 21:36 26.11.2021
4591 Rain 1 1014 98 10000 2.87 38 20:53 26.11.2021
4592 Rain 0 1013 100 1500 1.03 70 20:19 26.11.2021
4593 Fog 0 1013 100 1500 4.12 30 19:47 26.11.2021
4594 Rain 0 1014 100 6000 2.06 0 18:33 26.11.2021
4595 Fog 0 1014 93 2500 6.17 40 17:23 26.11.2021
4596 Snow 1 1015 99 342 2.3 60 15:57 26.11.2021
4597 Snow -1 1015 100 3500 5.66 50 13:36 26.11.2021
4598 Snow -1 1015 100 5000 5.14 40 12:40 26.11.2021
4599 Snow 0 1014 100 10000 1.54 180 10:38 26.11.2021
4600 Snow 0 1014 96 513 3.67 56 08:59 26.11.2021
4601 Snow 0 1014 100 5000 3.09 0 08:21 26.11.2021
4602 Snow -1 1015 100 5000 0.51 0 07:33 26.11.2021
4603 Snow -2 1016 100 3200 2.06 60 06:28 26.11.2021
4604 Clouds -4 1019 81 10000 3.24 80 04:51 26.11.2021
4605 Clouds -2 1019 100 10000 1.54 230 03:25 26.11.2021
4606 Snow -2 1023 93 10000 0.51 0 23:27 25.11.2021
4607 Clouds -10 1026 88 10000 4.1 75 21:50 25.11.2021
4608 Snow -1 1025 93 10000 3.6 60 20:37 25.11.2021
4609 Clouds -1 1025 93 10000 2.06 50 18:48 25.11.2021
4610 Clouds -9 1028 92 10000 3.36 69 17:58 25.11.2021
4611 Clouds -1 1026 100 10000 0.51 350 17:26 25.11.2021
4612 Clouds -1 1026 100 10000 2.06 50 16:38 25.11.2021
4613 Clouds -10 1029 94 10000 3.23 83 15:58 25.11.2021
4614 Clouds -1 1026 93 10000 1.54 40 14:19 25.11.2021
4615 Clouds -2 1026 100 10000 1.54 10 12:47 25.11.2021
4616 Clouds -8 1028 97 5632 3.06 67 11:52 25.11.2021
4617 Clouds -4 1025 100 10000 1.03 80 10:25 25.11.2021
4618 Clouds -2 1023 100 10000 2.57 40 06:24 25.11.2021
4619 Clouds -7 1023 99 7956 1.61 26 02:53 25.11.2021
4620 Snow -1 1019 100 8000 3.09 30 23:39 24.11.2021
4621 Snow -1 1018 100 3500 4.12 60 22:28 24.11.2021
4622 Snow 0 1018 93 600 2.57 320 21:45 24.11.2021
4623 Snow 0 1020 98 141 3.58 220 20:58 24.11.2021
4624 Snow 0 1017 100 700 3.6 220 20:26 24.11.2021
4625 Snow 0 1015 99 61 12.07 170 18:58 24.11.2021
4626 Snow 0 1015 100 800 12.35 170 18:18 24.11.2021
4627 Snow 0 1013 100 800 15.95 170 16:20 24.11.2021
4628 Snow 1 1017 97 44 14.12 186 14:57 24.11.2021
4629 Snow 1 1012 100 1600 22.64 170 14:21 24.11.2021
4630 Snow 0 1016 100 54 20.56 170 12:51 24.11.2021
4631 Snow 2 1010 93 2200 24.69 160 11:24 24.11.2021
4632 Rain 2 1010 93 58 23.25 160 10:52 24.11.2021
4633 Rain 2 1010 93 58 23.25 160 10:52 24.11.2021
4634 Rain 2 1010 93 2000 23.66 160 10:34 24.11.2021
4635 Snow 1 1011 100 1900 22.12 160 09:29 24.11.2021
4636 Snow 1 1009 100 2000 25.21 160 07:39 24.11.2021
4637 Snow 1 1010 100 2200 26.75 160 05:23 24.11.2021
4638 Snow 2 1009 100 2500 29.84 160 03:32 24.11.2021
4639 Snow 2 1008 93 1800 22.12 160 23:33 23.11.2021
4640 Snow 2 1010 100 1600 20.58 160 22:38 23.11.2021
4641 Rain 2 1010 100 2000 20.06 160 21:45 23.11.2021
4642 Rain 3 1013 81 1800 12.86 150 20:22 23.11.2021
4643 Snow 1 1015 69 2000 5.14 160 19:33 23.11.2021
4644 Snow -2 1017 46 10000 1.54 100 18:34 23.11.2021
4645 Snow -4 1017 58 10000 3.09 0 17:31 23.11.2021
4646 Snow -5 1020 63 10000 5.66 60 16:37 23.11.2021
4647 Clouds -5 1021 58 10000 5.14 60 15:27 23.11.2021
4648 Clouds -9 1023 72 10000 4.26 81 14:54 23.11.2021
4649 Clouds -5 1023 58 10000 4.63 90 13:20 23.11.2021
4650 Clouds -5 1024 63 10000 5.66 80 10:28 23.11.2021
4651 Clouds -5 1025 74 10000 4.12 90 09:47 23.11.2021
4652 Clouds -5 1025 74 10000 4.63 90 08:41 23.11.2021
4653 Clouds -14 1027 87 10000 3.6 80 04:53 23.11.2021
4654 Clouds -6 1024 86 10000 2.57 80 03:35 23.11.2021
4655 Clouds -6 1023 86 10000 2.06 80 23:41 22.11.2021
4656 Clouds -6 1023 86 10000 2.06 80 23:20 22.11.2021
4657 Clouds -5 1022 86 10000 1.03 180 22:30 22.11.2021
4658 Snow -5 1021 86 10000 2.57 170 21:45 22.11.2021
4659 Snow -5 1021 86 10000 2.57 170 21:21 22.11.2021
4660 Clouds -5 1021 93 10000 1.54 170 20:42 22.11.2021
4661 Clouds -5 1020 80 10000 2.06 120 19:21 22.11.2021
4662 Clouds -4 1019 86 10000 3.09 100 18:41 22.11.2021
4663 Clouds -4 1019 86 10000 3.09 100 18:22 22.11.2021
4664 Clouds -5 1019 80 10000 2.06 110 16:45 22.11.2021
4665 Clouds -5 1018 74 10000 2.06 80 15:32 22.11.2021
4666 Clouds -7 1019 91 10000 2.03 161 12:51 22.11.2021
4667 Snow -3 1016 80 5000 3.09 50 11:39 22.11.2021
4668 Clouds -4 1015 80 10000 1.54 60 10:27 22.11.2021
4669 Clouds -3 1014 68 10000 2.57 70 08:44 22.11.2021
4670 Clouds -3 1014 68 10000 2.57 70 08:24 22.11.2021
4671 Snow -2 1010 93 4600 2.57 60 01:43 22.11.2021
4672 Snow -2 1009 93 2000 0.51 60 23:22 21.11.2021
4673 Snow -2 1009 93 10000 1.54 230 22:46 21.11.2021
4674 Snow -2 1008 93 10000 1.54 180 21:33 21.11.2021
4675 Clouds -2 1007 93 10000 1.03 0 20:38 21.11.2021
4676 Clouds -2 1006 100 10000 1.03 30 19:43 21.11.2021
4677 Clouds -2 1006 100 10000 1.03 30 19:43 21.11.2021
4678 Clouds -10 1008 89 10000 2.47 52 17:59 21.11.2021
4679 Clouds -1 1006 86 10000 2.06 80 17:37 21.11.2021
4680 Clouds -1 1006 86 10000 2.06 80 17:37 21.11.2021
4681 Clouds -1 1007 93 10000 2.57 50 15:22 21.11.2021
4682 Clouds -1 1007 93 10000 3.6 60 14:43 21.11.2021
4683 Clouds -1 1008 93 10000 3.09 60 13:40 21.11.2021
4684 Clouds -1 1008 100 10000 3.09 40 12:32 21.11.2021
4685 Clouds -1 1009 86 10000 3.6 90 11:42 21.11.2021
4686 Clouds -7 1010 91 10000 3.25 102 10:55 21.11.2021
4687 Clouds -2 1009 80 10000 2.57 80 10:18 21.11.2021
4688 Snow 0 1010 74 10000 3.6 160 08:40 21.11.2021
4689 Snow 0 1010 74 10000 3.6 160 08:20 21.11.2021
4690 Snow 0 1010 86 10000 4.12 180 07:41 21.11.2021
4691 Snow 0 1010 93 10000 7.72 190 05:48 21.11.2021
4692 Clouds 0 1009 93 10000 8.23 190 04:37 21.11.2021
4693 Clouds 1 1009 86 10000 10.29 190 03:18 21.11.2021
4694 Clouds 0 1008 93 10000 10.8 190 02:48 21.11.2021
4695 Snow 0 1006 85 10000 11.62 190 00:54 21.11.2021
4696 Snow 0 1004 100 9000 12.35 190 23:43 20.11.2021
4697 Snow 0 1001 100 1200 13.38 190 21:40 20.11.2021
4698 Snow 0 1000 95 362 12.52 190 20:54 20.11.2021
4699 Rain 1 996 93 10000 13.38 190 18:46 20.11.2021
4700 Rain 1 996 93 10000 13.38 190 18:46 20.11.2021
4701 Rain 1 996 93 10000 13.38 190 18:26 20.11.2021
4702 Clouds 0 994 100 10000 13.89 190 17:26 20.11.2021
4703 Snow 1 992 93 3500 14.92 190 16:46 20.11.2021
4704 Snow 1 988 93 2000 19.03 180 14:46 20.11.2021
4705 Snow 1 988 93 2000 19.03 180 14:23 20.11.2021
4706 Snow 0 989 100 4000 1.54 0 12:22 20.11.2021
4707 Snow 0 992 97 62 9.63 161 10:52 20.11.2021
4708 Snow -1 993 93 500 11.32 80 09:39 20.11.2021
4709 Snow -2 996 93 800 12.35 80 07:37 20.11.2021
4710 Snow -2 999 86 1300 11.83 80 05:28 20.11.2021
4711 Snow -4 1002 81 3884 5.55 80 04:50 20.11.2021
4712 Clouds -5 1006 62 6068 5.81 60 01:58 20.11.2021
4713 Clouds -5 1006 58 10000 7.2 50 00:40 20.11.2021
4714 Clouds -6 1007 63 10000 6.69 50 23:43 19.11.2021
4715 Clouds -6 1008 63 10000 7.72 60 22:39 19.11.2021
4716 Clouds -7 1010 62 10000 4.47 50 20:59 19.11.2021
4717 Clouds -7 1009 63 10000 4.63 50 20:37 19.11.2021
4718 Clouds -7 1011 57 10000 4.47 40 19:56 19.11.2021
4719 Clouds -7 1010 58 10000 4.63 40 19:27 19.11.2021
4720 Clouds -7 1010 53 10000 1.03 0 18:43 19.11.2021
4721 Clouds -7 1010 58 10000 3.09 50 17:37 19.11.2021
4722 Clouds -10 1011 66 10000 0.89 110 15:58 19.11.2021
4723 Clouds -13 1013 70 10000 3.53 91 13:57 19.11.2021
4724 Clouds -9 1012 67 10000 2.57 80 10:34 19.11.2021
4725 Clouds -14 1014 72 10000 4.29 73 09:58 19.11.2021
4726 Clouds -9 1012 73 10000 5.66 60 08:32 19.11.2021
4727 Clear -15 1013 75 10000 4 61 04:54 19.11.2021
4728 Clouds -8 1011 67 10000 5.14 50 02:43 19.11.2021
4729 Clear -15 1011 75 10000 3.96 52 23:52 18.11.2021
4730 Clouds -9 1009 73 10000 5.14 70 22:38 18.11.2021
4731 Clear -15 1010 74 10000 3.73 49 20:56 18.11.2021
4732 Clouds -8 1007 67 10000 5.14 60 20:34 18.11.2021
4733 Clear -15 1009 74 10000 3.71 46 19:59 18.11.2021
4734 Clouds -8 1006 62 10000 5.14 70 19:36 18.11.2021
4735 Clouds -8 1006 62 10000 4.12 60 18:35 18.11.2021
4736 Clear -15 1008 73 10000 3.59 47 17:52 18.11.2021
4737 Clouds -9 1005 62 10000 4.12 60 16:46 18.11.2021
4738 Clear -15 1007 74 10000 3.39 33 15:52 18.11.2021
4739 Clear -9 1004 67 10000 7.2 30 14:40 18.11.2021
4740 Clear -17 1005 75 10000 3.7 40 12:55 18.11.2021
4741 Clouds -9 1002 67 10000 6.17 360 11:44 18.11.2021
4742 Clouds -9 1002 67 10000 6.17 360 11:25 18.11.2021
4743 Clouds -9 1002 73 10000 6.69 10 10:24 18.11.2021
4744 Clouds -9 1001 73 10000 6.69 20 08:30 18.11.2021
4745 Clouds -9 1000 67 10000 5.14 360 06:40 18.11.2021
4746 Clouds -9 1000 73 10000 5.14 360 05:44 18.11.2021
4747 Clouds -9 999 73 10000 5.14 360 01:26 18.11.2021
4748 Clouds -9 999 73 10000 5.14 360 01:26 18.11.2021
4749 Clouds -9 998 67 10000 5.14 20 23:35 17.11.2021
4750 Clear -9 997 79 10000 5.14 360 22:40 17.11.2021
4751 Clear -9 997 79 10000 5.14 360 22:19 17.11.2021
4752 Clear -9 997 79 10000 5.14 360 22:19 17.11.2021
4753 Clear -9 996 67 10000 5.66 10 21:35 17.11.2021
4754 Clear -16 997 80 10000 3.23 16 19:51 17.11.2021
4755 Clear -9 994 73 10000 6.17 350 17:35 17.11.2021
4756 Clear -15 995 77 10000 2.73 39 15:56 17.11.2021
4757 Clear -9 993 79 10000 5.14 360 13:41 17.11.2021
4758 Clouds -9 993 67 10000 7.2 0 12:38 17.11.2021
4759 Clear -16 995 78 10000 3.14 48 10:54 17.11.2021
4760 Clear -16 995 78 10000 3.14 48 10:54 17.11.2021
4761 Clear -8 993 73 10000 6.69 10 09:44 17.11.2021
4762 Clouds -9 993 67 10000 7.72 350 08:30 17.11.2021
4763 Clouds -8 994 62 10000 7.2 360 07:41 17.11.2021
4764 Clouds -7 999 53 9000 18.01 10 02:49 17.11.2021
4765 Clouds -8 1003 67 7000 17.49 10 00:42 17.11.2021
4766 Clouds -7 1007 58 10000 11.83 50 22:37 16.11.2021
4767 Clouds -7 1010 68 10000 10.8 40 20:19 16.11.2021
4768 Clear -15 1012 77 10000 5.47 32 19:55 16.11.2021
4769 Clear -14 1013 80 10000 4.92 40 18:52 16.11.2021
4770 Clouds -7 1012 73 10000 4.63 40 18:29 16.11.2021
4771 Clouds -7 1013 73 10000 3.6 80 17:29 16.11.2021
4772 Clouds -8 1014 79 10000 5.14 70 16:31 16.11.2021
4773 Clouds -8 1015 73 10000 6.17 80 15:48 16.11.2021
4774 Clouds -8 1016 86 10000 6.17 60 13:49 16.11.2021
4775 Clouds -13 1018 88 10000 3.32 67 10:52 16.11.2021
4776 Clouds -8 1016 79 10000 4.12 50 09:44 16.11.2021
4777 Clouds -8 1015 79 10000 2.06 60 08:24 16.11.2021
4778 Clouds -8 1016 73 10000 4.12 60 07:30 16.11.2021
4779 Clouds -8 1014 67 10000 2.57 60 01:20 16.11.2021
4780 Clouds -9 1013 67 10000 2.06 110 22:48 15.11.2021
4781 Clouds -9 1013 67 10000 2.06 110 22:20 15.11.2021
4782 Clouds -10 1012 72 10000 2.24 80 21:51 15.11.2021
4783 Clouds -10 1012 73 10000 2.57 80 21:25 15.11.2021
4784 Clouds -8 1011 53 10000 4.12 60 19:41 15.11.2021
4785 Clouds -8 1010 57 10000 4.63 80 18:18 15.11.2021
4786 Clouds -9 1010 73 10000 4.63 60 16:19 15.11.2021
4787 Clouds -10 1009 79 10000 5.14 60 15:40 15.11.2021
4788 Clouds -10 1009 79 10000 5.14 60 15:20 15.11.2021
4789 Clouds -10 1008 73 10000 5.14 60 12:47 15.11.2021
4790 Clouds -16 1010 82 10000 2.93 54 10:54 15.11.2021
4791 Clouds -10 1006 73 10000 2.57 80 09:26 15.11.2021
4792 Clouds -10 1005 67 10000 6.17 70 07:45 15.11.2021
4793 Clouds -10 1004 73 10000 5.14 60 04:46 15.11.2021
4794 Clouds -10 1004 67 10000 5.66 60 23:37 14.11.2021
4795 Clouds -10 1004 67 10000 5.14 80 22:34 14.11.2021
4796 Clear -16 1006 75 10000 3.09 61 19:53 14.11.2021
4797 Clouds -10 1003 52 10000 1.54 70 19:18 14.11.2021
4798 Clear -16 1005 76 10000 3.26 60 18:54 14.11.2021
4799 Clouds -10 1004 57 10000 3.6 60 18:36 14.11.2021
4800 Clouds -10 1004 57 10000 3.6 60 18:18 14.11.2021
4801 Clear -16 1005 75 10000 3.32 58 17:55 14.11.2021
4802 Clouds -10 1003 57 10000 6.17 70 17:37 14.11.2021
4803 Clouds -10 1003 57 10000 6.17 70 17:19 14.11.2021
4804 Clouds -10 1004 62 10000 7.2 70 16:46 14.11.2021
4805 Clouds -10 1004 62 10000 7.2 70 16:20 14.11.2021
4806 Clouds -11 1004 67 10000 7.2 80 15:23 14.11.2021
4807 Clear -11 1004 67 10000 6.69 80 14:49 14.11.2021
4808 Clear -11 1004 67 10000 6.69 80 14:28 14.11.2021
4809 Clear -17 1006 72 10000 3.44 65 13:54 14.11.2021
4810 Clear -11 1004 67 10000 5.66 60 13:35 14.11.2021
4811 Clouds -12 1004 67 10000 5.14 70 12:27 14.11.2021
4812 Clouds -11 1004 62 10000 6.17 60 11:41 14.11.2021
4813 Clear -11 1004 62 10000 8.23 60 10:41 14.11.2021
4814 Clouds -11 1004 62 10000 8.23 60 09:48 14.11.2021
4815 Clear -17 1006 72 10000 3.3 51 08:54 14.11.2021
4816 Clouds -11 1004 62 10000 8.23 30 07:23 14.11.2021
4817 Clouds -10 1003 62 10000 9.77 40 00:26 14.11.2021
4818 Clouds -10 1004 62 10000 9.26 30 22:26 13.11.2021
4819 Clear -17 1006 73 10000 4.02 37 21:57 13.11.2021
4820 Clouds -9 1005 62 10000 11.32 20 21:23 13.11.2021
4821 Clear -9 1005 62 10000 12.35 10 19:47 13.11.2021
4822 Clear -9 1006 62 10000 11.83 20 18:33 13.11.2021
4823 Clear -16 1008 69 10000 4.39 25 17:56 13.11.2021
4824 Clear -9 1007 57 10000 8.75 10 16:38 13.11.2021
4825 Clear -9 1007 57 10000 9.26 10 15:37 13.11.2021
4826 Clear -9 1008 57 10000 8.75 10 14:33 13.11.2021
4827 Clouds -10 1009 62 10000 7.72 30 13:38 13.11.2021
4828 Clouds -9 1009 57 10000 8.23 10 12:28 13.11.2021
4829 Clouds -9 1010 62 10000 9.77 20 11:38 13.11.2021
4830 Clouds -10 1010 57 10000 9.26 20 10:45 13.11.2021
4831 Clouds -10 1010 57 10000 9.26 20 10:23 13.11.2021
4832 Clear -9 1011 53 10000 8.23 30 09:38 13.11.2021
4833 Clear -17 1013 70 10000 4.76 27 08:56 13.11.2021
4834 Clouds -9 1011 53 10000 10.29 20 08:31 13.11.2021
4835 Clear -17 1013 69 10000 5.12 24 05:59 13.11.2021
4836 Clouds -9 1012 67 10000 6.69 360 04:30 13.11.2021
4837 Clouds -10 1014 67 10000 7.2 40 01:38 13.11.2021
4838 Clear -16 1017 72 10000 4.99 15 22:59 12.11.2021
4839 Clouds -9 1015 53 10000 8.23 30 21:49 12.11.2021
4840 Clear -9 1015 53 10000 7.72 40 20:18 12.11.2021
4841 Clear -15 1018 69 10000 4.9 24 19:28 12.11.2021
4842 Clear -9 1016 53 10000 6.17 30 18:46 12.11.2021
4843 Clear -9 1016 53 10000 5.66 60 16:39 12.11.2021
4844 Clear -9 1016 57 10000 6.69 30 15:34 12.11.2021
4845 Clear -16 1018 70 10000 5.27 16 12:54 12.11.2021
4846 Clear -16 1018 70 10000 5.27 16 12:54 12.11.2021
4847 Clear -16 1018 71 10000 4.52 15 10:58 12.11.2021
4848 Clear -8 1017 62 10000 5.66 40 09:45 12.11.2021
4849 Clouds -8 1017 57 10000 7.2 40 08:40 12.11.2021
4850 Clouds -8 1016 73 10000 7.2 360 03:27 12.11.2021
4851 Clouds -8 1016 57 10000 5.14 50 23:43 11.11.2021
4852 Clear -8 1015 57 10000 8.23 30 22:40 11.11.2021
4853 Clouds -8 1015 53 10000 5.66 40 21:29 11.11.2021
4854 Clouds -8 1014 57 10000 6.17 50 20:48 11.11.2021
4855 Clouds -8 1014 57 10000 6.69 40 19:30 11.11.2021
4856 Clouds -8 1014 57 10000 6.17 50 18:22 11.11.2021
4857 Clear -8 1013 57 10000 6.17 60 17:37 11.11.2021
4858 Clear -9 1013 67 10000 6.17 60 15:19 11.11.2021
4859 Clear -9 1013 62 10000 7.2 40 14:36 11.11.2021
4860 Clear -9 1013 62 10000 7.2 40 14:18 11.11.2021
4861 Clear -9 1013 62 10000 6.69 50 13:34 11.11.2021
4862 Clear -16 1014 73 10000 4.87 20 11:57 11.11.2021
4863 Clear -16 1014 74 10000 4.6 25 09:54 11.11.2021
4864 Clouds -9 1011 67 10000 7.2 40 08:28 11.11.2021
4865 Clouds -9 1011 62 10000 6.69 40 06:44 11.11.2021
4866 Clouds -9 1010 67 10000 6.69 360 00:37 11.11.2021
4867 Clouds -9 1009 73 10000 6.17 30 22:38 10.11.2021
4868 Clear -8 1009 67 10000 7.2 20 21:46 10.11.2021
4869 Clear -14 1011 73 10000 3.87 31 20:53 10.11.2021
4870 Clear -14 1010 73 10000 3.89 28 19:50 10.11.2021
4871 Clear -8 1008 73 10000 4.63 70 19:32 10.11.2021
4872 Clouds -8 1007 79 10000 6.17 60 17:19 10.11.2021
4873 Clouds -8 1007 73 10000 5.14 60 15:46 10.11.2021
4874 Clouds -8 1006 67 10000 4.63 60 14:24 10.11.2021
4875 Clear -8 1006 67 10000 5.14 60 13:36 10.11.2021
4876 Clouds -8 1006 67 10000 3.6 80 12:23 10.11.2021
4877 Clouds -8 1005 73 10000 5.66 60 09:18 10.11.2021
4878 Clouds -8 1005 67 10000 5.14 70 08:41 10.11.2021
4879 Clouds -8 1004 67 10000 6.17 70 06:45 10.11.2021
4880 Clouds -14 1007 75 10000 3.11 54 05:58 10.11.2021
4881 Clouds -14 1006 76 10000 3.17 44 01:56 10.11.2021
4882 Clouds -8 1004 73 10000 5.14 60 22:29 09.11.2021
4883 Clear -8 1003 73 10000 5.14 60 20:43 09.11.2021
4884 Clear -7 1003 73 10000 5.14 70 19:33 09.11.2021
4885 Clear -7 1003 73 10000 5.66 70 18:49 09.11.2021
4886 Clear -12 1005 71 10000 3.71 38 16:57 09.11.2021
4887 Clouds -7 1004 73 10000 4.12 60 15:36 09.11.2021
4888 Clear -13 1006 77 10000 3.33 48 13:50 09.11.2021
4889 Clouds -7 1004 73 10000 5.66 60 12:47 09.11.2021
4890 Clouds -8 1004 79 10000 4.63 60 11:18 09.11.2021
4891 Clear -13 1006 80 10000 3.32 53 09:59 09.11.2021
4892 Clouds -7 1004 79 10000 3.6 60 09:21 09.11.2021
4893 Clear -13 1006 81 10000 3.29 57 07:54 09.11.2021
4894 Clear -13 1005 81 10000 2.91 34 02:50 09.11.2021
4895 Clear -13 1005 81 10000 2.87 38 01:55 09.11.2021
4896 Clouds -6 1002 79 10000 2.57 60 01:36 09.11.2021
4897 Clouds -5 1002 86 10000 6.17 10 23:32 08.11.2021
4898 Clouds -5 1001 80 10000 3.09 60 22:47 08.11.2021
4899 Clouds -5 1001 74 10000 2.57 110 21:45 08.11.2021
4900 Clouds -5 1000 86 10000 0 0 20:36 08.11.2021
4901 Clouds -4 1000 80 10000 1.54 230 19:43 08.11.2021
4902 Clouds -4 1000 74 10000 1.54 160 17:48 08.11.2021
4903 Clouds -5 1000 80 10000 2.57 160 15:56 08.11.2021
4904 Clouds -10 1003 75 10000 1.84 73 14:57 08.11.2021
4905 Clouds -5 1000 68 10000 0.51 90 14:34 08.11.2021
4906 Clouds -5 1000 68 10000 3.6 50 13:20 08.11.2021
4907 Clear -12 1003 75 10000 2.65 66 11:55 08.11.2021
4908 Clear -12 1003 74 10000 2.44 56 10:50 08.11.2021
4909 Clear -8 1000 79 10000 2.06 40 09:31 08.11.2021
4910 Clear -12 1003 74 10000 2.49 59 08:52 08.11.2021
4911 Clear -12 1003 74 10000 2.45 44 06:57 08.11.2021
4912 Clouds -6 1001 73 10000 4.63 30 03:38 08.11.2021
4913 Clouds -6 1001 73 10000 4.63 30 03:19 08.11.2021
4914 Clear -4 1003 63 10000 6.17 60 23:33 07.11.2021
4915 Clouds -4 1004 63 10000 5.66 60 21:42 07.11.2021
4916 Clear -10 1005 74 10000 3.8 38 20:51 07.11.2021
4917 Clear -3 1004 54 10000 6.69 60 19:22 07.11.2021
4918 Clear -3 1005 59 10000 5.66 60 17:47 07.11.2021
4919 Clear -3 1005 54 10000 7.2 70 16:49 07.11.2021
4920 Clear -3 1006 59 10000 7.2 80 15:44 07.11.2021
4921 Clear -3 1006 59 10000 6.17 60 14:28 07.11.2021
4922 Clouds -9 1008 74 10000 4.35 66 12:57 07.11.2021
4923 Snow -2 1007 54 10000 9.26 60 11:42 07.11.2021
4924 Snow -2 1007 54 10000 9.26 60 11:42 07.11.2021
4925 Clouds -2 1008 64 10000 8.23 50 09:26 07.11.2021
4926 Clouds -1 1009 59 10000 7.2 80 06:46 07.11.2021
4927 Clouds -1 1010 64 10000 6.69 80 02:32 07.11.2021
4928 Clouds -1 1012 68 10000 2.24 120 22:57 06.11.2021
4929 Clouds -1 1010 69 10000 2.57 120 22:32 06.11.2021
4930 Clouds -2 1010 69 10000 4.12 80 21:32 06.11.2021
4931 Snow -2 1010 74 6611 4.02 80 20:50 06.11.2021
4932 Clouds -2 1010 79 10000 4.47 60 18:56 06.11.2021
4933 Snow -2 1010 86 2000 2.57 180 16:44 06.11.2021
4934 Snow -2 1009 86 10000 2.57 20 14:37 06.11.2021
4935 Snow -1 1009 69 10000 2.57 190 13:38 06.11.2021
4936 Snow -1 1008 74 8000 3.09 170 11:46 06.11.2021
4937 Clouds -1 1007 59 10000 5.14 120 09:23 06.11.2021
4938 Snow -1 1008 78 10000 7.64 173 04:59 06.11.2021
4939 Clouds -2 1006 59 10000 4.63 90 01:47 06.11.2021
4940 Clouds -2 1006 54 10000 0 0 23:35 05.11.2021
4941 Clouds -2 1006 54 10000 1.03 110 22:34 05.11.2021
4942 Clouds -3 1006 59 10000 0 0 21:26 05.11.2021
4943 Clouds -3 1006 50 10000 1.03 80 20:20 05.11.2021
4944 Clouds -2 1006 54 10000 4.12 100 19:40 05.11.2021
4945 Clouds -2 1006 59 10000 5.66 70 18:39 05.11.2021
4946 Clouds -2 1006 59 10000 8.23 70 17:28 05.11.2021
4947 Clouds -2 1007 64 10000 9.26 70 15:38 05.11.2021
4948 Clouds -3 1009 68 10000 7.2 80 13:37 05.11.2021
4949 Clouds -2 1009 59 10000 5.14 90 11:22 05.11.2021
4950 Clouds -6 1011 78 10000 3.11 103 08:40 05.11.2021
4951 Clouds -6 1011 78 10000 3.23 104 07:39 05.11.2021
4952 Clouds -6 1011 80 10000 4.26 103 05:32 05.11.2021
4953 Clouds -3 1012 84 10000 6.12 136 02:26 05.11.2021
4954 Snow -1 1009 74 7698 8.94 150 00:51 05.11.2021
4955 Snow -1 1009 74 10000 9.26 150 23:23 04.11.2021
4956 Snow -1 1009 74 3800 6.69 160 22:19 04.11.2021
4957 Snow -2 1008 80 10000 5.66 170 21:35 04.11.2021
4958 Clouds -1 1010 86 10000 6.71 170 20:50 04.11.2021
4959 Clouds -1 1008 86 10000 6.69 170 20:22 04.11.2021
4960 Snow -1 1007 93 1500 5.66 170 19:47 04.11.2021
4961 Snow -2 1006 100 10000 4.12 200 18:44 04.11.2021
4962 Snow -2 1005 100 10000 4.02 220 17:54 04.11.2021
4963 Snow -1 1007 93 1187 3.57 205 16:47 04.11.2021
4964 Snow -1 1003 93 1400 2.57 290 14:42 04.11.2021
4965 Snow 0 1002 100 1100 2.06 230 12:32 04.11.2021
4966 Snow 1 1002 86 10000 3.09 170 09:42 04.11.2021
4967 Snow 1 1002 86 6000 7.2 160 08:31 04.11.2021
4968 Rain 1 1002 86 10000 9.77 180 07:35 04.11.2021
4969 Snow 0 1001 92 2693 10.28 200 04:47 04.11.2021
4970 Snow 0 996 100 6092 14.31 180 22:53 03.11.2021
4971 Snow 2 993 93 3500 20.06 160 21:49 03.11.2021
4972 Snow 2 993 93 3500 20.06 160 21:30 03.11.2021
4973 Snow 2 991 93 3500 19.03 160 20:37 03.11.2021
4974 Rain 1 995 96 66 14.51 165 19:58 03.11.2021
4975 Rain 2 990 93 5000 18.52 160 19:19 03.11.2021
4976 Rain 2 993 96 56 15.05 174 18:25 03.11.2021
4977 Rain 2 993 96 56 15.05 174 17:36 03.11.2021
4978 Rain 3 987 87 6000 22.12 160 16:26 03.11.2021
4979 Rain 3 986 87 7000 24.69 150 15:44 03.11.2021
4980 Snow 3 987 87 4400 21.61 160 14:25 03.11.2021
4981 Rain 3 989 81 5000 17.49 160 12:33 03.11.2021
4982 Snow 4 988 75 8000 19.55 160 11:27 03.11.2021
4983 Clouds 4 989 75 6000 18.52 160 10:49 03.11.2021
4984 Snow 4 989 75 8000 18.52 160 09:31 03.11.2021
4985 Snow 4 990 75 6000 19.03 160 08:23 03.11.2021
4986 Rain 4 989 70 10000 18.52 160 07:39 03.11.2021
4987 Snow 4 990 81 10000 19.55 160 05:35 03.11.2021
4988 Rain 4 989 86 746 18.33 160 02:50 03.11.2021
4989 Rain 3 992 93 9364 17.13 170 23:56 02.11.2021
4990 Rain 4 987 93 1300 21.61 160 22:47 02.11.2021
4991 Snow 6 986 81 4200 17.49 160 21:45 02.11.2021
4992 Rain 7 986 81 10000 20.06 160 20:34 02.11.2021
4993 Rain 4 989 90 10000 16.46 160 19:54 02.11.2021
4994 Rain 8 986 81 10000 16.46 160 19:18 02.11.2021
4995 Rain 8 988 81 10000 8.23 180 18:26 02.11.2021
4996 Rain 8 988 76 10000 9.77 160 17:43 02.11.2021
4997 Rain 8 990 76 10000 7.2 170 16:31 02.11.2021
4998 Rain 7 990 76 5000 15.95 160 15:48 02.11.2021
4999 Rain 7 992 70 6000 11.32 160 14:31 02.11.2021
5000 Rain 4 993 87 8000 2.57 300 13:28 02.11.2021
5001 Rain 4 994 81 10000 6.17 180 12:45 02.11.2021
5002 Rain 5 995 65 10000 11.83 160 11:38 02.11.2021
5003 Rain 3 997 86 8284 0.89 130 10:54 02.11.2021
5004 Rain 3 996 87 10000 1.03 130 10:30 02.11.2021
5005 Clouds 3 998 87 10000 3.09 10 08:45 02.11.2021
5006 Clouds 4 999 75 10000 5.66 180 07:45 02.11.2021
5007 Clouds 8 1002 57 10000 5.14 180 04:39 02.11.2021
5008 Snow 3 1004 87 10000 5.66 200 02:49 02.11.2021
5009 Rain 4 1006 81 10000 2.57 0 23:32 01.11.2021
5010 Rain 2 1008 93 6000 7.72 180 21:28 01.11.2021
5011 Rain 5 1007 80 6000 14.31 160 20:40 01.11.2021
5012 Rain 2 1010 89 8929 11.97 170 19:58 01.11.2021
5013 Rain 2 1010 89 8929 11.97 170 19:58 01.11.2021
5014 Rain 5 1007 65 10000 14.92 170 19:35 01.11.2021
5015 Rain 6 1007 56 10000 13.89 160 18:23 01.11.2021
5016 Clouds 7 1008 49 10000 11.32 160 17:35 01.11.2021
5017 Clouds 7 1011 48 10000 8.49 160 16:50 01.11.2021
5018 Clouds 7 1011 48 10000 8.49 160 15:56 01.11.2021
5019 Clouds 7 1009 49 10000 8.75 160 15:27 01.11.2021
5020 Clouds 6 1010 52 10000 6.17 170 14:44 01.11.2021
5021 Clouds 6 1010 52 10000 6.17 170 14:23 01.11.2021
5022 Clouds 5 1012 56 10000 6.71 160 13:50 01.11.2021
5023 Clouds 4 1010 70 10000 1.54 0 12:34 01.11.2021
5024 Clouds 4 1011 70 10000 2.06 0 11:26 01.11.2021
5025 Snow 2 1012 93 10000 1.03 10 09:47 01.11.2021
5026 Snow 2 1013 87 10000 1.54 20 08:18 01.11.2021
5027 Snow 3 1013 81 10000 5.66 170 07:40 01.11.2021
5028 Snow 2 1014 87 9000 7.72 170 03:48 01.11.2021
5029 Snow 2 1014 87 5000 10.29 170 01:37 01.11.2021
5030 Rain 2 1013 93 5000 10.8 170 22:32 31.10.2021
5031 Rain 2 1015 97 71 8.77 174 20:50 31.10.2021
5032 Snow 2 1012 93 3500 9.77 180 19:22 31.10.2021
5033 Rain 3 1011 87 5000 9.26 180 18:40 31.10.2021
5034 Rain 3 1011 93 8000 9.77 180 17:32 31.10.2021
5035 Clouds 3 1013 91 10000 10.21 185 15:50 31.10.2021
5036 Rain 2 1009 93 3500 8.75 180 14:23 31.10.2021
5037 Rain 3 1008 87 9000 10.29 170 12:49 31.10.2021
5038 Rain 3 1008 87 10000 9.26 170 11:41 31.10.2021
5039 Snow 2 1007 93 3700 9.77 170 10:43 31.10.2021
5040 Rain 2 1006 100 3800 11.32 170 09:22 31.10.2021
5041 Snow 2 1005 93 6000 10.8 180 08:29 31.10.2021
5042 Rain 1 1000 86 10000 16.46 170 01:37 31.10.2021
5043 Clouds 4 999 65 10000 14.4 180 22:47 30.10.2021
5044 Clouds 6 998 61 10000 20.58 150 21:35 30.10.2021
5045 Clouds 3 999 75 10000 13.89 180 20:44 30.10.2021
5046 Clouds 6 998 56 10000 12.35 160 18:48 30.10.2021
5047 Clouds 5 999 65 10000 8.75 200 17:25 30.10.2021
5048 Clouds 4 1001 64 10000 10.28 180 14:54 30.10.2021
5049 Clouds 4 1002 65 10000 9.77 180 13:40 30.10.2021
5050 Clouds 4 1002 65 10000 9.77 180 13:40 30.10.2021
5051 Clouds 4 1002 65 10000 9.77 180 13:21 30.10.2021
5052 Clouds 1 1003 86 10000 6.69 180 12:47 30.10.2021
5053 Clouds 2 1003 80 10000 7.72 180 11:42 30.10.2021
5054 Clouds 1 1004 86 10000 3.09 150 10:32 30.10.2021
5055 Clouds 0 1004 86 10000 4.92 200 08:53 30.10.2021
5056 Clouds 0 1004 93 10000 0 0 07:25 30.10.2021
5057 Clouds 0 1004 93 10000 2.06 30 05:39 30.10.2021
5058 Snow 0 1004 93 10000 0.51 0 00:47 30.10.2021
5059 Snow 1 1003 93 10000 4.12 190 22:43 29.10.2021
5060 Snow 1 1003 93 10000 4.12 190 22:20 29.10.2021
5061 Clouds 1 1002 93 10000 5.66 180 20:46 29.10.2021
5062 Clouds 1 1002 93 10000 5.66 180 20:18 29.10.2021
5063 Snow 1 1001 93 4500 5.66 180 18:33 29.10.2021
5064 Clouds 0 1001 97 1613 4.02 170 16:54 29.10.2021
5065 Rain 1 1000 86 10000 6.17 180 14:38 29.10.2021
5066 Snow 1 1002 99 58 4.47 174 11:56 29.10.2021
5067 Snow 1 1000 93 9000 5.66 180 10:44 29.10.2021
5068 Snow -1 1001 93 4000 2.06 200 08:41 29.10.2021
5069 Clouds -1 1006 69 10000 5.14 30 00:37 29.10.2021
5070 Clouds -1 1006 69 10000 4.12 40 23:27 28.10.2021
5071 Clouds -1 1006 74 10000 5.66 40 22:18 28.10.2021
5072 Clouds -1 1006 63 10000 4.92 30 20:54 28.10.2021
5073 Clouds -1 1006 63 10000 4.02 50 19:51 28.10.2021
5074 Clouds -1 1006 69 10000 4.12 20 18:27 28.10.2021
5075 Clouds -1 1007 74 10000 4.12 30 17:19 28.10.2021
5076 Clouds -2 1007 80 10000 5.14 50 16:20 28.10.2021
5077 Clouds -2 1007 74 10000 3.09 20 14:39 28.10.2021
5078 Clouds -2 1007 80 10000 4.63 60 13:29 28.10.2021
5079 Clouds -2 1007 74 10000 3.6 40 12:44 28.10.2021
5080 Clouds -3 1007 86 10000 4.47 50 10:58 28.10.2021
5081 Clouds -3 1006 86 10000 4.63 50 09:40 28.10.2021
5082 Clouds -3 1006 86 10000 4.63 50 09:22 28.10.2021
5083 Clouds -2 1006 80 10000 6.69 30 08:35 28.10.2021
5084 Clouds -3 1006 68 10000 4.63 40 07:40 28.10.2021
5085 Clouds -1 1006 69 10000 2.57 50 00:40 28.10.2021
5086 Clouds -2 1006 64 10000 3.6 60 22:36 27.10.2021
5087 Clouds -1 1006 59 10000 3.09 50 21:34 27.10.2021
5088 Clouds -1 1006 63 10000 2.68 60 20:57 27.10.2021
5089 Clouds -1 1006 64 10000 3.09 60 20:38 27.10.2021
5090 Clouds -1 1005 69 10000 3.6 40 19:42 27.10.2021
5091 Clouds -1 1005 63 10000 3.58 40 18:54 27.10.2021
5092 Clouds -2 1005 74 10000 5.14 60 16:49 27.10.2021
5093 Clouds -2 1005 74 10000 5.14 60 16:23 27.10.2021
5094 Clouds -2 1004 74 10000 5.66 40 15:23 27.10.2021
5095 Clear -3 1005 74 10000 4.63 40 13:42 27.10.2021
5096 Clouds -2 1003 68 10000 6.71 40 10:59 27.10.2021
5097 Clouds -2 1003 69 10000 6.69 40 10:36 27.10.2021
5098 Clouds -2 1002 58 10000 5.36 50 08:58 27.10.2021
5099 Clouds -2 1002 69 10000 5.66 50 07:39 27.10.2021
5100 Clouds -1 1002 55 10000 5.66 60 05:37 27.10.2021
5101 Clear -1 1001 59 10000 5.14 60 01:21 27.10.2021
5102 Clouds -1 1001 51 10000 4.12 50 00:39 27.10.2021
5103 Clear -1 1000 54 10000 5.81 40 23:52 26.10.2021
5104 Clear -1 1000 64 10000 4.12 50 22:44 26.10.2021
5105 Clear -1 1000 64 10000 4.12 50 22:21 26.10.2021
5106 Clear 0 999 55 10000 5.14 40 21:32 26.10.2021
5107 Clear 0 999 59 10000 6.17 40 19:34 26.10.2021
5108 Clear 0 998 47 10000 6.71 50 18:54 26.10.2021
5109 Sand 0 998 51 10000 5.66 40 17:45 26.10.2021
5110 Clear 0 997 43 10000 9.26 60 15:46 26.10.2021
5111 Clear -1 997 59 10000 6.17 40 12:33 26.10.2021
5112 Clear -2 996 63 10000 4.92 360 10:54 26.10.2021
5113 Clear -3 995 63 10000 5.66 30 08:24 26.10.2021
5114 Clear -2 995 69 10000 6.69 10 07:22 26.10.2021
5115 Clouds -3 994 54 10000 7.2 60 00:19 26.10.2021
5116 Clear -4 994 58 10000 7.72 60 23:36 25.10.2021
5117 Clear -4 994 50 10000 6.69 60 22:29 25.10.2021
5118 Clear -3 994 50 10000 6.17 50 21:42 25.10.2021
5119 Sand -3 994 46 10000 7.2 50 20:37 25.10.2021
5120 Sand -3 994 43 10000 8.75 50 19:43 25.10.2021
5121 Sand -3 994 43 10000 8.75 50 19:22 25.10.2021
5122 Sand -4 994 42 10000 9.26 60 18:38 25.10.2021
5123 Sand -4 995 42 10000 8.75 50 17:26 25.10.2021
5124 Clear -6 995 53 10000 7.6 30 14:53 25.10.2021
5125 Clouds -6 996 49 10000 5.14 40 12:33 25.10.2021
5126 Clear -5 996 63 10000 9.77 10 10:47 25.10.2021
5127 Clear -5 999 58 10000 8.49 20 08:58 25.10.2021
5128 Clear -4 996 58 10000 7.2 360 07:19 25.10.2021
5129 Clouds -4 997 58 10000 7.2 10 04:35 25.10.2021
5130 Clear -5 998 53 10000 4.02 60 00:52 25.10.2021
5131 Clouds -4 998 54 10000 4.12 60 00:33 25.10.2021
5132 Clear -3 998 50 10000 4.12 60 23:41 24.10.2021
5133 Clear -3 998 43 10000 3.6 60 22:39 24.10.2021
5134 Clear -3 998 43 10000 3.6 60 22:19 24.10.2021
5135 Clear -3 998 46 10000 4.12 60 21:18 24.10.2021
5136 Clouds -2 999 46 10000 4.63 50 20:34 24.10.2021
5137 Clouds -2 998 40 10000 4.12 60 19:40 24.10.2021
5138 Clouds -2 999 43 10000 4.63 60 18:29 24.10.2021
5139 Clouds -2 999 37 10000 5.14 60 17:44 24.10.2021
5140 Clear -3 999 42 10000 5.36 60 15:56 24.10.2021
5141 Clouds -3 999 43 10000 7.2 60 14:42 24.10.2021
5142 Clouds -3 999 42 10000 8.49 70 12:58 24.10.2021
5143 Clouds -3 998 46 10000 8.75 70 11:45 24.10.2021
5144 Clouds -3 998 46 10000 8.75 70 11:26 24.10.2021
5145 Clouds -3 999 46 10000 8.75 60 10:28 24.10.2021
5146 Clouds -2 1001 39 10000 3.52 37 07:59 24.10.2021
5147 Clouds -2 1001 54 10000 5.14 50 01:25 24.10.2021
5148 Clouds -2 1001 54 10000 5.36 50 23:51 23.10.2021
5149 Clouds -2 1002 50 10000 5.66 50 22:32 23.10.2021
5150 Clouds -2 1002 54 10000 4.63 30 20:37 23.10.2021
5151 Clouds -2 1002 50 10000 4.02 50 18:59 23.10.2021
5152 Clouds -2 1002 50 10000 4.12 50 18:30 23.10.2021
5153 Clouds -2 1002 50 10000 5.66 350 17:43 23.10.2021
5154 Clear -2 1002 50 10000 5.14 10 16:38 23.10.2021
5155 Clear -4 1003 54 10000 4.63 360 14:35 23.10.2021
5156 Clouds -2 1001 46 10000 12.35 10 09:45 23.10.2021
5157 Clouds -1 998 55 10000 15.95 20 00:28 23.10.2021
5158 Clear -1 997 59 10000 13.38 10 23:23 22.10.2021
5159 Clear 0 995 45 10000 14.75 10 20:55 22.10.2021
5160 Clear 0 994 44 10000 14.31 10 18:57 22.10.2021
5161 Sand 1 995 47 10000 15.95 20 17:44 22.10.2021
5162 Clear 0 995 49 10000 14.75 10 15:57 22.10.2021
5163 Sand 0 995 59 10000 13.38 10 14:30 22.10.2021
5164 Clouds -1 996 64 10000 9.26 360 12:41 22.10.2021
5165 Clear 0 996 58 10000 11.18 20 10:50 22.10.2021
5166 Clear -1 997 63 10000 7.6 60 09:56 22.10.2021
5167 Clear -1 997 63 10000 7.6 60 09:56 22.10.2021
5168 Clear -1 997 63 10000 7.6 60 09:56 22.10.2021
5169 Clear -1 996 64 10000 7.72 60 09:32 22.10.2021
5170 Clouds -1 998 69 10000 7.72 30 07:28 22.10.2021
5171 Clouds -1 999 69 10000 6.17 30 06:19 22.10.2021
5172 Clouds -2 1002 80 10000 5.66 20 00:31 22.10.2021
5173 Clouds -2 1003 86 10000 6.17 20 23:48 21.10.2021
5174 Clouds -2 1003 86 10000 7.72 40 22:22 21.10.2021
5175 Clouds -1 1004 86 10000 7.72 30 21:18 21.10.2021
5176 Clouds -1 1004 86 10000 6.69 40 20:21 21.10.2021
5177 Clouds -1 1006 86 10000 4.12 40 19:30 21.10.2021
5178 Clouds -1 1006 86 10000 4.02 30 18:52 21.10.2021
5179 Clouds -1 1006 86 10000 4.12 30 18:27 21.10.2021
5180 Clouds -2 1008 93 10000 3.09 50 17:47 21.10.2021
5181 Clouds -1 1009 86 10000 0.51 0 16:26 21.10.2021
5182 Clouds -1 1009 86 10000 0.51 340 15:21 21.10.2021
5183 Clouds -1 1010 86 10000 0.88 318 14:50 21.10.2021
5184 Clouds -2 1010 93 10000 1.54 200 13:27 21.10.2021
5185 Clear -3 1011 100 10000 1.54 170 11:46 21.10.2021
5186 Clear -3 1011 93 10000 0.51 130 09:24 21.10.2021
5187 Clear -3 1012 100 10000 3.6 20 07:32 21.10.2021
5188 Clouds -2 1014 93 10000 5.14 360 05:33 21.10.2021
5189 Clear -2 1018 93 10000 4.12 30 00:22 21.10.2021
5190 Snow -2 1020 100 700 5.66 360 22:22 20.10.2021
5191 Clear 0 1021 69 10000 5.36 20 21:46 20.10.2021
5192 Clear 0 1021 69 10000 5.36 20 20:57 20.10.2021
5193 Clouds 1 1021 69 10000 5.66 20 20:37 20.10.2021
5194 Clear 0 1022 69 10000 4.92 40 19:59 20.10.2021
5195 Clear 1 1022 69 10000 5.14 40 19:18 20.10.2021
5196 Clear 1 1023 64 10000 5.66 20 18:29 20.10.2021
5197 Clear 0 1024 52 10000 4.92 60 15:57 20.10.2021
5198 Clouds 0 1025 69 10000 1.54 100 13:46 20.10.2021
5199 Clear 0 1025 63 10000 1.34 140 09:50 20.10.2021
5200 Clouds 2 1024 55 10000 2.06 240 05:28 20.10.2021
5201 Clear 4 1023 32 10000 3.04 160 00:53 20.10.2021
5202 Clear 4 1023 33 10000 0.51 0 00:28 20.10.2021
5203 Clear 2 1022 55 7000 0.51 0 22:28 19.10.2021
5204 Clear 3 1021 48 10000 4.12 60 21:33 19.10.2021
5205 Clear 6 1021 28 10000 0.51 310 20:26 19.10.2021
5206 Clear 6 1021 39 10000 0.51 240 19:50 19.10.2021
5207 Clear 6 1020 39 10000 1.03 170 19:29 19.10.2021
5208 Clear 5 1020 38 10000 1.54 0 18:23 19.10.2021
5209 Clear 5 1020 42 10000 0 0 17:20 19.10.2021
5210 Clear 3 1019 38 10000 0 0 15:26 19.10.2021
5211 Clear 1 1019 44 10000 0.51 110 14:31 19.10.2021
5212 Clear 3 1018 32 10000 1.54 90 13:49 19.10.2021
5213 Clear 3 1016 29 10000 7.15 80 11:58 19.10.2021
5214 Clear 3 1016 30 10000 7.2 80 11:23 19.10.2021
5215 Clear 4 1016 26 10000 10.29 60 09:42 19.10.2021
5216 Clear 3 1016 27 10000 12.52 70 08:56 19.10.2021
5217 Clouds 1 1019 34 10000 7.2 80 00:36 19.10.2021
5218 Clear 0 1019 34 10000 4.92 70 23:56 18.10.2021
5219 Clouds 1 1019 34 10000 5.14 70 23:22 18.10.2021
5220 Clear 0 1019 37 10000 1.79 40 22:55 18.10.2021
5221 Clouds 0 1019 55 10000 2.06 40 22:18 18.10.2021
5222 Clouds 3 1019 32 10000 0 0 20:46 18.10.2021
5223 Clouds 3 1019 32 10000 0 0 20:21 18.10.2021
5224 Clear 3 1018 30 10000 1.03 190 19:31 18.10.2021
5225 Clear 2 1018 24 10000 1.89 122 18:58 18.10.2021
5226 Clear 2 1018 24 10000 1.89 122 18:58 18.10.2021
5227 Clear 0 1017 27 10000 3.09 110 16:33 18.10.2021
5228 Clear 0 1017 29 10000 6.17 60 14:42 18.10.2021
5229 Clear -1 1016 46 10000 7.15 60 11:59 18.10.2021
5230 Clear -1 1016 59 10000 10.29 60 09:48 18.10.2021
5231 Clear -1 1017 64 10000 5.14 50 07:46 18.10.2021
5232 Clear 0 1018 69 10000 5.66 30 00:30 18.10.2021
5233 Clear 0 1019 74 10000 4.12 40 22:48 17.10.2021
5234 Clear 1 1019 69 10000 4.12 50 21:44 17.10.2021
5235 Clear 2 1018 59 10000 4.47 40 20:57 17.10.2021
5236 Clear 2 1018 59 10000 4.47 40 20:25 17.10.2021
5237 Clear 2 1018 59 10000 4.47 40 19:38 17.10.2021
5238 Clear 2 1018 59 10000 4.47 40 18:35 17.10.2021
5239 Clear 1 1018 64 10000 1.03 0 16:49 17.10.2021
5240 Clear 0 1018 69 10000 1.03 0 14:40 17.10.2021
5241 Clear 0 1018 69 10000 1.03 0 14:22 17.10.2021
5242 Clear 1 1018 64 10000 4.12 60 13:33 17.10.2021
5243 Clear 0 1018 63 10000 6.71 60 11:54 17.10.2021
5244 Clouds 1 1017 64 10000 1.54 0 10:20 17.10.2021
5245 Clouds 0 1017 74 10000 1.03 50 09:22 17.10.2021
5246 Clear 0 1017 70 10000 0.45 110 06:55 17.10.2021
5247 Clear 1 1013 75 10000 2.57 40 00:49 17.10.2021
5248 Clear 2 1012 60 10000 4.12 30 23:33 16.10.2021
5249 Clear 3 1012 60 10000 5.14 40 21:29 16.10.2021
5250 Clear 3 1011 65 10000 4.63 60 20:30 16.10.2021
5251 Clear 3 1011 60 10000 6.17 60 19:43 16.10.2021
5252 Clear 3 1011 60 10000 6.17 60 19:20 16.10.2021
5253 Clear 3 1011 65 10000 6.69 60 18:46 16.10.2021
5254 Clear 3 1011 65 10000 6.69 60 18:28 16.10.2021
5255 Clear 2 1011 69 10000 6.71 60 17:53 16.10.2021
5256 Clear 2 1011 69 10000 6.69 60 17:21 16.10.2021
5257 Clear 0 1011 61 10000 8.05 40 13:59 16.10.2021
5258 Clear 0 1011 93 10000 7.72 40 11:26 16.10.2021
5259 Clouds 1 1011 86 10000 8.75 40 10:25 16.10.2021
5260 Clear 0 1012 72 10000 4.47 50 06:51 16.10.2021
5261 Clouds 2 1013 93 10000 6.17 50 01:25 16.10.2021
5262 Clouds 2 1013 93 10000 6.17 50 01:25 16.10.2021
5263 Clouds 2 1013 93 10000 6.17 50 01:25 16.10.2021
5264 Clear 3 1013 86 10000 4.47 60 23:50 15.10.2021
5265 Clear 4 1013 81 10000 5.14 60 22:24 15.10.2021
5266 Clear 2 1014 93 10000 5.36 50 21:56 15.10.2021
5267 Clear 2 1014 93 10000 5.36 50 21:24 15.10.2021
5268 Clear 2 1014 93 10000 5.36 50 20:45 15.10.2021
5269 Clouds 2 1014 93 10000 5.66 50 19:26 15.10.2021
5270 Fog 1 1015 93 10000 6.17 20 18:40 15.10.2021
5271 Fog 4 1015 93 10000 5.14 80 16:28 15.10.2021
5272 Fog 2 1016 100 10000 4.63 50 15:28 15.10.2021
5273 Fog 1 1017 100 10000 5.66 40 12:41 15.10.2021
5274 Fog 1 1018 100 350 5.66 30 11:26 15.10.2021
5275 Mist 1 1018 100 1500 5.66 30 10:42 15.10.2021
5276 Clouds 2 1019 93 10000 7.15 60 08:59 15.10.2021
5277 Clouds 2 1020 100 10000 4.12 60 05:31 15.10.2021
5278 Clouds 4 1022 87 10000 4.12 180 00:48 15.10.2021
5279 Clouds 4 1022 87 10000 4.12 180 00:21 15.10.2021
5280 Clouds 5 1022 75 10000 6.71 170 22:51 14.10.2021
5281 Rain 6 1022 70 10000 5.66 150 21:44 14.10.2021
5282 Rain 6 1021 75 10000 7.72 150 20:38 14.10.2021
5283 Rain 6 1021 75 10000 7.72 150 20:18 14.10.2021
5284 Rain 6 1022 81 10000 7.72 170 19:32 14.10.2021
5285 Rain 4 1022 93 9000 6.17 200 17:26 14.10.2021
5286 Drizzle 6 1022 81 10000 8.75 160 16:49 14.10.2021
5287 Drizzle 5 1022 87 10000 8.23 160 15:35 14.10.2021
5288 Rain 5 1021 81 10000 9.77 160 14:41 14.10.2021
5289 Rain 5 1021 81 10000 9.26 160 13:37 14.10.2021
5290 Clouds 4 1021 87 10000 7.72 170 11:44 14.10.2021
5291 Clouds 4 1020 69 10000 8.49 180 09:55 14.10.2021
5292 Clouds 2 1019 85 10000 8.94 200 06:55 14.10.2021
5293 Clouds 0 1020 81 10000 3.58 200 00:58 14.10.2021
5294 Clouds 0 1019 81 10000 3.58 200 00:22 14.10.2021
5295 Fog 1 1016 93 10000 4.47 190 21:53 13.10.2021
5296 Fog 1 1016 93 10000 3.09 190 21:32 13.10.2021
5297 Clouds 0 1015 80 10000 4.02 190 19:58 13.10.2021
5298 Fog 1 1014 93 500 5.36 200 18:49 13.10.2021
5299 Clouds 0 1014 79 10000 4.02 200 17:55 13.10.2021
5300 Fog 1 1014 93 500 5.66 180 15:32 13.10.2021
5301 Fog 1 1014 100 2000 2.57 190 14:45 13.10.2021
5302 Fog 1 1014 100 2000 2.57 190 14:21 13.10.2021
5303 Clouds 0 1013 93 10000 3.09 170 12:22 13.10.2021
5304 Clouds 2 1013 80 10000 0 0 11:34 13.10.2021
5305 Clear 1 1012 93 10000 4.63 40 08:41 13.10.2021
5306 Clear 0 1013 75 10000 7.6 50 06:51 13.10.2021
5307 Clouds 1 1015 93 10000 4.63 40 02:28 13.10.2021
5308 Clouds 1 1015 93 10000 0.51 60 01:43 13.10.2021
5309 Clouds 1 1016 86 10000 5.14 30 23:30 12.10.2021
5310 Clouds 3 1017 75 10000 5.14 40 22:46 12.10.2021
5311 Clouds 4 1017 72 10000 4.47 50 21:50 12.10.2021
5312 Clouds 3 1017 75 10000 5.14 20 20:34 12.10.2021
5313 Clouds 2 1017 73 10000 4.47 50 19:57 12.10.2021
5314 Clouds 3 1018 81 10000 4.63 20 18:36 12.10.2021
5315 Clouds 2 1019 75 10000 2.24 340 17:51 12.10.2021
5316 Clouds 2 1018 87 10000 0 0 16:39 12.10.2021
5317 Clouds 2 1018 80 10000 1.53 353 15:58 12.10.2021
5318 Clouds 1 1019 93 10000 0.51 30 14:45 12.10.2021
5319 Clouds 1 1019 86 10000 0 0 13:43 12.10.2021
5320 Clouds 1 1019 86 10000 0.51 0 12:39 12.10.2021
5321 Clouds 1 1018 86 10000 1.03 180 09:46 12.10.2021
5322 Clouds 1 1017 86 10000 1.54 160 08:43 12.10.2021
5323 Clouds 2 1016 80 10000 2.06 160 07:36 12.10.2021
5324 Clouds 3 1015 70 10000 1.03 0 05:31 12.10.2021
5325 Clouds 3 1016 70 10000 4.12 40 04:32 12.10.2021
5326 Clouds 3 1015 70 10000 5.14 50 00:28 12.10.2021
5327 Clouds 3 1015 70 10000 4.63 40 23:40 11.10.2021
5328 Clouds 5 1015 60 10000 3.58 50 22:57 11.10.2021
5329 Clouds 4 1015 70 10000 4.12 50 21:46 11.10.2021
5330 Clouds 4 1015 70 10000 4.63 50 20:47 11.10.2021
5331 Clouds 3 1015 81 10000 5.66 40 19:45 11.10.2021
5332 Clouds 3 1016 81 10000 4.63 40 18:43 11.10.2021
5333 Clouds 3 1016 75 10000 6.17 50 17:49 11.10.2021
5334 Clouds 2 1016 87 10000 7.72 60 16:39 11.10.2021
5335 Clouds 2 1017 68 10000 5.81 50 15:51 11.10.2021
5336 Clouds 2 1017 87 10000 6.17 50 15:23 11.10.2021
5337 Clouds 2 1017 80 10000 5.66 50 14:42 11.10.2021
5338 Clouds 2 1017 80 10000 7.72 40 13:37 11.10.2021
5339 Clouds 2 1017 75 10000 7.6 60 11:52 11.10.2021
5340 Clouds 2 1018 87 10000 5.66 50 10:43 11.10.2021
5341 Clouds 2 1018 87 10000 5.66 50 09:37 11.10.2021
5342 Clouds 2 1018 87 10000 5.14 50 07:29 11.10.2021
5343 Clouds 4 1018 70 10000 4.12 50 01:41 11.10.2021
5344 Clouds 4 1019 64 10000 0.45 230 00:50 11.10.2021
5345 Rain 4 1019 65 10000 0.51 230 00:28 11.10.2021
5346 Clouds 2 1019 69 10000 2.24 20 21:57 10.10.2021
5347 Clouds 2 1019 69 10000 2.57 20 21:32 10.10.2021
5348 Clouds 5 1019 52 10000 3.09 120 20:48 10.10.2021
5349 Clouds 5 1019 52 10000 3.09 120 20:21 10.10.2021
5350 Clouds 4 1019 60 10000 4.92 60 19:59 10.10.2021
5351 Clouds 4 1019 60 10000 5.14 60 19:36 10.10.2021
5352 Clouds 2 1019 75 10000 3.09 0 18:36 10.10.2021
5353 Clouds 4 1019 55 10000 0.58 75 16:57 10.10.2021
5354 Clouds 2 1020 69 10000 6.17 60 15:47 10.10.2021
5355 Clouds 1 1021 80 10000 3.6 40 14:42 10.10.2021
5356 Clouds 1 1022 80 10000 1.54 220 13:34 10.10.2021
5357 Clouds 1 1021 80 10000 0.51 0 12:35 10.10.2021
5358 Clouds 1 1022 75 10000 1.54 130 10:44 10.10.2021
5359 Clouds 1 1022 80 10000 0 0 09:31 10.10.2021
5360 Clouds 0 1023 74 10000 2.97 82 08:54 10.10.2021
5361 Clouds 0 1023 74 10000 1.79 320 07:53 10.10.2021
5362 Clouds 1 1024 86 10000 1.03 0 03:20 10.10.2021
5363 Clouds 0 1024 80 10000 4.02 200 00:58 10.10.2021
5364 Clouds 1 1024 80 10000 4.12 200 00:33 10.10.2021
5365 Clouds 1 1024 80 10000 4.63 200 23:20 09.10.2021
5366 Clouds 1 1023 80 10000 4.63 200 21:48 09.10.2021
5367 Clouds 1 1023 80 10000 4.63 200 21:29 09.10.2021
5368 Clouds 2 1022 75 10000 5.14 200 19:45 09.10.2021
5369 Clouds 2 1022 75 10000 5.14 200 19:20 09.10.2021
5370 Clouds 2 1022 75 10000 5.14 200 18:33 09.10.2021
5371 Clouds 2 1021 80 10000 4.63 200 17:21 09.10.2021
5372 Clouds 2 1021 69 10000 2.06 200 16:19 09.10.2021
5373 Clouds -1 1020 86 10000 2.06 150 13:46 09.10.2021
5374 Clear 1 1021 70 10000 2.5 173 12:54 09.10.2021
5375 Clear -1 1019 74 10000 1.03 90 11:48 09.10.2021
5376 Clear -2 1018 80 10000 1.54 130 10:42 09.10.2021
5377 Clear -1 1020 86 10000 3.58 40 09:53 09.10.2021
5378 Clear -1 1017 80 10000 3.6 60 08:30 09.10.2021
5379 Clear -1 1017 93 10000 2.57 60 07:49 09.10.2021
5380 Clear -1 1017 93 10000 1.54 50 05:39 09.10.2021
5381 Clear 0 1016 86 10000 2.57 50 03:44 09.10.2021
5382 Clear 0 1016 86 10000 3.09 50 02:41 09.10.2021
5383 Clear 0 1015 69 10000 2.24 40 23:52 08.10.2021
5384 Clear 3 1015 47 10000 2.24 343 22:59 08.10.2021
5385 Clear 3 1015 48 10000 0 0 22:25 08.10.2021
5386 Clear 3 1014 44 10000 2.06 340 21:35 08.10.2021
5387 Clouds 3 1014 41 10000 2.06 20 19:39 08.10.2021
5388 Clouds 2 1014 51 10000 3.09 40 17:36 08.10.2021
5389 Clear 2 1014 59 10000 0.89 60 16:53 08.10.2021
5390 Clouds 2 1014 60 10000 1.03 60 16:24 08.10.2021
5391 Clear -1 1014 80 10000 4.63 20 14:18 08.10.2021
5392 Clear -1 1014 80 10000 4.12 20 13:36 08.10.2021
5393 Clear 0 1013 64 10000 4.12 30 11:40 08.10.2021
5394 Clear -1 1013 74 10000 3.09 20 10:42 08.10.2021
5395 Clear 0 1012 74 10000 5.14 20 09:46 08.10.2021
5396 Clear 1 1011 51 10000 3.6 40 00:35 08.10.2021
5397 Clear 1 1011 47 10000 4.12 60 23:22 07.10.2021
5398 Clouds 2 1011 64 10000 3.09 30 21:47 07.10.2021
5399 Clouds 2 1011 64 10000 3.09 30 21:28 07.10.2021
5400 Clouds 3 1011 44 10000 4.63 60 20:28 07.10.2021
5401 Clouds 2 1011 60 10000 4.12 20 19:31 07.10.2021
5402 Clouds 2 1011 55 10000 5.14 20 18:27 07.10.2021
5403 Clouds 3 1011 48 10000 4.63 40 17:27 07.10.2021
5404 Clear 2 1012 51 10000 4.47 50 15:58 07.10.2021
5405 Clouds 2 1011 48 10000 5.14 60 14:48 07.10.2021
5406 Clouds 2 1011 48 10000 5.14 60 13:43 07.10.2021
5407 Clouds 1 1011 55 10000 4.12 50 12:49 07.10.2021
5408 Clouds 2 1011 51 10000 4.47 60 10:57 07.10.2021
5409 Clouds 2 1011 51 10000 4.63 60 10:22 07.10.2021
5410 Clouds 3 1010 48 10000 6.17 70 09:34 07.10.2021
5411 Clouds 2 1010 59 10000 5.36 60 08:53 07.10.2021
5412 Clouds 3 1010 51 10000 4.92 50 07:57 07.10.2021
5413 Clouds 3 1010 52 10000 5.14 50 07:37 07.10.2021
5414 Clouds 2 1011 69 10000 5.66 60 04:24 07.10.2021
5415 Clouds 3 1011 65 10000 4.12 60 00:29 07.10.2021
5416 Clouds 4 1011 60 10000 2.24 50 22:59 06.10.2021
5417 Clouds 4 1011 60 10000 2.57 50 22:24 06.10.2021
5418 Clouds 4 1011 60 10000 1.54 150 21:24 06.10.2021
5419 Clouds 4 1011 60 10000 2.57 140 20:28 06.10.2021
5420 Clouds 4 1011 65 10000 1.03 0 18:43 06.10.2021
5421 Clouds 2 1010 75 10000 3.6 60 17:26 06.10.2021
5422 Clouds 4 1010 60 10000 1.45 66 15:37 06.10.2021
5423 Clouds 4 1010 60 10000 1.03 0 14:41 06.10.2021
5424 Clouds 5 1010 56 10000 6.17 160 13:24 06.10.2021
5425 Clouds 5 1010 52 10000 5.66 160 12:46 06.10.2021
5426 Clouds 5 1010 52 10000 5.66 160 12:24 06.10.2021
5427 Clouds 4 1010 56 10000 8.23 160 10:37 06.10.2021
5428 Clouds 3 1010 70 10000 7.72 160 09:39 06.10.2021
5429 Clouds 4 1011 70 10000 7.74 164 08:58 06.10.2021
5430 Clouds 3 1010 75 10000 7.2 160 08:30 06.10.2021
5431 Clouds 1 1009 93 10000 10.8 180 05:38 06.10.2021
5432 Clouds 0 1009 76 10000 7.6 190 01:56 06.10.2021
5433 Clouds 3 1009 81 10000 6.17 190 00:22 06.10.2021
5434 Clouds 4 1009 64 10000 4.92 190 23:51 05.10.2021
5435 Clouds 4 1009 65 10000 5.14 190 23:29 05.10.2021
5436 Clouds 4 1009 75 10000 5.66 190 22:30 05.10.2021
5437 Clouds 4 1009 75 10000 5.66 190 22:30 05.10.2021
5438 Clouds 5 1009 60 10000 4.47 200 21:56 05.10.2021
5439 Clouds 5 1009 60 10000 4.47 200 21:56 05.10.2021
5440 Clouds 6 1009 60 10000 4.47 200 21:19 05.10.2021
5441 Clouds 7 1009 49 10000 5.14 200 20:26 05.10.2021
5442 Clouds 7 1010 48 10000 3.58 190 19:50 05.10.2021
5443 Clouds 7 1010 49 10000 3.6 190 19:22 05.10.2021
5444 Clouds 8 1010 42 10000 3.09 190 18:20 05.10.2021
5445 Clouds 4 1012 55 10000 7.15 50 15:28 05.10.2021
5446 Clear 3 1012 65 10000 6.17 30 13:49 05.10.2021
5447 Clear 3 1012 65 10000 6.17 30 13:18 05.10.2021
5448 Clear 5 1012 52 10000 6.69 40 12:33 05.10.2021
5449 Clear 4 1012 56 10000 1.54 0 11:41 05.10.2021
5450 Clouds 2 1013 69 10000 6.17 50 10:34 05.10.2021
5451 Clear 2 1014 74 10000 3.76 57 06:59 05.10.2021
5452 Fog 1 1015 93 2000 6.69 20 01:28 05.10.2021
5453 Clouds 2 1016 56 10000 5.36 10 22:53 04.10.2021
5454 Fog 2 1015 75 10000 2.57 350 21:23 04.10.2021
5455 Clouds 5 1015 60 10000 2.57 40 18:48 04.10.2021
5456 Clouds 3 1016 65 10000 1.03 260 17:26 04.10.2021
5457 Clouds 2 1016 69 10000 2.57 60 15:32 04.10.2021
5458 Clouds 2 1016 75 10000 1.03 0 14:45 04.10.2021
5459 Clouds 4 1016 72 10000 0.97 69 13:59 04.10.2021
5460 Clouds 1 1016 86 10000 3.09 60 13:31 04.10.2021
5461 Fog 1 1016 75 10000 0.51 350 12:50 04.10.2021
5462 Clouds 0 1016 74 10000 0 0 11:33 04.10.2021
5463 Clouds 2 1016 64 10000 1.03 120 10:45 04.10.2021
5464 Clouds 1 1016 69 10000 0.51 100 09:35 04.10.2021
5465 Clouds 2 1015 77 10000 2.16 181 07:53 04.10.2021
5466 Clouds 3 1015 86 10000 2.24 190 06:50 04.10.2021
5467 Clouds 4 1015 84 10000 3.84 178 22:51 03.10.2021
5468 Clouds 4 1014 80 10000 4.06 178 21:54 03.10.2021
5469 Clouds 4 1014 80 10000 4.06 178 21:31 03.10.2021
5470 Clouds 9 1012 43 10000 7.2 160 20:45 03.10.2021
5471 Clouds 8 1012 49 10000 5.14 200 19:46 03.10.2021
5472 Clear 5 1012 44 10000 4.02 50 18:29 03.10.2021
5473 Clear 4 1011 52 10000 6.69 40 17:37 03.10.2021
5474 Clouds 4 1011 52 10000 9.77 60 15:29 03.10.2021
5475 Clouds 2 1011 69 10000 7.2 50 14:30 03.10.2021
5476 Clouds 3 1011 56 10000 6.17 50 13:35 03.10.2021
5477 Clouds 3 1011 60 10000 7.2 60 12:47 03.10.2021
5478 Clear 2 1011 69 10000 7.2 60 11:37 03.10.2021
5479 Clear 0 1011 80 10000 4.47 40 09:58 03.10.2021
5480 Clear 3 1013 70 10000 5.66 40 05:38 03.10.2021
5481 Clouds 4 1016 61 10000 4.47 20 22:59 02.10.2021
5482 Clouds 5 1017 60 10000 3.58 20 21:59 02.10.2021
5483 Clouds 7 1018 45 10000 3.6 20 20:33 02.10.2021
5484 Clouds 4 1019 51 10000 5.36 50 18:57 02.10.2021
5485 Clouds 4 1019 52 10000 5.66 50 18:20 02.10.2021
5486 Clouds 5 1019 52 10000 5.14 40 17:38 02.10.2021
5487 Clouds 3 1020 65 10000 6.69 40 16:39 02.10.2021
5488 Clouds 2 1022 59 10000 4.47 40 07:51 02.10.2021
5489 Clouds 0 1024 74 10000 3.6 40 15:37 30.09.2021
5490 Clouds -1 1024 86 10000 1.79 40 14:22 30.09.2021
5491 Clouds -2 1024 92 10000 2.68 60 11:58 30.09.2021
5492 Clouds 1 1025 46 10000 3.96 9 10:55 30.09.2021
5493 Clouds -1 1023 86 10000 3.6 50 10:25 30.09.2021
5494 Clouds 0 1023 86 10000 2.57 90 08:31 30.09.2021
5495 Clouds -1 1022 86 10000 2.57 90 07:45 30.09.2021
5496 Clouds -1 1022 86 10000 1.54 50 05:25 30.09.2021
5497 Clouds 0 1021 80 10000 1.54 50 02:33 30.09.2021
5498 Clouds 0 1020 74 10000 2.06 50 00:32 30.09.2021
5499 Clouds 3 1018 65 10000 2.06 270 22:41 29.09.2021
5500 Clouds 3 1017 52 10000 1.54 0 21:42 29.09.2021
5501 Clouds 3 1016 44 10000 1.03 320 20:31 29.09.2021
5502 Clear 3 1016 34 10000 0.89 50 19:59 29.09.2021
5503 Clear 3 1016 35 10000 1.03 50 19:22 29.09.2021
5504 Clear 3 1015 41 10000 1.03 0 18:18 29.09.2021
5505 Clear 0 1013 50 10000 3.58 60 16:55 29.09.2021
5506 Clear 1 1013 51 10000 3.6 60 16:27 29.09.2021
5507 Clear 0 1012 59 10000 4.12 40 15:24 29.09.2021
5508 Clouds -1 1012 69 10000 4.63 50 14:37 29.09.2021
5509 Clouds -1 1011 59 10000 2.57 50 13:33 29.09.2021
5510 Clouds -1 1011 59 10000 5.14 50 12:38 29.09.2021
5511 Clouds -1 1010 64 10000 4.12 60 11:20 29.09.2021
5512 Clear -2 1010 74 10000 3.6 60 10:28 29.09.2021
5513 Clouds -1 1010 69 10000 4.63 50 09:41 29.09.2021
5514 Clear -1 1010 63 10000 3.58 60 07:51 29.09.2021
5515 Clear -1 1010 74 10000 4.12 50 06:27 29.09.2021
5516 Clear 1 1012 80 10000 2.06 170 00:28 29.09.2021
5517 Clear 2 1012 69 10000 5.66 210 22:26 28.09.2021
5518 Clear 3 1012 60 10000 5.81 210 21:54 28.09.2021
5519 Clear 3 1012 60 10000 5.81 210 21:19 28.09.2021
5520 Clear 3 1012 52 10000 7.72 200 19:49 28.09.2021
5521 Clear 3 1012 52 10000 7.72 200 19:29 28.09.2021
5522 Clear 3 1012 44 10000 7.72 200 18:41 28.09.2021
5523 Clear 2 1012 47 10000 1.34 50 16:54 28.09.2021
5524 Clear 1 1012 51 10000 0.51 220 15:21 28.09.2021
5525 Clear -1 1012 59 10000 1.03 140 13:27 28.09.2021
5526 Clear -1 1012 55 10000 0.51 150 12:25 28.09.2021
5527 Clear -1 1012 59 10000 3.09 70 11:48 28.09.2021
5528 Clear -1 1012 59 10000 3.09 70 11:27 28.09.2021
5529 Clear -1 1012 55 10000 3.09 70 10:30 28.09.2021
5530 Clouds -1 1012 59 10000 0.51 0 09:29 28.09.2021
5531 Clear -1 1012 55 7000 2.06 100 08:44 28.09.2021
5532 Clear -1 1012 55 7000 2.06 100 08:20 28.09.2021
5533 Clear 1 1012 44 10000 5.66 50 06:46 28.09.2021
5534 Clear 1 1014 51 10000 5.14 70 01:38 28.09.2021
5535 Clear 0 1014 59 10000 5.14 60 00:32 28.09.2021
5536 Clear 1 1014 55 10000 6.17 40 23:49 27.09.2021
5537 Clear 1 1014 55 10000 6.17 40 23:25 27.09.2021
5538 Clear 2 1014 35 10000 5.66 60 22:31 27.09.2021
5539 Clear 2 1014 41 10000 6.17 40 21:38 27.09.2021
5540 Clear 2 1015 44 10000 4.63 50 20:29 27.09.2021
5541 Clear 2 1015 48 10000 4.63 50 19:40 27.09.2021
5542 Clear 0 1015 50 10000 5.81 50 18:54 27.09.2021
5543 Clear 1 1016 51 10000 6.17 50 17:41 27.09.2021
5544 Clear 1 1016 51 10000 6.17 50 17:21 27.09.2021
5545 Clear 1 1016 47 10000 6.69 50 16:37 27.09.2021
5546 Clear 0 1016 55 10000 5.14 60 15:39 27.09.2021
5547 Clear -1 1017 63 10000 4.47 60 13:57 27.09.2021
5548 Clear -1 1017 64 10000 3.6 70 12:26 27.09.2021
5549 Clear 0 1017 52 10000 4.47 80 10:51 27.09.2021
5550 Clear 0 1017 59 10000 5.14 60 09:46 27.09.2021
5551 Clear -1 1017 69 10000 3.6 60 08:26 27.09.2021
5552 Clear 0 1018 60 10000 2.24 70 04:51 27.09.2021
5553 Clear 0 1015 57 10000 2.68 40 00:21 27.09.2021
5554 Clear 0 1015 58 10000 2.68 40 22:27 26.09.2021
5555 Clear 0 1015 58 10000 2.68 40 21:31 26.09.2021
5556 Clear 0 1015 59 10000 2.68 40 20:45 26.09.2021
5557 Clear 0 1015 61 10000 2.68 40 20:18 26.09.2021
5558 Clear 0 1018 61 10000 2.68 40 19:36 26.09.2021
5559 Clear 0 1017 61 10000 2.68 40 18:45 26.09.2021
5560 Clear 0 1017 60 10000 2.68 40 17:49 26.09.2021
5561 Clear 0 1017 57 10000 2.68 40 17:20 26.09.2021
5562 Clear 0 1015 59 10000 3.09 40 16:28 26.09.2021
5563 Clear -1 1017 63 10000 2.68 60 15:56 26.09.2021
5564 Clear -1 1015 64 10000 2.06 50 14:45 26.09.2021
5565 Clear -3 1014 68 10000 2.57 60 13:45 26.09.2021
5566 Clouds -2 1014 64 10000 3.09 60 12:33 26.09.2021
5567 Clear -3 1016 73 10000 2.24 60 11:59 26.09.2021
5568 Clear -3 1014 74 10000 2.57 60 11:37 26.09.2021
5569 Clear -3 1014 74 10000 2.57 60 10:23 26.09.2021
5570 Clear -2 1015 68 10000 2.68 60 08:55 26.09.2021
5571 Clear -1 1015 55 10000 2.57 40 03:26 26.09.2021
5572 Clear 0 1016 47 10000 4.12 40 00:20 26.09.2021
5573 Clear 1 1016 44 10000 4.12 40 23:23 25.09.2021
5574 Clear 1 1016 40 10000 3.6 40 22:37 25.09.2021
5575 Clear 0 1016 40 10000 4.92 50 21:55 25.09.2021
5576 Clear 1 1016 40 10000 5.14 50 21:30 25.09.2021
5577 Clear 1 1016 44 10000 4.12 40 20:45 25.09.2021
5578 Clear 0 1017 47 10000 5.14 40 18:47 25.09.2021
5579 Clear 0 1018 51 10000 7.72 20 17:47 25.09.2021
5580 Clear -1 1018 59 10000 6.69 30 15:41 25.09.2021
5581 Clear -2 1019 68 10000 7.15 20 13:57 25.09.2021
5582 Clear -2 1019 69 10000 7.2 20 13:30 25.09.2021
5583 Clear -1 1019 63 10000 8.05 20 11:54 25.09.2021
5584 Clear -2 1020 51 10000 7.36 19 10:34 25.09.2021
5585 Clear -1 1020 51 10000 7.05 19 09:26 25.09.2021
5586 Clear -1 1020 51 10000 6.86 19 07:55 25.09.2021
5587 Clear 0 1020 51 10000 7.2 14 05:46 25.09.2021
5588 Clear 2 1017 43 10000 8.94 40 23:50 24.09.2021
5589 Clouds 2 1017 51 10000 6.69 20 21:42 24.09.2021
5590 Clouds 1 1017 55 10000 7.2 10 20:33 24.09.2021
5591 Clouds 1 1016 60 10000 6.69 20 19:47 24.09.2021
5592 Clouds 1 1016 55 10000 5.14 20 18:33 24.09.2021
5593 Clouds 0 1016 55 10000 4.47 20 17:54 24.09.2021
5594 Clouds 1 1016 55 10000 4.63 20 17:36 24.09.2021
5595 Clouds 1 1016 55 10000 4.63 20 17:18 24.09.2021
5596 Clouds -1 1017 63 10000 4.47 20 13:57 24.09.2021
5597 Clouds -1 1015 63 10000 4.92 360 12:58 24.09.2021
5598 Clouds -1 1015 64 10000 5.14 360 12:39 24.09.2021
5599 Clouds -1 1015 64 10000 5.14 360 12:20 24.09.2021
5600 Clouds -1 1014 59 10000 5.14 20 10:25 24.09.2021
5601 Clouds -1 1015 43 10000 3.87 26 08:29 24.09.2021
5602 Clouds -1 1015 43 10000 3.87 26 07:34 24.09.2021
5603 Clouds 0 1015 43 10000 3.62 21 06:45 24.09.2021
5604 Clouds 0 1015 44 10000 2.87 355 04:54 24.09.2021
5605 Clear 0 1014 55 10000 4.63 342 23:57 23.09.2021
5606 Clouds 1 1012 60 10000 5.14 340 22:22 23.09.2021
5607 Clear 1 1013 51 10000 5.53 334 21:52 23.09.2021
5608 Clear 2 1011 41 10000 1.54 30 20:34 23.09.2021
5609 Clear 2 1010 41 10000 3.09 70 19:31 23.09.2021
5610 Clear 1 1011 40 10000 3.77 337 17:46 23.09.2021
5611 Clouds 0 1008 64 10000 2.06 20 15:30 23.09.2021
5612 Clouds -1 1009 39 10000 3.92 23 14:59 23.09.2021
5613 Clouds -2 1007 64 10000 2.06 50 13:45 23.09.2021
5614 Clouds -2 1007 64 10000 2.06 50 13:20 23.09.2021
5615 Clouds -2 1008 41 10000 4.72 22 12:52 23.09.2021
5616 Clouds -2 1006 69 10000 3.09 30 12:22 23.09.2021
5617 Clouds -1 1005 55 10000 4.12 20 11:32 23.09.2021
5618 Clouds -1 1004 64 10000 4.63 20 10:25 23.09.2021
5619 Clouds -2 1006 41 10000 4.39 23 09:52 23.09.2021
5620 Clouds -2 1002 69 10000 2.57 70 08:21 23.09.2021
5621 Clouds -1 1002 46 10000 5.19 15 03:50 23.09.2021
5622 Clouds 2 999 44 10000 4.12 30 23:24 22.09.2021
5623 Clouds 2 999 44 10000 4.12 40 22:29 22.09.2021
5624 Clouds 2 1001 36 10000 5.38 7 21:55 22.09.2021
5625 Clouds 2 999 41 10000 4.63 50 21:33 22.09.2021
5626 Clouds 2 999 44 10000 4.12 50 20:54 22.09.2021
5627 Clouds 2 1000 44 10000 4.63 40 19:32 22.09.2021
5628 Clouds 1 1000 55 10000 5.66 50 18:39 22.09.2021
5629 Clouds 2 1001 39 10000 5.89 22 17:48 22.09.2021
5630 Clouds 1 1002 40 10000 5.56 29 16:38 22.09.2021
5631 Clouds 1 1002 51 10000 6.69 50 15:19 22.09.2021
5632 Clouds 0 1003 55 10000 7.2 40 13:48 22.09.2021
5633 Clouds -1 1005 52 10000 7.1 42 11:59 22.09.2021
5634 Clouds -1 1006 53 10000 6.24 43 10:52 22.09.2021
5635 Clouds 0 1004 59 10000 4.63 50 09:25 22.09.2021
5636 Clouds 0 1005 64 10000 6.17 40 08:29 22.09.2021
5637 Clouds 0 1005 74 10000 5.14 60 07:21 22.09.2021
5638 Clouds 0 1008 55 10000 4.84 46 05:56 22.09.2021
5639 Clouds 0 1007 86 10000 5.14 70 05:34 22.09.2021
5640 Clouds 1 1009 54 10000 4.22 48 03:52 22.09.2021
5641 Clouds 1 1008 86 10000 3.6 50 00:37 22.09.2021
5642 Clouds 1 1008 86 10000 0 0 23:24 21.09.2021
5643 Clouds 1 1008 86 10000 3.09 220 21:37 21.09.2021
5644 Clouds 2 1010 63 10000 1.62 140 20:27 21.09.2021
5645 Clouds 1 1011 56 10000 1.53 57 19:22 21.09.2021
5646 Clouds 1 1011 57 10000 1.45 72 17:49 21.09.2021
5647 Clouds 1 1009 75 10000 3.6 160 16:38 21.09.2021
5648 Clouds 1 1011 58 10000 1.93 122 15:52 21.09.2021
5649 Clouds 1 1011 60 10000 2.83 113 14:58 21.09.2021
5650 Clouds 1 1011 63 10000 3.27 107 13:57 21.09.2021
5651 Clouds 0 1009 86 10000 3.09 160 13:39 21.09.2021
5652 Snow 0 1009 80 2600 0.51 0 12:40 21.09.2021
5653 Clouds 0 1009 74 10000 0 0 10:33 21.09.2021
5654 Clouds 0 1009 74 10000 1.54 100 08:41 21.09.2021
5655 Clouds 0 1009 80 10000 1.03 110 07:20 21.09.2021
5656 Clouds 1 1013 72 10000 3.67 326 01:52 21.09.2021
5657 Clouds 2 1011 75 10000 3.09 330 22:42 20.09.2021
5658 Clouds 1 1011 86 10000 5.14 340 21:42 20.09.2021
5659 Clouds 2 1013 66 10000 7.42 330 20:58 20.09.2021
5660 Clouds 2 1011 69 10000 5.14 330 19:46 20.09.2021
5661 Clouds 3 1011 66 10000 5.62 319 17:54 20.09.2021
5662 Rain 3 1011 66 10000 5.32 322 16:57 20.09.2021
5663 Rain 3 1011 68 10000 5.43 324 15:57 20.09.2021
5664 Rain 1 1011 80 10000 1.54 20 15:34 20.09.2021
5665 Rain 1 1011 80 10000 2.06 10 14:26 20.09.2021
5666 Snow 0 1010 100 10000 2.06 50 12:44 20.09.2021
5667 Snow 0 1010 100 10000 2.06 50 12:22 20.09.2021
5668 Snow 0 1009 93 10000 0 0 10:49 20.09.2021
5669 Snow 0 1009 100 3800 0.51 0 09:48 20.09.2021
5670 Snow 0 1009 100 3800 0.51 0 09:29 20.09.2021
5671 Snow 0 1009 100 10000 1.54 290 08:35 20.09.2021
5672 Rain 1 1008 86 10000 2.57 310 06:21 20.09.2021
5673 Clouds 3 1004 64 10000 6.17 316 22:57 19.09.2021
5674 Clouds 3 1003 63 10000 6.19 316 21:50 19.09.2021
5675 Clouds 3 1002 62 10000 5.65 304 20:59 19.09.2021
5676 Clouds 3 1001 56 10000 3.25 300 19:54 19.09.2021
5677 Clouds 3 1000 50 10000 2.8 311 18:53 19.09.2021
5678 Clouds 3 1000 50 10000 2.8 311 18:53 19.09.2021
5679 Clouds 5 998 56 10000 1.54 40 17:42 19.09.2021
5680 Clouds 4 997 48 10000 1.54 40 16:35 19.09.2021
5681 Clouds 2 997 75 10000 2.57 10 15:32 19.09.2021
5682 Clouds 1 996 80 10000 3.6 10 14:49 19.09.2021
5683 Clouds 2 998 50 10000 3.75 13 13:57 19.09.2021
5684 Clouds 1 998 53 10000 3.96 19 12:56 19.09.2021
5685 Clouds 1 995 75 10000 4.63 30 11:49 19.09.2021
5686 Clouds 1 995 75 10000 4.63 30 11:22 19.09.2021
5687 Clouds 2 997 57 10000 3.48 27 09:51 19.09.2021
5688 Clouds 1 995 86 10000 4.63 30 09:23 19.09.2021
5689 Clouds 1 996 80 10000 5.66 50 06:49 19.09.2021
5690 Clear 2 997 80 10000 2.57 10 01:36 19.09.2021
5691 Clear 5 997 60 10000 2.57 360 23:19 18.09.2021
5692 Clear 4 998 56 10000 3.02 330 21:56 18.09.2021
5693 Clear 6 996 56 10000 2.57 50 20:46 18.09.2021
5694 Clouds 4 998 51 10000 1.66 2 19:58 18.09.2021
5695 Clear 6 996 56 10000 3.09 60 19:36 18.09.2021
5696 Clear 6 996 56 10000 3.09 60 19:18 18.09.2021
5697 Clear 5 995 60 10000 3.6 60 18:30 18.09.2021
5698 Clouds 3 996 65 10000 3.09 40 16:35 18.09.2021
5699 Clouds 2 997 55 10000 2.09 336 13:59 18.09.2021
5700 Clouds 0 995 100 10000 2.57 0 13:31 18.09.2021
5701 Clouds 2 996 56 10000 2.45 359 12:52 18.09.2021
5702 Clouds 2 995 57 10000 2.26 14 11:59 18.09.2021
5703 Clouds 1 995 93 10000 4.12 50 11:29 18.09.2021
5704 Clouds 1 996 86 10000 2.08 29 10:30 18.09.2021
5705 Clouds 1 996 86 10000 2.08 29 10:30 18.09.2021
5706 Clouds 0 996 93 10000 1.37 359 09:23 18.09.2021
5707 Clouds 0 996 93 10000 0.68 346 08:24 18.09.2021
5708 Clouds 3 1001 65 10000 1.08 208 00:53 18.09.2021
5709 Clouds 3 1002 64 10000 1.31 254 23:56 17.09.2021
5710 Clouds 3 1002 64 10000 2.16 268 22:48 17.09.2021
5711 Clouds 4 1002 60 10000 1.64 293 22:23 17.09.2021
5712 Clouds 6 1001 56 10000 3.09 250 21:32 17.09.2021
5713 Clouds 6 1001 52 10000 1.54 320 19:34 17.09.2021
5714 Clouds 6 1001 49 10000 1.54 50 18:40 17.09.2021
5715 Clear 4 1001 60 10000 2.57 30 16:42 17.09.2021
5716 Clear 2 1002 80 10000 3.09 20 15:21 17.09.2021
5717 Clouds 2 1002 56 10000 2.39 354 11:51 17.09.2021
5718 Clouds 2 1001 75 10000 3.09 40 10:21 17.09.2021
5719 Clouds 2 1001 69 10000 3.6 40 07:48 17.09.2021
5720 Clouds 1 1001 80 10000 3.6 40 05:45 17.09.2021
5721 Clouds 3 1003 75 10000 1.03 340 00:32 17.09.2021
5722 Clouds 3 1003 70 10000 1.03 300 22:42 16.09.2021
5723 Clouds 3 1003 70 10000 1.03 300 22:23 16.09.2021
5724 Clouds 5 1003 56 10000 2.06 320 21:35 16.09.2021
5725 Clouds 4 1003 60 10000 1.54 300 20:30 16.09.2021
5726 Clouds 4 1004 51 10000 1.64 176 18:52 16.09.2021
5727 Clouds 3 1003 56 10000 4.12 40 18:18 16.09.2021
5728 Clouds 2 1004 75 10000 4.63 40 16:47 16.09.2021
5729 Clouds 2 1005 64 10000 2.57 40 14:49 16.09.2021
5730 Clouds 2 1006 69 10000 0.51 90 13:34 16.09.2021
5731 Clouds 1 1006 64 10000 0 0 12:45 16.09.2021
5732 Clouds 2 1007 50 10000 2.53 49 11:50 16.09.2021
5733 Clouds 2 1007 50 10000 2.53 49 11:50 16.09.2021
5734 Clouds 2 1007 50 10000 2.18 40 10:56 16.09.2021
5735 Clouds 1 1006 69 10000 3.6 50 10:22 16.09.2021
5736 Clouds 1 1007 69 10000 3.6 40 09:31 16.09.2021
5737 Clouds 2 1008 54 10000 2.82 24 07:52 16.09.2021
5738 Clouds 2 1009 54 10000 3.5 19 06:57 16.09.2021
5739 Clouds 1 1008 64 10000 4.12 50 06:38 16.09.2021
5740 Clouds 1 1009 64 10000 3.09 30 03:22 16.09.2021
5741 Clouds 3 1011 53 10000 4.24 2 00:53 16.09.2021
5742 Clouds 4 1009 38 10000 3.09 10 23:30 15.09.2021
5743 Clouds 4 1009 38 10000 4.12 30 22:39 15.09.2021
5744 Clouds 4 1009 41 10000 3.6 40 21:31 15.09.2021
5745 Clouds 4 1009 41 10000 4.63 20 20:49 15.09.2021
5746 Clouds 4 1009 38 10000 4.63 40 19:33 15.09.2021
5747 Clouds 3 1009 44 10000 4.12 20 18:45 15.09.2021
5748 Clouds 3 1009 44 10000 3.6 20 17:42 15.09.2021
5749 Clouds 2 1009 51 10000 3.6 30 16:43 15.09.2021
5750 Clouds 2 1009 51 10000 3.6 30 16:43 15.09.2021
5751 Clouds 1 1009 60 10000 4.63 20 15:22 15.09.2021
5752 Clouds 0 1009 64 10000 5.14 30 14:42 15.09.2021
5753 Clouds 0 1008 64 10000 5.66 30 13:47 15.09.2021
5754 Clouds 0 1008 64 10000 5.66 30 13:28 15.09.2021
5755 Clouds 0 1008 59 10000 5.66 20 12:33 15.09.2021
5756 Clear -1 1009 55 10000 5.55 21 11:51 15.09.2021
5757 Clear -1 1009 55 10000 5.55 21 11:51 15.09.2021
5758 Clear -1 1009 55 10000 5.57 16 10:58 15.09.2021
5759 Clear 0 1007 69 10000 5.14 30 10:33 15.09.2021
5760 Clear 0 1008 55 10000 5.73 10 08:51 15.09.2021
5761 Clouds 0 1006 69 10000 4.12 30 07:26 15.09.2021
5762 Clear 1 1004 69 10000 3.09 30 02:21 15.09.2021
5763 Clouds 4 1003 45 10000 6.17 10 22:26 14.09.2021
5764 Clouds 4 1002 45 10000 6.69 30 21:26 14.09.2021
5765 Clouds 4 1002 45 10000 7.2 30 20:21 14.09.2021
5766 Clouds 3 1001 44 10000 7.2 20 19:23 14.09.2021
5767 Clouds 2 1001 51 10000 8.75 20 17:33 14.09.2021
5768 Clouds 2 1001 51 10000 10.29 20 16:43 14.09.2021
5769 Clouds 1 1001 51 10000 8.75 20 15:24 14.09.2021
5770 Clouds 1 1001 60 10000 9.77 20 14:19 14.09.2021
5771 Clouds 1 1001 64 10000 9.77 10 11:47 14.09.2021
5772 Clear 1 1001 69 10000 9.26 10 10:44 14.09.2021
5773 Clouds 1 1001 69 10000 10.8 20 09:49 14.09.2021
5774 Clear 1 1002 57 10000 9.69 8 07:58 14.09.2021
5775 Clear 2 1003 59 10000 7.87 9 02:55 14.09.2021
5776 Clear 3 1004 52 10000 7.2 50 23:29 13.09.2021
5777 Clouds 4 1004 52 10000 7.72 20 22:28 13.09.2021
5778 Clear 4 1004 58 10000 6.64 353 21:56 13.09.2021
5779 Clouds 4 1004 48 10000 7.2 20 21:33 13.09.2021
5780 Clouds 4 1005 65 10000 3.6 30 19:41 13.09.2021
5781 Clouds 3 1005 70 10000 3.09 30 18:45 13.09.2021
5782 Clouds 3 1005 70 10000 3.09 40 17:38 13.09.2021
5783 Clouds 3 1005 75 10000 2.57 20 16:49 13.09.2021
5784 Clear 2 1006 80 10000 1.54 50 14:47 13.09.2021
5785 Clouds 1 1005 86 10000 1.54 50 11:45 13.09.2021
5786 Clouds 2 1006 72 10000 3.36 350 10:50 13.09.2021
5787 Clouds 1 1004 93 10000 3.09 300 08:41 13.09.2021
5788 Clouds 3 999 65 10000 8.23 330 00:48 13.09.2021
5789 Clouds 3 1000 70 10000 12.65 322 22:51 12.09.2021
5790 Rain 3 996 70 10000 11.32 320 22:23 12.09.2021
5791 Clouds 3 995 65 10000 12.35 330 21:21 12.09.2021
5792 Clouds 3 993 65 10000 12.86 330 20:19 12.09.2021
5793 Clouds 3 992 70 10000 12.86 330 19:37 12.09.2021
5794 Clouds 3 992 70 10000 12.86 330 19:18 12.09.2021
5795 Clouds 3 989 65 6000 15.43 320 18:18 12.09.2021
5796 Clouds 3 990 64 10000 13.62 325 15:58 12.09.2021
5797 Clouds 4 985 65 10000 6.69 330 14:48 12.09.2021
5798 Clouds 4 984 70 10000 6.69 340 12:45 12.09.2021
5799 Clouds 3 984 70 10000 4.63 10 10:33 12.09.2021
5800 Clouds 4 984 60 10000 4.12 40 08:39 12.09.2021
5801 Clouds 3 984 65 10000 2.06 40 07:33 12.09.2021
5802 Clouds 7 991 57 10000 4.12 20 00:48 12.09.2021
5803 Clouds 6 993 59 10000 6.54 347 22:59 11.09.2021
5804 Clouds 7 994 65 10000 3.6 40 21:39 11.09.2021
5805 Clouds 7 997 58 10000 5.47 5 19:55 11.09.2021
5806 Clouds 7 998 57 10000 6.17 40 18:30 11.09.2021
5807 Clouds 5 999 75 10000 6.69 50 17:29 11.09.2021
5808 Clouds 6 1001 61 10000 5.66 50 15:38 11.09.2021
5809 Clouds 4 1003 75 10000 6.69 50 13:25 11.09.2021
5810 Clouds 4 1004 70 10000 7.2 40 11:45 11.09.2021
5811 Clouds 4 1006 69 10000 4.41 40 10:51 11.09.2021
5812 Clouds 4 1005 70 10000 5.66 40 09:28 11.09.2021
5813 Clouds 5 1006 60 10000 4.12 50 07:44 11.09.2021
5814 Clouds 4 1008 65 10000 1.54 0 04:23 11.09.2021
5815 Clouds 8 1009 49 10000 3.09 50 22:47 10.09.2021
5816 Clouds 8 1009 49 10000 3.09 50 22:22 10.09.2021
5817 Clouds 8 1009 49 10000 3.09 50 21:43 10.09.2021
5818 Clouds 7 1010 65 10000 4.12 50 19:33 10.09.2021
5819 Clouds 6 1011 64 10000 4.12 35 17:59 10.09.2021
5820 Clouds 6 1011 70 10000 4.63 40 16:28 10.09.2021
5821 Clouds 4 1012 65 10000 4.49 36 13:52 10.09.2021
5822 Clouds 3 1011 75 10000 3.6 40 11:38 10.09.2021
5823 Clouds 4 1011 70 10000 5.14 50 08:27 10.09.2021
5824 Clouds 4 1012 65 10000 6.17 60 07:44 10.09.2021
5825 Clouds 7 1014 57 10000 4.63 70 00:42 10.09.2021
5826 Clear 7 1015 61 10000 4.12 50 22:18 09.09.2021
5827 Clouds 7 1015 57 10000 3.6 50 20:48 09.09.2021
5828 Clouds 7 1015 57 10000 3.6 50 20:30 09.09.2021
5829 Clear 6 1016 61 10000 3.28 27 18:50 09.09.2021
5830 Clear 6 1016 64 10000 3.36 15 17:54 09.09.2021
5831 Clear 5 1016 75 10000 3.09 40 16:40 09.09.2021
5832 Clear 5 1016 75 10000 2.06 360 15:26 09.09.2021
5833 Clear 3 1016 81 10000 2.06 40 12:34 09.09.2021
5834 Clear 3 1016 87 10000 2.57 40 11:33 09.09.2021
5835 Clouds 3 1015 93 10000 3.6 30 09:39 09.09.2021
5836 Clouds 4 1016 79 10000 4.36 339 07:57 09.09.2021
5837 Clouds 4 1014 93 10000 3.09 50 06:24 09.09.2021
5838 Fog 5 1012 100 500 2.57 230 01:31 09.09.2021
5839 Fog 5 1012 100 500 2.57 230 01:31 09.09.2021
5840 Fog 5 1012 100 500 2.57 230 01:31 09.09.2021
5841 Rain 6 1012 96 9928 2.09 241 21:50 08.09.2021
5842 Rain 6 1012 97 1329 2.48 204 20:57 08.09.2021
5843 Rain 7 1010 93 10000 5.66 190 19:48 08.09.2021
5844 Fog 7 1010 93 10000 3.6 190 18:49 08.09.2021
5845 Fog 7 1010 93 10000 3.6 190 18:27 08.09.2021
5846 Clouds 6 1011 95 10000 4.73 186 17:54 08.09.2021
5847 Clouds 8 1011 76 10000 1.54 180 16:27 08.09.2021
5848 Clouds 6 1012 90 10000 3.6 173 13:53 08.09.2021
5849 Clouds 6 1011 87 10000 2.06 0 12:42 08.09.2021
5850 Clouds 6 1011 87 10000 2.06 0 12:24 08.09.2021
5851 Clouds 6 1011 93 10000 2.06 190 11:28 08.09.2021
5852 Clouds 6 1011 87 10000 2.06 170 10:32 08.09.2021
5853 Clouds 6 1012 87 10000 0.97 160 09:58 08.09.2021
5854 Clouds 7 1012 86 10000 1.7 95 07:55 08.09.2021
5855 Clouds 7 1012 83 10000 1.48 161 07:55 08.09.2021
5856 Clouds 7 1012 86 10000 1.7 95 07:55 08.09.2021
5857 Clouds 7 1012 86 10000 1.7 95 07:55 08.09.2021
5858 Clouds 6 1011 87 10000 0 0 07:30 08.09.2021
5859 Clouds 7 1011 81 10000 5.14 60 00:33 08.09.2021
5860 Clouds 6 1011 87 10000 4.63 50 22:35 07.09.2021
5861 Clouds 6 1011 87 10000 5.66 50 21:46 07.09.2021
5862 Clouds 6 1011 81 10000 5.14 50 19:47 07.09.2021
5863 Clouds 7 1011 76 10000 1.54 80 18:39 07.09.2021
5864 Rain 6 1011 87 10000 2.06 60 17:43 07.09.2021
5865 Rain 5 1013 85 10000 4.7 90 15:57 07.09.2021
5866 Rain 6 1012 81 10000 3.6 160 15:35 07.09.2021
5867 Rain 6 1012 70 10000 3.09 160 14:38 07.09.2021
5868 Rain 4 1011 93 10000 1.54 140 12:38 07.09.2021
5869 Rain 4 1011 93 10000 1.03 200 11:33 07.09.2021
5870 Clouds 4 1010 93 10000 1.54 0 10:40 07.09.2021
5871 Clouds 5 1010 81 10000 2.57 160 08:23 07.09.2021
5872 Clouds 4 1009 93 10000 3.09 180 06:44 07.09.2021
5873 Mist 3 1009 100 2300 4.12 190 04:47 07.09.2021
5874 Clouds 3 1009 93 350 4.63 200 02:28 07.09.2021
5875 Clouds 4 1008 93 10000 2.57 180 00:23 07.09.2021
5876 Clouds 5 1008 87 10000 2.57 230 23:31 06.09.2021
5877 Clouds 6 1009 73 10000 2.46 240 22:53 06.09.2021
5878 Fog 6 1007 81 10000 2.57 250 22:32 06.09.2021
5879 Clouds 7 1008 60 10000 3.38 281 20:55 06.09.2021
5880 Clouds 10 1005 43 10000 2.57 280 19:22 06.09.2021
5881 Clouds 10 1005 43 10000 2.57 280 19:22 06.09.2021
5882 Clouds 10 1005 43 10000 2.57 280 19:22 06.09.2021
5883 Clouds 11 1005 25 10000 2.06 0 18:46 06.09.2021
5884 Clouds 11 1005 25 10000 2.06 0 18:23 06.09.2021
5885 Clouds 8 1004 53 10000 3.6 40 17:35 06.09.2021
5886 Clouds 6 1004 70 10000 4.63 20 15:43 06.09.2021
5887 Clouds 6 1003 61 10000 6.69 40 13:47 06.09.2021
5888 Clouds 5 1003 65 10000 7.2 50 12:46 06.09.2021
5889 Clouds 4 1003 65 10000 5.14 40 10:44 06.09.2021
5890 Clear 4 1004 58 10000 4.74 20 07:59 06.09.2021
5891 Clear 6 1003 61 10000 4.12 20 04:44 06.09.2021
5892 Clear 8 1003 53 10000 8.75 20 23:34 05.09.2021
5893 Clear 9 1003 46 10000 9.26 20 22:47 05.09.2021
5894 Clear 9 1003 53 10000 5.9 360 21:57 05.09.2021
5895 Clear 9 1003 46 10000 7.72 20 21:30 05.09.2021
5896 Clear 9 1003 51 10000 4.44 7 19:56 05.09.2021
5897 Clouds 9 1003 46 10000 5.14 30 18:41 05.09.2021
5898 Clouds 8 1004 53 10000 3.6 50 17:30 05.09.2021
5899 Clear 7 1005 61 10000 3.6 50 15:28 05.09.2021
5900 Clear 6 1005 75 10000 4.12 50 14:19 05.09.2021
5901 Clear 4 1005 81 10000 4.12 40 12:29 05.09.2021
5902 Clear 4 1006 62 10000 5.31 15 10:53 05.09.2021
5903 Clear 4 1006 81 10000 4.12 50 10:23 05.09.2021
5904 Clear 4 1006 81 10000 3.09 40 09:21 05.09.2021
5905 Clouds 5 1007 81 10000 3.09 50 07:48 05.09.2021
5906 Clouds 7 1009 81 10000 4.12 40 01:22 05.09.2021
5907 Clear 7 1010 81 10000 4.63 340 00:27 05.09.2021
5908 Clouds 9 1010 76 10000 3.6 340 23:39 04.09.2021
5909 Clouds 9 1010 71 10000 3.6 10 22:36 04.09.2021
5910 Clouds 6 1011 75 10000 7.31 330 21:56 04.09.2021
5911 Clouds 9 1011 66 10000 4.63 50 19:42 04.09.2021
5912 Clouds 7 1012 76 10000 4.12 60 18:43 04.09.2021
5913 Clouds 5 1012 87 10000 5.66 10 16:23 04.09.2021
5914 Clouds 3 1014 100 10000 4.63 350 13:22 04.09.2021
5915 Clouds 4 1014 87 10000 4.12 360 11:19 04.09.2021
5916 Clouds 4 1014 93 10000 4.12 350 09:19 04.09.2021
5917 Clouds 4 1015 83 10000 2.78 13 05:50 04.09.2021
5918 Clouds 2 1016 100 6000 2.06 260 00:27 04.09.2021
5919 Clouds 3 1016 93 10000 3.6 280 23:32 03.09.2021
5920 Clouds 3 1016 93 10000 3.6 270 22:35 03.09.2021
5921 Clouds 4 1016 87 10000 3.6 260 21:35 03.09.2021
5922 Clouds 4 1016 87 10000 3.6 260 21:35 03.09.2021
5923 Clouds 4 1016 87 10000 3.09 250 20:42 03.09.2021
5924 Clouds 5 1017 75 10000 2.48 271 19:55 03.09.2021
5925 Clouds 5 1016 81 10000 2.57 260 19:18 03.09.2021
5926 Clouds 5 1018 72 10000 2.21 278 17:53 03.09.2021
5927 Clouds 4 1017 87 10000 1.03 260 16:37 03.09.2021
5928 Clouds 5 1019 71 10000 2.27 294 14:58 03.09.2021
5929 Clouds 4 1017 87 10000 4.12 300 12:24 03.09.2021
5930 Clouds 4 1016 87 10000 1.03 310 10:31 03.09.2021
5931 Clouds 5 1018 77 10000 2.62 271 08:59 03.09.2021
5932 Clouds 4 1016 87 10000 3.6 280 07:44 03.09.2021
5933 Clouds 5 1015 81 10000 3.6 270 05:24 03.09.2021
5934 Clouds 7 1013 81 10000 4.12 270 23:20 02.09.2021
5935 Clouds 10 1011 71 10000 5.14 270 21:35 02.09.2021
5936 Clouds 7 1012 71 10000 2.67 255 19:55 02.09.2021
5937 Clouds 11 1009 62 10000 1.54 300 17:33 02.09.2021
5938 Clouds 8 1010 70 10000 2.33 306 15:52 02.09.2021
5939 Clouds 8 1009 76 10000 2.22 347 13:57 02.09.2021
5940 Clouds 8 1009 78 10000 2.28 15 12:55 02.09.2021
5941 Clouds 6 1007 87 10000 4.12 20 11:35 02.09.2021
5942 Clouds 8 1007 71 10000 3.6 60 09:44 02.09.2021
5943 Clouds 7 1008 79 10000 1.83 49 07:57 02.09.2021
5944 Clouds 9 1007 61 10000 2.06 40 07:18 02.09.2021
5945 Clouds 9 1009 68 10000 3.12 154 02:56 02.09.2021
5946 Clouds 11 1008 50 10000 1.54 0 02:33 02.09.2021
5947 Clouds 11 1008 54 10000 2.57 50 01:28 02.09.2021
5948 Clouds 12 1008 50 10000 4.63 40 23:40 01.09.2021
5949 Clear 11 1008 58 10000 3.09 10 22:40 01.09.2021
5950 Clear 11 1008 54 10000 3.6 50 21:40 01.09.2021
5951 Clouds 12 1009 50 10000 4.12 40 20:39 01.09.2021
5952 Clouds 11 1009 50 10000 6.17 60 18:43 01.09.2021
5953 Clouds 10 1010 62 10000 5.66 40 17:40 01.09.2021
5954 Clouds 9 1011 61 10000 6.69 40 16:47 01.09.2021
5955 Clouds 7 1012 76 10000 7.72 30 15:47 01.09.2021
5956 Clouds 6 1013 75 10000 7.2 50 12:23 01.09.2021
5957 Clouds 6 1013 81 10000 7.2 30 11:44 01.09.2021
5958 Clouds 6 1014 81 10000 6.69 10 08:48 01.09.2021
5959 Clouds 5 1015 67 10000 5.92 13 07:52 01.09.2021
5960 Clouds 7 1015 76 10000 4.63 20 05:23 01.09.2021
5961 Clear 11 1016 58 10000 3.6 40 22:41 31.08.2021
5962 Clear 11 1017 58 10000 4.12 30 21:33 31.08.2021
5963 Clear 11 1017 58 10000 4.12 50 19:46 31.08.2021
5964 Clear 10 1017 62 10000 3.6 40 18:30 31.08.2021
5965 Clear 9 1017 61 10000 3.6 50 17:38 31.08.2021
5966 Clear 9 1017 61 10000 3.6 50 17:20 31.08.2021
5967 Clear 8 1017 81 10000 3.09 10 16:24 31.08.2021
5968 Clouds 5 1016 93 10000 4.63 30 13:40 31.08.2021
5969 Fog 3 1015 100 10000 3.6 50 11:36 31.08.2021
5970 Clear 6 1017 71 10000 3.51 21 10:55 31.08.2021
5971 Clear 4 1015 87 10000 2.57 30 09:45 31.08.2021
5972 Clouds 4 1015 93 10000 3.09 20 08:39 31.08.2021
5973 Clear 5 1015 81 10000 2.06 20 07:35 31.08.2021
5974 Clear 5 1016 87 10000 3.09 40 03:40 31.08.2021
5975 Clouds 8 1016 71 10000 3.6 360 23:35 30.08.2021
5976 Clear 7 1017 71 10000 6.44 330 21:52 30.08.2021
5977 Clouds 8 1016 71 10000 2.57 30 21:32 30.08.2021
5978 Clouds 8 1016 71 10000 3.6 60 20:20 30.08.2021
5979 Clouds 7 1017 76 10000 3.6 40 19:29 30.08.2021
5980 Clouds 6 1017 81 10000 4.12 40 18:34 30.08.2021
5981 Clouds 6 1017 81 10000 4.12 60 17:46 30.08.2021
5982 Clouds 5 1017 87 10000 4.12 40 16:24 30.08.2021
5983 Clouds 5 1017 81 10000 3.09 360 15:39 30.08.2021
5984 Clouds 4 1018 87 10000 4.12 360 13:43 30.08.2021
5985 Clouds 4 1018 87 10000 3.6 360 12:29 30.08.2021
5986 Clouds 4 1017 87 10000 5.14 10 10:33 30.08.2021
5987 Clouds 6 1019 81 10000 3.09 200 22:30 29.08.2021
5988 Clouds 6 1019 81 10000 2.57 190 21:33 29.08.2021
5989 Clouds 6 1019 87 10000 3.6 200 20:22 29.08.2021
5990 Clouds 5 1018 93 10000 3.6 180 19:19 29.08.2021
5991 Rain 6 1019 85 10000 3.48 227 17:53 29.08.2021
5992 Mist 5 1017 100 1500 5.66 190 15:49 29.08.2021
5993 Drizzle 5 1017 93 2500 8.75 180 14:20 29.08.2021
5994 Drizzle 5 1017 93 4000 7.72 180 13:44 29.08.2021
5995 Drizzle 5 1016 87 10000 8.23 180 12:32 29.08.2021
5996 Rain 6 1018 86 10000 7.55 185 11:50 29.08.2021
5997 Clouds 5 1016 87 10000 9.26 170 11:23 29.08.2021
5998 Snow 5 1016 81 8000 7.2 170 10:43 29.08.2021
5999 Snow 5 1016 81 8000 7.2 170 10:24 29.08.2021
6000 Clouds 5 1015 81 10000 6.69 170 08:24 29.08.2021
6001 Drizzle 6 1013 100 200 5.14 190 00:37 29.08.2021
6002 Rain 7 1014 90 10000 11.93 170 21:54 28.08.2021
6003 Drizzle 8 1011 81 5000 11.83 170 20:28 28.08.2021
6004 Rain 8 1011 87 10000 12.86 160 18:43 28.08.2021
6005 Rain 8 1011 87 10000 12.86 160 18:19 28.08.2021
6006 Rain 8 1011 87 10000 12.86 160 17:20 28.08.2021
6007 Rain 8 1011 81 10000 10.8 160 15:46 28.08.2021
6008 Rain 7 1012 87 10000 10.29 160 14:26 28.08.2021
6009 Rain 7 1012 81 10000 10.29 160 13:45 28.08.2021
6010 Rain 7 1012 81 10000 11.83 160 12:44 28.08.2021
6011 Rain 6 1014 90 10000 8.28 150 11:54 28.08.2021
6012 Rain 7 1012 81 10000 11.32 160 10:42 28.08.2021
6013 Rain 7 1012 81 9000 9.77 160 08:41 28.08.2021
6014 Rain 7 1012 81 10000 7.72 150 07:24 28.08.2021
6015 Clouds 5 1013 93 10000 5.14 200 22:30 27.08.2021
6016 Clouds 6 1012 81 10000 6.69 200 21:19 27.08.2021
6017 Clouds 6 1012 81 10000 5.66 200 20:30 27.08.2021
6018 Clouds 6 1013 79 10000 4.37 202 18:58 27.08.2021
6019 Clouds 5 1011 93 10000 5.14 220 18:37 27.08.2021
6020 Drizzle 5 1011 93 10000 5.14 180 17:18 27.08.2021
6021 Rain 5 1010 93 4000 6.17 180 15:55 27.08.2021
6022 Fog 6 1010 81 8000 6.69 170 14:43 27.08.2021
6023 Clouds 6 1011 85 10000 5.58 176 12:54 27.08.2021
6024 Clouds 5 1009 87 10000 6.69 170 11:26 27.08.2021
6025 Rain 5 1008 87 10000 6.69 180 10:43 27.08.2021
6026 Clouds 5 1008 87 10000 6.17 180 09:37 27.08.2021
6027 Clouds 4 1008 100 10000 5.66 180 08:46 27.08.2021
6028 Fog 5 1008 100 350 4.12 210 06:47 27.08.2021
6029 Clouds 5 1007 93 10000 6.17 180 05:28 27.08.2021
6030 Clouds 5 1008 87 10000 2.06 220 00:35 27.08.2021
6031 Clouds 6 1009 87 10000 3.09 210 22:49 26.08.2021
6032 Clouds 6 1009 87 10000 3.09 210 22:19 26.08.2021
6033 Clouds 7 1009 87 10000 3.6 220 20:37 26.08.2021
6034 Clouds 7 1010 84 10000 2.93 214 18:53 26.08.2021
6035 Fog 8 1010 81 10000 2.06 200 17:45 26.08.2021
6036 Fog 6 1010 100 550 2.06 180 16:35 26.08.2021
6037 Clouds 6 1011 84 10000 2.57 205 15:55 26.08.2021
6038 Fog 6 1011 93 7000 0 0 13:48 26.08.2021
6039 Clouds 6 1011 87 10000 2.43 188 12:54 26.08.2021
6040 Fog 6 1011 87 10000 0 0 12:30 26.08.2021
6041 Clouds 6 1011 93 10000 1.03 120 10:21 26.08.2021
6042 Clouds 6 1011 100 10000 2.06 170 08:34 26.08.2021
6043 Fog 6 1011 100 350 2.06 200 06:18 26.08.2021
6044 Clouds 6 1012 96 10000 5.43 181 22:54 25.08.2021
6045 Clouds 8 1011 87 10000 8.23 170 22:35 25.08.2021
6046 Rain 9 1010 76 10000 7.72 180 21:42 25.08.2021
6047 Rain 8 1011 87 10000 5.66 180 20:48 25.08.2021
6048 Rain 8 1011 87 10000 5.66 180 20:28 25.08.2021
6049 Rain 9 1011 87 10000 4.12 210 18:42 25.08.2021
6050 Rain 8 1011 93 10000 1.54 200 17:36 25.08.2021
6051 Rain 8 1011 93 10000 1.03 340 15:44 25.08.2021
6052 Rain 8 1011 93 10000 0.51 0 14:48 25.08.2021
6053 Rain 8 1011 93 10000 0.51 0 14:29 25.08.2021
6054 Rain 8 1012 93 10000 3.09 50 13:25 25.08.2021
6055 Drizzle 9 1011 87 10000 1.03 190 11:27 25.08.2021
6056 Rain 9 1012 87 10000 3.09 190 10:43 25.08.2021
6057 Clouds 7 1013 85 10000 3.31 154 09:55 25.08.2021
6058 Clouds 7 1013 86 10000 4.12 163 08:50 25.08.2021
6059 Rain 9 1011 81 10000 5.14 190 08:29 25.08.2021
6060 Clouds 8 1010 93 10000 7.72 180 04:19 25.08.2021
6061 Clouds 7 1011 91 10000 7.77 179 23:54 24.08.2021
6062 Clouds 8 1007 87 10000 7.2 200 21:49 24.08.2021
6063 Clouds 12 1006 62 10000 4.63 190 20:48 24.08.2021
6064 Clouds 7 1008 85 10000 6.69 180 19:52 24.08.2021
6065 Clouds 10 1005 76 10000 4.12 200 18:47 24.08.2021
6066 Clouds 9 1005 81 10000 3.6 180 17:46 24.08.2021
6067 Clouds 9 1005 81 10000 3.6 180 17:19 24.08.2021
6068 Fog 6 1005 93 5000 1.54 340 14:30 24.08.2021
6069 Fog 5 1006 100 6000 1.03 100 13:25 24.08.2021
6070 Fog 4 1006 100 250 1.03 310 12:33 24.08.2021
6071 Clouds 4 1006 100 10000 1.03 360 10:48 24.08.2021
6072 Clouds 4 1006 100 10000 1.03 360 10:27 24.08.2021
6073 Clouds 4 1008 94 10000 1.02 100 08:50 24.08.2021
6074 Clouds 5 1009 93 10000 0.86 177 06:55 24.08.2021
6075 Clouds 5 1009 94 10000 1.38 228 04:54 24.08.2021
6076 Fog 6 1009 93 10000 5.66 190 00:48 24.08.2021
6077 Fog 9 1009 76 10000 4.12 180 23:19 23.08.2021
6078 Fog 9 1009 81 10000 3.09 170 22:39 23.08.2021
6079 Fog 7 1010 93 10000 4.63 200 20:39 23.08.2021
6080 Fog 9 1010 81 10000 3.6 180 19:24 23.08.2021
6081 Fog 7 1011 93 10000 2.57 230 16:41 23.08.2021
6082 Fog 6 1011 100 1000 1.54 210 14:49 23.08.2021
6083 Fog 5 1011 100 250 3.09 180 13:23 23.08.2021
6084 Fog 4 1011 100 150 2.57 200 12:19 23.08.2021
6085 Snow 5 1011 100 150 3.09 180 10:38 23.08.2021
6086 Rain 5 1011 100 100 2.57 190 09:48 23.08.2021
6087 Clouds 5 1012 92 10000 3.08 194 08:33 23.08.2021
6088 Clear 6 1012 87 10000 2.88 166 06:50 23.08.2021
6089 Clear 6 1012 87 10000 2.88 166 06:30 23.08.2021
6090 Clouds 7 1012 89 10000 2.16 254 00:54 23.08.2021
6091 Clear 13 1011 71 10000 2.06 270 22:46 22.08.2021
6092 Clear 13 1011 71 10000 2.06 270 22:27 22.08.2021
6093 Clouds 13 1011 76 10000 2.57 190 20:23 22.08.2021
6094 Clear 14 1011 72 10000 1.54 210 19:40 22.08.2021
6095 Clouds 13 1011 62 10000 1.54 340 17:26 22.08.2021
6096 Clear 8 1011 93 10000 2.57 330 15:32 22.08.2021
6097 Clear 8 1011 100 10000 2.57 360 14:43 22.08.2021
6098 Clear 6 1011 100 10000 3.09 10 13:21 22.08.2021
6099 Clouds 8 1012 76 10000 1.87 10 12:55 22.08.2021
6100 Snow 5 1011 100 250 3.09 10 12:28 22.08.2021
6101 Clouds 5 1011 100 10000 4.63 10 11:43 22.08.2021
6102 Snow 6 1011 93 300 3.6 20 10:32 22.08.2021
6103 Rain 5 1010 100 700 4.63 360 08:20 22.08.2021
6104 Clouds 7 1010 89 10000 2.79 337 04:57 22.08.2021
6105 Clouds 12 1009 76 10000 4.63 30 00:32 22.08.2021
6106 Clouds 14 1008 72 10000 4.12 10 22:34 21.08.2021
6107 Clouds 16 1008 59 10000 4.63 40 20:38 21.08.2021
6108 Clouds 13 1007 71 10000 4.12 10 18:46 21.08.2021
6109 Clouds 10 1008 73 10000 1.92 332 17:59 21.08.2021
6110 Clouds 10 1007 73 10000 1.89 346 16:55 21.08.2021
6111 Clouds 11 1006 82 10000 4.63 20 16:28 21.08.2021
6112 Clouds 10 1006 87 10000 4.12 360 15:36 21.08.2021
6113 Fog 8 1006 93 10000 4.12 350 14:47 21.08.2021
6114 Fog 8 1006 93 10000 2.06 20 13:34 21.08.2021
6115 Fog 8 1005 93 10000 1.54 150 12:38 21.08.2021
6116 Clouds 7 1003 100 10000 5.14 20 09:31 21.08.2021
6117 Clouds 8 1003 93 10000 4.12 20 06:19 21.08.2021
6118 Clouds 12 1004 76 10000 4.12 10 23:45 20.08.2021
6119 Clouds 9 1005 81 10000 5.03 319 21:54 20.08.2021
6120 Clouds 12 1004 82 10000 2.06 340 18:31 20.08.2021
6121 Clouds 11 1004 93 10000 4.12 50 16:26 20.08.2021
6122 Clouds 8 1005 88 10000 2.49 9 13:54 20.08.2021
6123 Clouds 7 1005 91 10000 1.56 31 11:51 20.08.2021
6124 Drizzle 8 1004 100 200 2.57 20 11:25 20.08.2021
6125 Snow 8 1003 100 200 2.57 40 09:43 20.08.2021
6126 Clouds 7 1005 94 10000 2.04 45 08:51 20.08.2021
6127 Rain 8 1004 92 10000 2.78 77 07:56 20.08.2021
6128 Rain 8 1004 100 10000 0 0 04:36 20.08.2021
6129 Rain 8 1004 100 10000 0 0 04:18 20.08.2021
6130 Rain 8 1005 100 10000 3.09 200 23:26 19.08.2021
6131 Drizzle 8 1005 100 8000 4.12 190 22:36 19.08.2021
6132 Rain 7 1006 96 10000 2.85 167 20:55 19.08.2021
6133 Rain 9 1005 93 9000 5.14 180 19:53 19.08.2021
6134 Drizzle 8 1006 100 4000 0 0 17:29 19.08.2021
6135 Drizzle 8 1006 100 6000 2.06 40 16:34 19.08.2021
6136 Rain 8 1007 93 3000 3.09 190 14:23 19.08.2021
6137 Drizzle 9 1007 87 3000 5.14 180 12:39 19.08.2021
6138 Drizzle 9 1006 81 10000 8.23 160 11:37 19.08.2021
6139 Rain 9 1006 81 10000 8.23 160 10:42 19.08.2021
6140 Rain 9 1006 81 10000 9.77 160 09:48 19.08.2021
6141 Rain 9 1006 81 10000 9.77 160 09:24 19.08.2021
6142 Snow 9 1007 81 10000 10.8 150 07:46 19.08.2021
6143 Rain 7 1008 98 4342 6.9 176 02:53 19.08.2021
6144 Rain 6 1008 98 1007 7.49 179 01:58 19.08.2021
6145 Rain 9 1008 93 6000 6.69 180 23:20 18.08.2021
6146 Rain 9 1009 93 2000 4.12 190 21:44 18.08.2021
6147 Rain 9 1009 100 300 3.6 200 20:35 18.08.2021
6148 Rain 7 1009 98 10000 3.4 67 19:59 18.08.2021
6149 Rain 7 1010 98 7751 2.7 117 18:57 18.08.2021
6150 Rain 10 1009 100 6000 5.14 60 18:32 18.08.2021
6151 Drizzle 10 1010 93 600 5.14 190 16:40 18.08.2021
6152 Rain 10 1010 93 2200 7.2 180 15:39 18.08.2021
6153 Rain 10 1010 93 2200 7.2 180 15:20 18.08.2021
6154 Rain 10 1010 93 2200 7.2 180 15:20 18.08.2021
6155 Fog 10 1010 87 10000 4.63 170 12:44 18.08.2021
6156 Rain 10 1010 87 10000 4.63 170 12:26 18.08.2021
6157 Drizzle 9 1009 100 3000 4.63 180 11:22 18.08.2021
6158 Snow 9 1009 100 1600 1.54 170 07:49 18.08.2021
6159 Rain 7 1010 99 3297 4.89 167 00:59 18.08.2021
6160 Rain 11 1007 87 3500 10.8 170 22:38 17.08.2021
6161 Rain 11 1007 87 4000 9.26 170 21:46 17.08.2021
6162 Drizzle 10 1007 100 2000 6.17 190 20:47 17.08.2021
6163 Rain 10 1006 100 1500 2.57 200 19:20 17.08.2021
6164 Rain 12 1006 87 10000 3.09 190 17:47 17.08.2021
6165 Rain 12 1006 87 10000 3.09 190 17:21 17.08.2021
6166 Clouds 9 1006 93 10000 7.2 50 15:44 17.08.2021
6167 Rain 10 1006 93 10000 4.12 40 14:47 17.08.2021
6168 Rain 10 1007 93 10000 0 0 12:37 17.08.2021
6169 Clouds 10 1006 87 10000 1.03 0 09:27 17.08.2021
6170 Clouds 10 1006 87 10000 0.51 290 08:43 17.08.2021
6171 Clouds 8 1007 90 10000 1.6 63 06:57 17.08.2021
6172 Clouds 11 1010 87 10000 3.09 30 23:25 16.08.2021
6173 Clouds 8 1011 90 10000 2.85 47 22:53 16.08.2021
6174 Clouds 11 1010 87 10000 2.06 30 22:35 16.08.2021
6175 Clouds 11 1011 82 10000 2.06 320 21:40 16.08.2021
6176 Clouds 8 1012 94 10000 2.82 36 20:51 16.08.2021
6177 Clouds 11 1011 82 10000 2.06 200 19:29 16.08.2021
6178 Clouds 11 1011 82 10000 2.57 180 18:26 16.08.2021
6179 Clouds 11 1011 82 10000 2.57 180 18:26 16.08.2021
6180 Clouds 11 1011 82 10000 2.57 180 18:26 16.08.2021
6181 Clouds 11 1011 82 10000 2.57 180 18:26 16.08.2021
6182 Clouds 7 1012 97 8278 2.11 55 17:54 16.08.2021
6183 Clouds 10 1011 93 10000 1.54 240 16:29 16.08.2021
6184 Clouds 9 1011 100 10000 1.54 200 15:22 16.08.2021
6185 Rain 7 1012 98 7491 1.33 23 13:55 16.08.2021
6186 Clouds 7 1011 99 446 1.26 354 12:59 16.08.2021
6187 Drizzle 8 1010 100 1000 1.54 210 12:24 16.08.2021
6188 Fog 8 1008 100 500 2.06 200 09:33 16.08.2021
6189 Rain 8 1008 100 2500 2.06 180 08:43 16.08.2021
6190 Fog 8 1008 100 900 2.06 330 07:30 16.08.2021
6191 Rain 8 1009 100 385 3.31 317 05:58 16.08.2021
6192 Rain 8 1008 100 10000 6.17 50 01:22 16.08.2021
6193 Drizzle 9 1011 100 600 1.03 240 21:34 15.08.2021
6194 Fog 8 1013 100 1100 2.57 360 19:41 15.08.2021
6195 Fog 8 1013 100 1200 2.57 20 18:41 15.08.2021
6196 Fog 8 1014 100 400 0.51 0 17:49 15.08.2021
6197 Fog 8 1014 100 400 0.51 0 17:22 15.08.2021
6198 Fog 8 1014 100 800 1.03 0 15:45 15.08.2021
6199 Fog 8 1015 100 200 2.57 210 14:38 15.08.2021
6200 Rain 8 1015 100 500 3.6 190 13:34 15.08.2021
6201 Rain 7 1016 99 225 3.44 174 10:50 15.08.2021
6202 Rain 7 1015 100 500 1.03 160 08:35 15.08.2021
6203 Rain 10 1015 87 10000 6.69 190 01:22 15.08.2021
6204 Rain 11 1015 82 10000 8.23 190 00:33 15.08.2021
6205 Rain 10 1013 87 2600 13.89 170 21:27 14.08.2021
6206 Rain 10 1012 93 3000 14.92 170 20:28 14.08.2021
6207 Rain 10 1011 93 3900 15.95 160 19:31 14.08.2021
6208 Rain 11 1010 93 10000 19.03 170 18:33 14.08.2021
6209 Clouds 12 1011 87 10000 15.43 160 16:44 14.08.2021
6210 Clouds 12 1011 87 10000 13.89 160 15:34 14.08.2021
6211 Rain 12 1008 87 10000 19.03 160 13:49 14.08.2021
6212 Rain 11 1008 93 8000 17.49 170 11:32 14.08.2021
6213 Rain 9 1010 92 10000 17.36 177 09:53 14.08.2021
6214 Clouds 17 1006 48 10000 13.89 170 05:26 14.08.2021
6215 Clouds 10 1011 72 10000 10.89 178 23:51 13.08.2021
6216 Rain 18 1009 36 10000 10.29 180 22:18 13.08.2021
6217 Sand 18 1009 39 10000 15.43 160 20:24 13.08.2021
6218 Clouds 15 1011 63 10000 8.75 190 18:46 13.08.2021
6219 Rain 14 1010 62 10000 9.77 170 17:23 13.08.2021
6220 Clouds 10 1012 71 10000 5.52 166 15:57 13.08.2021
6221 Clouds 9 1012 78 10000 4.11 162 11:58 13.08.2021
6222 Rain 9 1012 93 10000 1.03 0 11:18 13.08.2021
6223 Snow 10 1012 76 10000 2.06 0 08:41 13.08.2021
6224 Snow 10 1012 76 10000 2.06 0 08:21 13.08.2021
6225 Clouds 11 1011 66 10000 5.14 210 06:40 13.08.2021
6226 Clouds 10 1011 71 10000 4.12 180 02:29 13.08.2021
6227 Clouds 10 1013 74 10000 2.86 228 21:54 12.08.2021
6228 Clouds 14 1012 58 10000 1.03 0 20:43 12.08.2021
6229 Clouds 9 1013 74 10000 1.75 259 19:54 12.08.2021
6230 Clouds 13 1013 58 10000 4.12 50 19:25 12.08.2021
6231 Clouds 11 1014 71 10000 5.14 40 17:26 12.08.2021
6232 Clouds 11 1014 71 10000 5.14 20 16:28 12.08.2021
6233 Clouds 8 1016 76 10000 2.78 53 13:54 12.08.2021
6234 Clouds 7 1017 93 10000 3.6 20 12:23 12.08.2021
6235 Clouds 7 1018 78 10000 2.82 35 09:58 12.08.2021
6236 Clouds 7 1019 78 10000 2.05 21 07:53 12.08.2021
6237 Clouds 9 1020 81 10000 2.57 200 00:48 12.08.2021
6238 Clouds 8 1020 76 10000 2.98 186 21:56 11.08.2021
6239 Clouds 10 1018 76 10000 4.12 200 19:36 11.08.2021
6240 Clouds 8 1017 87 10000 4.12 200 18:28 11.08.2021
6241 Fog 8 1016 93 10000 4.63 200 15:38 11.08.2021
6242 Fog 8 1016 93 10000 4.63 200 15:20 11.08.2021
6243 Fog 7 1016 100 6000 4.12 200 14:22 11.08.2021
6244 Fog 7 1015 93 10000 3.6 180 12:30 11.08.2021
6245 Fog 7 1015 93 10000 3.6 180 12:30 11.08.2021
6246 Fog 7 1014 93 10000 3.6 200 11:46 11.08.2021
6247 Fog 7 1014 93 10000 3.6 200 11:21 11.08.2021
6248 Clouds 7 1012 93 10000 3.6 210 09:44 11.08.2021
6249 Clouds 7 1010 93 10000 4.12 210 07:30 11.08.2021
6250 Clouds 11 1006 54 10000 8.75 160 23:31 10.08.2021
6251 Clouds 11 1006 58 10000 6.69 160 22:29 10.08.2021
6252 Rain 7 1007 78 10000 4.49 126 20:57 10.08.2021
6253 Rain 11 1005 50 10000 4.63 180 19:42 10.08.2021
6254 Rain 9 1005 76 10000 4.12 200 18:31 10.08.2021
6255 Clouds 13 1005 35 10000 7.72 180 16:28 10.08.2021
6256 Clouds 8 1006 63 10000 3.82 164 14:52 10.08.2021
6257 Clouds 7 1005 93 10000 4.63 200 12:22 10.08.2021
6258 Clouds 7 1006 69 10000 3.81 159 09:51 10.08.2021
6259 Clouds 7 1007 87 10000 1.03 120 06:48 10.08.2021
6260 Clouds 8 1008 75 10000 3.43 159 04:58 10.08.2021
6261 Clouds 7 1009 87 10000 4.12 190 23:41 09.08.2021
6262 Clouds 7 1011 79 10000 2.63 201 21:55 09.08.2021
6263 Clouds 8 1009 81 10000 4.12 190 21:34 09.08.2021
6264 Clouds 9 1010 81 10000 4.12 270 19:35 09.08.2021
6265 Clouds 9 1010 76 10000 3.6 30 17:22 09.08.2021
6266 Clouds 7 1010 87 10000 3.09 30 15:35 09.08.2021
6267 Clouds 7 1010 93 10000 3.6 40 13:46 09.08.2021
6268 Clouds 7 1010 93 10000 3.6 40 13:26 09.08.2021
6269 Clouds 5 1010 93 10000 2.06 30 10:44 09.08.2021
6270 Clouds 5 1009 93 10000 3.6 60 08:26 09.08.2021
6271 Clouds 7 1007 87 10000 3.6 200 23:27 08.08.2021
6272 Clouds 8 1005 81 10000 3.09 210 21:26 08.08.2021
6273 Snow 7 1004 81 10000 4.63 160 19:46 08.08.2021
6274 Rain 5 1005 92 10000 5.19 156 16:54 08.08.2021
6275 Rain 6 1002 93 10000 6.17 170 15:42 08.08.2021
6276 Rain 6 1001 93 10000 7.2 170 13:26 08.08.2021
6277 Rain 6 999 93 8000 6.69 180 11:25 08.08.2021
6278 Rain 5 996 100 10000 3.6 190 06:45 08.08.2021
6279 Rain 6 995 93 10000 2.57 200 05:37 08.08.2021
6280 Rain 7 995 87 10000 3.09 170 00:32 08.08.2021
6281 Rain 8 996 71 10000 3.6 200 22:47 07.08.2021
6282 Clouds 8 997 76 10000 3.09 200 21:41 07.08.2021
6283 Clouds 7 998 78 10000 2.71 243 20:51 07.08.2021
6284 Clouds 10 998 62 10000 3.09 220 17:38 07.08.2021
6285 Clouds 10 999 57 10000 2.06 200 16:43 07.08.2021
6286 Clouds 7 1001 75 10000 4.55 179 14:29 07.08.2021
6287 Clouds 9 999 71 10000 1.54 100 13:32 07.08.2021
6288 Clouds 8 1001 76 10000 1.54 160 10:25 07.08.2021
6289 Clouds 8 1003 76 10000 3.6 180 06:31 07.08.2021
6290 Clouds 7 1006 93 10000 6.71 200 01:50 07.08.2021
6291 Clouds 7 1006 93 10000 6.71 200 01:50 07.08.2021
6292 Drizzle 8 1007 76 10000 7.2 180 21:38 06.08.2021
6293 Clouds 8 1007 71 10000 8.23 170 20:33 06.08.2021
6294 Clouds 8 1007 70 10000 8.05 180 19:56 06.08.2021
6295 Clouds 8 1007 71 10000 8.23 180 18:32 06.08.2021
6296 Clouds 8 1007 71 10000 8.23 180 18:32 06.08.2021
6297 Clouds 8 1007 71 10000 8.23 180 18:32 06.08.2021
6298 Clouds 8 1007 71 10000 8.23 180 18:32 06.08.2021
6299 Clouds 8 1007 76 10000 9.26 170 15:48 06.08.2021
6300 Clouds 6 1007 93 10000 8.23 180 10:42 06.08.2021
6301 Clouds 6 1008 90 10000 7.65 176 09:56 06.08.2021
6302 Snow 6 1005 93 450 8.23 190 07:32 06.08.2021
6303 Rain 8 1001 87 4000 18.52 160 23:33 05.08.2021
6304 Rain 8 1001 87 10000 17.88 160 21:56 05.08.2021
6305 Rain 8 1002 93 4500 14.4 180 20:44 05.08.2021
6306 Rain 9 1001 87 6000 16.46 170 19:24 05.08.2021
6307 Rain 9 1003 81 10000 15.95 170 16:25 05.08.2021
6308 Clouds 10 1004 76 10000 12.35 170 14:25 05.08.2021
6309 Rain 10 1005 76 10000 9.26 150 11:21 05.08.2021
6310 Clouds 9 1006 87 10000 5.66 180 08:35 05.08.2021
6311 Clouds 9 1006 87 10000 4.63 190 04:48 05.08.2021
6312 Clouds 11 1005 82 10000 3.6 210 23:20 04.08.2021
6313 Clouds 15 1004 63 10000 2.57 0 21:44 04.08.2021
6314 Clouds 15 1004 63 10000 2.57 0 21:21 04.08.2021
6315 Clouds 9 1005 85 10000 1.93 269 17:25 04.08.2021
6316 Clouds 11 1004 76 10000 4.63 30 16:40 04.08.2021
6317 Clouds 9 1004 87 10000 4.63 40 14:42 04.08.2021
6318 Clouds 8 1004 93 10000 0 0 11:20 04.08.2021
6319 Clouds 10 1001 87 10000 8.23 180 01:46 04.08.2021
6320 Clouds 16 1000 51 10000 1.54 330 20:35 03.08.2021
6321 Clouds 9 1002 82 10000 2.3 260 19:58 03.08.2021
6322 Clouds 12 1000 76 10000 2.06 10 17:50 03.08.2021
6323 Clouds 10 1001 87 10000 2.57 340 16:23 03.08.2021
6324 Clouds 9 1002 87 10000 3.09 30 11:44 03.08.2021
6325 Clouds 9 1002 87 10000 3.09 40 10:39 03.08.2021
6326 Clouds 10 1004 76 10000 1.03 200 02:38 03.08.2021
6327 Clouds 11 1001 82 10000 1.54 270 17:34 02.08.2021
6328 Clouds 10 1001 87 10000 1.03 240 16:38 02.08.2021
6329 Clouds 9 1002 84 10000 3.02 139 14:51 02.08.2021
6330 Rain 12 1000 81 10000 4.92 200 11:59 02.08.2021
6331 Rain 12 998 82 10000 5.14 200 11:34 02.08.2021
6332 Rain 12 997 76 10000 2.06 20 09:49 02.08.2021
6333 Clouds 16 997 55 10000 1.03 260 22:40 01.08.2021
6334 Clouds 17 999 42 10000 7.2 180 18:19 01.08.2021
6335 Clouds 13 1000 62 10000 1.54 240 15:29 01.08.2021
6336 Clouds 8 1003 87 10000 6.69 30 11:38 01.08.2021
6337 Clouds 8 1007 87 10000 5.36 20 08:51 01.08.2021
6338 Clouds 10 1012 81 10000 3.09 30 03:47 01.08.2021
6339 Clouds 10 1014 71 10000 4.02 200 22:52 31.07.2021
6340 Clouds 10 1013 76 10000 3.58 200 20:52 31.07.2021
6341 Clouds 12 1013 71 10000 5.66 200 17:28 31.07.2021
6342 Clouds 13 1013 67 10000 5.66 200 16:28 31.07.2021
6343 Clouds 13 1010 62 10000 8.75 180 12:31 31.07.2021
6344 Clouds 8 1008 87 10000 4.12 360 08:34 31.07.2021
6345 Clouds 8 1009 79 10000 3.54 180 00:54 31.07.2021
6346 Clouds 17 1008 42 10000 3.09 180 20:30 30.07.2021
6347 Clouds 18 1007 36 10000 2.57 200 19:22 30.07.2021
6348 Clouds 13 1018 62 10000 3.09 340 23:30 29.07.2021
6349 Clouds 7 1021 100 10000 0.45 80 16:53 29.07.2021
6350 Clouds 6 1021 93 10000 5.66 200 05:49 29.07.2021
6351 Mist 6 1021 93 1700 5.14 200 04:29 29.07.2021
6352 Clouds 9 1019 76 10000 8.23 200 21:21 28.07.2021
6353 Clouds 10 1019 71 10000 6.69 200 17:22 28.07.2021
6354 Clouds 11 1019 66 10000 2.57 190 14:49 28.07.2021
6355 Clouds 10 1018 62 10000 5.66 190 07:44 28.07.2021
6356 Clouds 9 1018 80 10000 10.1 181 22:53 27.07.2021
6357 Clouds 14 1017 72 10000 7.72 190 21:27 27.07.2021
6358 Clouds 10 1017 81 10000 7.66 177 14:52 27.07.2021
6359 Clouds 11 1015 82 10000 3.09 170 10:46 27.07.2021
6360 Clouds 10 1013 76 10000 2.6 120 07:59 27.07.2021
6361 Clouds 13 1011 67 10000 4.12 180 17:43 26.07.2021
6362 Clouds 12 1010 66 10000 1.54 0 15:31 26.07.2021
6363 Clouds 9 1010 72 10000 2.46 174 04:51 26.07.2021
6364 Clouds 10 1008 66 10000 2.28 176 20:56 25.07.2021
6365 Clouds 10 1009 71 10000 2.06 180 18:24 25.07.2021
6366 Clouds 8 1009 76 10000 1.03 170 15:46 25.07.2021
6367 Clouds 8 1009 76 10000 1.03 170 15:46 25.07.2021
6368 Clouds 7 1011 71 10000 1.79 94 10:56 25.07.2021
6369 Clouds 5 1010 93 10000 1.03 20 08:19 25.07.2021
6370 Clouds 6 1010 75 10000 3.6 20 21:37 24.07.2021
6371 Clouds 6 1010 81 10000 3.09 50 20:18 24.07.2021
6372 Clouds 4 1010 79 10000 4.81 302 14:37 24.07.2021
6373 Snow 6 1000 87 2200 15.95 170 04:20 24.07.2021
6374 Drizzle 6 1007 93 2500 8.23 180 14:37 23.07.2021
6375 Rain 5 1006 100 4000 9.26 170 12:41 23.07.2021
6376 Rain 4 1006 100 7000 4.12 190 04:48 23.07.2021
6377 Rain 7 1001 93 2000 12.35 170 19:26 22.07.2021
6378 Rain 9 1005 71 8000 6.17 170 11:28 22.07.2021
6379 Clouds 8 1007 75 10000 7.6 170 08:54 22.07.2021
6380 Clouds 7 1007 87 10000 4.12 200 03:22 22.07.2021
6381 Clouds 11 1006 66 10000 4.63 300 21:45 21.07.2021
6382 Clouds 11 1006 66 10000 4.63 300 21:27 21.07.2021
6383 Clear 10 1006 71 10000 1.54 40 13:23 21.07.2021
6384 Clouds 6 1006 87 10000 2.06 20 09:49 21.07.2021
6385 Clouds 7 1009 75 10000 3.58 40 07:59 21.07.2021
6386 Clouds 9 1011 71 10000 2.06 200 23:46 20.07.2021
6387 Clouds 12 1012 66 10000 5.14 190 17:22 20.07.2021
6388 Clouds 9 1012 81 10000 3.09 190 16:25 20.07.2021
6389 Clouds 8 1012 87 10000 2.06 330 15:25 20.07.2021
6390 Clouds 8 1013 76 10000 3.09 110 10:22 20.07.2021
6391 Clouds 7 1013 87 10000 10.29 170 04:48 20.07.2021
6392 Clouds 8 1011 81 10000 10.8 180 22:25 19.07.2021
6393 Rain 5 1007 97 1814 9.4 194 12:53 19.07.2021
6394 Snow 8 1004 93 2900 11.32 160 10:29 19.07.2021
6395 Drizzle 9 1004 100 10000 5.66 180 19:42 18.07.2021
6396 Fog 9 1004 100 900 2.06 190 14:21 18.07.2021
6397 Rain 13 1004 94 8000 1.54 0 10:18 18.07.2021
6398 Rain 11 1011 93 10000 3.6 40 22:25 17.07.2021
6399 Rain 7 1012 98 887 3 351 21:53 17.07.2021
6400 Rain 7 1012 98 887 3 351 21:53 17.07.2021
6401 Rain 11 1012 87 10000 1.54 290 21:34 17.07.2021
6402 Rain 11 1015 82 10000 1.03 0 12:30 17.07.2021
6403 Clouds 13 1014 71 10000 4.63 200 10:20 17.07.2021
6404 Snow 8 1011 93 10000 3.6 60 04:46 17.07.2021
6405 Clouds 11 1005 76 10000 1.54 240 14:23 16.07.2021
6406 Clouds 8 1004 87 10000 1.03 360 08:47 16.07.2021
6407 Clouds 12 1005 76 10000 3.6 20 02:18 16.07.2021
6408 Clouds 5 1007 100 10000 1.34 280 13:53 15.07.2021
6409 Clouds 5 1007 100 10000 1.34 330 12:53 15.07.2021
6410 Fog 5 1006 100 350 0 0 07:30 15.07.2021
6411 Mist 7 1002 93 4000 8.23 190 21:33 14.07.2021
6412 Rain 8 997 93 6339 12.07 180 15:56 14.07.2021
6413 Clouds 8 1002 84 10000 15.98 184 09:52 14.07.2021
6414 Snow 10 1005 71 10000 7.2 180 23:20 13.07.2021
6415 Clouds 8 1006 75 10000 4.02 180 19:59 13.07.2021
6416 Clouds 8 1006 76 10000 4.12 180 19:39 13.07.2021
6417 Clouds 8 1006 76 10000 4.12 180 19:19 13.07.2021
6418 Clouds 10 1006 62 10000 1.03 270 18:43 13.07.2021
6419 Clouds 10 1006 62 10000 1.03 270 18:23 13.07.2021
6420 Clouds 8 1008 76 10000 2.06 180 13:21 13.07.2021
6421 Clouds 7 1008 70 10000 2.06 360 09:23 13.07.2021
6422 Clouds 9 1006 76 10000 3.09 190 20:29 12.07.2021
6423 Fog 6 1005 93 3000 3.6 190 16:46 12.07.2021
6424 Clouds 4 1005 100 10000 1.79 200 12:50 12.07.2021
6425 Clouds 9 1005 76 10000 3.58 190 23:22 11.07.2021
6426 Clouds 10 1004 71 10000 3.6 190 20:49 11.07.2021
6427 Clouds 8 1006 81 10000 3.09 200 14:24 11.07.2021
6428 Clouds 10 1009 61 10000 3.58 200 23:57 10.07.2021
6429 Clouds 10 1009 71 10000 2.57 340 15:30 10.07.2021
6430 Clouds 7 1010 87 10000 1.34 320 07:50 10.07.2021
6431 Clouds 12 1010 58 10000 1.03 320 02:18 10.07.2021
6432 Clouds 15 1007 33 10000 2.06 330 18:29 09.07.2021
6433 Clear 10 1006 53 10000 2.68 40 14:50 09.07.2021
6434 Clear 8 1005 81 10000 3.6 30 12:24 09.07.2021
6435 Clouds 7 1004 72 10000 7 322 23:53 08.07.2021
6436 Clouds 11 1002 54 10000 3.6 330 22:48 08.07.2021
6437 Clouds 11 1002 46 10000 2.57 350 19:39 08.07.2021
6438 Clouds 10 1003 40 10000 2.57 40 17:43 08.07.2021
6439 Clouds 6 1004 75 10000 2.57 360 13:32 08.07.2021
6440 Clouds 5 1004 81 10000 3.09 20 12:47 08.07.2021
6441 Clouds 5 1004 80 10000 2.68 10 11:50 08.07.2021
6442 Clouds 5 1004 81 10000 3.6 10 10:30 08.07.2021
6443 Clear 4 1005 87 10000 5.14 10 05:38 08.07.2021
6444 Clear 6 1007 70 10000 4.12 340 02:28 08.07.2021
6445 Clear 7 1007 67 10000 4.47 20 22:57 07.07.2021
6446 Clouds 7 1007 61 10000 4.63 20 22:19 07.07.2021
6447 Clouds 6 1007 65 10000 3.6 20 21:43 07.07.2021
6448 Clouds 6 1007 65 10000 3.6 20 21:24 07.07.2021
6449 Clouds 5 1008 67 10000 4.02 30 19:57 07.07.2021
6450 Clouds 6 1007 65 10000 4.12 30 19:29 07.07.2021
6451 Clouds 4 1008 75 10000 3.6 20 17:36 07.07.2021
6452 Clouds 3 1007 81 10000 2.06 340 15:45 07.07.2021
6453 Clouds 2 1008 74 10000 4.3 334 13:56 07.07.2021
6454 Clouds 2 1006 82 10000 4.38 318 08:53 07.07.2021
6455 Snow 2 1003 93 10000 5.66 310 06:47 07.07.2021
6456 Snow 3 1002 81 10000 4.12 320 05:48 07.07.2021
6457 Clouds 3 999 87 10000 5.14 310 02:48 07.07.2021
6458 Rain 6 997 93 5000 2.57 300 19:31 06.07.2021
6459 Rain 5 998 100 7678 4.02 280 18:53 06.07.2021
6460 Rain 5 997 100 10000 4.12 280 18:31 06.07.2021
6461 Rain 6 998 100 10000 2.06 230 17:29 06.07.2021
6462 Fog 6 999 100 3000 1.03 360 13:33 06.07.2021
6463 Fog 5 1001 100 200 2.57 10 09:43 06.07.2021
6464 Snow 5 1002 100 150 2.57 10 08:35 06.07.2021
6465 Snow 5 1002 100 150 2.57 10 08:35 06.07.2021
6466 Snow 5 1003 100 100 2.57 20 07:39 06.07.2021
6467 Rain 5 1007 98 8257 1.33 161 01:54 06.07.2021
6468 Rain 5 1008 100 6558 4.02 200 23:57 05.07.2021
6469 Rain 7 1009 100 10000 4.47 200 21:58 05.07.2021
6470 Rain 5 1009 96 10000 2.34 190 16:54 05.07.2021
6471 Rain 5 1008 98 1501 6.45 188 08:57 05.07.2021
6472 Snow 6 1006 93 1400 10.8 180 05:48 05.07.2021
6473 Snow 6 1007 100 2300 9.77 170 04:41 05.07.2021
6474 Snow 6 1007 100 2300 9.77 170 04:41 05.07.2021
6475 Rain 6 1010 93 10000 3.6 200 23:21 04.07.2021
6476 Rain 6 1011 93 8000 7.2 190 20:42 04.07.2021
6477 Rain 6 1012 93 10000 6.69 200 17:35 04.07.2021
6478 Drizzle 6 1013 93 1200 6.17 190 14:36 04.07.2021
6479 Clouds 6 1013 87 10000 5.14 200 10:19 04.07.2021
6480 Clouds 11 1012 66 10000 2.57 340 01:33 04.07.2021
6481 Clear 12 1013 62 10000 3.6 330 23:26 03.07.2021
6482 Clouds 12 1013 62 10000 1.54 330 18:33 03.07.2021
6483 Fog 7 1013 81 10000 0 0 12:39 03.07.2021
6484 Clouds 5 1012 86 10000 0.45 220 10:59 03.07.2021
6485 Clouds 6 1012 87 10000 1.54 170 09:27 03.07.2021
6486 Fog 4 1011 100 250 3.09 190 08:45 03.07.2021
6487 Clouds 13 1011 58 10000 4.63 300 22:21 02.07.2021
6488 Clouds 5 1012 80 10000 4.02 30 08:58 02.07.2021
6489 Clouds 5 1013 87 10000 2.57 40 07:28 02.07.2021
6490 Clear 9 1012 71 10000 2.06 320 02:19 02.07.2021
6491 Clear 10 1013 62 10000 4.12 320 22:30 01.07.2021
6492 Clear 11 1013 62 10000 4.12 300 21:35 01.07.2021
6493 Clouds 12 1013 54 10000 3.6 310 19:40 01.07.2021
6494 Clouds 12 1013 54 10000 3.6 310 19:20 01.07.2021
6495 Clouds 12 1013 54 10000 3.6 310 19:20 01.07.2021
6496 Clouds 11 1013 62 10000 4.63 300 18:47 01.07.2021
6497 Clouds 12 1013 54 10000 3.09 320 17:33 01.07.2021
6498 Clouds 11 1013 62 10000 2.06 320 16:24 01.07.2021
6499 Clouds 10 1013 62 10000 1.54 340 15:22 01.07.2021
6500 Clouds 9 1013 70 10000 2.24 10 13:57 01.07.2021
6501 Clouds 6 1013 87 10000 3.09 360 09:42 01.07.2021
6502 Clear 7 1014 76 10000 3.6 20 03:18 01.07.2021
6503 Clouds 9 1015 76 10000 4.63 340 23:18 30.06.2021
6504 Clouds 7 1016 73 10000 5.07 326 21:58 30.06.2021
6505 Clouds 10 1014 62 10000 3.6 20 21:20 30.06.2021
6506 Clouds 10 1015 57 10000 3.6 30 20:23 30.06.2021
6507 Clouds 6 1016 78 10000 1.12 32 16:50 30.06.2021
6508 Clouds 5 1015 87 10000 3.09 20 14:21 30.06.2021
6509 Clouds 4 1013 100 10000 1.03 310 10:43 30.06.2021
6510 Rain 3 1010 96 764 2.9 81 00:54 30.06.2021
6511 Rain 4 1007 93 10000 5.66 190 20:34 29.06.2021
6512 Clouds 5 1006 87 10000 7.72 200 17:48 29.06.2021
6513 Clouds 5 1006 87 10000 7.72 200 17:28 29.06.2021
6514 Clouds 4 1008 83 10000 6.11 190 15:51 29.06.2021
6515 Clouds 4 1008 83 10000 6.01 193 14:55 29.06.2021
6516 Rain 3 1006 93 10000 6.17 200 13:26 29.06.2021
6517 Clouds 3 1005 86 10000 4.48 203 08:26 29.06.2021
6518 Clouds 4 1004 80 10000 7.15 180 23:52 28.06.2021
6519 Clouds 5 1003 81 10000 8.23 190 21:32 28.06.2021
6520 Drizzle 3 1003 100 4000 8.23 190 19:21 28.06.2021
6521 Clouds 5 1003 75 10000 7.2 170 17:21 28.06.2021
6522 Drizzle 3 1002 100 300 6.17 200 14:32 28.06.2021
6523 Clouds 2 1004 100 10000 3.58 220 12:57 28.06.2021
6524 Rain 8 1000 93 1156 12.52 170 00:57 28.06.2021
6525 Rain 7 1003 97 2273 12.25 175 22:52 27.06.2021
6526 Fog 7 1003 100 800 1.03 200 19:46 27.06.2021
6527 Rain 6 1005 99 1749 3.3 75 18:56 27.06.2021
6528 Rain 5 1008 99 293 3.99 180 15:50 27.06.2021
6529 Fog 8 1008 93 10000 6.69 200 12:35 27.06.2021
6530 Rain 8 1009 93 7247 2.24 170 02:52 27.06.2021
6531 Fog 7 1012 93 10000 1.03 330 22:40 26.06.2021
6532 Clouds 7 1012 93 10000 1.34 220 20:56 26.06.2021
6533 Clouds 7 1012 93 10000 1.54 220 20:35 26.06.2021
6534 Clouds 7 1012 93 10000 5.66 190 17:46 26.06.2021
6535 Fog 6 1011 93 10000 6.17 180 14:49 26.06.2021
6536 Drizzle 5 1009 100 8000 7.2 190 12:27 26.06.2021
6537 Fog 5 1009 100 8000 7.2 190 12:27 26.06.2021
6538 Rain 7 1008 87 3400 7.72 170 07:47 26.06.2021
6539 Rain 8 1012 87 10000 7.2 180 00:19 26.06.2021
6540 Clouds 8 1014 76 10000 6.69 200 20:39 25.06.2021
6541 Clouds 10 1014 71 10000 7.72 180 19:31 25.06.2021
6542 Clouds 8 1015 81 10000 2.57 200 17:45 25.06.2021
6543 Clouds 8 1015 76 10000 2.06 220 16:49 25.06.2021
6544 Clouds 7 1016 81 10000 0.51 280 14:47 25.06.2021
6545 Clouds 5 1018 75 10000 3.58 180 10:52 25.06.2021
6546 Clouds 4 1016 86 10000 6.71 190 07:58 25.06.2021
6547 Clouds 4 1015 87 10000 6.69 190 07:19 25.06.2021
6548 Clouds 4 1011 93 10000 5.14 190 03:46 25.06.2021
6549 Rain 6 1006 100 8000 1.54 340 21:49 24.06.2021
6550 Rain 6 1006 96 6965 0.62 329 20:59 24.06.2021
6551 Drizzle 7 1005 100 8000 1.54 330 20:39 24.06.2021
6552 Rain 6 1005 100 7000 3.6 40 18:45 24.06.2021
6553 Fog 5 1007 100 3000 2.57 30 15:29 24.06.2021
6554 Rain 5 1008 100 1132 2.68 30 14:55 24.06.2021
6555 Rain 5 1008 100 3000 3.09 30 14:25 24.06.2021
6556 Rain 5 1010 100 10000 2.25 150 10:57 24.06.2021
6557 Rain 5 1011 100 350 3.09 200 09:30 24.06.2021
6558 Fog 5 1010 100 600 4.12 180 08:22 24.06.2021
6559 Clouds 6 1013 93 10000 7.03 180 02:50 24.06.2021
6560 Rain 7 1010 93 1800 13.38 170 22:36 23.06.2021
6561 Rain 7 1008 93 1800 14.4 170 21:44 23.06.2021
6562 Rain 6 1008 100 1600 15.95 170 20:38 23.06.2021
6563 Mist 7 1005 100 1500 15.95 170 18:35 23.06.2021
6564 Rain 6 1006 100 1000 12.35 180 17:32 23.06.2021
6565 Rain 6 1004 100 1200 10.8 180 15:47 23.06.2021
6566 Rain 8 1006 85 10000 12.77 170 12:58 23.06.2021
6567 Rain 8 1007 82 10000 10.56 158 11:56 23.06.2021
6568 Rain 8 1006 87 10000 2.24 190 09:55 23.06.2021
6569 Rain 8 1006 81 10000 1.54 0 08:49 23.06.2021
6570 Clouds 6 1008 91 10000 8.06 178 07:52 23.06.2021
6571 Clouds 6 1008 85 10000 5.95 177 06:58 23.06.2021
6572 Clouds 11 1007 66 10000 2.06 0 04:25 23.06.2021
6573 Clouds 11 1008 66 10000 6.17 190 00:44 23.06.2021
6574 Clear 10 1008 66 10000 5.81 200 23:56 22.06.2021
6575 Clouds 11 1008 66 10000 6.17 200 22:46 22.06.2021
6576 Clouds 11 1008 66 10000 6.17 200 22:22 22.06.2021
6577 Clouds 12 1008 62 10000 6.69 200 21:37 22.06.2021
6578 Clouds 12 1008 62 10000 8.75 200 19:43 22.06.2021
6579 Clouds 10 1008 71 10000 4.92 200 18:54 22.06.2021
6580 Clouds 11 1008 71 10000 5.14 200 18:24 22.06.2021
6581 Clouds 12 1008 66 10000 7.2 200 17:22 22.06.2021
6582 Clear 12 1007 58 10000 4.12 190 16:31 22.06.2021
6583 Clouds 11 1007 66 10000 1.54 190 14:38 22.06.2021
6584 Clouds 10 1007 71 10000 1.34 230 13:50 22.06.2021
6585 Clouds 9 1007 76 10000 1.34 240 12:53 22.06.2021
6586 Clouds 9 1007 71 10000 2.57 200 11:20 22.06.2021
6587 Clouds 9 1007 70 10000 2.42 167 09:57 22.06.2021
6588 Clouds 11 1006 54 10000 0 0 06:46 22.06.2021
6589 Clouds 14 1007 47 10000 5.14 50 00:45 22.06.2021
6590 Clouds 15 1007 44 10000 5.14 40 23:23 21.06.2021
6591 Clouds 14 1007 51 10000 4.63 40 22:21 21.06.2021
6592 Clouds 14 1007 54 10000 5.14 50 21:18 21.06.2021
6593 Clouds 14 1008 51 10000 5.14 60 20:31 21.06.2021
6594 Clouds 12 1008 62 10000 4.47 50 19:53 21.06.2021
6595 Clouds 10 1008 66 10000 4.02 30 18:34 21.06.2021
6596 Clouds 11 1009 71 10000 4.63 40 17:24 21.06.2021
6597 Clouds 9 1009 81 10000 4.63 40 16:40 21.06.2021
6598 Clouds 9 1009 81 10000 4.63 40 16:20 21.06.2021
6599 Clouds 8 1009 81 10000 5.14 50 15:43 21.06.2021
6600 Clear 7 1010 87 10000 3.58 30 13:59 21.06.2021
6601 Clear 7 1010 87 10000 3.6 30 13:33 21.06.2021
6602 Clear 7 1010 87 10000 3.6 30 12:36 21.06.2021
6603 Clear 5 1010 93 10000 5.14 40 11:48 21.06.2021
6604 Clouds 5 1009 93 10000 5.14 30 10:30 21.06.2021
6605 Clear 5 1009 93 10000 5.14 50 09:26 21.06.2021
6606 Clouds 4 1010 93 10000 4.63 30 08:20 21.06.2021
6607 Clouds 4 1010 93 10000 4.63 40 06:47 21.06.2021
6608 Clouds 7 1010 87 10000 3.09 10 00:29 21.06.2021
6609 Clouds 6 1010 100 10000 2.06 360 23:35 20.06.2021
6610 Clouds 5 1012 100 10000 0.89 270 22:58 20.06.2021
6611 Clouds 5 1011 100 10000 1.34 160 21:57 20.06.2021
6612 Mist 5 1011 100 1300 1.54 160 21:26 20.06.2021
6613 Rain 5 1010 100 250 3.6 200 19:41 20.06.2021
6614 Rain 5 1010 100 250 3.6 200 19:22 20.06.2021
6615 Clouds 5 1011 97 10000 0.32 7 17:50 20.06.2021
6616 Rain 5 1012 97 10000 0.74 199 16:51 20.06.2021
6617 Rain 5 1011 100 2196 4.47 190 15:50 20.06.2021
6618 Fog 5 1010 100 450 4.63 190 15:31 20.06.2021
6619 Snow 5 1010 93 600 5.14 190 14:46 20.06.2021
6620 Fog 4 1010 100 400 5.14 190 13:40 20.06.2021
6621 Rain 4 1011 100 2193 4.47 200 12:56 20.06.2021
6622 Mist 4 1009 100 1100 6.69 190 11:46 20.06.2021
6623 Mist 4 1009 100 4600 8.23 180 10:35 20.06.2021
6624 Snow 5 1009 93 4700 8.75 180 09:45 20.06.2021
6625 Rain 5 1009 93 3000 9.77 170 07:34 20.06.2021
6626 Rain 7 1008 81 7000 8.75 180 23:43 19.06.2021
6627 Rain 7 1008 81 10000 7.6 180 22:59 19.06.2021
6628 Rain 5 1008 93 10000 4.92 190 21:53 19.06.2021
6629 Rain 5 1008 93 10000 5.14 190 21:27 19.06.2021
6630 Rain 5 1009 100 10000 2.24 210 18:55 19.06.2021
6631 Rain 5 1009 100 10000 2.24 210 18:55 19.06.2021
6632 Rain 5 1009 100 10000 2.57 210 18:22 19.06.2021
6633 Rain 6 1009 93 10000 2.06 190 17:27 19.06.2021
6634 Rain 6 1009 93 10000 3.09 170 16:49 19.06.2021
6635 Rain 6 1009 87 10000 1.03 40 15:40 19.06.2021
6636 Rain 5 1009 93 10000 2.57 30 13:23 19.06.2021
6637 Rain 5 1011 88 10000 3.24 106 11:59 19.06.2021
6638 Rain 4 1011 87 10000 1.54 80 10:49 19.06.2021
6639 Rain 4 1011 87 10000 1.54 80 10:49 19.06.2021
6640 Rain 4 1011 87 10000 1.54 80 10:49 19.06.2021
6641 Rain 4 1011 87 10000 1.54 80 10:27 19.06.2021
6642 Rain 4 1011 92 10000 1.16 158 09:59 19.06.2021
6643 Clouds 4 1010 87 7000 5.14 180 08:25 19.06.2021
6644 Clouds 5 1011 85 10000 1.49 138 06:55 19.06.2021
6645 Clouds 5 1010 87 10000 5.14 190 04:23 19.06.2021
6646 Clouds 6 1010 75 10000 5.66 190 00:23 19.06.2021
6647 Clouds 6 1009 70 10000 6.17 190 23:40 18.06.2021
6648 Clouds 7 1011 65 10000 4.02 200 22:55 18.06.2021
6649 Clouds 7 1010 65 10000 4.12 200 22:35 18.06.2021
6650 Clouds 8 1011 70 10000 5.81 200 21:50 18.06.2021
6651 Clouds 8 1010 57 10000 6.17 200 21:26 18.06.2021
6652 Clouds 8 1010 57 10000 4.63 200 20:24 18.06.2021
6653 Clouds 9 1010 61 10000 4.12 200 18:46 18.06.2021
6654 Clouds 6 1011 74 10000 1.67 161 17:55 18.06.2021
6655 Clouds 8 1010 71 10000 3.09 20 16:39 18.06.2021
6656 Clouds 6 1010 81 10000 3.6 40 15:48 18.06.2021
6657 Clouds 5 1011 86 10000 2.68 50 14:50 18.06.2021
6658 Clouds 5 1012 80 10000 1.79 10 13:54 18.06.2021
6659 Clouds 4 1012 86 10000 1.34 10 12:58 18.06.2021
6660 Clouds 4 1011 87 10000 1.54 10 12:35 18.06.2021
6661 Clouds 4 1012 87 10000 2.57 20 11:46 18.06.2021
6662 Clouds 4 1013 87 10000 2.47 79 10:59 18.06.2021
6663 Clouds 3 1012 93 10000 2.06 200 10:27 18.06.2021
6664 Clouds 4 1013 90 10000 2 137 09:59 18.06.2021
6665 Clouds 3 1012 93 10000 3.09 200 09:21 18.06.2021
6666 Clouds 3 1012 93 10000 5.14 200 08:34 18.06.2021
6667 Clouds 3 1012 93 10000 6.69 200 07:38 18.06.2021
6668 Clouds 3 1012 87 10000 6.69 200 05:49 18.06.2021
6669 Clouds 5 1012 81 10000 4.12 220 00:36 18.06.2021
6670 Clouds 5 1012 81 10000 3.6 220 23:31 17.06.2021
6671 Clouds 6 1011 75 10000 3.6 190 22:28 17.06.2021
6672 Clouds 5 1011 75 10000 2.68 200 21:59 17.06.2021
6673 Clouds 6 1011 75